<?xml version='1.0' encoding='UTF-8'?><gpx version="1.1" creator="JPX - https://github.com/jenetics/jpx" xmlns="http://www.topografix.com/GPX/1/1"><trk><trkseg><trkpt lat="43.383672" lon="11.239206"><ele>240.0</ele><time>2026-03-29T11:51:36.105Z</time></trkpt><trkpt lat="43.3836229" lon="11.2392686"><ele>240.0</ele><time>2026-03-29T11:51:37.113Z</time></trkpt><trkpt lat="43.383566" lon="11.2393289"><ele>240.0</ele><time>2026-03-29T11:51:38.095Z</time></trkpt><trkpt lat="43.3834969" lon="11.2393936"><ele>240.0</ele><time>2026-03-29T11:51:39.093Z</time></trkpt><trkpt lat="43.3834161" lon="11.239467"><ele>240.0</ele><time>2026-03-29T11:51:40.097Z</time></trkpt><trkpt lat="43.3833235" lon="11.2395567"><ele>240.0</ele><time>2026-03-29T11:51:41.122Z</time></trkpt><trkpt lat="43.3832209" lon="11.2396611"><ele>240.0</ele><time>2026-03-29T11:51:42.101Z</time></trkpt><trkpt lat="43.3831164" lon="11.2397734"><ele>240.0</ele><time>2026-03-29T11:51:43.133Z</time></trkpt><trkpt lat="43.3830065" lon="11.2399106"><ele>240.0</ele><time>2026-03-29T11:51:44.133Z</time></trkpt><trkpt lat="43.3829138" lon="11.2400672"><ele>240.0</ele><time>2026-03-29T11:51:45.134Z</time></trkpt><trkpt lat="43.3828459" lon="11.2402427"><ele>240.75</ele><time>2026-03-29T11:51:46.095Z</time></trkpt><trkpt lat="43.3827911" lon="11.2404277"><ele>241.5</ele><time>2026-03-29T11:51:47.101Z</time></trkpt><trkpt lat="43.3827447" lon="11.240603"><ele>242.25</ele><time>2026-03-29T11:51:48.099Z</time></trkpt><trkpt lat="43.3827061" lon="11.2407656"><ele>243.0</ele><time>2026-03-29T11:51:49.096Z</time></trkpt><trkpt lat="43.3826612" lon="11.2409195"><ele>243.0</ele><time>2026-03-29T11:51:50.127Z</time></trkpt><trkpt lat="43.3826151" lon="11.2410813"><ele>243.0</ele><time>2026-03-29T11:51:51.101Z</time></trkpt><trkpt lat="43.3825598" lon="11.2412435"><ele>243.0</ele><time>2026-03-29T11:51:52.096Z</time></trkpt><trkpt lat="43.3825028" lon="11.241409"><ele>243.0</ele><time>2026-03-29T11:51:53.108Z</time></trkpt><trkpt lat="43.3824446" lon="11.2415802"><ele>241.5</ele><time>2026-03-29T11:51:54.095Z</time></trkpt><trkpt lat="43.3823864" lon="11.2417596"><ele>240.0</ele><time>2026-03-29T11:51:55.112Z</time></trkpt><trkpt lat="43.3823239" lon="11.2419414"><ele>238.5</ele><time>2026-03-29T11:51:56.088Z</time></trkpt><trkpt lat="43.3822675" lon="11.2421179"><ele>237.0</ele><time>2026-03-29T11:51:57.096Z</time></trkpt><trkpt lat="43.3822119" lon="11.2422919"><ele>236.0</ele><time>2026-03-29T11:51:58.09Z</time></trkpt><trkpt lat="43.3821567" lon="11.2424528"><ele>235.0</ele><time>2026-03-29T11:51:59.094Z</time></trkpt><trkpt lat="43.3821014" lon="11.2426072"><ele>234.0</ele><time>2026-03-29T11:52:00.09Z</time></trkpt><trkpt lat="43.3820538" lon="11.242759"><ele>233.0</ele><time>2026-03-29T11:52:01.12Z</time></trkpt><trkpt lat="43.3820184" lon="11.2428989"><ele>233.00000000000003</ele><time>2026-03-29T11:52:02.101Z</time></trkpt><trkpt lat="43.3819965" lon="11.2430164"><ele>233.0</ele><time>2026-03-29T11:52:03.098Z</time></trkpt><trkpt lat="43.381982" lon="11.2431206"><ele>233.0</ele><time>2026-03-29T11:52:04.112Z</time></trkpt><trkpt lat="43.3819817" lon="11.2432155"><ele>233.0</ele><time>2026-03-29T11:52:05.141Z</time></trkpt><trkpt lat="43.3819945" lon="11.2433316"><ele>233.00000000000003</ele><time>2026-03-29T11:52:07.096Z</time></trkpt><trkpt lat="43.3820294" lon="11.2434137"><ele>233.0</ele><time>2026-03-29T11:52:19.089Z</time></trkpt><trkpt lat="43.3820194" lon="11.2435634"><ele>238.0</ele><time>2026-03-29T11:52:21.098Z</time></trkpt><trkpt lat="43.3820141" lon="11.2437108"><ele>238.0</ele><time>2026-03-29T11:52:23.13Z</time></trkpt><trkpt lat="43.3820168" lon="11.2438345"><ele>238.0</ele><time>2026-03-29T11:52:25.11Z</time></trkpt><trkpt lat="43.3820165" lon="11.2439256"><ele>238.0</ele><time>2026-03-29T11:52:27.139Z</time></trkpt><trkpt lat="43.3820142" lon="11.2440303"><ele>243.0</ele><time>2026-03-29T11:52:31.101Z</time></trkpt></trkseg><trkseg><trkpt lat="43.3818796" lon="11.2441251"><ele>243.0</ele><time>2026-03-29T12:39:48.569Z</time></trkpt><trkpt lat="43.3819276" lon="11.2441884"><ele>243.0</ele><time>2026-03-29T12:39:52.57Z</time></trkpt><trkpt lat="43.3819626" lon="11.2440681"><ele>243.0</ele><time>2026-03-29T12:39:55.554Z</time></trkpt><trkpt lat="43.3819531" lon="11.2439009"><ele>243.0</ele><time>2026-03-29T12:39:57.555Z</time></trkpt><trkpt lat="43.3819336" lon="11.243736"><ele>243.0</ele><time>2026-03-29T12:39:59.582Z</time></trkpt><trkpt lat="43.3819272" lon="11.243598"><ele>242.33333333333334</ele><time>2026-03-29T12:40:01.556Z</time></trkpt><trkpt lat="43.3819268" lon="11.2434817"><ele>241.66666666666669</ele><time>2026-03-29T12:40:03.569Z</time></trkpt><trkpt lat="43.3819665" lon="11.2433984"><ele>241.0</ele><time>2026-03-29T12:40:06.585Z</time></trkpt><trkpt lat="43.3820254" lon="11.2434424"><ele>240.33333333333334</ele><time>2026-03-29T12:40:08.564Z</time></trkpt><trkpt lat="43.3821107" lon="11.2435862"><ele>239.66666666666669</ele><time>2026-03-29T12:40:10.556Z</time></trkpt><trkpt lat="43.3821604" lon="11.2436792"><ele>239.0</ele><time>2026-03-29T12:40:11.554Z</time></trkpt><trkpt lat="43.3822131" lon="11.2437707"><ele>239.00000000000003</ele><time>2026-03-29T12:40:12.558Z</time></trkpt><trkpt lat="43.3822608" lon="11.2438578"><ele>239.0</ele><time>2026-03-29T12:40:13.561Z</time></trkpt><trkpt lat="43.3823049" lon="11.2439412"><ele>239.0</ele><time>2026-03-29T12:40:14.559Z</time></trkpt><trkpt lat="43.3823352" lon="11.24402"><ele>239.0</ele><time>2026-03-29T12:40:15.566Z</time></trkpt><trkpt lat="43.3823664" lon="11.2441129"><ele>239.00000000000003</ele><time>2026-03-29T12:40:17.564Z</time></trkpt><trkpt lat="43.3824668" lon="11.2441344"><ele>239.0</ele><time>2026-03-29T12:40:21.587Z</time></trkpt><trkpt lat="43.3825775" lon="11.2442379"><ele>239.0</ele><time>2026-03-29T12:40:23.563Z</time></trkpt><trkpt lat="43.3826318" lon="11.2443115"><ele>238.99999999999997</ele><time>2026-03-29T12:40:24.558Z</time></trkpt><trkpt lat="43.3826868" lon="11.2443925"><ele>238.99999999999997</ele><time>2026-03-29T12:40:25.564Z</time></trkpt><trkpt lat="43.3827462" lon="11.2444878"><ele>239.0</ele><time>2026-03-29T12:40:26.564Z</time></trkpt><trkpt lat="43.3828015" lon="11.2446099"><ele>239.0</ele><time>2026-03-29T12:40:27.556Z</time></trkpt><trkpt lat="43.382847" lon="11.2447504"><ele>238.2</ele><time>2026-03-29T12:40:28.561Z</time></trkpt><trkpt lat="43.3828851" lon="11.244893"><ele>237.39999999999998</ele><time>2026-03-29T12:40:29.561Z</time></trkpt><trkpt lat="43.3829189" lon="11.2450271"><ele>236.6</ele><time>2026-03-29T12:40:30.557Z</time></trkpt><trkpt lat="43.3829528" lon="11.2451548"><ele>235.8</ele><time>2026-03-29T12:40:31.561Z</time></trkpt><trkpt lat="43.3829878" lon="11.2452815"><ele>235.0</ele><time>2026-03-29T12:40:32.582Z</time></trkpt><trkpt lat="43.3830224" lon="11.2454129"><ele>234.2</ele><time>2026-03-29T12:40:33.558Z</time></trkpt><trkpt lat="43.3830597" lon="11.2455485"><ele>233.4</ele><time>2026-03-29T12:40:34.562Z</time></trkpt><trkpt lat="43.3830942" lon="11.2456776"><ele>232.60000000000002</ele><time>2026-03-29T12:40:35.561Z</time></trkpt><trkpt lat="43.383129" lon="11.2458015"><ele>231.8</ele><time>2026-03-29T12:40:36.553Z</time></trkpt><trkpt lat="43.383159" lon="11.2459148"><ele>231.0</ele><time>2026-03-29T12:40:37.558Z</time></trkpt><trkpt lat="43.3831837" lon="11.2460106"><ele>230.20000000000002</ele><time>2026-03-29T12:40:38.552Z</time></trkpt><trkpt lat="43.3832361" lon="11.2461505"><ele>229.40000000000003</ele><time>2026-03-29T12:40:40.554Z</time></trkpt><trkpt lat="43.3833401" lon="11.2462277"><ele>228.6</ele><time>2026-03-29T12:40:42.553Z</time></trkpt><trkpt lat="43.3834194" lon="11.2462644"><ele>227.8</ele><time>2026-03-29T12:40:43.559Z</time></trkpt><trkpt lat="43.3835194" lon="11.2462932"><ele>227.0</ele><time>2026-03-29T12:40:44.558Z</time></trkpt><trkpt lat="43.3836302" lon="11.2463201"><ele>227.0</ele><time>2026-03-29T12:40:45.554Z</time></trkpt><trkpt lat="43.3837473" lon="11.2463531"><ele>227.0</ele><time>2026-03-29T12:40:46.559Z</time></trkpt><trkpt lat="43.383868" lon="11.2463887"><ele>227.0</ele><time>2026-03-29T12:40:47.555Z</time></trkpt><trkpt lat="43.3839887" lon="11.2464262"><ele>227.0</ele><time>2026-03-29T12:40:48.557Z</time></trkpt><trkpt lat="43.3841096" lon="11.2464705"><ele>226.0</ele><time>2026-03-29T12:40:49.586Z</time></trkpt><trkpt lat="43.384232" lon="11.2465148"><ele>225.0</ele><time>2026-03-29T12:40:50.552Z</time></trkpt><trkpt lat="43.3843582" lon="11.24656"><ele>224.0</ele><time>2026-03-29T12:40:51.583Z</time></trkpt><trkpt lat="43.3844814" lon="11.2466108"><ele>223.0</ele><time>2026-03-29T12:40:52.561Z</time></trkpt><trkpt lat="43.3846021" lon="11.2466625"><ele>223.25</ele><time>2026-03-29T12:40:53.554Z</time></trkpt><trkpt lat="43.3847202" lon="11.2467125"><ele>223.5</ele><time>2026-03-29T12:40:54.56Z</time></trkpt><trkpt lat="43.3848408" lon="11.2467537"><ele>223.75</ele><time>2026-03-29T12:40:55.555Z</time></trkpt><trkpt lat="43.3849656" lon="11.2467795"><ele>224.0</ele><time>2026-03-29T12:40:56.586Z</time></trkpt><trkpt lat="43.385093" lon="11.2467981"><ele>224.0</ele><time>2026-03-29T12:40:57.559Z</time></trkpt><trkpt lat="43.3852186" lon="11.2468095"><ele>224.0</ele><time>2026-03-29T12:40:58.552Z</time></trkpt><trkpt lat="43.3853367" lon="11.2468255"><ele>224.0</ele><time>2026-03-29T12:40:59.581Z</time></trkpt><trkpt lat="43.3854444" lon="11.2468497"><ele>224.0</ele><time>2026-03-29T12:41:00.559Z</time></trkpt><trkpt lat="43.3855436" lon="11.2468849"><ele>224.79999999999998</ele><time>2026-03-29T12:41:01.564Z</time></trkpt><trkpt lat="43.3856381" lon="11.2469372"><ele>225.59999999999997</ele><time>2026-03-29T12:41:02.586Z</time></trkpt><trkpt lat="43.3857345" lon="11.2470047"><ele>226.4</ele><time>2026-03-29T12:41:03.558Z</time></trkpt><trkpt lat="43.3858306" lon="11.2470873"><ele>227.2</ele><time>2026-03-29T12:41:04.554Z</time></trkpt><trkpt lat="43.385927" lon="11.2471752"><ele>228.0</ele><time>2026-03-29T12:41:05.585Z</time></trkpt><trkpt lat="43.3860218" lon="11.2472541"><ele>225.8</ele><time>2026-03-29T12:41:06.557Z</time></trkpt><trkpt lat="43.3861116" lon="11.247319"><ele>223.60000000000002</ele><time>2026-03-29T12:41:07.559Z</time></trkpt><trkpt lat="43.3861937" lon="11.2473697"><ele>221.39999999999998</ele><time>2026-03-29T12:41:08.557Z</time></trkpt><trkpt lat="43.386275" lon="11.2474088"><ele>219.2</ele><time>2026-03-29T12:41:09.557Z</time></trkpt><trkpt lat="43.3863572" lon="11.2474347"><ele>217.0</ele><time>2026-03-29T12:41:10.559Z</time></trkpt><trkpt lat="43.3864465" lon="11.2474397"><ele>217.0</ele><time>2026-03-29T12:41:11.588Z</time></trkpt><trkpt lat="43.3865429" lon="11.2474266"><ele>217.0</ele><time>2026-03-29T12:41:12.588Z</time></trkpt><trkpt lat="43.3866474" lon="11.2473995"><ele>217.0</ele><time>2026-03-29T12:41:13.557Z</time></trkpt><trkpt lat="43.386761" lon="11.2473631"><ele>217.0</ele><time>2026-03-29T12:41:14.554Z</time></trkpt><trkpt lat="43.3868784" lon="11.2473252"><ele>217.0</ele><time>2026-03-29T12:41:15.55Z</time></trkpt><trkpt lat="43.3869936" lon="11.2472997"><ele>216.25</ele><time>2026-03-29T12:41:16.566Z</time></trkpt><trkpt lat="43.3871097" lon="11.247293"><ele>215.5</ele><time>2026-03-29T12:41:17.552Z</time></trkpt><trkpt lat="43.3872296" lon="11.2473058"><ele>214.75</ele><time>2026-03-29T12:41:18.561Z</time></trkpt><trkpt lat="43.3873514" lon="11.2473379"><ele>214.0</ele><time>2026-03-29T12:41:19.556Z</time></trkpt><trkpt lat="43.3874681" lon="11.2473733"><ele>214.0</ele><time>2026-03-29T12:41:20.566Z</time></trkpt><trkpt lat="43.3875775" lon="11.2474023"><ele>213.99999999999997</ele><time>2026-03-29T12:41:21.557Z</time></trkpt><trkpt lat="43.3876815" lon="11.2474181"><ele>213.99999999999997</ele><time>2026-03-29T12:41:22.587Z</time></trkpt><trkpt lat="43.3877835" lon="11.247418"><ele>214.0</ele><time>2026-03-29T12:41:23.587Z</time></trkpt><trkpt lat="43.3878882" lon="11.2474083"><ele>214.0</ele><time>2026-03-29T12:41:24.556Z</time></trkpt><trkpt lat="43.3879978" lon="11.2473854"><ele>213.25</ele><time>2026-03-29T12:41:25.582Z</time></trkpt><trkpt lat="43.3881116" lon="11.2473425"><ele>212.5</ele><time>2026-03-29T12:41:26.561Z</time></trkpt><trkpt lat="43.3882282" lon="11.2472837"><ele>211.75</ele><time>2026-03-29T12:41:27.555Z</time></trkpt><trkpt lat="43.3883406" lon="11.2472142"><ele>211.0</ele><time>2026-03-29T12:41:28.553Z</time></trkpt><trkpt lat="43.3884516" lon="11.2471361"><ele>210.75</ele><time>2026-03-29T12:41:29.557Z</time></trkpt><trkpt lat="43.3885604" lon="11.2470587"><ele>210.5</ele><time>2026-03-29T12:41:30.553Z</time></trkpt><trkpt lat="43.3886678" lon="11.2469908"><ele>210.25</ele><time>2026-03-29T12:41:31.558Z</time></trkpt><trkpt lat="43.38878" lon="11.2469377"><ele>210.0</ele><time>2026-03-29T12:41:32.549Z</time></trkpt><trkpt lat="43.3888912" lon="11.2468993"><ele>210.0</ele><time>2026-03-29T12:41:33.585Z</time></trkpt><trkpt lat="43.3889966" lon="11.2468684"><ele>210.0</ele><time>2026-03-29T12:41:34.555Z</time></trkpt><trkpt lat="43.3890994" lon="11.2468385"><ele>210.0</ele><time>2026-03-29T12:41:35.557Z</time></trkpt><trkpt lat="43.3891981" lon="11.2468051"><ele>210.0</ele><time>2026-03-29T12:41:36.557Z</time></trkpt><trkpt lat="43.3892961" lon="11.24676"><ele>210.0</ele><time>2026-03-29T12:41:37.587Z</time></trkpt><trkpt lat="43.3894053" lon="11.2467017"><ele>210.0</ele><time>2026-03-29T12:41:38.556Z</time></trkpt><trkpt lat="43.3895204" lon="11.2466314"><ele>210.0</ele><time>2026-03-29T12:41:39.557Z</time></trkpt><trkpt lat="43.3896349" lon="11.2465537"><ele>210.0</ele><time>2026-03-29T12:41:40.557Z</time></trkpt><trkpt lat="43.3897524" lon="11.2464774"><ele>210.0</ele><time>2026-03-29T12:41:41.592Z</time></trkpt><trkpt lat="43.3898677" lon="11.2464073"><ele>210.2</ele><time>2026-03-29T12:41:42.553Z</time></trkpt><trkpt lat="43.3899777" lon="11.2463417"><ele>210.4</ele><time>2026-03-29T12:41:43.557Z</time></trkpt><trkpt lat="43.3900783" lon="11.2462815"><ele>210.60000000000002</ele><time>2026-03-29T12:41:44.558Z</time></trkpt><trkpt lat="43.3901717" lon="11.2462224"><ele>210.8</ele><time>2026-03-29T12:41:45.56Z</time></trkpt><trkpt lat="43.3902589" lon="11.2461701"><ele>211.0</ele><time>2026-03-29T12:41:46.582Z</time></trkpt><trkpt lat="43.3903422" lon="11.2461157"><ele>210.99999999999997</ele><time>2026-03-29T12:41:47.554Z</time></trkpt><trkpt lat="43.3904236" lon="11.2460661"><ele>211.0</ele><time>2026-03-29T12:41:48.556Z</time></trkpt><trkpt lat="43.3904976" lon="11.2460259"><ele>211.0</ele><time>2026-03-29T12:41:49.553Z</time></trkpt><trkpt lat="43.3905587" lon="11.2459954"><ele>211.0</ele><time>2026-03-29T12:41:50.555Z</time></trkpt><trkpt lat="43.39065" lon="11.2459689"><ele>210.99999999999997</ele><time>2026-03-29T12:41:52.558Z</time></trkpt><trkpt lat="43.3907213" lon="11.2459932"><ele>211.0</ele><time>2026-03-29T12:41:54.554Z</time></trkpt><trkpt lat="43.3907819" lon="11.2460202"><ele>210.66666666666666</ele><time>2026-03-29T12:41:57.56Z</time></trkpt><trkpt lat="43.3908208" lon="11.2459435"><ele>210.33333333333331</ele><time>2026-03-29T12:41:59.562Z</time></trkpt><trkpt lat="43.3908945" lon="11.2458495"><ele>210.0</ele><time>2026-03-29T12:42:01.558Z</time></trkpt><trkpt lat="43.3909551" lon="11.2458164"><ele>209.66666666666669</ele><time>2026-03-29T12:42:02.559Z</time></trkpt><trkpt lat="43.3910338" lon="11.245779"><ele>209.33333333333334</ele><time>2026-03-29T12:42:03.559Z</time></trkpt><trkpt lat="43.391124" lon="11.2457419"><ele>209.0</ele><time>2026-03-29T12:42:04.551Z</time></trkpt><trkpt lat="43.3912131" lon="11.2456998"><ele>209.0</ele><time>2026-03-29T12:42:05.559Z</time></trkpt><trkpt lat="43.3913048" lon="11.245645"><ele>209.0</ele><time>2026-03-29T12:42:06.585Z</time></trkpt><trkpt lat="43.3913992" lon="11.245577"><ele>209.0</ele><time>2026-03-29T12:42:07.557Z</time></trkpt><trkpt lat="43.3914974" lon="11.2454939"><ele>209.0</ele><time>2026-03-29T12:42:08.555Z</time></trkpt><trkpt lat="43.3915943" lon="11.2454125"><ele>209.0</ele><time>2026-03-29T12:42:09.588Z</time></trkpt><trkpt lat="43.3916933" lon="11.2453413"><ele>209.39999999999998</ele><time>2026-03-29T12:42:10.557Z</time></trkpt><trkpt lat="43.3917944" lon="11.2452783"><ele>209.8</ele><time>2026-03-29T12:42:11.589Z</time></trkpt><trkpt lat="43.3918979" lon="11.2452118"><ele>210.2</ele><time>2026-03-29T12:42:12.558Z</time></trkpt><trkpt lat="43.3920005" lon="11.2451464"><ele>210.60000000000002</ele><time>2026-03-29T12:42:13.554Z</time></trkpt><trkpt lat="43.3921038" lon="11.2450979"><ele>211.0</ele><time>2026-03-29T12:42:14.561Z</time></trkpt><trkpt lat="43.3921829" lon="11.2450452"><ele>212.99999999999997</ele><time>2026-03-29T12:42:15.557Z</time></trkpt><trkpt lat="43.3922575" lon="11.2449897"><ele>215.0</ele><time>2026-03-29T12:42:16.585Z</time></trkpt><trkpt lat="43.392324" lon="11.2449377"><ele>217.0</ele><time>2026-03-29T12:42:17.562Z</time></trkpt><trkpt lat="43.3923806" lon="11.244892"><ele>219.0</ele><time>2026-03-29T12:42:18.559Z</time></trkpt><trkpt lat="43.3924623" lon="11.2448547"><ele>220.99999999999997</ele><time>2026-03-29T12:42:20.56Z</time></trkpt><trkpt lat="43.392525" lon="11.2449032"><ele>223.0</ele><time>2026-03-29T12:42:22.555Z</time></trkpt><trkpt lat="43.3925505" lon="11.2449875"><ele>223.0</ele><time>2026-03-29T12:42:24.556Z</time></trkpt><trkpt lat="43.3925402" lon="11.2450901"><ele>223.0</ele><time>2026-03-29T12:42:26.553Z</time></trkpt><trkpt lat="43.3925039" lon="11.24517"><ele>223.0</ele><time>2026-03-29T12:42:28.556Z</time></trkpt><trkpt lat="43.3924599" lon="11.2452431"><ele>223.0</ele><time>2026-03-29T12:42:30.588Z</time></trkpt><trkpt lat="43.3924172" lon="11.2453257"><ele>223.0</ele><time>2026-03-29T12:42:32.555Z</time></trkpt><trkpt lat="43.3923672" lon="11.2454168"><ele>223.0</ele><time>2026-03-29T12:42:34.589Z</time></trkpt><trkpt lat="43.3923195" lon="11.2454971"><ele>223.0</ele><time>2026-03-29T12:42:36.553Z</time></trkpt><trkpt lat="43.3922674" lon="11.2455996"><ele>222.16666666666666</ele><time>2026-03-29T12:42:38.583Z</time></trkpt><trkpt lat="43.3922134" lon="11.2457135"><ele>221.33333333333331</ele><time>2026-03-29T12:42:40.557Z</time></trkpt><trkpt lat="43.392165" lon="11.2458138"><ele>220.5</ele><time>2026-03-29T12:42:42.587Z</time></trkpt><trkpt lat="43.3921268" lon="11.2458892"><ele>219.66666666666669</ele><time>2026-03-29T12:42:44.554Z</time></trkpt><trkpt lat="43.3920852" lon="11.24596"><ele>218.83333333333334</ele><time>2026-03-29T12:42:46.584Z</time></trkpt><trkpt lat="43.3920831" lon="11.2460614"><ele>218.0</ele><time>2026-03-29T12:42:49.588Z</time></trkpt><trkpt lat="43.3921769" lon="11.2460807"><ele>221.00000000000003</ele><time>2026-03-29T12:42:52.558Z</time></trkpt><trkpt lat="43.3922368" lon="11.2460166"><ele>224.0</ele><time>2026-03-29T12:42:54.552Z</time></trkpt><trkpt lat="43.3922841" lon="11.2459482"><ele>227.0</ele><time>2026-03-29T12:42:56.555Z</time></trkpt><trkpt lat="43.392339" lon="11.2458676"><ele>230.0</ele><time>2026-03-29T12:42:58.563Z</time></trkpt><trkpt lat="43.3924052" lon="11.2457836"><ele>233.00000000000003</ele><time>2026-03-29T12:43:00.557Z</time></trkpt><trkpt lat="43.3924631" lon="11.2456949"><ele>236.0</ele><time>2026-03-29T12:43:02.562Z</time></trkpt><trkpt lat="43.3925192" lon="11.2456353"><ele>236.00000000000003</ele><time>2026-03-29T12:43:04.601Z</time></trkpt><trkpt lat="43.3925784" lon="11.2455682"><ele>236.0</ele><time>2026-03-29T12:43:06.563Z</time></trkpt><trkpt lat="43.3926401" lon="11.2454844"><ele>236.0</ele><time>2026-03-29T12:43:09.561Z</time></trkpt><trkpt lat="43.3927098" lon="11.2454285"><ele>236.0</ele><time>2026-03-29T12:43:12.558Z</time></trkpt><trkpt lat="43.3927855" lon="11.2454717"><ele>236.00000000000003</ele><time>2026-03-29T12:43:15.559Z</time></trkpt><trkpt lat="43.3928142" lon="11.2455527"><ele>236.0</ele><time>2026-03-29T12:43:17.589Z</time></trkpt><trkpt lat="43.3927936" lon="11.2456825"><ele>236.0</ele><time>2026-03-29T12:43:19.558Z</time></trkpt><trkpt lat="43.3927501" lon="11.2458241"><ele>236.00000000000003</ele><time>2026-03-29T12:43:21.555Z</time></trkpt><trkpt lat="43.3927089" lon="11.2459532"><ele>236.00000000000003</ele><time>2026-03-29T12:43:23.591Z</time></trkpt><trkpt lat="43.3926693" lon="11.2460841"><ele>236.0</ele><time>2026-03-29T12:43:25.55Z</time></trkpt><trkpt lat="43.3926349" lon="11.2462041"><ele>236.0</ele><time>2026-03-29T12:43:27.559Z</time></trkpt><trkpt lat="43.3926132" lon="11.2462981"><ele>236.00000000000003</ele><time>2026-03-29T12:43:29.556Z</time></trkpt><trkpt lat="43.3926152" lon="11.2464138"><ele>236.0</ele><time>2026-03-29T12:43:32.558Z</time></trkpt><trkpt lat="43.392681" lon="11.2465047"><ele>236.0</ele><time>2026-03-29T12:43:35.556Z</time></trkpt><trkpt lat="43.3927505" lon="11.2465418"><ele>236.0</ele><time>2026-03-29T12:43:37.562Z</time></trkpt><trkpt lat="43.3928321" lon="11.2465748"><ele>236.00000000000003</ele><time>2026-03-29T12:43:39.555Z</time></trkpt><trkpt lat="43.39292" lon="11.2465975"><ele>236.0</ele><time>2026-03-29T12:43:41.555Z</time></trkpt><trkpt lat="43.3930286" lon="11.2466149"><ele>238.20000000000002</ele><time>2026-03-29T12:43:43.557Z</time></trkpt><trkpt lat="43.3931048" lon="11.2466342"><ele>240.40000000000003</ele><time>2026-03-29T12:43:44.556Z</time></trkpt><trkpt lat="43.3931965" lon="11.246661"><ele>242.6</ele><time>2026-03-29T12:43:45.585Z</time></trkpt><trkpt lat="43.3932956" lon="11.246687"><ele>244.8</ele><time>2026-03-29T12:43:46.559Z</time></trkpt><trkpt lat="43.393396" lon="11.2467027"><ele>247.0</ele><time>2026-03-29T12:43:47.558Z</time></trkpt><trkpt lat="43.3934999" lon="11.2467194"><ele>247.0</ele><time>2026-03-29T12:43:48.559Z</time></trkpt><trkpt lat="43.3936084" lon="11.2467452"><ele>247.0</ele><time>2026-03-29T12:43:49.565Z</time></trkpt><trkpt lat="43.393717" lon="11.246782"><ele>247.0</ele><time>2026-03-29T12:43:50.575Z</time></trkpt><trkpt lat="43.3938243" lon="11.246824"><ele>247.0</ele><time>2026-03-29T12:43:51.556Z</time></trkpt><trkpt lat="43.3939324" lon="11.2468678"><ele>247.0</ele><time>2026-03-29T12:43:52.585Z</time></trkpt><trkpt lat="43.3940405" lon="11.2469129"><ele>249.5</ele><time>2026-03-29T12:43:53.558Z</time></trkpt><trkpt lat="43.3941523" lon="11.2469574"><ele>252.0</ele><time>2026-03-29T12:43:54.555Z</time></trkpt><trkpt lat="43.3942623" lon="11.2470067"><ele>254.5</ele><time>2026-03-29T12:43:55.572Z</time></trkpt><trkpt lat="43.3943698" lon="11.2470637"><ele>257.0</ele><time>2026-03-29T12:43:56.609Z</time></trkpt><trkpt lat="43.3944783" lon="11.2471221"><ele>257.0</ele><time>2026-03-29T12:43:57.588Z</time></trkpt><trkpt lat="43.3945916" lon="11.2471685"><ele>257.0</ele><time>2026-03-29T12:43:58.555Z</time></trkpt><trkpt lat="43.3947104" lon="11.2471983"><ele>257.0</ele><time>2026-03-29T12:43:59.556Z</time></trkpt><trkpt lat="43.3948303" lon="11.2472008"><ele>257.0</ele><time>2026-03-29T12:44:00.59Z</time></trkpt><trkpt lat="43.394942" lon="11.247194"><ele>258.0</ele><time>2026-03-29T12:44:01.57Z</time></trkpt><trkpt lat="43.3950408" lon="11.2471695"><ele>259.0</ele><time>2026-03-29T12:44:02.594Z</time></trkpt><trkpt lat="43.395128" lon="11.2471266"><ele>260.0</ele><time>2026-03-29T12:44:03.56Z</time></trkpt><trkpt lat="43.3952174" lon="11.2470771"><ele>261.0</ele><time>2026-03-29T12:44:04.555Z</time></trkpt><trkpt lat="43.3953124" lon="11.2470194"><ele>262.0</ele><time>2026-03-29T12:44:05.585Z</time></trkpt><trkpt lat="43.3954116" lon="11.246967"><ele>261.25</ele><time>2026-03-29T12:44:06.553Z</time></trkpt><trkpt lat="43.395517" lon="11.2469182"><ele>260.5</ele><time>2026-03-29T12:44:07.598Z</time></trkpt><trkpt lat="43.3956274" lon="11.2468751"><ele>259.75</ele><time>2026-03-29T12:44:08.572Z</time></trkpt><trkpt lat="43.3957433" lon="11.2468434"><ele>259.0</ele><time>2026-03-29T12:44:09.557Z</time></trkpt><trkpt lat="43.3958593" lon="11.2468347"><ele>259.0</ele><time>2026-03-29T12:44:10.556Z</time></trkpt><trkpt lat="43.395978" lon="11.2468521"><ele>259.0</ele><time>2026-03-29T12:44:11.59Z</time></trkpt><trkpt lat="43.396106" lon="11.246885"><ele>259.0</ele><time>2026-03-29T12:44:12.555Z</time></trkpt><trkpt lat="43.3962459" lon="11.2469236"><ele>259.0</ele><time>2026-03-29T12:44:13.568Z</time></trkpt><trkpt lat="43.3963887" lon="11.2469671"><ele>259.25</ele><time>2026-03-29T12:44:14.601Z</time></trkpt><trkpt lat="43.3965293" lon="11.2470127"><ele>259.5</ele><time>2026-03-29T12:44:15.555Z</time></trkpt><trkpt lat="43.3966589" lon="11.247058"><ele>259.75</ele><time>2026-03-29T12:44:16.557Z</time></trkpt><trkpt lat="43.3967737" lon="11.2470953"><ele>260.0</ele><time>2026-03-29T12:44:17.559Z</time></trkpt><trkpt lat="43.3968772" lon="11.2471246"><ele>260.0</ele><time>2026-03-29T12:44:18.56Z</time></trkpt><trkpt lat="43.3969774" lon="11.2471475"><ele>260.0</ele><time>2026-03-29T12:44:19.561Z</time></trkpt><trkpt lat="43.397086" lon="11.2471782"><ele>260.0</ele><time>2026-03-29T12:44:20.573Z</time></trkpt><trkpt lat="43.3972001" lon="11.2472189"><ele>260.0</ele><time>2026-03-29T12:44:21.561Z</time></trkpt><trkpt lat="43.3973176" lon="11.2472687"><ele>262.25</ele><time>2026-03-29T12:44:22.559Z</time></trkpt><trkpt lat="43.3974312" lon="11.2473245"><ele>264.5</ele><time>2026-03-29T12:44:23.555Z</time></trkpt><trkpt lat="43.3975411" lon="11.2473833"><ele>266.75</ele><time>2026-03-29T12:44:24.555Z</time></trkpt><trkpt lat="43.3976475" lon="11.2474428"><ele>269.0</ele><time>2026-03-29T12:44:25.573Z</time></trkpt><trkpt lat="43.3977517" lon="11.2475054"><ele>269.0</ele><time>2026-03-29T12:44:26.559Z</time></trkpt><trkpt lat="43.397849" lon="11.247576"><ele>269.0</ele><time>2026-03-29T12:44:27.559Z</time></trkpt><trkpt lat="43.3979418" lon="11.2476557"><ele>269.0</ele><time>2026-03-29T12:44:28.552Z</time></trkpt><trkpt lat="43.3980312" lon="11.2477445"><ele>269.0</ele><time>2026-03-29T12:44:29.555Z</time></trkpt><trkpt lat="43.3981217" lon="11.2478384"><ele>269.0</ele><time>2026-03-29T12:44:30.555Z</time></trkpt><trkpt lat="43.3982129" lon="11.2479302"><ele>271.4</ele><time>2026-03-29T12:44:31.574Z</time></trkpt><trkpt lat="43.3983043" lon="11.2480212"><ele>273.79999999999995</ele><time>2026-03-29T12:44:32.563Z</time></trkpt><trkpt lat="43.3983923" lon="11.2481047"><ele>276.20000000000005</ele><time>2026-03-29T12:44:33.556Z</time></trkpt><trkpt lat="43.3984745" lon="11.2481858"><ele>278.6</ele><time>2026-03-29T12:44:34.562Z</time></trkpt><trkpt lat="43.3985588" lon="11.2482715"><ele>281.0</ele><time>2026-03-29T12:44:35.571Z</time></trkpt><trkpt lat="43.3986444" lon="11.2483571"><ele>281.6</ele><time>2026-03-29T12:44:36.551Z</time></trkpt><trkpt lat="43.3987369" lon="11.2484464"><ele>282.20000000000005</ele><time>2026-03-29T12:44:37.569Z</time></trkpt><trkpt lat="43.3988289" lon="11.2485309"><ele>282.79999999999995</ele><time>2026-03-29T12:44:38.568Z</time></trkpt><trkpt lat="43.3989132" lon="11.2486005"><ele>283.4</ele><time>2026-03-29T12:44:39.562Z</time></trkpt><trkpt lat="43.3990005" lon="11.2486685"><ele>284.0</ele><time>2026-03-29T12:44:40.556Z</time></trkpt><trkpt lat="43.3990861" lon="11.2487275"><ele>286.1666666666667</ele><time>2026-03-29T12:44:41.56Z</time></trkpt><trkpt lat="43.399174" lon="11.2487648"><ele>288.33333333333337</ele><time>2026-03-29T12:44:42.581Z</time></trkpt><trkpt lat="43.3992589" lon="11.24878"><ele>290.5</ele><time>2026-03-29T12:44:43.561Z</time></trkpt><trkpt lat="43.3993378" lon="11.2487733"><ele>292.6666666666667</ele><time>2026-03-29T12:44:44.556Z</time></trkpt><trkpt lat="43.3994008" lon="11.2487519"><ele>294.8333333333333</ele><time>2026-03-29T12:44:45.559Z</time></trkpt><trkpt lat="43.3994967" lon="11.2486362"><ele>297.0</ele><time>2026-03-29T12:44:47.557Z</time></trkpt><trkpt lat="43.399535" lon="11.2485347"><ele>297.0</ele><time>2026-03-29T12:44:48.565Z</time></trkpt><trkpt lat="43.3995609" lon="11.2484225"><ele>297.0</ele><time>2026-03-29T12:44:49.598Z</time></trkpt><trkpt lat="43.3995717" lon="11.2482891"><ele>297.0</ele><time>2026-03-29T12:44:50.558Z</time></trkpt><trkpt lat="43.3995683" lon="11.2481522"><ele>297.0</ele><time>2026-03-29T12:44:51.557Z</time></trkpt><trkpt lat="43.3995609" lon="11.2480166"><ele>297.0</ele><time>2026-03-29T12:44:52.554Z</time></trkpt><trkpt lat="43.3995548" lon="11.2478905"><ele>296.6</ele><time>2026-03-29T12:44:53.589Z</time></trkpt><trkpt lat="43.3995586" lon="11.2477651"><ele>296.2</ele><time>2026-03-29T12:44:54.553Z</time></trkpt><trkpt lat="43.3995752" lon="11.2476419"><ele>295.8</ele><time>2026-03-29T12:44:55.556Z</time></trkpt><trkpt lat="43.3995985" lon="11.2475124"><ele>295.4</ele><time>2026-03-29T12:44:56.556Z</time></trkpt><trkpt lat="43.3996232" lon="11.2473777"><ele>295.0</ele><time>2026-03-29T12:44:57.554Z</time></trkpt><trkpt lat="43.3996524" lon="11.2472542"><ele>295.8333333333333</ele><time>2026-03-29T12:44:58.556Z</time></trkpt><trkpt lat="43.3996863" lon="11.2471525"><ele>296.66666666666663</ele><time>2026-03-29T12:44:59.554Z</time></trkpt><trkpt lat="43.3997249" lon="11.247072"><ele>297.5</ele><time>2026-03-29T12:45:00.591Z</time></trkpt><trkpt lat="43.3997712" lon="11.2470125"><ele>298.3333333333333</ele><time>2026-03-29T12:45:01.555Z</time></trkpt><trkpt lat="43.3998729" lon="11.2469657"><ele>299.1666666666667</ele><time>2026-03-29T12:45:03.555Z</time></trkpt><trkpt lat="43.3999942" lon="11.2470044"><ele>300.0</ele><time>2026-03-29T12:45:05.555Z</time></trkpt><trkpt lat="43.4000738" lon="11.2470536"><ele>300.0</ele><time>2026-03-29T12:45:06.559Z</time></trkpt><trkpt lat="43.4001627" lon="11.2471165"><ele>300.0</ele><time>2026-03-29T12:45:07.557Z</time></trkpt><trkpt lat="43.4002587" lon="11.2471843"><ele>300.0</ele><time>2026-03-29T12:45:08.59Z</time></trkpt><trkpt lat="43.4003635" lon="11.2472471"><ele>300.0</ele><time>2026-03-29T12:45:09.554Z</time></trkpt><trkpt lat="43.4004707" lon="11.2473065"><ele>300.0</ele><time>2026-03-29T12:45:10.58Z</time></trkpt><trkpt lat="43.4005806" lon="11.2473581"><ele>302.0</ele><time>2026-03-29T12:45:11.589Z</time></trkpt><trkpt lat="43.4006926" lon="11.2474071"><ele>304.0</ele><time>2026-03-29T12:45:12.55Z</time></trkpt><trkpt lat="43.4008013" lon="11.2474612"><ele>306.0</ele><time>2026-03-29T12:45:13.556Z</time></trkpt><trkpt lat="43.4009063" lon="11.2475134"><ele>308.0</ele><time>2026-03-29T12:45:14.558Z</time></trkpt><trkpt lat="43.401002" lon="11.2475664"><ele>310.0</ele><time>2026-03-29T12:45:15.559Z</time></trkpt><trkpt lat="43.4010866" lon="11.2476161"><ele>310.0</ele><time>2026-03-29T12:45:16.564Z</time></trkpt><trkpt lat="43.4011624" lon="11.24765"><ele>310.0</ele><time>2026-03-29T12:45:17.555Z</time></trkpt><trkpt lat="43.4012362" lon="11.2476611"><ele>310.0</ele><time>2026-03-29T12:45:18.555Z</time></trkpt><trkpt lat="43.401309" lon="11.2476488"><ele>310.0</ele><time>2026-03-29T12:45:19.556Z</time></trkpt><trkpt lat="43.4013866" lon="11.2476196"><ele>310.0</ele><time>2026-03-29T12:45:20.553Z</time></trkpt><trkpt lat="43.401476" lon="11.2475761"><ele>310.0</ele><time>2026-03-29T12:45:21.56Z</time></trkpt><trkpt lat="43.4015682" lon="11.2475428"><ele>310.66666666666663</ele><time>2026-03-29T12:45:22.555Z</time></trkpt><trkpt lat="43.4016543" lon="11.2475314"><ele>311.3333333333333</ele><time>2026-03-29T12:45:23.561Z</time></trkpt><trkpt lat="43.4017286" lon="11.2475519"><ele>312.0</ele><time>2026-03-29T12:45:24.557Z</time></trkpt><trkpt lat="43.4017969" lon="11.2476011"><ele>312.6666666666667</ele><time>2026-03-29T12:45:25.554Z</time></trkpt><trkpt lat="43.401854" lon="11.2476524"><ele>313.33333333333337</ele><time>2026-03-29T12:45:26.558Z</time></trkpt><trkpt lat="43.4019463" lon="11.2477051"><ele>314.0</ele><time>2026-03-29T12:45:28.585Z</time></trkpt><trkpt lat="43.4020305" lon="11.2476438"><ele>314.0</ele><time>2026-03-29T12:45:30.565Z</time></trkpt><trkpt lat="43.4020961" lon="11.2475135"><ele>314.0</ele><time>2026-03-29T12:45:32.564Z</time></trkpt><trkpt lat="43.4021388" lon="11.2474149"><ele>314.0</ele><time>2026-03-29T12:45:34.556Z</time></trkpt><trkpt lat="43.4021872" lon="11.2473579"><ele>314.0</ele><time>2026-03-29T12:45:36.572Z</time></trkpt><trkpt lat="43.4022525" lon="11.2472846"><ele>314.0</ele><time>2026-03-29T12:45:39.558Z</time></trkpt><trkpt lat="43.4023176" lon="11.2471667"><ele>313.8</ele><time>2026-03-29T12:45:41.562Z</time></trkpt><trkpt lat="43.4023924" lon="11.2470616"><ele>313.59999999999997</ele><time>2026-03-29T12:45:43.557Z</time></trkpt><trkpt lat="43.4024756" lon="11.2469742"><ele>313.4</ele><time>2026-03-29T12:45:45.557Z</time></trkpt><trkpt lat="43.402549" lon="11.2468851"><ele>313.2</ele><time>2026-03-29T12:45:47.558Z</time></trkpt><trkpt lat="43.4025901" lon="11.2467425"><ele>313.0</ele><time>2026-03-29T12:45:49.559Z</time></trkpt><trkpt lat="43.4025976" lon="11.2466397"><ele>313.0</ele><time>2026-03-29T12:45:50.561Z</time></trkpt><trkpt lat="43.4026027" lon="11.2465162"><ele>313.0</ele><time>2026-03-29T12:45:51.557Z</time></trkpt><trkpt lat="43.4026104" lon="11.2463783"><ele>313.0</ele><time>2026-03-29T12:45:52.557Z</time></trkpt><trkpt lat="43.4026254" lon="11.2462321"><ele>313.0</ele><time>2026-03-29T12:45:53.57Z</time></trkpt><trkpt lat="43.4026493" lon="11.2460854"><ele>313.0</ele><time>2026-03-29T12:45:54.59Z</time></trkpt><trkpt lat="43.4026677" lon="11.2459452"><ele>312.8</ele><time>2026-03-29T12:45:55.557Z</time></trkpt><trkpt lat="43.4026821" lon="11.2458132"><ele>312.6</ele><time>2026-03-29T12:45:56.557Z</time></trkpt><trkpt lat="43.4026896" lon="11.2456878"><ele>312.4</ele><time>2026-03-29T12:45:57.56Z</time></trkpt><trkpt lat="43.4026944" lon="11.245562"><ele>312.2</ele><time>2026-03-29T12:45:58.557Z</time></trkpt><trkpt lat="43.4026866" lon="11.2454372"><ele>312.0</ele><time>2026-03-29T12:45:59.56Z</time></trkpt><trkpt lat="43.4026758" lon="11.2453146"><ele>312.42857142857144</ele><time>2026-03-29T12:46:00.588Z</time></trkpt><trkpt lat="43.4026629" lon="11.2452088"><ele>312.85714285714283</ele><time>2026-03-29T12:46:01.556Z</time></trkpt><trkpt lat="43.4026502" lon="11.2451147"><ele>313.2857142857143</ele><time>2026-03-29T12:46:02.589Z</time></trkpt><trkpt lat="43.4026429" lon="11.2450224"><ele>313.7142857142857</ele><time>2026-03-29T12:46:03.555Z</time></trkpt><trkpt lat="43.4026435" lon="11.2449207"><ele>314.1428571428571</ele><time>2026-03-29T12:46:04.558Z</time></trkpt><trkpt lat="43.4026517" lon="11.2448173"><ele>314.57142857142856</ele><time>2026-03-29T12:46:05.555Z</time></trkpt><trkpt lat="43.4026636" lon="11.2447178"><ele>315.0</ele><time>2026-03-29T12:46:06.557Z</time></trkpt><trkpt lat="43.4026797" lon="11.2446161"><ele>315.3333333333333</ele><time>2026-03-29T12:46:07.558Z</time></trkpt><trkpt lat="43.4026971" lon="11.2445119"><ele>315.6666666666667</ele><time>2026-03-29T12:46:08.554Z</time></trkpt><trkpt lat="43.4027113" lon="11.2444033"><ele>316.0</ele><time>2026-03-29T12:46:09.558Z</time></trkpt><trkpt lat="43.4027242" lon="11.2442972"><ele>316.33333333333337</ele><time>2026-03-29T12:46:10.554Z</time></trkpt><trkpt lat="43.4027351" lon="11.2441884"><ele>316.6666666666667</ele><time>2026-03-29T12:46:11.559Z</time></trkpt><trkpt lat="43.4027427" lon="11.2440774"><ele>317.0</ele><time>2026-03-29T12:46:12.591Z</time></trkpt><trkpt lat="43.4027509" lon="11.2439636"><ele>316.6666666666667</ele><time>2026-03-29T12:46:13.553Z</time></trkpt><trkpt lat="43.4027584" lon="11.2438501"><ele>316.33333333333337</ele><time>2026-03-29T12:46:14.56Z</time></trkpt><trkpt lat="43.4027702" lon="11.243745"><ele>316.0</ele><time>2026-03-29T12:46:15.564Z</time></trkpt><trkpt lat="43.4027822" lon="11.2436464"><ele>315.6666666666667</ele><time>2026-03-29T12:46:16.549Z</time></trkpt><trkpt lat="43.4027939" lon="11.2435456"><ele>315.3333333333333</ele><time>2026-03-29T12:46:17.558Z</time></trkpt><trkpt lat="43.4028041" lon="11.24344"><ele>315.0</ele><time>2026-03-29T12:46:18.564Z</time></trkpt><trkpt lat="43.4028092" lon="11.2433286"><ele>315.0</ele><time>2026-03-29T12:46:19.556Z</time></trkpt><trkpt lat="43.4028053" lon="11.243213"><ele>315.0</ele><time>2026-03-29T12:46:20.561Z</time></trkpt><trkpt lat="43.4027966" lon="11.2431085"><ele>315.0</ele><time>2026-03-29T12:46:21.553Z</time></trkpt><trkpt lat="43.4027831" lon="11.2430039"><ele>315.0</ele><time>2026-03-29T12:46:22.556Z</time></trkpt><trkpt lat="43.4027742" lon="11.2429019"><ele>315.0</ele><time>2026-03-29T12:46:23.586Z</time></trkpt><trkpt lat="43.4027707" lon="11.2427935"><ele>315.0</ele><time>2026-03-29T12:46:24.585Z</time></trkpt><trkpt lat="43.4027734" lon="11.2426775"><ele>313.6</ele><time>2026-03-29T12:46:25.566Z</time></trkpt><trkpt lat="43.4027815" lon="11.2425618"><ele>312.2</ele><time>2026-03-29T12:46:26.557Z</time></trkpt><trkpt lat="43.4027958" lon="11.2424483"><ele>310.8</ele><time>2026-03-29T12:46:27.556Z</time></trkpt><trkpt lat="43.4028131" lon="11.2423241"><ele>309.4</ele><time>2026-03-29T12:46:28.555Z</time></trkpt><trkpt lat="43.4028328" lon="11.2421886"><ele>308.0</ele><time>2026-03-29T12:46:29.559Z</time></trkpt><trkpt lat="43.4028545" lon="11.2420541"><ele>306.4</ele><time>2026-03-29T12:46:30.558Z</time></trkpt><trkpt lat="43.4028748" lon="11.2419191"><ele>304.8</ele><time>2026-03-29T12:46:31.554Z</time></trkpt><trkpt lat="43.4028988" lon="11.2417787"><ele>303.2</ele><time>2026-03-29T12:46:32.583Z</time></trkpt><trkpt lat="43.4029196" lon="11.2416318"><ele>301.6</ele><time>2026-03-29T12:46:33.574Z</time></trkpt><trkpt lat="43.402936" lon="11.2414945"><ele>300.0</ele><time>2026-03-29T12:46:34.555Z</time></trkpt><trkpt lat="43.4029506" lon="11.2413604"><ele>299.1666666666667</ele><time>2026-03-29T12:46:35.552Z</time></trkpt><trkpt lat="43.4029691" lon="11.2412361"><ele>298.3333333333333</ele><time>2026-03-29T12:46:36.556Z</time></trkpt><trkpt lat="43.4029918" lon="11.2411182"><ele>297.5</ele><time>2026-03-29T12:46:37.59Z</time></trkpt><trkpt lat="43.4030214" lon="11.2410057"><ele>296.66666666666663</ele><time>2026-03-29T12:46:38.589Z</time></trkpt><trkpt lat="43.4030535" lon="11.2408977"><ele>295.8333333333333</ele><time>2026-03-29T12:46:39.56Z</time></trkpt><trkpt lat="43.4030888" lon="11.2407965"><ele>295.0</ele><time>2026-03-29T12:46:40.553Z</time></trkpt><trkpt lat="43.403125" lon="11.2407025"><ele>294.8</ele><time>2026-03-29T12:46:41.57Z</time></trkpt><trkpt lat="43.4031585" lon="11.240619"><ele>294.6</ele><time>2026-03-29T12:46:42.564Z</time></trkpt><trkpt lat="43.4031933" lon="11.2405418"><ele>294.4</ele><time>2026-03-29T12:46:43.589Z</time></trkpt><trkpt lat="43.4032593" lon="11.240424"><ele>294.2</ele><time>2026-03-29T12:46:45.557Z</time></trkpt><trkpt lat="43.4033423" lon="11.240275"><ele>294.0</ele><time>2026-03-29T12:46:47.566Z</time></trkpt><trkpt lat="43.4033861" lon="11.2401859"><ele>294.0</ele><time>2026-03-29T12:46:48.555Z</time></trkpt><trkpt lat="43.4034278" lon="11.2400902"><ele>294.0</ele><time>2026-03-29T12:46:49.552Z</time></trkpt><trkpt lat="43.4034681" lon="11.2399858"><ele>294.0</ele><time>2026-03-29T12:46:50.557Z</time></trkpt><trkpt lat="43.4035123" lon="11.2398809"><ele>294.0</ele><time>2026-03-29T12:46:51.557Z</time></trkpt><trkpt lat="43.4035549" lon="11.2397802"><ele>294.0</ele><time>2026-03-29T12:46:52.552Z</time></trkpt><trkpt lat="43.4035903" lon="11.2396865"><ele>294.0</ele><time>2026-03-29T12:46:53.556Z</time></trkpt><trkpt lat="43.4036261" lon="11.2396002"><ele>293.2857142857143</ele><time>2026-03-29T12:46:54.566Z</time></trkpt><trkpt lat="43.4036638" lon="11.2395165"><ele>292.57142857142856</ele><time>2026-03-29T12:46:55.554Z</time></trkpt><trkpt lat="43.4037024" lon="11.2394316"><ele>291.8571428571429</ele><time>2026-03-29T12:46:56.564Z</time></trkpt><trkpt lat="43.4037357" lon="11.2393456"><ele>291.1428571428571</ele><time>2026-03-29T12:46:57.556Z</time></trkpt><trkpt lat="43.403761" lon="11.2392488"><ele>290.42857142857144</ele><time>2026-03-29T12:46:58.587Z</time></trkpt><trkpt lat="43.4037781" lon="11.2391436"><ele>289.7142857142857</ele><time>2026-03-29T12:46:59.555Z</time></trkpt><trkpt lat="43.4037917" lon="11.2390349"><ele>289.0</ele><time>2026-03-29T12:47:00.555Z</time></trkpt><trkpt lat="43.4037983" lon="11.2389154"><ele>287.16666666666663</ele><time>2026-03-29T12:47:01.554Z</time></trkpt><trkpt lat="43.4038088" lon="11.2387975"><ele>285.3333333333333</ele><time>2026-03-29T12:47:02.56Z</time></trkpt><trkpt lat="43.4038204" lon="11.2386749"><ele>283.5</ele><time>2026-03-29T12:47:03.558Z</time></trkpt><trkpt lat="43.4038357" lon="11.2385508"><ele>281.6666666666667</ele><time>2026-03-29T12:47:04.558Z</time></trkpt><trkpt lat="43.4038568" lon="11.2384315"><ele>279.83333333333337</ele><time>2026-03-29T12:47:05.558Z</time></trkpt><trkpt lat="43.4038829" lon="11.2383228"><ele>278.0</ele><time>2026-03-29T12:47:06.559Z</time></trkpt><trkpt lat="43.4039149" lon="11.2382203"><ele>277.0</ele><time>2026-03-29T12:47:07.557Z</time></trkpt><trkpt lat="43.403948" lon="11.2381185"><ele>276.0</ele><time>2026-03-29T12:47:08.583Z</time></trkpt><trkpt lat="43.4039804" lon="11.2380159"><ele>275.0</ele><time>2026-03-29T12:47:09.586Z</time></trkpt><trkpt lat="43.4040134" lon="11.237913"><ele>274.0</ele><time>2026-03-29T12:47:10.556Z</time></trkpt><trkpt lat="43.4040458" lon="11.2378112"><ele>273.0</ele><time>2026-03-29T12:47:11.555Z</time></trkpt><trkpt lat="43.4040805" lon="11.237713"><ele>272.0</ele><time>2026-03-29T12:47:12.586Z</time></trkpt><trkpt lat="43.4041186" lon="11.2376201"><ele>272.0</ele><time>2026-03-29T12:47:13.557Z</time></trkpt><trkpt lat="43.4041629" lon="11.2375397"><ele>272.0</ele><time>2026-03-29T12:47:14.559Z</time></trkpt><trkpt lat="43.4042169" lon="11.2374728"><ele>272.0</ele><time>2026-03-29T12:47:15.556Z</time></trkpt><trkpt lat="43.4042752" lon="11.2374153"><ele>272.0</ele><time>2026-03-29T12:47:16.563Z</time></trkpt><trkpt lat="43.4043326" lon="11.237352"><ele>272.0</ele><time>2026-03-29T12:47:17.561Z</time></trkpt><trkpt lat="43.4043881" lon="11.2372731"><ele>272.0</ele><time>2026-03-29T12:47:18.551Z</time></trkpt><trkpt lat="43.4044361" lon="11.2371812"><ele>271.33333333333337</ele><time>2026-03-29T12:47:19.563Z</time></trkpt><trkpt lat="43.4044891" lon="11.2370849"><ele>270.6666666666667</ele><time>2026-03-29T12:47:20.559Z</time></trkpt><trkpt lat="43.4045448" lon="11.236989"><ele>270.0</ele><time>2026-03-29T12:47:21.585Z</time></trkpt><trkpt lat="43.4045904" lon="11.2368882"><ele>269.3333333333333</ele><time>2026-03-29T12:47:22.555Z</time></trkpt><trkpt lat="43.4046346" lon="11.2367852"><ele>268.66666666666663</ele><time>2026-03-29T12:47:23.566Z</time></trkpt><trkpt lat="43.4046903" lon="11.2366945"><ele>268.0</ele><time>2026-03-29T12:47:24.556Z</time></trkpt><trkpt lat="43.4047569" lon="11.2366205"><ele>267.2</ele><time>2026-03-29T12:47:25.552Z</time></trkpt><trkpt lat="43.404833" lon="11.236549"><ele>266.4</ele><time>2026-03-29T12:47:26.558Z</time></trkpt><trkpt lat="43.4049192" lon="11.2364751"><ele>265.59999999999997</ele><time>2026-03-29T12:47:27.56Z</time></trkpt><trkpt lat="43.4050119" lon="11.2363951"><ele>264.8</ele><time>2026-03-29T12:47:28.557Z</time></trkpt><trkpt lat="43.4050991" lon="11.2363136"><ele>264.0</ele><time>2026-03-29T12:47:29.556Z</time></trkpt><trkpt lat="43.4051801" lon="11.2362257"><ele>263.59999999999997</ele><time>2026-03-29T12:47:30.596Z</time></trkpt><trkpt lat="43.4052564" lon="11.2361366"><ele>263.2</ele><time>2026-03-29T12:47:31.591Z</time></trkpt><trkpt lat="43.4053245" lon="11.2360479"><ele>262.79999999999995</ele><time>2026-03-29T12:47:32.555Z</time></trkpt><trkpt lat="43.405385" lon="11.2359527"><ele>262.4</ele><time>2026-03-29T12:47:33.59Z</time></trkpt><trkpt lat="43.4054337" lon="11.2358448"><ele>262.0</ele><time>2026-03-29T12:47:34.586Z</time></trkpt><trkpt lat="43.4054689" lon="11.2357219"><ele>262.25</ele><time>2026-03-29T12:47:35.554Z</time></trkpt><trkpt lat="43.4054951" lon="11.2355784"><ele>262.5</ele><time>2026-03-29T12:47:36.558Z</time></trkpt><trkpt lat="43.4055127" lon="11.2354235"><ele>262.75</ele><time>2026-03-29T12:47:37.559Z</time></trkpt><trkpt lat="43.4055208" lon="11.2352566"><ele>263.0</ele><time>2026-03-29T12:47:38.552Z</time></trkpt><trkpt lat="43.4055239" lon="11.2350946"><ele>263.6</ele><time>2026-03-29T12:47:39.566Z</time></trkpt><trkpt lat="43.4055179" lon="11.2349416"><ele>264.20000000000005</ele><time>2026-03-29T12:47:40.597Z</time></trkpt><trkpt lat="43.405507" lon="11.2348082"><ele>264.8</ele><time>2026-03-29T12:47:41.566Z</time></trkpt><trkpt lat="43.4054914" lon="11.2346897"><ele>265.40000000000003</ele><time>2026-03-29T12:47:42.587Z</time></trkpt><trkpt lat="43.4054777" lon="11.2345696"><ele>266.0</ele><time>2026-03-29T12:47:43.563Z</time></trkpt><trkpt lat="43.4054668" lon="11.2344521"><ele>266.0</ele><time>2026-03-29T12:47:44.559Z</time></trkpt><trkpt lat="43.4054592" lon="11.2343319"><ele>266.0</ele><time>2026-03-29T12:47:45.59Z</time></trkpt><trkpt lat="43.4054499" lon="11.2342107"><ele>266.0</ele><time>2026-03-29T12:47:46.554Z</time></trkpt><trkpt lat="43.4054371" lon="11.2340833"><ele>266.0</ele><time>2026-03-29T12:47:47.558Z</time></trkpt><trkpt lat="43.4054277" lon="11.2339545"><ele>266.0</ele><time>2026-03-29T12:47:48.56Z</time></trkpt><trkpt lat="43.4054199" lon="11.2338187"><ele>266.6</ele><time>2026-03-29T12:47:49.562Z</time></trkpt><trkpt lat="43.4054128" lon="11.2336729"><ele>267.20000000000005</ele><time>2026-03-29T12:47:50.56Z</time></trkpt><trkpt lat="43.40541" lon="11.233527"><ele>267.79999999999995</ele><time>2026-03-29T12:47:51.555Z</time></trkpt><trkpt lat="43.4054128" lon="11.2333866"><ele>268.4</ele><time>2026-03-29T12:47:52.557Z</time></trkpt><trkpt lat="43.4054169" lon="11.2332527"><ele>269.0</ele><time>2026-03-29T12:47:53.555Z</time></trkpt><trkpt lat="43.405432" lon="11.2331173"><ele>269.5</ele><time>2026-03-29T12:47:54.561Z</time></trkpt><trkpt lat="43.4054523" lon="11.2329661"><ele>270.0</ele><time>2026-03-29T12:47:55.563Z</time></trkpt><trkpt lat="43.4054749" lon="11.2328112"><ele>270.5</ele><time>2026-03-29T12:47:56.558Z</time></trkpt><trkpt lat="43.4055009" lon="11.2326576"><ele>271.0</ele><time>2026-03-29T12:47:57.565Z</time></trkpt><trkpt lat="43.4055285" lon="11.23251"><ele>273.6</ele><time>2026-03-29T12:47:58.557Z</time></trkpt><trkpt lat="43.4055592" lon="11.2323671"><ele>276.20000000000005</ele><time>2026-03-29T12:47:59.566Z</time></trkpt><trkpt lat="43.405593" lon="11.232227"><ele>278.79999999999995</ele><time>2026-03-29T12:48:00.568Z</time></trkpt><trkpt lat="43.4056245" lon="11.2320883"><ele>281.4</ele><time>2026-03-29T12:48:01.57Z</time></trkpt><trkpt lat="43.4056574" lon="11.23195"><ele>284.0</ele><time>2026-03-29T12:48:02.567Z</time></trkpt><trkpt lat="43.4056812" lon="11.2318122"><ele>285.2</ele><time>2026-03-29T12:48:03.552Z</time></trkpt><trkpt lat="43.4056973" lon="11.2316729"><ele>286.4</ele><time>2026-03-29T12:48:04.561Z</time></trkpt><trkpt lat="43.4057154" lon="11.2315274"><ele>287.6</ele><time>2026-03-29T12:48:05.554Z</time></trkpt><trkpt lat="43.4057381" lon="11.231379"><ele>288.8</ele><time>2026-03-29T12:48:06.561Z</time></trkpt><trkpt lat="43.4057597" lon="11.2312302"><ele>290.0</ele><time>2026-03-29T12:48:07.566Z</time></trkpt><trkpt lat="43.4057703" lon="11.2310747"><ele>290.75</ele><time>2026-03-29T12:48:08.567Z</time></trkpt><trkpt lat="43.4057796" lon="11.2309215"><ele>291.5</ele><time>2026-03-29T12:48:09.562Z</time></trkpt><trkpt lat="43.4057831" lon="11.2307603"><ele>292.25</ele><time>2026-03-29T12:48:10.556Z</time></trkpt><trkpt lat="43.4057883" lon="11.2305969"><ele>293.0</ele><time>2026-03-29T12:48:11.581Z</time></trkpt><trkpt lat="43.4058039" lon="11.2304452"><ele>293.4</ele><time>2026-03-29T12:48:12.551Z</time></trkpt><trkpt lat="43.4058233" lon="11.230298"><ele>293.8</ele><time>2026-03-29T12:48:13.57Z</time></trkpt><trkpt lat="43.4058457" lon="11.2301496"><ele>294.2</ele><time>2026-03-29T12:48:14.57Z</time></trkpt><trkpt lat="43.4058673" lon="11.2299953"><ele>294.6</ele><time>2026-03-29T12:48:15.556Z</time></trkpt><trkpt lat="43.4058879" lon="11.2298375"><ele>295.0</ele><time>2026-03-29T12:48:16.564Z</time></trkpt><trkpt lat="43.4059124" lon="11.2296827"><ele>295.0</ele><time>2026-03-29T12:48:17.558Z</time></trkpt><trkpt lat="43.4059324" lon="11.2295322"><ele>295.0</ele><time>2026-03-29T12:48:18.599Z</time></trkpt><trkpt lat="43.4059515" lon="11.229386"><ele>295.0</ele><time>2026-03-29T12:48:19.557Z</time></trkpt><trkpt lat="43.4059689" lon="11.229252"><ele>295.0</ele><time>2026-03-29T12:48:20.588Z</time></trkpt><trkpt lat="43.4059829" lon="11.2291276"><ele>295.0</ele><time>2026-03-29T12:48:21.559Z</time></trkpt><trkpt lat="43.4059944" lon="11.2290083"><ele>294.4</ele><time>2026-03-29T12:48:22.558Z</time></trkpt><trkpt lat="43.405999" lon="11.22889"><ele>293.8</ele><time>2026-03-29T12:48:23.555Z</time></trkpt><trkpt lat="43.4059936" lon="11.2287692"><ele>293.2</ele><time>2026-03-29T12:48:24.557Z</time></trkpt><trkpt lat="43.4059719" lon="11.2286443"><ele>292.6</ele><time>2026-03-29T12:48:25.557Z</time></trkpt><trkpt lat="43.4059325" lon="11.2285125"><ele>292.0</ele><time>2026-03-29T12:48:26.555Z</time></trkpt><trkpt lat="43.405887" lon="11.228375"><ele>292.0</ele><time>2026-03-29T12:48:27.564Z</time></trkpt><trkpt lat="43.4058445" lon="11.2282457"><ele>292.0</ele><time>2026-03-29T12:48:28.567Z</time></trkpt><trkpt lat="43.4058127" lon="11.228121"><ele>292.0</ele><time>2026-03-29T12:48:29.603Z</time></trkpt><trkpt lat="43.4057919" lon="11.2279864"><ele>292.0</ele><time>2026-03-29T12:48:30.559Z</time></trkpt><trkpt lat="43.4057872" lon="11.227844"><ele>292.0</ele><time>2026-03-29T12:48:31.553Z</time></trkpt><trkpt lat="43.4058009" lon="11.2277023"><ele>291.6</ele><time>2026-03-29T12:48:32.556Z</time></trkpt><trkpt lat="43.4058228" lon="11.2275732"><ele>291.2</ele><time>2026-03-29T12:48:33.557Z</time></trkpt><trkpt lat="43.4058462" lon="11.2274377"><ele>290.8</ele><time>2026-03-29T12:48:34.561Z</time></trkpt><trkpt lat="43.4058567" lon="11.2272982"><ele>290.4</ele><time>2026-03-29T12:48:35.549Z</time></trkpt><trkpt lat="43.4058511" lon="11.2271492"><ele>290.0</ele><time>2026-03-29T12:48:36.555Z</time></trkpt><trkpt lat="43.4058395" lon="11.2269813"><ele>289.75</ele><time>2026-03-29T12:48:37.577Z</time></trkpt><trkpt lat="43.4058205" lon="11.2268149"><ele>289.5</ele><time>2026-03-29T12:48:38.564Z</time></trkpt><trkpt lat="43.4058052" lon="11.2266531"><ele>289.25</ele><time>2026-03-29T12:48:39.559Z</time></trkpt><trkpt lat="43.4057935" lon="11.2264929"><ele>289.0</ele><time>2026-03-29T12:48:40.555Z</time></trkpt><trkpt lat="43.4057861" lon="11.2263395"><ele>287.8</ele><time>2026-03-29T12:48:41.554Z</time></trkpt><trkpt lat="43.4057776" lon="11.2261891"><ele>286.59999999999997</ele><time>2026-03-29T12:48:42.571Z</time></trkpt><trkpt lat="43.4057708" lon="11.2260404"><ele>285.4</ele><time>2026-03-29T12:48:43.565Z</time></trkpt><trkpt lat="43.4057664" lon="11.2258941"><ele>284.2</ele><time>2026-03-29T12:48:44.556Z</time></trkpt><trkpt lat="43.405764" lon="11.2257505"><ele>283.0</ele><time>2026-03-29T12:48:45.565Z</time></trkpt><trkpt lat="43.4057609" lon="11.2256072"><ele>282.6</ele><time>2026-03-29T12:48:46.567Z</time></trkpt><trkpt lat="43.4057596" lon="11.2254651"><ele>282.20000000000005</ele><time>2026-03-29T12:48:47.561Z</time></trkpt><trkpt lat="43.4057592" lon="11.2253382"><ele>281.8</ele><time>2026-03-29T12:48:48.557Z</time></trkpt><trkpt lat="43.4057642" lon="11.2252354"><ele>281.40000000000003</ele><time>2026-03-29T12:48:49.552Z</time></trkpt><trkpt lat="43.4057779" lon="11.2251074"><ele>281.0</ele><time>2026-03-29T12:48:51.555Z</time></trkpt><trkpt lat="43.4057974" lon="11.2249801"><ele>281.0</ele><time>2026-03-29T12:48:54.565Z</time></trkpt><trkpt lat="43.4058344" lon="11.2248675"><ele>281.0</ele><time>2026-03-29T12:48:56.563Z</time></trkpt><trkpt lat="43.4059028" lon="11.2247458"><ele>281.0</ele><time>2026-03-29T12:48:58.557Z</time></trkpt><trkpt lat="43.4059476" lon="11.2246786"><ele>281.0</ele><time>2026-03-29T12:48:59.561Z</time></trkpt><trkpt lat="43.4059929" lon="11.2246027"><ele>281.0</ele><time>2026-03-29T12:49:00.565Z</time></trkpt><trkpt lat="43.4060411" lon="11.2245241"><ele>281.0</ele><time>2026-03-29T12:49:01.554Z</time></trkpt><trkpt lat="43.4060889" lon="11.2244438"><ele>280.83333333333337</ele><time>2026-03-29T12:49:02.585Z</time></trkpt><trkpt lat="43.4061382" lon="11.2243638"><ele>280.6666666666667</ele><time>2026-03-29T12:49:03.556Z</time></trkpt><trkpt lat="43.4061899" lon="11.2242791"><ele>280.5</ele><time>2026-03-29T12:49:04.559Z</time></trkpt><trkpt lat="43.4062441" lon="11.2241958"><ele>280.3333333333333</ele><time>2026-03-29T12:49:05.57Z</time></trkpt><trkpt lat="43.4062982" lon="11.2241155"><ele>280.16666666666663</ele><time>2026-03-29T12:49:06.558Z</time></trkpt><trkpt lat="43.4063506" lon="11.2240355"><ele>280.0</ele><time>2026-03-29T12:49:07.555Z</time></trkpt><trkpt lat="43.406398" lon="11.223958"><ele>277.5</ele><time>2026-03-29T12:49:08.561Z</time></trkpt><trkpt lat="43.4064364" lon="11.223884"><ele>275.0</ele><time>2026-03-29T12:49:09.562Z</time></trkpt><trkpt lat="43.4064935" lon="11.2237716"><ele>272.5</ele><time>2026-03-29T12:49:11.585Z</time></trkpt><trkpt lat="43.4065327" lon="11.2236939"><ele>270.0</ele><time>2026-03-29T12:49:13.559Z</time></trkpt><trkpt lat="43.4065863" lon="11.2236049"><ele>267.5</ele><time>2026-03-29T12:49:16.555Z</time></trkpt><trkpt lat="43.406639" lon="11.2235337"><ele>265.0</ele><time>2026-03-29T12:49:19.574Z</time></trkpt><trkpt lat="43.4067397" lon="11.2235747"><ele>265.0</ele><time>2026-03-29T12:49:22.552Z</time></trkpt><trkpt lat="43.4068375" lon="11.2236569"><ele>265.0</ele><time>2026-03-29T12:49:24.557Z</time></trkpt><trkpt lat="43.4069291" lon="11.2237326"><ele>265.0</ele><time>2026-03-29T12:49:26.559Z</time></trkpt><trkpt lat="43.4069913" lon="11.2238081"><ele>265.0</ele><time>2026-03-29T12:49:28.589Z</time></trkpt><trkpt lat="43.4070322" lon="11.2238837"><ele>265.0</ele><time>2026-03-29T12:49:30.583Z</time></trkpt><trkpt lat="43.4070915" lon="11.2239537"><ele>262.8</ele><time>2026-03-29T12:49:32.557Z</time></trkpt><trkpt lat="43.4071677" lon="11.2239891"><ele>260.6</ele><time>2026-03-29T12:49:34.559Z</time></trkpt><trkpt lat="43.4072682" lon="11.2239843"><ele>258.4</ele><time>2026-03-29T12:49:36.549Z</time></trkpt><trkpt lat="43.40736" lon="11.2239793"><ele>256.2</ele><time>2026-03-29T12:49:38.561Z</time></trkpt><trkpt lat="43.4074414" lon="11.2239399"><ele>254.0</ele><time>2026-03-29T12:49:40.554Z</time></trkpt><trkpt lat="43.4074926" lon="11.2238306"><ele>253.39999999999998</ele><time>2026-03-29T12:49:42.555Z</time></trkpt><trkpt lat="43.407512" lon="11.2237402"><ele>252.79999999999998</ele><time>2026-03-29T12:49:44.56Z</time></trkpt><trkpt lat="43.4075755" lon="11.2236717"><ele>252.20000000000002</ele><time>2026-03-29T12:49:47.571Z</time></trkpt><trkpt lat="43.4076543" lon="11.2237013"><ele>251.60000000000002</ele><time>2026-03-29T12:49:49.56Z</time></trkpt><trkpt lat="43.4077638" lon="11.2237574"><ele>251.0</ele><time>2026-03-29T12:49:51.554Z</time></trkpt><trkpt lat="43.407864" lon="11.2238152"><ele>251.0</ele><time>2026-03-29T12:49:53.588Z</time></trkpt><trkpt lat="43.4079444" lon="11.2238726"><ele>251.0</ele><time>2026-03-29T12:49:55.555Z</time></trkpt><trkpt lat="43.4107177" lon="11.2247782"><ele>201.0</ele><time>2026-03-29T12:50:51.554Z</time></trkpt></trkseg><trkseg><trkpt lat="43.411985" lon="11.2253228"><ele>191.0</ele><time>2026-03-29T13:04:17.126Z</time></trkpt><trkpt lat="43.4120478" lon="11.2253093"><ele>191.0</ele><time>2026-03-29T13:04:19.125Z</time></trkpt><trkpt lat="43.4121379" lon="11.2253333"><ele>191.0</ele><time>2026-03-29T13:04:22.141Z</time></trkpt><trkpt lat="43.4122047" lon="11.2253316"><ele>191.0</ele><time>2026-03-29T13:04:24.122Z</time></trkpt><trkpt lat="43.4122801" lon="11.2252837"><ele>191.0</ele><time>2026-03-29T13:04:26.137Z</time></trkpt><trkpt lat="43.4123519" lon="11.2252325"><ele>191.0</ele><time>2026-03-29T13:04:28.133Z</time></trkpt><trkpt lat="43.4124128" lon="11.225194"><ele>191.0</ele><time>2026-03-29T13:04:30.129Z</time></trkpt><trkpt lat="43.4124919" lon="11.2251326"><ele>191.0</ele><time>2026-03-29T13:04:32.121Z</time></trkpt><trkpt lat="43.4125933" lon="11.2250595"><ele>191.0</ele><time>2026-03-29T13:04:34.128Z</time></trkpt><trkpt lat="43.4127077" lon="11.2249835"><ele>191.0</ele><time>2026-03-29T13:04:36.135Z</time></trkpt><trkpt lat="43.4127732" lon="11.2249498"><ele>191.0</ele><time>2026-03-29T13:04:37.126Z</time></trkpt><trkpt lat="43.4128415" lon="11.2249145"><ele>191.0</ele><time>2026-03-29T13:04:38.131Z</time></trkpt><trkpt lat="43.4129043" lon="11.2248676"><ele>191.0</ele><time>2026-03-29T13:04:39.164Z</time></trkpt><trkpt lat="43.4129701" lon="11.2248074"><ele>191.0</ele><time>2026-03-29T13:04:40.124Z</time></trkpt><trkpt lat="43.4130363" lon="11.2247417"><ele>191.0</ele><time>2026-03-29T13:04:41.126Z</time></trkpt><trkpt lat="43.4131013" lon="11.2246752"><ele>191.0</ele><time>2026-03-29T13:04:42.135Z</time></trkpt><trkpt lat="43.4131676" lon="11.2246159"><ele>191.0</ele><time>2026-03-29T13:04:43.128Z</time></trkpt><trkpt lat="43.413236" lon="11.2245635"><ele>191.0</ele><time>2026-03-29T13:04:44.127Z</time></trkpt><trkpt lat="43.4133072" lon="11.2245132"><ele>191.0</ele><time>2026-03-29T13:04:45.126Z</time></trkpt><trkpt lat="43.413379" lon="11.2244585"><ele>191.0</ele><time>2026-03-29T13:04:46.137Z</time></trkpt><trkpt lat="43.4134485" lon="11.2244036"><ele>191.0</ele><time>2026-03-29T13:04:47.125Z</time></trkpt><trkpt lat="43.4135126" lon="11.2243483"><ele>191.0</ele><time>2026-03-29T13:04:48.153Z</time></trkpt><trkpt lat="43.4135726" lon="11.2242966"><ele>191.0</ele><time>2026-03-29T13:04:49.132Z</time></trkpt><trkpt lat="43.413674" lon="11.2242149"><ele>191.0</ele><time>2026-03-29T13:04:51.175Z</time></trkpt><trkpt lat="43.4137675" lon="11.2241383"><ele>191.0</ele><time>2026-03-29T13:04:53.164Z</time></trkpt><trkpt lat="43.413874" lon="11.2240876"><ele>191.0</ele><time>2026-03-29T13:04:55.133Z</time></trkpt><trkpt lat="43.413999" lon="11.2240698"><ele>191.0</ele><time>2026-03-29T13:04:57.139Z</time></trkpt><trkpt lat="43.414066" lon="11.2240711"><ele>191.0</ele><time>2026-03-29T13:04:58.13Z</time></trkpt><trkpt lat="43.4141296" lon="11.2240691"><ele>190.83333333333331</ele><time>2026-03-29T13:04:59.153Z</time></trkpt><trkpt lat="43.4142515" lon="11.2240558"><ele>190.66666666666666</ele><time>2026-03-29T13:05:01.153Z</time></trkpt><trkpt lat="43.414318" lon="11.2240434"><ele>190.5</ele><time>2026-03-29T13:05:02.164Z</time></trkpt><trkpt lat="43.4143891" lon="11.2240183"><ele>190.33333333333334</ele><time>2026-03-29T13:05:03.132Z</time></trkpt><trkpt lat="43.4144666" lon="11.2239779"><ele>190.16666666666669</ele><time>2026-03-29T13:05:04.118Z</time></trkpt><trkpt lat="43.4145512" lon="11.2239331"><ele>190.0</ele><time>2026-03-29T13:05:05.126Z</time></trkpt><trkpt lat="43.4146359" lon="11.223893"><ele>190.16666666666669</ele><time>2026-03-29T13:05:06.13Z</time></trkpt><trkpt lat="43.4147169" lon="11.2238568"><ele>190.33333333333334</ele><time>2026-03-29T13:05:07.125Z</time></trkpt><trkpt lat="43.4147954" lon="11.2238236"><ele>190.5</ele><time>2026-03-29T13:05:08.122Z</time></trkpt><trkpt lat="43.4148727" lon="11.2237847"><ele>190.66666666666666</ele><time>2026-03-29T13:05:09.135Z</time></trkpt><trkpt lat="43.4149529" lon="11.2237473"><ele>190.83333333333331</ele><time>2026-03-29T13:05:10.125Z</time></trkpt><trkpt lat="43.4150349" lon="11.2237096"><ele>191.0</ele><time>2026-03-29T13:05:11.123Z</time></trkpt><trkpt lat="43.4151193" lon="11.2236702"><ele>191.0</ele><time>2026-03-29T13:05:12.13Z</time></trkpt><trkpt lat="43.4152075" lon="11.2236309"><ele>191.0</ele><time>2026-03-29T13:05:13.142Z</time></trkpt><trkpt lat="43.4152958" lon="11.2235894"><ele>191.0</ele><time>2026-03-29T13:05:14.132Z</time></trkpt><trkpt lat="43.4153856" lon="11.2235504"><ele>191.0</ele><time>2026-03-29T13:05:15.155Z</time></trkpt><trkpt lat="43.4154757" lon="11.2235145"><ele>191.0</ele><time>2026-03-29T13:05:16.154Z</time></trkpt><trkpt lat="43.4155626" lon="11.2234793"><ele>190.83333333333331</ele><time>2026-03-29T13:05:17.118Z</time></trkpt><trkpt lat="43.4156438" lon="11.2234458"><ele>190.66666666666666</ele><time>2026-03-29T13:05:18.139Z</time></trkpt><trkpt lat="43.415722" lon="11.223413"><ele>190.5</ele><time>2026-03-29T13:05:19.128Z</time></trkpt><trkpt lat="43.4157977" lon="11.2233805"><ele>190.33333333333334</ele><time>2026-03-29T13:05:20.158Z</time></trkpt><trkpt lat="43.4158692" lon="11.2233528"><ele>190.16666666666669</ele><time>2026-03-29T13:05:21.125Z</time></trkpt><trkpt lat="43.4159384" lon="11.2233266"><ele>190.0</ele><time>2026-03-29T13:05:22.126Z</time></trkpt><trkpt lat="43.4160032" lon="11.2233003"><ele>190.0</ele><time>2026-03-29T13:05:23.128Z</time></trkpt><trkpt lat="43.4161181" lon="11.2232497"><ele>190.0</ele><time>2026-03-29T13:05:25.135Z</time></trkpt><trkpt lat="43.4162233" lon="11.2231908"><ele>190.0</ele><time>2026-03-29T13:05:27.121Z</time></trkpt><trkpt lat="43.4163126" lon="11.2231344"><ele>190.0</ele><time>2026-03-29T13:05:29.139Z</time></trkpt><trkpt lat="43.4163903" lon="11.2230861"><ele>190.0</ele><time>2026-03-29T13:05:31.138Z</time></trkpt><trkpt lat="43.4164649" lon="11.223047"><ele>189.83333333333334</ele><time>2026-03-29T13:05:33.126Z</time></trkpt><trkpt lat="43.4165515" lon="11.2230544"><ele>189.66666666666669</ele><time>2026-03-29T13:05:36.121Z</time></trkpt><trkpt lat="43.4166197" lon="11.223096"><ele>189.5</ele><time>2026-03-29T13:05:39.164Z</time></trkpt><trkpt lat="43.4166963" lon="11.2231394"><ele>189.33333333333334</ele><time>2026-03-29T13:05:42.124Z</time></trkpt><trkpt lat="43.4167816" lon="11.2231746"><ele>189.16666666666666</ele><time>2026-03-29T13:05:44.148Z</time></trkpt><trkpt lat="43.4168719" lon="11.2231827"><ele>189.0</ele><time>2026-03-29T13:05:46.128Z</time></trkpt><trkpt lat="43.4169523" lon="11.2231702"><ele>189.0</ele><time>2026-03-29T13:05:48.125Z</time></trkpt><trkpt lat="43.4170241" lon="11.2231756"><ele>189.0</ele><time>2026-03-29T13:06:01.152Z</time></trkpt><trkpt lat="43.4170728" lon="11.2232926"><ele>189.0</ele><time>2026-03-29T13:06:04.13Z</time></trkpt><trkpt lat="43.4171023" lon="11.2234255"><ele>189.0</ele><time>2026-03-29T13:06:06.121Z</time></trkpt><trkpt lat="43.4171346" lon="11.2235695"><ele>189.0</ele><time>2026-03-29T13:06:08.122Z</time></trkpt><trkpt lat="43.4171698" lon="11.2237302"><ele>188.5</ele><time>2026-03-29T13:06:10.131Z</time></trkpt><trkpt lat="43.4172011" lon="11.2238871"><ele>188.0</ele><time>2026-03-29T13:06:12.158Z</time></trkpt><trkpt lat="43.4172166" lon="11.2239716"><ele>187.5</ele><time>2026-03-29T13:06:13.13Z</time></trkpt><trkpt lat="43.4172364" lon="11.2240552"><ele>187.0</ele><time>2026-03-29T13:06:14.133Z</time></trkpt><trkpt lat="43.4172636" lon="11.224208"><ele>186.5</ele><time>2026-03-29T13:06:16.122Z</time></trkpt><trkpt lat="43.4172827" lon="11.2243011"><ele>186.0</ele><time>2026-03-29T13:06:17.129Z</time></trkpt><trkpt lat="43.417303" lon="11.2243938"><ele>186.0</ele><time>2026-03-29T13:06:18.118Z</time></trkpt><trkpt lat="43.4173217" lon="11.2244861"><ele>186.0</ele><time>2026-03-29T13:06:19.133Z</time></trkpt><trkpt lat="43.4173609" lon="11.2246408"><ele>186.0</ele><time>2026-03-29T13:06:21.124Z</time></trkpt><trkpt lat="43.4173907" lon="11.2247704"><ele>186.0</ele><time>2026-03-29T13:06:23.126Z</time></trkpt><trkpt lat="43.417431" lon="11.2248966"><ele>186.0</ele><time>2026-03-29T13:06:25.132Z</time></trkpt><trkpt lat="43.4174799" lon="11.2249673"><ele>186.0</ele><time>2026-03-29T13:06:27.155Z</time></trkpt><trkpt lat="43.4175672" lon="11.2249655"><ele>186.0</ele><time>2026-03-29T13:06:30.131Z</time></trkpt><trkpt lat="43.4176787" lon="11.2248973"><ele>186.0</ele><time>2026-03-29T13:06:32.148Z</time></trkpt><trkpt lat="43.4177471" lon="11.2248517"><ele>186.0</ele><time>2026-03-29T13:06:33.131Z</time></trkpt><trkpt lat="43.4178293" lon="11.2247967"><ele>186.0</ele><time>2026-03-29T13:06:34.159Z</time></trkpt><trkpt lat="43.4179107" lon="11.224731"><ele>186.60000000000002</ele><time>2026-03-29T13:06:35.155Z</time></trkpt><trkpt lat="43.4180029" lon="11.2246607"><ele>187.2</ele><time>2026-03-29T13:06:36.156Z</time></trkpt><trkpt lat="43.4180942" lon="11.2245879"><ele>187.8</ele><time>2026-03-29T13:06:37.126Z</time></trkpt><trkpt lat="43.4181925" lon="11.2245163"><ele>188.39999999999998</ele><time>2026-03-29T13:06:38.123Z</time></trkpt><trkpt lat="43.4182828" lon="11.2244449"><ele>189.0</ele><time>2026-03-29T13:06:39.128Z</time></trkpt><trkpt lat="43.4183757" lon="11.2243805"><ele>189.0</ele><time>2026-03-29T13:06:40.155Z</time></trkpt><trkpt lat="43.4184544" lon="11.2243201"><ele>189.0</ele><time>2026-03-29T13:06:41.14Z</time></trkpt><trkpt lat="43.4185367" lon="11.2242491"><ele>189.0</ele><time>2026-03-29T13:06:42.129Z</time></trkpt><trkpt lat="43.4186189" lon="11.2241848"><ele>189.0</ele><time>2026-03-29T13:06:43.12Z</time></trkpt><trkpt lat="43.4186912" lon="11.2241253"><ele>189.0</ele><time>2026-03-29T13:06:44.122Z</time></trkpt><trkpt lat="43.4187595" lon="11.2240724"><ele>189.0</ele><time>2026-03-29T13:06:45.138Z</time></trkpt><trkpt lat="43.4188132" lon="11.2240231"><ele>190.6</ele><time>2026-03-29T13:06:46.134Z</time></trkpt><trkpt lat="43.4189444" lon="11.2239127"><ele>192.2</ele><time>2026-03-29T13:06:48.153Z</time></trkpt><trkpt lat="43.4190112" lon="11.2238476"><ele>193.79999999999998</ele><time>2026-03-29T13:06:49.129Z</time></trkpt><trkpt lat="43.419081" lon="11.2237851"><ele>195.39999999999998</ele><time>2026-03-29T13:06:50.133Z</time></trkpt><trkpt lat="43.4191519" lon="11.2237247"><ele>197.0</ele><time>2026-03-29T13:06:51.13Z</time></trkpt><trkpt lat="43.419223" lon="11.2236674"><ele>197.00000000000003</ele><time>2026-03-29T13:06:52.16Z</time></trkpt><trkpt lat="43.4192907" lon="11.2236094"><ele>197.0</ele><time>2026-03-29T13:06:53.123Z</time></trkpt><trkpt lat="43.4193635" lon="11.2235453"><ele>197.0</ele><time>2026-03-29T13:06:54.151Z</time></trkpt><trkpt lat="43.4194374" lon="11.2234847"><ele>197.0</ele><time>2026-03-29T13:06:55.128Z</time></trkpt><trkpt lat="43.4195209" lon="11.2234215"><ele>197.00000000000003</ele><time>2026-03-29T13:06:56.138Z</time></trkpt><trkpt lat="43.4196018" lon="11.2233569"><ele>197.0</ele><time>2026-03-29T13:06:57.121Z</time></trkpt><trkpt lat="43.4196818" lon="11.223297"><ele>197.50000000000003</ele><time>2026-03-29T13:06:58.13Z</time></trkpt><trkpt lat="43.4197529" lon="11.223232"><ele>198.0</ele><time>2026-03-29T13:06:59.131Z</time></trkpt><trkpt lat="43.4198298" lon="11.2231717"><ele>198.5</ele><time>2026-03-29T13:07:00.152Z</time></trkpt><trkpt lat="43.4199017" lon="11.2231112"><ele>199.0</ele><time>2026-03-29T13:07:01.157Z</time></trkpt><trkpt lat="43.4199604" lon="11.2230634"><ele>199.50000000000003</ele><time>2026-03-29T13:07:02.124Z</time></trkpt><trkpt lat="43.4200466" lon="11.2229857"><ele>200.0</ele><time>2026-03-29T13:07:04.151Z</time></trkpt><trkpt lat="43.4200938" lon="11.2229276"><ele>200.33333333333334</ele><time>2026-03-29T13:07:06.159Z</time></trkpt><trkpt lat="43.4201935" lon="11.2228589"><ele>200.66666666666669</ele><time>2026-03-29T13:07:08.119Z</time></trkpt><trkpt lat="43.4202508" lon="11.2228118"><ele>201.0</ele><time>2026-03-29T13:07:09.128Z</time></trkpt><trkpt lat="43.4203097" lon="11.222755"><ele>201.33333333333331</ele><time>2026-03-29T13:07:10.127Z</time></trkpt><trkpt lat="43.4203751" lon="11.2226619"><ele>201.66666666666666</ele><time>2026-03-29T13:07:12.131Z</time></trkpt><trkpt lat="43.4204073" lon="11.2225746"><ele>202.0</ele><time>2026-03-29T13:08:36.129Z</time></trkpt><trkpt lat="43.4204801" lon="11.2225735"><ele>201.66666666666666</ele><time>2026-03-29T13:09:23.139Z</time></trkpt><trkpt lat="43.4205264" lon="11.2226444"><ele>201.33333333333331</ele><time>2026-03-29T13:09:24.122Z</time></trkpt><trkpt lat="43.4205845" lon="11.2227372"><ele>201.0</ele><time>2026-03-29T13:09:25.154Z</time></trkpt><trkpt lat="43.4206405" lon="11.222822"><ele>200.66666666666669</ele><time>2026-03-29T13:09:26.14Z</time></trkpt><trkpt lat="43.4206988" lon="11.2229"><ele>200.33333333333334</ele><time>2026-03-29T13:09:27.155Z</time></trkpt><trkpt lat="43.4207562" lon="11.2229754"><ele>200.0</ele><time>2026-03-29T13:09:28.129Z</time></trkpt><trkpt lat="43.4208075" lon="11.2230448"><ele>200.00000000000003</ele><time>2026-03-29T13:09:29.131Z</time></trkpt><trkpt lat="43.4208555" lon="11.2231137"><ele>200.0</ele><time>2026-03-29T13:09:30.128Z</time></trkpt><trkpt lat="43.4209068" lon="11.2231892"><ele>200.0</ele><time>2026-03-29T13:09:31.13Z</time></trkpt><trkpt lat="43.4209668" lon="11.2232782"><ele>200.0</ele><time>2026-03-29T13:09:32.152Z</time></trkpt><trkpt lat="43.4210338" lon="11.2233773"><ele>200.00000000000003</ele><time>2026-03-29T13:09:33.117Z</time></trkpt><trkpt lat="43.4211019" lon="11.2234923"><ele>200.0</ele><time>2026-03-29T13:09:34.131Z</time></trkpt><trkpt lat="43.4211669" lon="11.2236208"><ele>200.0</ele><time>2026-03-29T13:09:35.131Z</time></trkpt><trkpt lat="43.4212252" lon="11.2237593"><ele>200.0</ele><time>2026-03-29T13:09:36.151Z</time></trkpt><trkpt lat="43.4212808" lon="11.223902"><ele>200.0</ele><time>2026-03-29T13:09:37.124Z</time></trkpt><trkpt lat="43.4213315" lon="11.2240388"><ele>200.0</ele><time>2026-03-29T13:09:38.126Z</time></trkpt><trkpt lat="43.4213732" lon="11.2241654"><ele>200.0</ele><time>2026-03-29T13:09:39.13Z</time></trkpt><trkpt lat="43.4214082" lon="11.2242821"><ele>200.00000000000003</ele><time>2026-03-29T13:09:40.124Z</time></trkpt><trkpt lat="43.4214364" lon="11.2243992"><ele>200.0</ele><time>2026-03-29T13:09:41.121Z</time></trkpt><trkpt lat="43.4214627" lon="11.224517"><ele>200.0</ele><time>2026-03-29T13:09:42.123Z</time></trkpt><trkpt lat="43.4214891" lon="11.2246359"><ele>200.0</ele><time>2026-03-29T13:09:43.164Z</time></trkpt><trkpt lat="43.4215164" lon="11.2247492"><ele>200.00000000000003</ele><time>2026-03-29T13:09:44.116Z</time></trkpt><trkpt lat="43.421542" lon="11.2248565"><ele>200.0</ele><time>2026-03-29T13:09:45.125Z</time></trkpt><trkpt lat="43.4215655" lon="11.2249577"><ele>199.83333333333334</ele><time>2026-03-29T13:09:46.133Z</time></trkpt><trkpt lat="43.4215877" lon="11.2250538"><ele>199.66666666666669</ele><time>2026-03-29T13:09:47.16Z</time></trkpt><trkpt lat="43.4216093" lon="11.2251444"><ele>199.5</ele><time>2026-03-29T13:09:48.148Z</time></trkpt><trkpt lat="43.4216306" lon="11.2252323"><ele>199.33333333333331</ele><time>2026-03-29T13:09:49.161Z</time></trkpt><trkpt lat="43.4216495" lon="11.2253174"><ele>199.16666666666666</ele><time>2026-03-29T13:09:50.151Z</time></trkpt><trkpt lat="43.4216804" lon="11.2254683"><ele>199.0</ele><time>2026-03-29T13:09:52.131Z</time></trkpt><trkpt lat="43.4217049" lon="11.2255781"><ele>198.99999999999997</ele><time>2026-03-29T13:09:54.131Z</time></trkpt><trkpt lat="43.4217488" lon="11.2256456"><ele>199.0</ele><time>2026-03-29T13:09:56.118Z</time></trkpt><trkpt lat="43.4218141" lon="11.2256463"><ele>199.0</ele><time>2026-03-29T13:09:58.143Z</time></trkpt><trkpt lat="43.4219225" lon="11.2256127"><ele>199.0</ele><time>2026-03-29T13:10:00.128Z</time></trkpt><trkpt lat="43.4220024" lon="11.2255848"><ele>198.99999999999997</ele><time>2026-03-29T13:10:02.131Z</time></trkpt><trkpt lat="43.4220764" lon="11.2255665"><ele>199.0</ele><time>2026-03-29T13:10:06.138Z</time></trkpt><trkpt lat="43.4220275" lon="11.225505"><ele>198.99999999999997</ele><time>2026-03-29T13:10:30.122Z</time></trkpt><trkpt lat="43.4219709" lon="11.2255599"><ele>199.0</ele><time>2026-03-29T13:10:33.119Z</time></trkpt><trkpt lat="43.4219083" lon="11.2256168"><ele>199.0</ele><time>2026-03-29T13:10:36.124Z</time></trkpt><trkpt lat="43.4218177" lon="11.2256407"><ele>199.0</ele><time>2026-03-29T13:10:38.119Z</time></trkpt><trkpt lat="43.4217495" lon="11.225643"><ele>198.99999999999997</ele><time>2026-03-29T13:10:40.117Z</time></trkpt><trkpt lat="43.4216961" lon="11.2255433"><ele>199.0</ele><time>2026-03-29T13:11:31.125Z</time></trkpt><trkpt lat="43.4216749" lon="11.2254448"><ele>199.0</ele><time>2026-03-29T13:11:32.118Z</time></trkpt><trkpt lat="43.4216524" lon="11.2253234"><ele>199.0</ele><time>2026-03-29T13:11:33.152Z</time></trkpt><trkpt lat="43.4216283" lon="11.2251888"><ele>199.0</ele><time>2026-03-29T13:11:34.121Z</time></trkpt><trkpt lat="43.4215945" lon="11.2250374"><ele>199.0</ele><time>2026-03-29T13:11:35.115Z</time></trkpt><trkpt lat="43.4215577" lon="11.2248689"><ele>199.0</ele><time>2026-03-29T13:11:36.116Z</time></trkpt><trkpt lat="43.4215186" lon="11.2246985"><ele>199.25</ele><time>2026-03-29T13:11:37.147Z</time></trkpt><trkpt lat="43.4214787" lon="11.2245321"><ele>199.5</ele><time>2026-03-29T13:11:38.116Z</time></trkpt><trkpt lat="43.4214373" lon="11.2243565"><ele>199.75</ele><time>2026-03-29T13:11:39.151Z</time></trkpt><trkpt lat="43.4213915" lon="11.224174"><ele>200.0</ele><time>2026-03-29T13:11:40.124Z</time></trkpt><trkpt lat="43.4213391" lon="11.2239861"><ele>200.5</ele><time>2026-03-29T13:11:41.115Z</time></trkpt><trkpt lat="43.4212768" lon="11.2238008"><ele>201.0</ele><time>2026-03-29T13:11:42.121Z</time></trkpt><trkpt lat="43.4212056" lon="11.2236231"><ele>201.5</ele><time>2026-03-29T13:11:43.118Z</time></trkpt><trkpt lat="43.4211248" lon="11.2234564"><ele>202.0</ele><time>2026-03-29T13:11:44.146Z</time></trkpt><trkpt lat="43.4210326" lon="11.2233005"><ele>202.0</ele><time>2026-03-29T13:11:45.119Z</time></trkpt><trkpt lat="43.4209338" lon="11.2231493"><ele>202.0</ele><time>2026-03-29T13:11:46.122Z</time></trkpt><trkpt lat="43.4208295" lon="11.2230047"><ele>202.0</ele><time>2026-03-29T13:11:47.15Z</time></trkpt><trkpt lat="43.4207218" lon="11.2228656"><ele>202.0</ele><time>2026-03-29T13:11:48.118Z</time></trkpt><trkpt lat="43.4206116" lon="11.2227272"><ele>202.0</ele><time>2026-03-29T13:11:49.124Z</time></trkpt><trkpt lat="43.4205019" lon="11.2225851"><ele>202.0</ele><time>2026-03-29T13:11:50.148Z</time></trkpt><trkpt lat="43.4203923" lon="11.2224397"><ele>202.0</ele><time>2026-03-29T13:11:51.118Z</time></trkpt><trkpt lat="43.4202822" lon="11.2222953"><ele>201.5</ele><time>2026-03-29T13:11:52.114Z</time></trkpt><trkpt lat="43.420178" lon="11.2221476"><ele>201.0</ele><time>2026-03-29T13:11:53.126Z</time></trkpt><trkpt lat="43.420085" lon="11.2219906"><ele>200.5</ele><time>2026-03-29T13:11:54.145Z</time></trkpt><trkpt lat="43.420002" lon="11.221821"><ele>200.0</ele><time>2026-03-29T13:11:55.147Z</time></trkpt><trkpt lat="43.4199309" lon="11.2216431"><ele>199.5</ele><time>2026-03-29T13:11:56.119Z</time></trkpt><trkpt lat="43.4198707" lon="11.2214569"><ele>199.0</ele><time>2026-03-29T13:11:57.127Z</time></trkpt><trkpt lat="43.4198245" lon="11.2212646"><ele>198.5</ele><time>2026-03-29T13:11:58.116Z</time></trkpt><trkpt lat="43.4197891" lon="11.2210694"><ele>198.0</ele><time>2026-03-29T13:11:59.146Z</time></trkpt><trkpt lat="43.4197579" lon="11.2208699"><ele>198.0</ele><time>2026-03-29T13:12:00.117Z</time></trkpt><trkpt lat="43.419733" lon="11.2206641"><ele>198.0</ele><time>2026-03-29T13:12:01.117Z</time></trkpt><trkpt lat="43.4197086" lon="11.2204588"><ele>198.0</ele><time>2026-03-29T13:12:02.117Z</time></trkpt><trkpt lat="43.4196811" lon="11.2202562"><ele>198.0</ele><time>2026-03-29T13:12:03.128Z</time></trkpt><trkpt lat="43.4196548" lon="11.2200537"><ele>198.0</ele><time>2026-03-29T13:12:04.152Z</time></trkpt><trkpt lat="43.4196214" lon="11.2198461"><ele>198.0</ele><time>2026-03-29T13:12:05.121Z</time></trkpt><trkpt lat="43.4195786" lon="11.2196382"><ele>196.33333333333331</ele><time>2026-03-29T13:12:06.151Z</time></trkpt><trkpt lat="43.4195184" lon="11.2194311"><ele>194.66666666666666</ele><time>2026-03-29T13:12:07.127Z</time></trkpt><trkpt lat="43.4194391" lon="11.2192453"><ele>193.0</ele><time>2026-03-29T13:12:08.125Z</time></trkpt><trkpt lat="43.4193451" lon="11.2190669"><ele>192.33333333333331</ele><time>2026-03-29T13:12:09.115Z</time></trkpt><trkpt lat="43.4192379" lon="11.2188938"><ele>191.66666666666666</ele><time>2026-03-29T13:12:10.117Z</time></trkpt><trkpt lat="43.4191314" lon="11.2187247"><ele>191.0</ele><time>2026-03-29T13:12:11.117Z</time></trkpt><trkpt lat="43.4190357" lon="11.2185661"><ele>191.0</ele><time>2026-03-29T13:12:12.149Z</time></trkpt><trkpt lat="43.4189506" lon="11.218424"><ele>191.0</ele><time>2026-03-29T13:12:13.114Z</time></trkpt><trkpt lat="43.418875" lon="11.2182936"><ele>191.0</ele><time>2026-03-29T13:12:14.13Z</time></trkpt><trkpt lat="43.4188108" lon="11.2181645"><ele>191.0</ele><time>2026-03-29T13:12:15.147Z</time></trkpt><trkpt lat="43.4187516" lon="11.2180426"><ele>190.4</ele><time>2026-03-29T13:12:16.123Z</time></trkpt><trkpt lat="43.4187002" lon="11.217926"><ele>189.8</ele><time>2026-03-29T13:12:17.113Z</time></trkpt><trkpt lat="43.418658" lon="11.2178056"><ele>189.20000000000002</ele><time>2026-03-29T13:12:18.114Z</time></trkpt><trkpt lat="43.418611" lon="11.2176702"><ele>188.60000000000002</ele><time>2026-03-29T13:12:19.118Z</time></trkpt><trkpt lat="43.418559" lon="11.2175127"><ele>188.0</ele><time>2026-03-29T13:12:20.119Z</time></trkpt><trkpt lat="43.4185005" lon="11.2173374"><ele>187.0</ele><time>2026-03-29T13:12:21.151Z</time></trkpt><trkpt lat="43.418433" lon="11.2171516"><ele>186.0</ele><time>2026-03-29T13:12:22.117Z</time></trkpt><trkpt lat="43.4183595" lon="11.2169592"><ele>185.0</ele><time>2026-03-29T13:12:23.145Z</time></trkpt><trkpt lat="43.4182799" lon="11.2167605"><ele>185.0</ele><time>2026-03-29T13:12:24.125Z</time></trkpt><trkpt lat="43.4182003" lon="11.2165664"><ele>185.0</ele><time>2026-03-29T13:12:25.143Z</time></trkpt><trkpt lat="43.4181246" lon="11.2163727"><ele>185.0</ele><time>2026-03-29T13:12:26.112Z</time></trkpt><trkpt lat="43.4180504" lon="11.2161825"><ele>183.0</ele><time>2026-03-29T13:12:27.118Z</time></trkpt><trkpt lat="43.417973" lon="11.2159951"><ele>181.0</ele><time>2026-03-29T13:12:28.146Z</time></trkpt><trkpt lat="43.4178966" lon="11.2158068"><ele>179.0</ele><time>2026-03-29T13:12:29.121Z</time></trkpt><trkpt lat="43.4178191" lon="11.2156158"><ele>178.33333333333331</ele><time>2026-03-29T13:12:30.148Z</time></trkpt><trkpt lat="43.4177403" lon="11.2154232"><ele>177.66666666666666</ele><time>2026-03-29T13:12:31.12Z</time></trkpt><trkpt lat="43.417664" lon="11.215232"><ele>177.0</ele><time>2026-03-29T13:12:32.149Z</time></trkpt><trkpt lat="43.4175885" lon="11.2150414"><ele>177.0</ele><time>2026-03-29T13:12:33.145Z</time></trkpt><trkpt lat="43.4175147" lon="11.2148547"><ele>177.0</ele><time>2026-03-29T13:12:34.121Z</time></trkpt><trkpt lat="43.4174412" lon="11.2146702"><ele>177.0</ele><time>2026-03-29T13:12:35.153Z</time></trkpt><trkpt lat="43.4173698" lon="11.2144878"><ele>176.66666666666666</ele><time>2026-03-29T13:12:36.123Z</time></trkpt><trkpt lat="43.417298" lon="11.2143053"><ele>176.33333333333331</ele><time>2026-03-29T13:12:37.113Z</time></trkpt><trkpt lat="43.4172255" lon="11.214123"><ele>176.0</ele><time>2026-03-29T13:12:38.12Z</time></trkpt><trkpt lat="43.4171522" lon="11.2139409"><ele>177.0</ele><time>2026-03-29T13:12:39.115Z</time></trkpt><trkpt lat="43.4170786" lon="11.2137583"><ele>178.0</ele><time>2026-03-29T13:12:40.115Z</time></trkpt><trkpt lat="43.4170024" lon="11.2135793"><ele>179.0</ele><time>2026-03-29T13:12:41.13Z</time></trkpt><trkpt lat="43.4169261" lon="11.2133993"><ele>179.0</ele><time>2026-03-29T13:12:42.121Z</time></trkpt><trkpt lat="43.4168493" lon="11.2132152"><ele>179.0</ele><time>2026-03-29T13:12:43.147Z</time></trkpt><trkpt lat="43.4167696" lon="11.2130285"><ele>179.0</ele><time>2026-03-29T13:12:44.121Z</time></trkpt><trkpt lat="43.4166896" lon="11.2128368"><ele>179.33333333333331</ele><time>2026-03-29T13:12:45.122Z</time></trkpt><trkpt lat="43.4166086" lon="11.2126423"><ele>179.66666666666666</ele><time>2026-03-29T13:12:46.119Z</time></trkpt><trkpt lat="43.4165273" lon="11.2124474"><ele>180.0</ele><time>2026-03-29T13:12:47.121Z</time></trkpt><trkpt lat="43.4164463" lon="11.2122518"><ele>180.0</ele><time>2026-03-29T13:12:48.117Z</time></trkpt><trkpt lat="43.4163668" lon="11.2120586"><ele>180.0</ele><time>2026-03-29T13:12:49.128Z</time></trkpt><trkpt lat="43.416286" lon="11.2118654"><ele>180.0</ele><time>2026-03-29T13:12:50.114Z</time></trkpt><trkpt lat="43.416204" lon="11.2116765"><ele>181.66666666666666</ele><time>2026-03-29T13:12:51.12Z</time></trkpt><trkpt lat="43.4161226" lon="11.2114938"><ele>183.33333333333331</ele><time>2026-03-29T13:12:52.116Z</time></trkpt><trkpt lat="43.4160428" lon="11.2113086"><ele>185.0</ele><time>2026-03-29T13:12:53.114Z</time></trkpt><trkpt lat="43.4159675" lon="11.2111186"><ele>185.0</ele><time>2026-03-29T13:12:54.118Z</time></trkpt><trkpt lat="43.4158945" lon="11.2109275"><ele>185.0</ele><time>2026-03-29T13:12:55.116Z</time></trkpt><trkpt lat="43.4158226" lon="11.2107358"><ele>185.0</ele><time>2026-03-29T13:12:56.114Z</time></trkpt><trkpt lat="43.415747" lon="11.2105438"><ele>184.66666666666666</ele><time>2026-03-29T13:12:57.116Z</time></trkpt><trkpt lat="43.4156704" lon="11.2103514"><ele>184.33333333333334</ele><time>2026-03-29T13:12:58.112Z</time></trkpt><trkpt lat="43.4155934" lon="11.2101587"><ele>184.0</ele><time>2026-03-29T13:12:59.12Z</time></trkpt><trkpt lat="43.4155159" lon="11.2099649"><ele>184.0</ele><time>2026-03-29T13:13:00.121Z</time></trkpt><trkpt lat="43.4154369" lon="11.2097676"><ele>184.0</ele><time>2026-03-29T13:13:01.153Z</time></trkpt><trkpt lat="43.4153559" lon="11.2095733"><ele>184.0</ele><time>2026-03-29T13:13:02.119Z</time></trkpt><trkpt lat="43.4152756" lon="11.2093791"><ele>184.0</ele><time>2026-03-29T13:13:03.15Z</time></trkpt><trkpt lat="43.4151988" lon="11.2091888"><ele>184.0</ele><time>2026-03-29T13:13:04.151Z</time></trkpt><trkpt lat="43.4151242" lon="11.209004"><ele>184.0</ele><time>2026-03-29T13:13:05.116Z</time></trkpt><trkpt lat="43.4150516" lon="11.2088215"><ele>184.33333333333334</ele><time>2026-03-29T13:13:06.119Z</time></trkpt><trkpt lat="43.4149789" lon="11.2086313"><ele>184.66666666666666</ele><time>2026-03-29T13:13:07.113Z</time></trkpt><trkpt lat="43.4149023" lon="11.2084396"><ele>185.0</ele><time>2026-03-29T13:13:08.115Z</time></trkpt><trkpt lat="43.414827" lon="11.2082463"><ele>185.0</ele><time>2026-03-29T13:13:09.15Z</time></trkpt><trkpt lat="43.4147529" lon="11.2080569"><ele>185.0</ele><time>2026-03-29T13:13:10.145Z</time></trkpt><trkpt lat="43.4146854" lon="11.2078803"><ele>185.0</ele><time>2026-03-29T13:13:11.149Z</time></trkpt><trkpt lat="43.4146269" lon="11.2077214"><ele>185.0</ele><time>2026-03-29T13:13:12.118Z</time></trkpt><trkpt lat="43.4145719" lon="11.2075769"><ele>185.2</ele><time>2026-03-29T13:13:13.115Z</time></trkpt><trkpt lat="43.4145241" lon="11.207454"><ele>185.4</ele><time>2026-03-29T13:13:14.116Z</time></trkpt><trkpt lat="43.414457" lon="11.207266"><ele>185.60000000000002</ele><time>2026-03-29T13:13:16.12Z</time></trkpt><trkpt lat="43.4144187" lon="11.2071613"><ele>185.8</ele><time>2026-03-29T13:13:18.141Z</time></trkpt><trkpt lat="43.4143966" lon="11.2070529"><ele>186.0</ele><time>2026-03-29T13:13:21.124Z</time></trkpt><trkpt lat="43.4144509" lon="11.2069978"><ele>186.0</ele><time>2026-03-29T13:13:24.148Z</time></trkpt><trkpt lat="43.4145616" lon="11.2070039"><ele>186.0</ele><time>2026-03-29T13:13:26.122Z</time></trkpt><trkpt lat="43.4146259" lon="11.2070352"><ele>186.0</ele><time>2026-03-29T13:13:27.115Z</time></trkpt><trkpt lat="43.4146873" lon="11.2070783"><ele>186.0</ele><time>2026-03-29T13:13:28.151Z</time></trkpt><trkpt lat="43.4147515" lon="11.2071314"><ele>186.0</ele><time>2026-03-29T13:13:29.116Z</time></trkpt><trkpt lat="43.4148201" lon="11.2071899"><ele>186.0</ele><time>2026-03-29T13:13:30.12Z</time></trkpt><trkpt lat="43.414897" lon="11.2072474"><ele>186.0</ele><time>2026-03-29T13:13:31.122Z</time></trkpt><trkpt lat="43.4149783" lon="11.2073021"><ele>186.0</ele><time>2026-03-29T13:13:32.12Z</time></trkpt><trkpt lat="43.4150609" lon="11.207359"><ele>186.0</ele><time>2026-03-29T13:13:33.12Z</time></trkpt><trkpt lat="43.4151392" lon="11.2074108"><ele>186.0</ele><time>2026-03-29T13:13:34.118Z</time></trkpt><trkpt lat="43.4152119" lon="11.2074564"><ele>186.0</ele><time>2026-03-29T13:13:35.116Z</time></trkpt><trkpt lat="43.4152821" lon="11.2074884"><ele>186.0</ele><time>2026-03-29T13:13:36.153Z</time></trkpt><trkpt lat="43.4153479" lon="11.2075054"><ele>186.0</ele><time>2026-03-29T13:13:37.119Z</time></trkpt><trkpt lat="43.4154132" lon="11.2075033"><ele>186.0</ele><time>2026-03-29T13:13:38.116Z</time></trkpt><trkpt lat="43.4154784" lon="11.2074627"><ele>186.0</ele><time>2026-03-29T13:13:39.12Z</time></trkpt><trkpt lat="43.4155495" lon="11.2073867"><ele>186.0</ele><time>2026-03-29T13:13:40.113Z</time></trkpt><trkpt lat="43.4156196" lon="11.2072928"><ele>186.0</ele><time>2026-03-29T13:13:41.123Z</time></trkpt><trkpt lat="43.4156878" lon="11.2071976"><ele>186.0</ele><time>2026-03-29T13:13:42.145Z</time></trkpt><trkpt lat="43.4157478" lon="11.2071135"><ele>185.83333333333334</ele><time>2026-03-29T13:13:43.116Z</time></trkpt><trkpt lat="43.4158024" lon="11.2070467"><ele>185.66666666666666</ele><time>2026-03-29T13:13:44.118Z</time></trkpt><trkpt lat="43.4158845" lon="11.2069367"><ele>185.5</ele><time>2026-03-29T13:13:46.118Z</time></trkpt><trkpt lat="43.4159329" lon="11.2068559"><ele>185.33333333333331</ele><time>2026-03-29T13:13:48.118Z</time></trkpt><trkpt lat="43.4159403" lon="11.2067538"><ele>185.16666666666666</ele><time>2026-03-29T13:13:57.114Z</time></trkpt><trkpt lat="43.4159042" lon="11.2066301"><ele>185.0</ele><time>2026-03-29T13:13:59.118Z</time></trkpt><trkpt lat="43.4159057" lon="11.2064695"><ele>184.85714285714283</ele><time>2026-03-29T13:14:01.12Z</time></trkpt><trkpt lat="43.4159326" lon="11.2063737"><ele>184.71428571428572</ele><time>2026-03-29T13:14:02.118Z</time></trkpt><trkpt lat="43.4159673" lon="11.2062761"><ele>184.57142857142856</ele><time>2026-03-29T13:14:03.126Z</time></trkpt><trkpt lat="43.416004" lon="11.2061848"><ele>184.42857142857142</ele><time>2026-03-29T13:14:04.119Z</time></trkpt><trkpt lat="43.4160301" lon="11.206095"><ele>184.28571428571428</ele><time>2026-03-29T13:14:05.121Z</time></trkpt><trkpt lat="43.4160416" lon="11.2060027"><ele>184.14285714285714</ele><time>2026-03-29T13:14:06.147Z</time></trkpt><trkpt lat="43.4160366" lon="11.2059031"><ele>184.0</ele><time>2026-03-29T13:14:07.15Z</time></trkpt><trkpt lat="43.4160305" lon="11.2058006"><ele>184.0</ele><time>2026-03-29T13:14:08.125Z</time></trkpt><trkpt lat="43.4160262" lon="11.2056927"><ele>184.0</ele><time>2026-03-29T13:14:09.121Z</time></trkpt><trkpt lat="43.4160234" lon="11.2055796"><ele>184.0</ele><time>2026-03-29T13:14:10.119Z</time></trkpt><trkpt lat="43.416017" lon="11.2054681"><ele>184.0</ele><time>2026-03-29T13:14:11.114Z</time></trkpt><trkpt lat="43.4160082" lon="11.2053609"><ele>184.0</ele><time>2026-03-29T13:14:12.119Z</time></trkpt><trkpt lat="43.4160051" lon="11.2052559"><ele>184.0</ele><time>2026-03-29T13:14:13.121Z</time></trkpt><trkpt lat="43.4160093" lon="11.205154"><ele>184.0</ele><time>2026-03-29T13:14:14.12Z</time></trkpt><trkpt lat="43.4160185" lon="11.2050504"><ele>184.0</ele><time>2026-03-29T13:14:15.12Z</time></trkpt><trkpt lat="43.4160403" lon="11.2049506"><ele>184.0</ele><time>2026-03-29T13:14:16.12Z</time></trkpt><trkpt lat="43.4160663" lon="11.204864"><ele>184.0</ele><time>2026-03-29T13:14:17.122Z</time></trkpt><trkpt lat="43.4161243" lon="11.2047195"><ele>184.0</ele><time>2026-03-29T13:14:19.113Z</time></trkpt><trkpt lat="43.4161854" lon="11.2045508"><ele>184.0</ele><time>2026-03-29T13:14:21.116Z</time></trkpt><trkpt lat="43.4162093" lon="11.2044492"><ele>184.0</ele><time>2026-03-29T13:14:22.118Z</time></trkpt><trkpt lat="43.4162184" lon="11.2043333"><ele>184.0</ele><time>2026-03-29T13:14:23.125Z</time></trkpt><trkpt lat="43.4162224" lon="11.2042287"><ele>184.0</ele><time>2026-03-29T13:14:24.147Z</time></trkpt><trkpt lat="43.4162266" lon="11.2041348"><ele>184.0</ele><time>2026-03-29T13:14:25.118Z</time></trkpt><trkpt lat="43.4162346" lon="11.2040356"><ele>184.0</ele><time>2026-03-29T13:14:26.116Z</time></trkpt><trkpt lat="43.4162484" lon="11.2039328"><ele>183.85714285714286</ele><time>2026-03-29T13:14:27.126Z</time></trkpt><trkpt lat="43.4162651" lon="11.2038304"><ele>183.7142857142857</ele><time>2026-03-29T13:14:28.123Z</time></trkpt><trkpt lat="43.4162801" lon="11.2037298"><ele>183.57142857142856</ele><time>2026-03-29T13:14:29.144Z</time></trkpt><trkpt lat="43.416296" lon="11.203628"><ele>183.42857142857144</ele><time>2026-03-29T13:14:30.116Z</time></trkpt><trkpt lat="43.4163082" lon="11.2035263"><ele>183.28571428571428</ele><time>2026-03-29T13:14:31.128Z</time></trkpt><trkpt lat="43.4163223" lon="11.2034306"><ele>183.14285714285714</ele><time>2026-03-29T13:14:32.148Z</time></trkpt><trkpt lat="43.4163429" lon="11.2033363"><ele>183.0</ele><time>2026-03-29T13:14:33.117Z</time></trkpt><trkpt lat="43.4163757" lon="11.2032353"><ele>183.0</ele><time>2026-03-29T13:14:34.146Z</time></trkpt><trkpt lat="43.4164157" lon="11.2031334"><ele>183.0</ele><time>2026-03-29T13:14:35.117Z</time></trkpt><trkpt lat="43.4164602" lon="11.2030246"><ele>183.0</ele><time>2026-03-29T13:14:36.117Z</time></trkpt><trkpt lat="43.4165068" lon="11.2029078"><ele>183.0</ele><time>2026-03-29T13:14:37.113Z</time></trkpt><trkpt lat="43.4165528" lon="11.2027849"><ele>183.0</ele><time>2026-03-29T13:14:38.129Z</time></trkpt><trkpt lat="43.4166025" lon="11.202672"><ele>183.0</ele><time>2026-03-29T13:14:39.117Z</time></trkpt><trkpt lat="43.4166605" lon="11.2025754"><ele>183.0</ele><time>2026-03-29T13:14:40.121Z</time></trkpt><trkpt lat="43.4167207" lon="11.2024848"><ele>183.0</ele><time>2026-03-29T13:14:41.147Z</time></trkpt><trkpt lat="43.4167805" lon="11.2023945"><ele>183.0</ele><time>2026-03-29T13:14:42.116Z</time></trkpt><trkpt lat="43.4168372" lon="11.2022992"><ele>183.0</ele><time>2026-03-29T13:14:43.118Z</time></trkpt><trkpt lat="43.4168913" lon="11.2021958"><ele>182.83333333333334</ele><time>2026-03-29T13:14:44.124Z</time></trkpt><trkpt lat="43.4169384" lon="11.2020888"><ele>182.66666666666666</ele><time>2026-03-29T13:14:45.148Z</time></trkpt><trkpt lat="43.4169815" lon="11.2019809"><ele>182.5</ele><time>2026-03-29T13:14:46.112Z</time></trkpt><trkpt lat="43.4170128" lon="11.2018739"><ele>182.33333333333331</ele><time>2026-03-29T13:14:47.149Z</time></trkpt><trkpt lat="43.4170361" lon="11.2017676"><ele>182.16666666666666</ele><time>2026-03-29T13:14:48.118Z</time></trkpt><trkpt lat="43.4170526" lon="11.2016569"><ele>182.0</ele><time>2026-03-29T13:14:49.121Z</time></trkpt><trkpt lat="43.4170688" lon="11.2015506"><ele>182.0</ele><time>2026-03-29T13:14:50.117Z</time></trkpt><trkpt lat="43.4170915" lon="11.201459"><ele>182.0</ele><time>2026-03-29T13:14:51.116Z</time></trkpt><trkpt lat="43.4171251" lon="11.2013774"><ele>182.0</ele><time>2026-03-29T13:14:52.125Z</time></trkpt><trkpt lat="43.4171711" lon="11.2013037"><ele>182.0</ele><time>2026-03-29T13:14:53.15Z</time></trkpt><trkpt lat="43.4172284" lon="11.2011908"><ele>182.0</ele><time>2026-03-29T13:14:55.121Z</time></trkpt><trkpt lat="43.4172579" lon="11.2010913"><ele>182.0</ele><time>2026-03-29T13:14:57.118Z</time></trkpt><trkpt lat="43.4172702" lon="11.2009119"><ele>182.0</ele><time>2026-03-29T13:14:59.146Z</time></trkpt><trkpt lat="43.4172722" lon="11.2008015"><ele>182.0</ele><time>2026-03-29T13:15:00.119Z</time></trkpt><trkpt lat="43.4172843" lon="11.2006836"><ele>182.0</ele><time>2026-03-29T13:15:01.147Z</time></trkpt><trkpt lat="43.4172957" lon="11.200556"><ele>182.0</ele><time>2026-03-29T13:15:02.147Z</time></trkpt><trkpt lat="43.4173011" lon="11.2004179"><ele>182.0</ele><time>2026-03-29T13:15:03.148Z</time></trkpt><trkpt lat="43.4173037" lon="11.2002775"><ele>181.0</ele><time>2026-03-29T13:15:04.114Z</time></trkpt><trkpt lat="43.4173053" lon="11.200132"><ele>180.0</ele><time>2026-03-29T13:15:05.119Z</time></trkpt><trkpt lat="43.4173086" lon="11.1999864"><ele>179.0</ele><time>2026-03-29T13:15:06.131Z</time></trkpt><trkpt lat="43.4173098" lon="11.1998382"><ele>178.0</ele><time>2026-03-29T13:15:07.129Z</time></trkpt><trkpt lat="43.4173089" lon="11.199688"><ele>177.0</ele><time>2026-03-29T13:15:08.12Z</time></trkpt><trkpt lat="43.4173058" lon="11.1995406"><ele>176.8</ele><time>2026-03-29T13:15:09.121Z</time></trkpt><trkpt lat="43.4173061" lon="11.1993968"><ele>176.6</ele><time>2026-03-29T13:15:10.118Z</time></trkpt><trkpt lat="43.4173115" lon="11.1992564"><ele>176.4</ele><time>2026-03-29T13:15:11.116Z</time></trkpt><trkpt lat="43.4173233" lon="11.199124"><ele>176.20000000000002</ele><time>2026-03-29T13:15:12.139Z</time></trkpt><trkpt lat="43.4173349" lon="11.1989969"><ele>176.0</ele><time>2026-03-29T13:15:13.15Z</time></trkpt><trkpt lat="43.4173445" lon="11.1988702"><ele>176.0</ele><time>2026-03-29T13:15:14.112Z</time></trkpt><trkpt lat="43.4173517" lon="11.1987483"><ele>176.0</ele><time>2026-03-29T13:15:15.118Z</time></trkpt><trkpt lat="43.4173586" lon="11.1986278"><ele>176.0</ele><time>2026-03-29T13:15:16.146Z</time></trkpt><trkpt lat="43.4173597" lon="11.198504"><ele>176.0</ele><time>2026-03-29T13:15:17.153Z</time></trkpt><trkpt lat="43.4173495" lon="11.1983816"><ele>176.0</ele><time>2026-03-29T13:15:18.118Z</time></trkpt><trkpt lat="43.4173252" lon="11.1982545"><ele>175.66666666666666</ele><time>2026-03-29T13:15:19.145Z</time></trkpt><trkpt lat="43.4172941" lon="11.1981364"><ele>175.33333333333331</ele><time>2026-03-29T13:15:20.15Z</time></trkpt><trkpt lat="43.4172613" lon="11.1980215"><ele>175.0</ele><time>2026-03-29T13:15:21.119Z</time></trkpt><trkpt lat="43.4172293" lon="11.1979118"><ele>174.66666666666666</ele><time>2026-03-29T13:15:22.119Z</time></trkpt><trkpt lat="43.4171974" lon="11.1978118"><ele>174.33333333333334</ele><time>2026-03-29T13:15:23.117Z</time></trkpt><trkpt lat="43.4171643" lon="11.197729"><ele>174.0</ele><time>2026-03-29T13:15:24.118Z</time></trkpt><trkpt lat="43.4171207" lon="11.1976646"><ele>175.0</ele><time>2026-03-29T13:15:25.125Z</time></trkpt><trkpt lat="43.4170561" lon="11.1976083"><ele>176.0</ele><time>2026-03-29T13:15:26.151Z</time></trkpt><trkpt lat="43.4169607" lon="11.1975634"><ele>177.0</ele><time>2026-03-29T13:15:27.127Z</time></trkpt><trkpt lat="43.4168484" lon="11.1975333"><ele>178.0</ele><time>2026-03-29T13:15:28.117Z</time></trkpt><trkpt lat="43.4167339" lon="11.1975083"><ele>179.0</ele><time>2026-03-29T13:15:29.15Z</time></trkpt><trkpt lat="43.416632" lon="11.1974817"><ele>179.0</ele><time>2026-03-29T13:15:30.118Z</time></trkpt><trkpt lat="43.4165421" lon="11.1974543"><ele>179.0</ele><time>2026-03-29T13:15:31.122Z</time></trkpt><trkpt lat="43.4164687" lon="11.1974176"><ele>179.0</ele><time>2026-03-29T13:15:32.116Z</time></trkpt><trkpt lat="43.416411" lon="11.1973754"><ele>179.0</ele><time>2026-03-29T13:15:33.151Z</time></trkpt><trkpt lat="43.4163422" lon="11.1972538"><ele>179.0</ele><time>2026-03-29T13:15:35.117Z</time></trkpt><trkpt lat="43.4163322" lon="11.197115"><ele>179.0</ele><time>2026-03-29T13:15:37.146Z</time></trkpt><trkpt lat="43.4163306" lon="11.1970142"><ele>178.6</ele><time>2026-03-29T13:15:39.116Z</time></trkpt><trkpt lat="43.4163597" lon="11.1968872"><ele>178.2</ele><time>2026-03-29T13:15:41.119Z</time></trkpt><trkpt lat="43.4163962" lon="11.1967888"><ele>177.79999999999998</ele><time>2026-03-29T13:15:42.116Z</time></trkpt><trkpt lat="43.416444" lon="11.1966643"><ele>177.39999999999998</ele><time>2026-03-29T13:15:43.122Z</time></trkpt><trkpt lat="43.4164995" lon="11.1965195"><ele>177.0</ele><time>2026-03-29T13:15:44.146Z</time></trkpt><trkpt lat="43.4165531" lon="11.1963602"><ele>176.25</ele><time>2026-03-29T13:15:45.115Z</time></trkpt><trkpt lat="43.4166018" lon="11.1961967"><ele>175.5</ele><time>2026-03-29T13:15:46.145Z</time></trkpt><trkpt lat="43.4166495" lon="11.1960288"><ele>174.75</ele><time>2026-03-29T13:15:47.129Z</time></trkpt><trkpt lat="43.4166944" lon="11.195866"><ele>174.0</ele><time>2026-03-29T13:15:48.122Z</time></trkpt><trkpt lat="43.4167292" lon="11.1957071"><ele>173.25</ele><time>2026-03-29T13:15:49.118Z</time></trkpt><trkpt lat="43.4167499" lon="11.1955405"><ele>172.5</ele><time>2026-03-29T13:15:50.121Z</time></trkpt><trkpt lat="43.4167549" lon="11.1953614"><ele>171.75</ele><time>2026-03-29T13:15:51.123Z</time></trkpt><trkpt lat="43.4167381" lon="11.1951717"><ele>171.0</ele><time>2026-03-29T13:15:52.114Z</time></trkpt><trkpt lat="43.4166929" lon="11.1949903"><ele>170.0</ele><time>2026-03-29T13:15:53.165Z</time></trkpt><trkpt lat="43.4166227" lon="11.1948249"><ele>169.0</ele><time>2026-03-29T13:15:54.149Z</time></trkpt><trkpt lat="43.4165497" lon="11.1946654"><ele>168.0</ele><time>2026-03-29T13:15:55.118Z</time></trkpt><trkpt lat="43.416497" lon="11.1944974"><ele>167.0</ele><time>2026-03-29T13:15:56.156Z</time></trkpt><trkpt lat="43.4164822" lon="11.1943113"><ele>167.0</ele><time>2026-03-29T13:15:57.122Z</time></trkpt><trkpt lat="43.4165086" lon="11.1941117"><ele>167.0</ele><time>2026-03-29T13:15:58.117Z</time></trkpt><trkpt lat="43.4165678" lon="11.1939072"><ele>167.0</ele><time>2026-03-29T13:15:59.118Z</time></trkpt><trkpt lat="43.4166534" lon="11.1937242"><ele>167.25</ele><time>2026-03-29T13:16:00.114Z</time></trkpt><trkpt lat="43.4167578" lon="11.1935711"><ele>167.5</ele><time>2026-03-29T13:16:01.136Z</time></trkpt><trkpt lat="43.4168633" lon="11.193454"><ele>167.75</ele><time>2026-03-29T13:16:02.123Z</time></trkpt><trkpt lat="43.4169507" lon="11.1933157"><ele>168.0</ele><time>2026-03-29T13:16:03.176Z</time></trkpt><trkpt lat="43.4169974" lon="11.1931497"><ele>169.0</ele><time>2026-03-29T13:16:04.126Z</time></trkpt><trkpt lat="43.4170194" lon="11.1929432"><ele>170.0</ele><time>2026-03-29T13:16:05.145Z</time></trkpt><trkpt lat="43.4170428" lon="11.1927198"><ele>171.0</ele><time>2026-03-29T13:16:06.126Z</time></trkpt><trkpt lat="43.4170735" lon="11.1924944"><ele>171.66666666666666</ele><time>2026-03-29T13:16:07.145Z</time></trkpt><trkpt lat="43.4171215" lon="11.1922785"><ele>172.33333333333331</ele><time>2026-03-29T13:16:08.148Z</time></trkpt><trkpt lat="43.4171817" lon="11.1920768"><ele>173.0</ele><time>2026-03-29T13:16:09.152Z</time></trkpt><trkpt lat="43.4172522" lon="11.1918798"><ele>173.33333333333331</ele><time>2026-03-29T13:16:10.123Z</time></trkpt><trkpt lat="43.4173305" lon="11.1916899"><ele>173.66666666666666</ele><time>2026-03-29T13:16:11.123Z</time></trkpt><trkpt lat="43.4174062" lon="11.1915043"><ele>174.0</ele><time>2026-03-29T13:16:12.118Z</time></trkpt><trkpt lat="43.4174783" lon="11.1913216"><ele>174.5</ele><time>2026-03-29T13:16:13.124Z</time></trkpt><trkpt lat="43.4175469" lon="11.1911386"><ele>175.0</ele><time>2026-03-29T13:16:14.124Z</time></trkpt><trkpt lat="43.4176133" lon="11.1909687"><ele>175.5</ele><time>2026-03-29T13:16:15.146Z</time></trkpt><trkpt lat="43.4176746" lon="11.190817"><ele>176.0</ele><time>2026-03-29T13:16:16.123Z</time></trkpt><trkpt lat="43.4177265" lon="11.1906844"><ele>175.66666666666666</ele><time>2026-03-29T13:16:17.12Z</time></trkpt><trkpt lat="43.4177708" lon="11.1905692"><ele>175.33333333333331</ele><time>2026-03-29T13:16:18.149Z</time></trkpt><trkpt lat="43.4178092" lon="11.1904647"><ele>175.0</ele><time>2026-03-29T13:16:19.148Z</time></trkpt><trkpt lat="43.4178438" lon="11.1903749"><ele>174.66666666666666</ele><time>2026-03-29T13:16:20.121Z</time></trkpt><trkpt lat="43.417877" lon="11.1902992"><ele>174.33333333333334</ele><time>2026-03-29T13:16:21.117Z</time></trkpt><trkpt lat="43.41793" lon="11.1901743"><ele>174.0</ele><time>2026-03-29T13:16:23.121Z</time></trkpt><trkpt lat="43.4179638" lon="11.1900801"><ele>173.66666666666666</ele><time>2026-03-29T13:16:25.143Z</time></trkpt><trkpt lat="43.418012" lon="11.1899551"><ele>173.33333333333334</ele><time>2026-03-29T13:17:40.148Z</time></trkpt><trkpt lat="43.4180412" lon="11.189865"><ele>173.0</ele><time>2026-03-29T13:17:41.119Z</time></trkpt><trkpt lat="43.4180645" lon="11.1897586"><ele>172.66666666666669</ele><time>2026-03-29T13:17:42.114Z</time></trkpt><trkpt lat="43.4180858" lon="11.1896382"><ele>172.33333333333334</ele><time>2026-03-29T13:17:43.115Z</time></trkpt><trkpt lat="43.4181061" lon="11.1895076"><ele>172.0</ele><time>2026-03-29T13:17:44.118Z</time></trkpt><trkpt lat="43.4181318" lon="11.1893853"><ele>171.6</ele><time>2026-03-29T13:17:45.118Z</time></trkpt><trkpt lat="43.4181686" lon="11.1892719"><ele>171.2</ele><time>2026-03-29T13:17:46.146Z</time></trkpt><trkpt lat="43.4182259" lon="11.1891613"><ele>170.8</ele><time>2026-03-29T13:17:47.127Z</time></trkpt><trkpt lat="43.4182965" lon="11.1890556"><ele>170.4</ele><time>2026-03-29T13:17:48.149Z</time></trkpt><trkpt lat="43.4183573" lon="11.188944"><ele>170.0</ele><time>2026-03-29T13:17:49.118Z</time></trkpt><trkpt lat="43.4183954" lon="11.1888074"><ele>169.8</ele><time>2026-03-29T13:17:50.14Z</time></trkpt><trkpt lat="43.4184314" lon="11.1886669"><ele>169.6</ele><time>2026-03-29T13:17:51.129Z</time></trkpt><trkpt lat="43.4184678" lon="11.1885268"><ele>169.39999999999998</ele><time>2026-03-29T13:17:52.115Z</time></trkpt><trkpt lat="43.4185135" lon="11.1884208"><ele>169.2</ele><time>2026-03-29T13:17:53.134Z</time></trkpt><trkpt lat="43.418568" lon="11.1883371"><ele>169.0</ele><time>2026-03-29T13:17:54.121Z</time></trkpt><trkpt lat="43.4186308" lon="11.1882625"><ele>169.0</ele><time>2026-03-29T13:17:55.134Z</time></trkpt><trkpt lat="43.4186965" lon="11.1881781"><ele>169.0</ele><time>2026-03-29T13:17:56.131Z</time></trkpt><trkpt lat="43.4187646" lon="11.1880701"><ele>169.0</ele><time>2026-03-29T13:17:57.12Z</time></trkpt><trkpt lat="43.4188322" lon="11.1879454"><ele>169.0</ele><time>2026-03-29T13:17:58.128Z</time></trkpt><trkpt lat="43.4189019" lon="11.1878193"><ele>169.0</ele><time>2026-03-29T13:17:59.16Z</time></trkpt><trkpt lat="43.4189711" lon="11.1876877"><ele>169.75</ele><time>2026-03-29T13:18:00.128Z</time></trkpt><trkpt lat="43.4190406" lon="11.1875447"><ele>170.5</ele><time>2026-03-29T13:18:01.159Z</time></trkpt><trkpt lat="43.4191114" lon="11.1873945"><ele>171.25</ele><time>2026-03-29T13:18:02.126Z</time></trkpt><trkpt lat="43.4191883" lon="11.1872406"><ele>172.0</ele><time>2026-03-29T13:18:03.134Z</time></trkpt><trkpt lat="43.4192675" lon="11.1870873"><ele>172.25</ele><time>2026-03-29T13:18:04.138Z</time></trkpt><trkpt lat="43.4193503" lon="11.1869387"><ele>172.5</ele><time>2026-03-29T13:18:05.129Z</time></trkpt><trkpt lat="43.4194347" lon="11.1867881"><ele>172.75</ele><time>2026-03-29T13:18:06.15Z</time></trkpt><trkpt lat="43.4195198" lon="11.18664"><ele>173.0</ele><time>2026-03-29T13:18:07.13Z</time></trkpt><trkpt lat="43.4196041" lon="11.186487"><ele>173.75</ele><time>2026-03-29T13:18:08.13Z</time></trkpt><trkpt lat="43.4196876" lon="11.1863389"><ele>174.5</ele><time>2026-03-29T13:18:09.129Z</time></trkpt><trkpt lat="43.4197747" lon="11.1861877"><ele>175.25</ele><time>2026-03-29T13:18:10.125Z</time></trkpt><trkpt lat="43.4198599" lon="11.1860331"><ele>176.0</ele><time>2026-03-29T13:18:11.123Z</time></trkpt><trkpt lat="43.4199385" lon="11.1858821"><ele>176.0</ele><time>2026-03-29T13:18:12.128Z</time></trkpt><trkpt lat="43.4200172" lon="11.1857308"><ele>176.0</ele><time>2026-03-29T13:18:13.152Z</time></trkpt><trkpt lat="43.4200943" lon="11.1855806"><ele>176.0</ele><time>2026-03-29T13:18:14.136Z</time></trkpt><trkpt lat="43.420171" lon="11.185431"><ele>176.0</ele><time>2026-03-29T13:18:15.136Z</time></trkpt><trkpt lat="43.4202484" lon="11.1852773"><ele>176.0</ele><time>2026-03-29T13:18:16.124Z</time></trkpt><trkpt lat="43.4203284" lon="11.1851245"><ele>176.0</ele><time>2026-03-29T13:18:17.138Z</time></trkpt><trkpt lat="43.4204099" lon="11.1849711"><ele>176.0</ele><time>2026-03-29T13:18:18.116Z</time></trkpt><trkpt lat="43.4204915" lon="11.1848158"><ele>176.0</ele><time>2026-03-29T13:18:19.132Z</time></trkpt><trkpt lat="43.4205729" lon="11.1846596"><ele>176.25</ele><time>2026-03-29T13:18:20.132Z</time></trkpt><trkpt lat="43.4206545" lon="11.1845034"><ele>176.5</ele><time>2026-03-29T13:18:21.158Z</time></trkpt><trkpt lat="43.4207385" lon="11.1843523"><ele>176.75</ele><time>2026-03-29T13:18:22.151Z</time></trkpt><trkpt lat="43.4208183" lon="11.1842073"><ele>177.0</ele><time>2026-03-29T13:18:23.158Z</time></trkpt><trkpt lat="43.420891" lon="11.1840704"><ele>176.75</ele><time>2026-03-29T13:18:24.151Z</time></trkpt><trkpt lat="43.4209594" lon="11.1839404"><ele>176.5</ele><time>2026-03-29T13:18:25.132Z</time></trkpt><trkpt lat="43.4210342" lon="11.1838127"><ele>176.25</ele><time>2026-03-29T13:18:26.131Z</time></trkpt><trkpt lat="43.4211137" lon="11.183687"><ele>176.0</ele><time>2026-03-29T13:18:27.13Z</time></trkpt><trkpt lat="43.421202" lon="11.1835605"><ele>176.0</ele><time>2026-03-29T13:18:28.156Z</time></trkpt><trkpt lat="43.4213037" lon="11.183439"><ele>176.0</ele><time>2026-03-29T13:18:29.117Z</time></trkpt><trkpt lat="43.4214136" lon="11.1833281"><ele>176.0</ele><time>2026-03-29T13:18:30.136Z</time></trkpt><trkpt lat="43.4215201" lon="11.1832338"><ele>176.0</ele><time>2026-03-29T13:18:31.118Z</time></trkpt><trkpt lat="43.4216247" lon="11.1831484"><ele>175.75</ele><time>2026-03-29T13:18:32.126Z</time></trkpt><trkpt lat="43.42173" lon="11.1830643"><ele>175.5</ele><time>2026-03-29T13:18:33.13Z</time></trkpt><trkpt lat="43.4218333" lon="11.1829722"><ele>175.25</ele><time>2026-03-29T13:18:34.157Z</time></trkpt><trkpt lat="43.4219337" lon="11.1828798"><ele>175.0</ele><time>2026-03-29T13:18:35.128Z</time></trkpt><trkpt lat="43.4220283" lon="11.1827894"><ele>175.0</ele><time>2026-03-29T13:18:36.159Z</time></trkpt><trkpt lat="43.4221181" lon="11.1827094"><ele>175.0</ele><time>2026-03-29T13:18:37.126Z</time></trkpt><trkpt lat="43.4222039" lon="11.182633"><ele>175.0</ele><time>2026-03-29T13:18:38.15Z</time></trkpt><trkpt lat="43.4222869" lon="11.1825654"><ele>175.0</ele><time>2026-03-29T13:18:39.131Z</time></trkpt><trkpt lat="43.4223661" lon="11.1825025"><ele>175.0</ele><time>2026-03-29T13:18:40.132Z</time></trkpt><trkpt lat="43.4224397" lon="11.1824386"><ele>174.6</ele><time>2026-03-29T13:18:41.132Z</time></trkpt><trkpt lat="43.4225186" lon="11.1823836"><ele>174.2</ele><time>2026-03-29T13:18:42.135Z</time></trkpt><trkpt lat="43.4225995" lon="11.182336"><ele>173.8</ele><time>2026-03-29T13:18:43.152Z</time></trkpt><trkpt lat="43.4226857" lon="11.1822944"><ele>173.4</ele><time>2026-03-29T13:18:44.158Z</time></trkpt><trkpt lat="43.4227768" lon="11.1822673"><ele>173.0</ele><time>2026-03-29T13:18:45.149Z</time></trkpt><trkpt lat="43.4228734" lon="11.1822725"><ele>172.4</ele><time>2026-03-29T13:18:46.121Z</time></trkpt><trkpt lat="43.4229783" lon="11.1822873"><ele>171.8</ele><time>2026-03-29T13:18:47.127Z</time></trkpt><trkpt lat="43.4230851" lon="11.1822945"><ele>171.2</ele><time>2026-03-29T13:18:48.128Z</time></trkpt><trkpt lat="43.4231868" lon="11.1822974"><ele>170.6</ele><time>2026-03-29T13:18:49.161Z</time></trkpt><trkpt lat="43.4232841" lon="11.1822863"><ele>170.0</ele><time>2026-03-29T13:18:50.122Z</time></trkpt><trkpt lat="43.4233763" lon="11.1822588"><ele>169.83333333333331</ele><time>2026-03-29T13:18:51.132Z</time></trkpt><trkpt lat="43.4234687" lon="11.1822326"><ele>169.66666666666666</ele><time>2026-03-29T13:18:52.132Z</time></trkpt><trkpt lat="43.4235606" lon="11.1822216"><ele>169.5</ele><time>2026-03-29T13:18:53.154Z</time></trkpt><trkpt lat="43.4236465" lon="11.1822315"><ele>169.33333333333334</ele><time>2026-03-29T13:18:54.126Z</time></trkpt><trkpt lat="43.4237311" lon="11.1822489"><ele>169.16666666666669</ele><time>2026-03-29T13:18:55.167Z</time></trkpt><trkpt lat="43.4238092" lon="11.1822671"><ele>169.0</ele><time>2026-03-29T13:18:56.12Z</time></trkpt><trkpt lat="43.4238789" lon="11.1822847"><ele>168.33333333333334</ele><time>2026-03-29T13:18:57.122Z</time></trkpt><trkpt lat="43.4239438" lon="11.1822965"><ele>167.66666666666669</ele><time>2026-03-29T13:18:58.135Z</time></trkpt><trkpt lat="43.4240592" lon="11.1823337"><ele>167.0</ele><time>2026-03-29T13:19:00.113Z</time></trkpt><trkpt lat="43.4241786" lon="11.1823675"><ele>166.33333333333334</ele><time>2026-03-29T13:19:02.129Z</time></trkpt><trkpt lat="43.424245" lon="11.1823869"><ele>165.66666666666666</ele><time>2026-03-29T13:19:03.151Z</time></trkpt><trkpt lat="43.4243161" lon="11.182397"><ele>165.0</ele><time>2026-03-29T13:19:04.129Z</time></trkpt><trkpt lat="43.424391" lon="11.18242"><ele>165.0</ele><time>2026-03-29T13:19:05.121Z</time></trkpt><trkpt lat="43.4244701" lon="11.1824447"><ele>165.0</ele><time>2026-03-29T13:19:06.156Z</time></trkpt><trkpt lat="43.4245336" lon="11.1824641"><ele>165.0</ele><time>2026-03-29T13:19:07.121Z</time></trkpt><trkpt lat="43.4246339" lon="11.1825582"><ele>165.0</ele><time>2026-03-29T13:19:09.144Z</time></trkpt><trkpt lat="43.4246734" lon="11.1826444"><ele>165.0</ele><time>2026-03-29T13:19:10.15Z</time></trkpt><trkpt lat="43.424705" lon="11.1827432"><ele>165.0</ele><time>2026-03-29T13:19:11.141Z</time></trkpt><trkpt lat="43.4247387" lon="11.1828424"><ele>164.16666666666666</ele><time>2026-03-29T13:19:12.121Z</time></trkpt><trkpt lat="43.4247773" lon="11.1829209"><ele>163.33333333333334</ele><time>2026-03-29T13:19:13.136Z</time></trkpt><trkpt lat="43.4248315" lon="11.1829896"><ele>162.5</ele><time>2026-03-29T13:19:14.137Z</time></trkpt><trkpt lat="43.4248946" lon="11.1830719"><ele>161.66666666666669</ele><time>2026-03-29T13:19:15.123Z</time></trkpt><trkpt lat="43.4249483" lon="11.1831682"><ele>160.83333333333334</ele><time>2026-03-29T13:19:16.155Z</time></trkpt><trkpt lat="43.4250031" lon="11.1832655"><ele>160.0</ele><time>2026-03-29T13:19:17.131Z</time></trkpt><trkpt lat="43.4250621" lon="11.1833524"><ele>160.0</ele><time>2026-03-29T13:19:18.118Z</time></trkpt><trkpt lat="43.4251247" lon="11.1834168"><ele>160.0</ele><time>2026-03-29T13:19:19.154Z</time></trkpt><trkpt lat="43.4251902" lon="11.1834374"><ele>160.0</ele><time>2026-03-29T13:19:20.156Z</time></trkpt><trkpt lat="43.4252559" lon="11.1834163"><ele>160.0</ele><time>2026-03-29T13:19:21.122Z</time></trkpt><trkpt lat="43.4253124" lon="11.1833495"><ele>160.0</ele><time>2026-03-29T13:19:22.14Z</time></trkpt><trkpt lat="43.4253503" lon="11.1832763"><ele>160.0</ele><time>2026-03-29T13:19:23.122Z</time></trkpt><trkpt lat="43.4253834" lon="11.1831991"><ele>160.0</ele><time>2026-03-29T13:19:24.135Z</time></trkpt><trkpt lat="43.4254236" lon="11.1831116"><ele>160.0</ele><time>2026-03-29T13:19:25.129Z</time></trkpt><trkpt lat="43.4254715" lon="11.1830028"><ele>160.0</ele><time>2026-03-29T13:19:26.133Z</time></trkpt><trkpt lat="43.4255244" lon="11.1828842"><ele>160.0</ele><time>2026-03-29T13:19:27.13Z</time></trkpt><trkpt lat="43.4255755" lon="11.1827646"><ele>160.0</ele><time>2026-03-29T13:19:28.12Z</time></trkpt><trkpt lat="43.4256228" lon="11.1826565"><ele>160.0</ele><time>2026-03-29T13:19:29.128Z</time></trkpt><trkpt lat="43.4256685" lon="11.1825506"><ele>157.5</ele><time>2026-03-29T13:19:30.149Z</time></trkpt><trkpt lat="43.4257117" lon="11.1824373"><ele>155.0</ele><time>2026-03-29T13:19:31.137Z</time></trkpt><trkpt lat="43.4257557" lon="11.1823211"><ele>152.5</ele><time>2026-03-29T13:19:32.132Z</time></trkpt><trkpt lat="43.4258036" lon="11.1822119"><ele>150.0</ele><time>2026-03-29T13:19:33.119Z</time></trkpt><trkpt lat="43.4258552" lon="11.182116"><ele>147.5</ele><time>2026-03-29T13:19:34.114Z</time></trkpt><trkpt lat="43.4259132" lon="11.1820508"><ele>145.0</ele><time>2026-03-29T13:19:35.149Z</time></trkpt><trkpt lat="43.4259817" lon="11.1820177"><ele>145.0</ele><time>2026-03-29T13:19:36.133Z</time></trkpt><trkpt lat="43.4260645" lon="11.1820135"><ele>145.0</ele><time>2026-03-29T13:19:37.13Z</time></trkpt><trkpt lat="43.4261634" lon="11.1820359"><ele>145.0</ele><time>2026-03-29T13:19:38.155Z</time></trkpt><trkpt lat="43.4262717" lon="11.1820583"><ele>145.0</ele><time>2026-03-29T13:19:39.122Z</time></trkpt><trkpt lat="43.4263833" lon="11.1820652"><ele>145.0</ele><time>2026-03-29T13:19:40.162Z</time></trkpt><trkpt lat="43.4265028" lon="11.1820637"><ele>144.5</ele><time>2026-03-29T13:19:41.132Z</time></trkpt><trkpt lat="43.4266251" lon="11.1820489"><ele>144.0</ele><time>2026-03-29T13:19:42.117Z</time></trkpt><trkpt lat="43.4267388" lon="11.1820201"><ele>143.5</ele><time>2026-03-29T13:19:43.13Z</time></trkpt><trkpt lat="43.4268509" lon="11.1819887"><ele>143.0</ele><time>2026-03-29T13:19:44.127Z</time></trkpt><trkpt lat="43.4269596" lon="11.1819526"><ele>143.0</ele><time>2026-03-29T13:19:45.121Z</time></trkpt><trkpt lat="43.4270633" lon="11.1819153"><ele>143.0</ele><time>2026-03-29T13:19:46.143Z</time></trkpt><trkpt lat="43.4271599" lon="11.1818778"><ele>143.0</ele><time>2026-03-29T13:19:47.124Z</time></trkpt><trkpt lat="43.4272448" lon="11.1818456"><ele>143.0</ele><time>2026-03-29T13:19:48.153Z</time></trkpt><trkpt lat="43.4273203" lon="11.1818061"><ele>143.0</ele><time>2026-03-29T13:19:49.123Z</time></trkpt><trkpt lat="43.4273882" lon="11.181762"><ele>143.83333333333331</ele><time>2026-03-29T13:19:50.143Z</time></trkpt><trkpt lat="43.4274507" lon="11.1817182"><ele>144.66666666666666</ele><time>2026-03-29T13:19:51.162Z</time></trkpt><trkpt lat="43.42751" lon="11.1816817"><ele>145.5</ele><time>2026-03-29T13:19:52.161Z</time></trkpt><trkpt lat="43.4276132" lon="11.18165"><ele>146.33333333333334</ele><time>2026-03-29T13:19:54.122Z</time></trkpt><trkpt lat="43.427732" lon="11.1816706"><ele>147.16666666666669</ele><time>2026-03-29T13:19:56.151Z</time></trkpt><trkpt lat="43.4277915" lon="11.1817207"><ele>148.0</ele><time>2026-03-29T13:19:57.137Z</time></trkpt><trkpt lat="43.427875" lon="11.1817535"><ele>148.0</ele><time>2026-03-29T13:19:58.137Z</time></trkpt><trkpt lat="43.4279723" lon="11.1817476"><ele>148.0</ele><time>2026-03-29T13:19:59.127Z</time></trkpt><trkpt lat="43.4280714" lon="11.1816885"><ele>148.0</ele><time>2026-03-29T13:20:00.139Z</time></trkpt><trkpt lat="43.428155" lon="11.1815778"><ele>148.0</ele><time>2026-03-29T13:20:01.126Z</time></trkpt><trkpt lat="43.4282216" lon="11.1814217"><ele>149.0</ele><time>2026-03-29T13:20:02.142Z</time></trkpt><trkpt lat="43.4282864" lon="11.1812539"><ele>150.0</ele><time>2026-03-29T13:20:03.116Z</time></trkpt><trkpt lat="43.4283546" lon="11.181094"><ele>151.0</ele><time>2026-03-29T13:20:04.123Z</time></trkpt><trkpt lat="43.4284183" lon="11.1809474"><ele>152.0</ele><time>2026-03-29T13:20:05.123Z</time></trkpt><trkpt lat="43.4284778" lon="11.1808158"><ele>152.0</ele><time>2026-03-29T13:20:06.156Z</time></trkpt><trkpt lat="43.4285359" lon="11.1806989"><ele>152.0</ele><time>2026-03-29T13:20:07.123Z</time></trkpt><trkpt lat="43.4286021" lon="11.1805968"><ele>152.0</ele><time>2026-03-29T13:20:08.125Z</time></trkpt><trkpt lat="43.4286775" lon="11.1805287"><ele>152.0</ele><time>2026-03-29T13:20:09.159Z</time></trkpt><trkpt lat="43.4287657" lon="11.1805027"><ele>152.0</ele><time>2026-03-29T13:20:10.118Z</time></trkpt><trkpt lat="43.4288599" lon="11.1805267"><ele>151.25</ele><time>2026-03-29T13:20:11.161Z</time></trkpt><trkpt lat="43.4289517" lon="11.1806075"><ele>150.5</ele><time>2026-03-29T13:20:12.127Z</time></trkpt><trkpt lat="43.4290174" lon="11.1807319"><ele>149.75</ele><time>2026-03-29T13:20:13.118Z</time></trkpt><trkpt lat="43.4290865" lon="11.1808678"><ele>149.0</ele><time>2026-03-29T13:20:14.132Z</time></trkpt><trkpt lat="43.4291727" lon="11.1809966"><ele>151.5</ele><time>2026-03-29T13:20:15.156Z</time></trkpt><trkpt lat="43.42928" lon="11.1810796"><ele>154.0</ele><time>2026-03-29T13:20:16.117Z</time></trkpt><trkpt lat="43.4294017" lon="11.1811178"><ele>156.5</ele><time>2026-03-29T13:20:17.131Z</time></trkpt><trkpt lat="43.4295254" lon="11.1811159"><ele>159.0</ele><time>2026-03-29T13:20:18.16Z</time></trkpt><trkpt lat="43.4296481" lon="11.1810899"><ele>159.8</ele><time>2026-03-29T13:20:19.136Z</time></trkpt><trkpt lat="43.4297664" lon="11.1810515"><ele>160.60000000000002</ele><time>2026-03-29T13:20:20.128Z</time></trkpt><trkpt lat="43.4298719" lon="11.1810033"><ele>161.4</ele><time>2026-03-29T13:20:21.125Z</time></trkpt><trkpt lat="43.4299593" lon="11.1809482"><ele>162.20000000000002</ele><time>2026-03-29T13:20:22.125Z</time></trkpt><trkpt lat="43.4300423" lon="11.1809069"><ele>163.0</ele><time>2026-03-29T13:20:23.125Z</time></trkpt><trkpt lat="43.4301257" lon="11.1808806"><ele>163.0</ele><time>2026-03-29T13:20:24.153Z</time></trkpt><trkpt lat="43.4302054" lon="11.1808824"><ele>163.0</ele><time>2026-03-29T13:20:25.161Z</time></trkpt><trkpt lat="43.4303009" lon="11.1809221"><ele>163.0</ele><time>2026-03-29T13:20:26.118Z</time></trkpt><trkpt lat="43.430401" lon="11.1810074"><ele>163.0</ele><time>2026-03-29T13:20:27.121Z</time></trkpt><trkpt lat="43.4305952" lon="11.1812359"><ele>163.0</ele><time>2026-03-29T13:20:29.125Z</time></trkpt><trkpt lat="43.4306862" lon="11.1813406"><ele>163.0</ele><time>2026-03-29T13:20:30.124Z</time></trkpt><trkpt lat="43.4307713" lon="11.1814392"><ele>163.0</ele><time>2026-03-29T13:20:31.127Z</time></trkpt><trkpt lat="43.4308491" lon="11.181537"><ele>163.0</ele><time>2026-03-29T13:20:32.117Z</time></trkpt><trkpt lat="43.4309089" lon="11.1816418"><ele>163.0</ele><time>2026-03-29T13:20:33.137Z</time></trkpt><trkpt lat="43.4309549" lon="11.1817557"><ele>164.25</ele><time>2026-03-29T13:20:34.118Z</time></trkpt><trkpt lat="43.4309879" lon="11.1818854"><ele>165.5</ele><time>2026-03-29T13:20:35.119Z</time></trkpt><trkpt lat="43.4310095" lon="11.1820374"><ele>166.75</ele><time>2026-03-29T13:20:36.119Z</time></trkpt><trkpt lat="43.4310221" lon="11.182208"><ele>168.0</ele><time>2026-03-29T13:20:37.136Z</time></trkpt><trkpt lat="43.4310347" lon="11.1823856"><ele>168.25</ele><time>2026-03-29T13:20:38.129Z</time></trkpt><trkpt lat="43.4310507" lon="11.1825691"><ele>168.5</ele><time>2026-03-29T13:20:39.156Z</time></trkpt><trkpt lat="43.4310715" lon="11.1827548"><ele>168.75</ele><time>2026-03-29T13:20:40.119Z</time></trkpt><trkpt lat="43.4310987" lon="11.1829285"><ele>169.0</ele><time>2026-03-29T13:20:41.122Z</time></trkpt><trkpt lat="43.4311295" lon="11.1830969"><ele>167.6</ele><time>2026-03-29T13:20:42.119Z</time></trkpt><trkpt lat="43.431166" lon="11.1832243"><ele>166.2</ele><time>2026-03-29T13:20:43.122Z</time></trkpt><trkpt lat="43.4312255" lon="11.1833767"><ele>164.79999999999998</ele><time>2026-03-29T13:20:44.14Z</time></trkpt><trkpt lat="43.4312768" lon="11.1834505"><ele>163.39999999999998</ele><time>2026-03-29T13:20:45.118Z</time></trkpt><trkpt lat="43.4313314" lon="11.1835057"><ele>162.0</ele><time>2026-03-29T13:20:46.133Z</time></trkpt><trkpt lat="43.4314282" lon="11.1835747"><ele>160.0</ele><time>2026-03-29T13:20:47.138Z</time></trkpt><trkpt lat="43.4315624" lon="11.1836006"><ele>158.0</ele><time>2026-03-29T13:20:48.119Z</time></trkpt><trkpt lat="43.4317038" lon="11.1836344"><ele>156.0</ele><time>2026-03-29T13:20:49.117Z</time></trkpt><trkpt lat="43.4318462" lon="11.1836614"><ele>154.0</ele><time>2026-03-29T13:20:50.159Z</time></trkpt><trkpt lat="43.4320123" lon="11.1837136"><ele>155.25</ele><time>2026-03-29T13:20:51.125Z</time></trkpt><trkpt lat="43.432169" lon="11.1837751"><ele>156.5</ele><time>2026-03-29T13:20:52.13Z</time></trkpt><trkpt lat="43.4322778" lon="11.1838204"><ele>157.75</ele><time>2026-03-29T13:20:53.118Z</time></trkpt><trkpt lat="43.432399" lon="11.1838632"><ele>159.0</ele><time>2026-03-29T13:20:54.164Z</time></trkpt><trkpt lat="43.432526" lon="11.183902"><ele>159.0</ele><time>2026-03-29T13:20:55.124Z</time></trkpt><trkpt lat="43.4326681" lon="11.1839596"><ele>159.0</ele><time>2026-03-29T13:20:56.121Z</time></trkpt><trkpt lat="43.4328192" lon="11.1840186"><ele>159.0</ele><time>2026-03-29T13:20:57.128Z</time></trkpt><trkpt lat="43.4329851" lon="11.1841226"><ele>161.66666666666666</ele><time>2026-03-29T13:20:58.17Z</time></trkpt><trkpt lat="43.4331288" lon="11.1842087"><ele>164.33333333333331</ele><time>2026-03-29T13:20:59.129Z</time></trkpt><trkpt lat="43.4332735" lon="11.1842766"><ele>167.0</ele><time>2026-03-29T13:21:00.115Z</time></trkpt><trkpt lat="43.433421" lon="11.1843444"><ele>167.0</ele><time>2026-03-29T13:21:01.139Z</time></trkpt><trkpt lat="43.4335806" lon="11.1844231"><ele>167.0</ele><time>2026-03-29T13:21:02.123Z</time></trkpt><trkpt lat="43.4337275" lon="11.1844872"><ele>167.0</ele><time>2026-03-29T13:21:03.127Z</time></trkpt><trkpt lat="43.4338734" lon="11.1845497"><ele>167.66666666666666</ele><time>2026-03-29T13:21:04.123Z</time></trkpt><trkpt lat="43.4340166" lon="11.1846127"><ele>168.33333333333334</ele><time>2026-03-29T13:21:05.132Z</time></trkpt><trkpt lat="43.4341624" lon="11.1846741"><ele>169.0</ele><time>2026-03-29T13:21:06.125Z</time></trkpt><trkpt lat="43.4343052" lon="11.1847366"><ele>169.0</ele><time>2026-03-29T13:21:07.128Z</time></trkpt><trkpt lat="43.434454" lon="11.184801"><ele>169.0</ele><time>2026-03-29T13:21:08.132Z</time></trkpt><trkpt lat="43.4346088" lon="11.1848602"><ele>169.0</ele><time>2026-03-29T13:21:09.134Z</time></trkpt><trkpt lat="43.4347676" lon="11.1849044"><ele>172.25</ele><time>2026-03-29T13:21:10.131Z</time></trkpt><trkpt lat="43.4349228" lon="11.1849337"><ele>175.5</ele><time>2026-03-29T13:21:11.158Z</time></trkpt><trkpt lat="43.4350668" lon="11.1849593"><ele>178.75</ele><time>2026-03-29T13:21:12.157Z</time></trkpt><trkpt lat="43.4352021" lon="11.1849822"><ele>182.0</ele><time>2026-03-29T13:21:13.131Z</time></trkpt><trkpt lat="43.435334" lon="11.1850031"><ele>182.0</ele><time>2026-03-29T13:21:14.123Z</time></trkpt><trkpt lat="43.4354528" lon="11.1850223"><ele>182.0</ele><time>2026-03-29T13:21:15.129Z</time></trkpt><trkpt lat="43.4355658" lon="11.1850499"><ele>182.0</ele><time>2026-03-29T13:21:16.127Z</time></trkpt><trkpt lat="43.4357101" lon="11.1850852"><ele>182.0</ele><time>2026-03-29T13:21:17.126Z</time></trkpt><trkpt lat="43.4358541" lon="11.1851133"><ele>182.25</ele><time>2026-03-29T13:21:18.13Z</time></trkpt><trkpt lat="43.4359987" lon="11.1851413"><ele>182.5</ele><time>2026-03-29T13:21:19.164Z</time></trkpt><trkpt lat="43.4361335" lon="11.1851723"><ele>182.75</ele><time>2026-03-29T13:21:20.121Z</time></trkpt><trkpt lat="43.4362815" lon="11.1852051"><ele>183.0</ele><time>2026-03-29T13:21:21.131Z</time></trkpt><trkpt lat="43.4364167" lon="11.185243"><ele>183.5</ele><time>2026-03-29T13:21:22.153Z</time></trkpt><trkpt lat="43.4365469" lon="11.1852932"><ele>184.0</ele><time>2026-03-29T13:21:23.138Z</time></trkpt><trkpt lat="43.4366891" lon="11.1853454"><ele>184.5</ele><time>2026-03-29T13:21:24.117Z</time></trkpt><trkpt lat="43.4368308" lon="11.1854001"><ele>185.0</ele><time>2026-03-29T13:21:25.122Z</time></trkpt><trkpt lat="43.4369713" lon="11.1854621"><ele>185.0</ele><time>2026-03-29T13:21:26.118Z</time></trkpt><trkpt lat="43.4371044" lon="11.185521"><ele>185.0</ele><time>2026-03-29T13:21:27.159Z</time></trkpt><trkpt lat="43.4372262" lon="11.185573"><ele>185.0</ele><time>2026-03-29T13:21:28.157Z</time></trkpt><trkpt lat="43.4373348" lon="11.1856273"><ele>185.0</ele><time>2026-03-29T13:21:29.122Z</time></trkpt><trkpt lat="43.4374386" lon="11.1856741"><ele>185.4</ele><time>2026-03-29T13:21:30.137Z</time></trkpt><trkpt lat="43.4375164" lon="11.1856886"><ele>185.8</ele><time>2026-03-29T13:21:31.121Z</time></trkpt><trkpt lat="43.4376249" lon="11.1856806"><ele>186.2</ele><time>2026-03-29T13:21:32.131Z</time></trkpt><trkpt lat="43.4377453" lon="11.185668"><ele>186.6</ele><time>2026-03-29T13:21:33.126Z</time></trkpt><trkpt lat="43.4378637" lon="11.1856557"><ele>187.0</ele><time>2026-03-29T13:21:34.133Z</time></trkpt><trkpt lat="43.4379879" lon="11.1856451"><ele>187.8</ele><time>2026-03-29T13:21:35.128Z</time></trkpt><trkpt lat="43.4381004" lon="11.1856327"><ele>188.6</ele><time>2026-03-29T13:21:36.138Z</time></trkpt><trkpt lat="43.4382274" lon="11.1856183"><ele>189.4</ele><time>2026-03-29T13:21:37.124Z</time></trkpt><trkpt lat="43.4383186" lon="11.1856077"><ele>190.20000000000002</ele><time>2026-03-29T13:21:38.127Z</time></trkpt><trkpt lat="43.4384085" lon="11.1855942"><ele>191.0</ele><time>2026-03-29T13:21:39.126Z</time></trkpt><trkpt lat="43.4384898" lon="11.1855868"><ele>191.0</ele><time>2026-03-29T13:21:40.146Z</time></trkpt><trkpt lat="43.438563" lon="11.1855733"><ele>191.0</ele><time>2026-03-29T13:21:41.129Z</time></trkpt><trkpt lat="43.4386266" lon="11.1855745"><ele>191.0</ele><time>2026-03-29T13:21:43.132Z</time></trkpt><trkpt lat="43.4386632" lon="11.1856615"><ele>191.0</ele><time>2026-03-29T13:21:47.134Z</time></trkpt><trkpt lat="43.4386024" lon="11.1857333"><ele>191.0</ele><time>2026-03-29T13:21:49.114Z</time></trkpt><trkpt lat="43.4385156" lon="11.1858218"><ele>191.0</ele><time>2026-03-29T13:21:51.116Z</time></trkpt><trkpt lat="43.4384318" lon="11.1859041"><ele>193.16666666666666</ele><time>2026-03-29T13:21:53.11Z</time></trkpt><trkpt lat="43.4383754" lon="11.1859775"><ele>195.33333333333331</ele><time>2026-03-29T13:21:55.117Z</time></trkpt><trkpt lat="43.4383277" lon="11.186071"><ele>197.5</ele><time>2026-03-29T13:21:57.112Z</time></trkpt><trkpt lat="43.4383117" lon="11.1862274"><ele>199.66666666666666</ele><time>2026-03-29T13:21:59.122Z</time></trkpt><trkpt lat="43.4382964" lon="11.1863447"><ele>201.83333333333334</ele><time>2026-03-29T13:22:01.111Z</time></trkpt><trkpt lat="43.4382727" lon="11.1864574"><ele>204.0</ele><time>2026-03-29T13:22:03.143Z</time></trkpt><trkpt lat="43.4382411" lon="11.186565"><ele>204.0</ele><time>2026-03-29T13:22:05.114Z</time></trkpt><trkpt lat="43.4382077" lon="11.1866519"><ele>204.0</ele><time>2026-03-29T13:22:07.113Z</time></trkpt><trkpt lat="43.4381658" lon="11.1867204"><ele>204.0</ele><time>2026-03-29T13:22:09.117Z</time></trkpt><trkpt lat="43.4380842" lon="11.1868337"><ele>204.0</ele><time>2026-03-29T13:22:11.147Z</time></trkpt><trkpt lat="43.4379986" lon="11.1869407"><ele>204.0</ele><time>2026-03-29T13:22:13.112Z</time></trkpt><trkpt lat="43.4379305" lon="11.1870174"><ele>205.79999999999998</ele><time>2026-03-29T13:22:15.119Z</time></trkpt><trkpt lat="43.4378571" lon="11.1870985"><ele>207.6</ele><time>2026-03-29T13:22:17.151Z</time></trkpt><trkpt lat="43.4377758" lon="11.1871935"><ele>209.4</ele><time>2026-03-29T13:22:19.146Z</time></trkpt><trkpt lat="43.4377077" lon="11.1872819"><ele>211.2</ele><time>2026-03-29T13:22:21.116Z</time></trkpt><trkpt lat="43.4376606" lon="11.1873817"><ele>213.0</ele><time>2026-03-29T13:22:23.115Z</time></trkpt><trkpt lat="43.4376413" lon="11.1874875"><ele>213.0</ele><time>2026-03-29T13:22:25.126Z</time></trkpt><trkpt lat="43.4376631" lon="11.1875817"><ele>213.0</ele><time>2026-03-29T13:22:27.118Z</time></trkpt><trkpt lat="43.437726" lon="11.187663"><ele>213.0</ele><time>2026-03-29T13:22:29.116Z</time></trkpt><trkpt lat="43.4377963" lon="11.1877027"><ele>213.0</ele><time>2026-03-29T13:22:36.115Z</time></trkpt><trkpt lat="43.4378878" lon="11.187697"><ele>213.0</ele><time>2026-03-29T13:22:39.129Z</time></trkpt><trkpt lat="43.4379662" lon="11.1876247"><ele>213.0</ele><time>2026-03-29T13:22:42.114Z</time></trkpt><trkpt lat="43.4380234" lon="11.1875617"><ele>213.0</ele><time>2026-03-29T13:22:44.15Z</time></trkpt><trkpt lat="43.4380875" lon="11.1875153"><ele>213.0</ele><time>2026-03-29T13:22:47.116Z</time></trkpt><trkpt lat="43.4380434" lon="11.1874486"><ele>213.0</ele><time>2026-03-29T13:22:52.142Z</time></trkpt><trkpt lat="43.4379985" lon="11.1875118"><ele>213.0</ele><time>2026-03-29T13:22:54.114Z</time></trkpt><trkpt lat="43.4379179" lon="11.187622"><ele>213.0</ele><time>2026-03-29T13:22:56.12Z</time></trkpt><trkpt lat="43.4378251" lon="11.1876845"><ele>213.0</ele><time>2026-03-29T13:22:58.124Z</time></trkpt><trkpt lat="43.4377321" lon="11.1876522"><ele>213.0</ele><time>2026-03-29T13:23:00.13Z</time></trkpt><trkpt lat="43.4376624" lon="11.1876094"><ele>213.0</ele><time>2026-03-29T13:23:02.12Z</time></trkpt><trkpt lat="43.4376856" lon="11.187694"><ele>213.0</ele><time>2026-03-29T13:23:09.118Z</time></trkpt><trkpt lat="43.4377149" lon="11.1877806"><ele>213.0</ele><time>2026-03-29T13:23:12.115Z</time></trkpt><trkpt lat="43.4377556" lon="11.1878654"><ele>213.0</ele><time>2026-03-29T13:23:14.116Z</time></trkpt><trkpt lat="43.4378102" lon="11.1879516"><ele>213.0</ele><time>2026-03-29T13:23:16.116Z</time></trkpt><trkpt lat="43.437871" lon="11.1880439"><ele>213.0</ele><time>2026-03-29T13:23:18.117Z</time></trkpt><trkpt lat="43.4379399" lon="11.1881332"><ele>213.0</ele><time>2026-03-29T13:23:20.147Z</time></trkpt><trkpt lat="43.4380102" lon="11.1882317"><ele>213.0</ele><time>2026-03-29T13:23:22.119Z</time></trkpt><trkpt lat="43.4380759" lon="11.1883343"><ele>213.0</ele><time>2026-03-29T13:23:24.114Z</time></trkpt><trkpt lat="43.4381377" lon="11.1884399"><ele>213.0</ele><time>2026-03-29T13:23:26.118Z</time></trkpt><trkpt lat="43.4381994" lon="11.1885359"><ele>209.5</ele><time>2026-03-29T13:23:28.117Z</time></trkpt><trkpt lat="43.4382576" lon="11.1886307"><ele>206.0</ele><time>2026-03-29T13:23:30.127Z</time></trkpt><trkpt lat="43.438333" lon="11.1887389"><ele>202.5</ele><time>2026-03-29T13:23:32.117Z</time></trkpt><trkpt lat="43.4383805" lon="11.1888037"><ele>199.0</ele><time>2026-03-29T13:23:33.121Z</time></trkpt><trkpt lat="43.4384312" lon="11.1888724"><ele>195.5</ele><time>2026-03-29T13:23:34.118Z</time></trkpt><trkpt lat="43.4384796" lon="11.1889382"><ele>192.0</ele><time>2026-03-29T13:23:35.127Z</time></trkpt><trkpt lat="43.4385234" lon="11.1890037"><ele>191.33333333333334</ele><time>2026-03-29T13:23:36.123Z</time></trkpt><trkpt lat="43.4385679" lon="11.1890678"><ele>190.66666666666666</ele><time>2026-03-29T13:23:37.118Z</time></trkpt><trkpt lat="43.4386128" lon="11.1891327"><ele>190.0</ele><time>2026-03-29T13:23:38.118Z</time></trkpt><trkpt lat="43.4386583" lon="11.1891948"><ele>189.33333333333331</ele><time>2026-03-29T13:23:39.119Z</time></trkpt><trkpt lat="43.4387473" lon="11.1893106"><ele>188.66666666666666</ele><time>2026-03-29T13:23:41.119Z</time></trkpt><trkpt lat="43.4388297" lon="11.1894159"><ele>188.0</ele><time>2026-03-29T13:23:43.124Z</time></trkpt><trkpt lat="43.4388936" lon="11.1895178"><ele>186.5</ele><time>2026-03-29T13:23:45.118Z</time></trkpt><trkpt lat="43.4389452" lon="11.1896069"><ele>185.0</ele><time>2026-03-29T13:23:47.115Z</time></trkpt><trkpt lat="43.4389902" lon="11.1896828"><ele>183.5</ele><time>2026-03-29T13:23:49.118Z</time></trkpt><trkpt lat="43.4390326" lon="11.1897471"><ele>182.0</ele><time>2026-03-29T13:23:51.132Z</time></trkpt><trkpt lat="43.4390954" lon="11.1898266"><ele>180.5</ele><time>2026-03-29T13:23:54.121Z</time></trkpt><trkpt lat="43.4391587" lon="11.1899093"><ele>179.0</ele><time>2026-03-29T13:23:56.152Z</time></trkpt><trkpt lat="43.4392555" lon="11.1899901"><ele>178.39999999999998</ele><time>2026-03-29T13:23:58.119Z</time></trkpt><trkpt lat="43.4393657" lon="11.1900512"><ele>177.8</ele><time>2026-03-29T13:24:00.115Z</time></trkpt><trkpt lat="43.4394792" lon="11.1901058"><ele>177.2</ele><time>2026-03-29T13:24:02.115Z</time></trkpt><trkpt lat="43.4395752" lon="11.1901662"><ele>176.60000000000002</ele><time>2026-03-29T13:24:04.125Z</time></trkpt><trkpt lat="43.4396526" lon="11.1902292"><ele>176.0</ele><time>2026-03-29T13:24:06.119Z</time></trkpt><trkpt lat="43.4397321" lon="11.1902894"><ele>175.16666666666666</ele><time>2026-03-29T13:24:08.111Z</time></trkpt><trkpt lat="43.4398103" lon="11.1903625"><ele>174.33333333333331</ele><time>2026-03-29T13:24:10.121Z</time></trkpt><trkpt lat="43.4398804" lon="11.1904444"><ele>173.5</ele><time>2026-03-29T13:24:12.118Z</time></trkpt><trkpt lat="43.4399483" lon="11.1905225"><ele>172.66666666666666</ele><time>2026-03-29T13:24:14.117Z</time></trkpt><trkpt lat="43.4400135" lon="11.1905975"><ele>171.83333333333334</ele><time>2026-03-29T13:24:16.15Z</time></trkpt><trkpt lat="43.44007" lon="11.1906672"><ele>171.0</ele><time>2026-03-29T13:24:18.116Z</time></trkpt><trkpt lat="43.4401268" lon="11.1907137"><ele>171.0</ele><time>2026-03-29T13:24:20.142Z</time></trkpt><trkpt lat="43.4402117" lon="11.1907285"><ele>171.0</ele><time>2026-03-29T13:24:23.115Z</time></trkpt><trkpt lat="43.4403093" lon="11.1907045"><ele>171.0</ele><time>2026-03-29T13:24:25.132Z</time></trkpt><trkpt lat="43.4404207" lon="11.1906609"><ele>171.0</ele><time>2026-03-29T13:24:27.149Z</time></trkpt><trkpt lat="43.4405245" lon="11.1906229"><ele>171.0</ele><time>2026-03-29T13:24:29.12Z</time></trkpt><trkpt lat="43.4406092" lon="11.1905864"><ele>169.16666666666666</ele><time>2026-03-29T13:24:31.117Z</time></trkpt><trkpt lat="43.4406679" lon="11.1905535"><ele>167.33333333333334</ele><time>2026-03-29T13:24:33.15Z</time></trkpt><trkpt lat="43.4407464" lon="11.1905"><ele>165.5</ele><time>2026-03-29T13:24:36.133Z</time></trkpt><trkpt lat="43.4408268" lon="11.1904897"><ele>163.66666666666669</ele><time>2026-03-29T13:24:39.116Z</time></trkpt><trkpt lat="43.4408779" lon="11.1905703"><ele>161.83333333333334</ele><time>2026-03-29T13:24:42.113Z</time></trkpt><trkpt lat="43.4408982" lon="11.1906931"><ele>160.0</ele><time>2026-03-29T13:24:45.117Z</time></trkpt><trkpt lat="43.440904" lon="11.1907964"><ele>159.16666666666669</ele><time>2026-03-29T13:24:48.122Z</time></trkpt><trkpt lat="43.4409761" lon="11.1908783"><ele>158.33333333333334</ele><time>2026-03-29T13:24:51.12Z</time></trkpt><trkpt lat="43.4410537" lon="11.190926"><ele>157.5</ele><time>2026-03-29T13:25:02.115Z</time></trkpt><trkpt lat="43.4411308" lon="11.1909497"><ele>156.66666666666666</ele><time>2026-03-29T13:25:05.128Z</time></trkpt><trkpt lat="43.4411209" lon="11.1910534"><ele>155.83333333333331</ele><time>2026-03-29T13:25:22.139Z</time></trkpt><trkpt lat="43.4410988" lon="11.1911974"><ele>155.0</ele><time>2026-03-29T13:25:24.126Z</time></trkpt><trkpt lat="43.4410646" lon="11.191363"><ele>155.0</ele><time>2026-03-29T13:25:26.13Z</time></trkpt><trkpt lat="43.4410435" lon="11.1914533"><ele>155.0</ele><time>2026-03-29T13:25:27.129Z</time></trkpt><trkpt lat="43.4410245" lon="11.1915521"><ele>155.0</ele><time>2026-03-29T13:25:28.127Z</time></trkpt><trkpt lat="43.4410105" lon="11.1916476"><ele>155.0</ele><time>2026-03-29T13:25:29.166Z</time></trkpt><trkpt lat="43.4410066" lon="11.1917348"><ele>155.0</ele><time>2026-03-29T13:25:30.159Z</time></trkpt><trkpt lat="43.4410311" lon="11.1918785"><ele>155.0</ele><time>2026-03-29T13:25:32.134Z</time></trkpt><trkpt lat="43.4410877" lon="11.1920028"><ele>154.0</ele><time>2026-03-29T13:25:34.121Z</time></trkpt><trkpt lat="43.441118" lon="11.1921273"><ele>153.0</ele><time>2026-03-29T13:25:36.123Z</time></trkpt><trkpt lat="43.4411017" lon="11.1922558"><ele>152.0</ele><time>2026-03-29T13:25:38.121Z</time></trkpt><trkpt lat="43.4410448" lon="11.1924014"><ele>151.0</ele><time>2026-03-29T13:25:40.125Z</time></trkpt><trkpt lat="43.4409836" lon="11.1925426"><ele>150.0</ele><time>2026-03-29T13:25:42.132Z</time></trkpt><trkpt lat="43.4409305" lon="11.1926645"><ele>149.66666666666666</ele><time>2026-03-29T13:25:44.118Z</time></trkpt><trkpt lat="43.4408982" lon="11.1927427"><ele>149.33333333333334</ele><time>2026-03-29T13:25:46.128Z</time></trkpt><trkpt lat="43.440861" lon="11.1928456"><ele>149.0</ele><time>2026-03-29T13:25:56.116Z</time></trkpt><trkpt lat="43.4408162" lon="11.1929305"><ele>148.66666666666669</ele><time>2026-03-29T13:25:58.133Z</time></trkpt><trkpt lat="43.4407748" lon="11.1930046"><ele>148.33333333333334</ele><time>2026-03-29T13:26:00.118Z</time></trkpt><trkpt lat="43.4407364" lon="11.1931208"><ele>148.0</ele><time>2026-03-29T13:26:02.129Z</time></trkpt><trkpt lat="43.4406988" lon="11.1932553"><ele>148.57142857142858</ele><time>2026-03-29T13:26:04.129Z</time></trkpt><trkpt lat="43.4406663" lon="11.1933476"><ele>149.14285714285714</ele><time>2026-03-29T13:26:06.132Z</time></trkpt><trkpt lat="43.4406364" lon="11.1934353"><ele>149.71428571428572</ele><time>2026-03-29T13:26:09.124Z</time></trkpt><trkpt lat="43.4406222" lon="11.1935374"><ele>150.28571428571428</ele><time>2026-03-29T13:26:12.122Z</time></trkpt><trkpt lat="43.4406049" lon="11.1936255"><ele>150.85714285714286</ele><time>2026-03-29T13:26:14.13Z</time></trkpt><trkpt lat="43.4405887" lon="11.1937126"><ele>151.42857142857142</ele><time>2026-03-29T13:26:17.118Z</time></trkpt><trkpt lat="43.4405553" lon="11.1938015"><ele>152.0</ele><time>2026-03-29T13:26:20.129Z</time></trkpt><trkpt lat="43.4404968" lon="11.1938975"><ele>152.0</ele><time>2026-03-29T13:26:23.13Z</time></trkpt><trkpt lat="43.4404517" lon="11.1939827"><ele>152.0</ele><time>2026-03-29T13:26:29.13Z</time></trkpt><trkpt lat="43.4404181" lon="11.1940574"><ele>152.0</ele><time>2026-03-29T13:26:39.13Z</time></trkpt><trkpt lat="43.440386" lon="11.1941423"><ele>152.0</ele><time>2026-03-29T13:26:42.119Z</time></trkpt><trkpt lat="43.4404277" lon="11.19406"><ele>152.0</ele><time>2026-03-29T13:28:15.118Z</time></trkpt><trkpt lat="43.440469" lon="11.1939888"><ele>152.0</ele><time>2026-03-29T13:28:19.129Z</time></trkpt><trkpt lat="43.4405129" lon="11.1939169"><ele>152.0</ele><time>2026-03-29T13:28:23.125Z</time></trkpt><trkpt lat="43.44055" lon="11.1938404"><ele>152.0</ele><time>2026-03-29T13:28:25.141Z</time></trkpt><trkpt lat="43.4405732" lon="11.1937385"><ele>152.0</ele><time>2026-03-29T13:28:28.121Z</time></trkpt><trkpt lat="43.4405868" lon="11.1936467"><ele>152.0</ele><time>2026-03-29T13:28:31.12Z</time></trkpt><trkpt lat="43.4405966" lon="11.1935502"><ele>152.0</ele><time>2026-03-29T13:28:34.123Z</time></trkpt><trkpt lat="43.4406151" lon="11.1934606"><ele>152.0</ele><time>2026-03-29T13:28:37.127Z</time></trkpt><trkpt lat="43.4406606" lon="11.1933454"><ele>152.0</ele><time>2026-03-29T13:28:40.128Z</time></trkpt><trkpt lat="43.4407019" lon="11.1932385"><ele>151.2</ele><time>2026-03-29T13:28:42.155Z</time></trkpt><trkpt lat="43.4407364" lon="11.1931282"><ele>150.39999999999998</ele><time>2026-03-29T13:28:44.131Z</time></trkpt><trkpt lat="43.4407817" lon="11.1930225"><ele>149.60000000000002</ele><time>2026-03-29T13:28:46.135Z</time></trkpt><trkpt lat="43.4408516" lon="11.1929011"><ele>148.8</ele><time>2026-03-29T13:28:48.148Z</time></trkpt><trkpt lat="43.4408964" lon="11.192797"><ele>148.0</ele><time>2026-03-29T13:28:50.12Z</time></trkpt><trkpt lat="43.440971" lon="11.1928944"><ele>148.0</ele><time>2026-03-29T13:30:01.117Z</time></trkpt><trkpt lat="43.4410282" lon="11.1930375"><ele>148.0</ele><time>2026-03-29T13:30:03.127Z</time></trkpt><trkpt lat="43.4410562" lon="11.1931177"><ele>148.0</ele><time>2026-03-29T13:30:04.125Z</time></trkpt><trkpt lat="43.4410855" lon="11.1932026"><ele>148.0</ele><time>2026-03-29T13:30:05.12Z</time></trkpt><trkpt lat="43.4411132" lon="11.1932901"><ele>148.0</ele><time>2026-03-29T13:30:06.132Z</time></trkpt><trkpt lat="43.441139" lon="11.1933772"><ele>148.0</ele><time>2026-03-29T13:30:07.117Z</time></trkpt><trkpt lat="43.441163" lon="11.1934601"><ele>149.0</ele><time>2026-03-29T13:30:08.125Z</time></trkpt><trkpt lat="43.4411979" lon="11.1936175"><ele>150.0</ele><time>2026-03-29T13:30:10.15Z</time></trkpt><trkpt lat="43.441214" lon="11.1937796"><ele>151.0</ele><time>2026-03-29T13:30:12.132Z</time></trkpt><trkpt lat="43.4412249" lon="11.193933"><ele>152.0</ele><time>2026-03-29T13:30:14.121Z</time></trkpt><trkpt lat="43.4412457" lon="11.1940838"><ele>153.2</ele><time>2026-03-29T13:30:16.153Z</time></trkpt><trkpt lat="43.441268" lon="11.1942408"><ele>154.39999999999998</ele><time>2026-03-29T13:30:18.151Z</time></trkpt><trkpt lat="43.441284" lon="11.1943974"><ele>155.60000000000002</ele><time>2026-03-29T13:30:20.133Z</time></trkpt><trkpt lat="43.441293" lon="11.1945538"><ele>156.8</ele><time>2026-03-29T13:30:22.121Z</time></trkpt><trkpt lat="43.4412976" lon="11.1946858"><ele>158.0</ele><time>2026-03-29T13:30:24.121Z</time></trkpt><trkpt lat="43.4413017" lon="11.1947853"><ele>162.2</ele><time>2026-03-29T13:30:26.121Z</time></trkpt><trkpt lat="43.4413678" lon="11.1948628"><ele>166.4</ele><time>2026-03-29T13:30:44.126Z</time></trkpt><trkpt lat="43.4414648" lon="11.1949056"><ele>170.6</ele><time>2026-03-29T13:30:46.113Z</time></trkpt><trkpt lat="43.4415778" lon="11.1949652"><ele>174.79999999999998</ele><time>2026-03-29T13:30:48.125Z</time></trkpt><trkpt lat="43.4416767" lon="11.1950185"><ele>179.0</ele><time>2026-03-29T13:30:50.132Z</time></trkpt><trkpt lat="43.4417646" lon="11.1950626"><ele>179.0</ele><time>2026-03-29T13:30:52.153Z</time></trkpt><trkpt lat="43.4418368" lon="11.1951111"><ele>179.0</ele><time>2026-03-29T13:30:54.125Z</time></trkpt><trkpt lat="43.4419086" lon="11.195162"><ele>179.0</ele><time>2026-03-29T13:30:56.126Z</time></trkpt><trkpt lat="43.4420062" lon="11.1952113"><ele>179.0</ele><time>2026-03-29T13:30:58.121Z</time></trkpt><trkpt lat="43.4421123" lon="11.1952632"><ele>179.0</ele><time>2026-03-29T13:31:00.11Z</time></trkpt><trkpt lat="43.4421721" lon="11.1952905"><ele>179.0</ele><time>2026-03-29T13:31:01.135Z</time></trkpt><trkpt lat="43.4422352" lon="11.1953174"><ele>181.0</ele><time>2026-03-29T13:31:02.122Z</time></trkpt><trkpt lat="43.4422975" lon="11.1953417"><ele>183.0</ele><time>2026-03-29T13:31:03.115Z</time></trkpt><trkpt lat="43.4423625" lon="11.195368"><ele>185.0</ele><time>2026-03-29T13:31:04.131Z</time></trkpt><trkpt lat="43.4424398" lon="11.1953974"><ele>187.0</ele><time>2026-03-29T13:31:05.136Z</time></trkpt><trkpt lat="43.4425278" lon="11.1954312"><ele>189.0</ele><time>2026-03-29T13:31:06.119Z</time></trkpt><trkpt lat="43.4426125" lon="11.1954735"><ele>191.0</ele><time>2026-03-29T13:31:07.133Z</time></trkpt><trkpt lat="43.4426958" lon="11.1955212"><ele>191.0</ele><time>2026-03-29T13:31:08.146Z</time></trkpt><trkpt lat="43.4427791" lon="11.195569"><ele>191.0</ele><time>2026-03-29T13:31:09.114Z</time></trkpt><trkpt lat="43.4428624" lon="11.1956185"><ele>191.0</ele><time>2026-03-29T13:31:10.131Z</time></trkpt><trkpt lat="43.4429446" lon="11.1956722"><ele>191.0</ele><time>2026-03-29T13:31:11.117Z</time></trkpt><trkpt lat="43.4430226" lon="11.1957229"><ele>191.0</ele><time>2026-03-29T13:31:12.123Z</time></trkpt><trkpt lat="43.4430924" lon="11.1957668"><ele>191.0</ele><time>2026-03-29T13:31:13.123Z</time></trkpt><trkpt lat="43.443152" lon="11.1958069"><ele>192.83333333333331</ele><time>2026-03-29T13:31:14.126Z</time></trkpt><trkpt lat="43.4432501" lon="11.1958341"><ele>194.66666666666666</ele><time>2026-03-29T13:31:16.121Z</time></trkpt><trkpt lat="43.4433233" lon="11.1957826"><ele>196.5</ele><time>2026-03-29T13:31:18.132Z</time></trkpt><trkpt lat="43.4433859" lon="11.195682"><ele>198.33333333333331</ele><time>2026-03-29T13:31:20.121Z</time></trkpt><trkpt lat="43.4434279" lon="11.1955977"><ele>200.16666666666666</ele><time>2026-03-29T13:31:22.13Z</time></trkpt><trkpt lat="43.4434825" lon="11.1955427"><ele>202.0</ele><time>2026-03-29T13:31:30.122Z</time></trkpt><trkpt lat="43.4435631" lon="11.1954586"><ele>202.0</ele><time>2026-03-29T13:31:33.135Z</time></trkpt><trkpt lat="43.4436291" lon="11.1953618"><ele>202.0</ele><time>2026-03-29T13:31:35.118Z</time></trkpt><trkpt lat="43.4437274" lon="11.1952358"><ele>202.0</ele><time>2026-03-29T13:31:37.115Z</time></trkpt><trkpt lat="43.4437908" lon="11.1951648"><ele>202.0</ele><time>2026-03-29T13:31:38.132Z</time></trkpt><trkpt lat="43.4438589" lon="11.1950926"><ele>202.0</ele><time>2026-03-29T13:31:39.118Z</time></trkpt><trkpt lat="43.4439308" lon="11.195026"><ele>202.16666666666666</ele><time>2026-03-29T13:31:40.129Z</time></trkpt><trkpt lat="43.4439996" lon="11.1949566"><ele>202.33333333333331</ele><time>2026-03-29T13:31:41.123Z</time></trkpt><trkpt lat="43.4440616" lon="11.1948883"><ele>202.5</ele><time>2026-03-29T13:31:42.124Z</time></trkpt><trkpt lat="43.4441182" lon="11.1948354"><ele>202.66666666666669</ele><time>2026-03-29T13:31:43.139Z</time></trkpt><trkpt lat="43.4442001" lon="11.1947759"><ele>202.83333333333334</ele><time>2026-03-29T13:31:45.124Z</time></trkpt><trkpt lat="43.4442599" lon="11.1947354"><ele>203.0</ele><time>2026-03-29T13:31:47.118Z</time></trkpt><trkpt lat="43.4443385" lon="11.1946761"><ele>201.8</ele><time>2026-03-29T13:31:49.133Z</time></trkpt><trkpt lat="43.4444172" lon="11.1946649"><ele>200.60000000000002</ele><time>2026-03-29T13:31:51.159Z</time></trkpt><trkpt lat="43.4444835" lon="11.1946472"><ele>199.39999999999998</ele><time>2026-03-29T13:31:53.117Z</time></trkpt><trkpt lat="43.4445205" lon="11.1945695"><ele>198.2</ele><time>2026-03-29T13:31:55.118Z</time></trkpt><trkpt lat="43.4445226" lon="11.1943776"><ele>197.0</ele><time>2026-03-29T13:31:57.129Z</time></trkpt><trkpt lat="43.4445182" lon="11.1942398"><ele>197.0</ele><time>2026-03-29T13:31:58.129Z</time></trkpt><trkpt lat="43.4445186" lon="11.1940969"><ele>197.0</ele><time>2026-03-29T13:31:59.155Z</time></trkpt><trkpt lat="43.4445259" lon="11.1939534"><ele>197.0</ele><time>2026-03-29T13:32:00.143Z</time></trkpt><trkpt lat="43.4445413" lon="11.1937998"><ele>197.0</ele><time>2026-03-29T13:32:01.138Z</time></trkpt><trkpt lat="43.4445626" lon="11.1936546"><ele>197.0</ele><time>2026-03-29T13:32:02.122Z</time></trkpt><trkpt lat="43.4445937" lon="11.1935119"><ele>195.0</ele><time>2026-03-29T13:32:03.115Z</time></trkpt><trkpt lat="43.4446324" lon="11.193371"><ele>193.0</ele><time>2026-03-29T13:32:04.13Z</time></trkpt><trkpt lat="43.444674" lon="11.1932313"><ele>191.0</ele><time>2026-03-29T13:32:05.125Z</time></trkpt><trkpt lat="43.444718" lon="11.1930971"><ele>189.0</ele><time>2026-03-29T13:32:06.12Z</time></trkpt><trkpt lat="43.4447635" lon="11.1929764"><ele>187.0</ele><time>2026-03-29T13:32:07.128Z</time></trkpt><trkpt lat="43.4448064" lon="11.1928624"><ele>186.6</ele><time>2026-03-29T13:32:08.128Z</time></trkpt><trkpt lat="43.4448442" lon="11.1927464"><ele>186.2</ele><time>2026-03-29T13:32:09.127Z</time></trkpt><trkpt lat="43.4448731" lon="11.1926173"><ele>185.8</ele><time>2026-03-29T13:32:10.118Z</time></trkpt><trkpt lat="43.4448919" lon="11.1924702"><ele>185.4</ele><time>2026-03-29T13:32:11.135Z</time></trkpt><trkpt lat="43.4449001" lon="11.1923108"><ele>185.0</ele><time>2026-03-29T13:32:12.129Z</time></trkpt><trkpt lat="43.444903" lon="11.1921443"><ele>184.75</ele><time>2026-03-29T13:32:13.125Z</time></trkpt><trkpt lat="43.4449111" lon="11.1919699"><ele>184.5</ele><time>2026-03-29T13:32:14.149Z</time></trkpt><trkpt lat="43.4449288" lon="11.1917867"><ele>184.25</ele><time>2026-03-29T13:32:15.118Z</time></trkpt><trkpt lat="43.4449548" lon="11.1915953"><ele>184.0</ele><time>2026-03-29T13:32:16.157Z</time></trkpt><trkpt lat="43.4449868" lon="11.191404"><ele>184.0</ele><time>2026-03-29T13:32:17.121Z</time></trkpt><trkpt lat="43.4450214" lon="11.1912191"><ele>184.0</ele><time>2026-03-29T13:32:18.118Z</time></trkpt><trkpt lat="43.4450516" lon="11.1910443"><ele>184.0</ele><time>2026-03-29T13:32:19.138Z</time></trkpt><trkpt lat="43.4450796" lon="11.1908782"><ele>184.0</ele><time>2026-03-29T13:32:20.166Z</time></trkpt><trkpt lat="43.4451061" lon="11.1907179"><ele>182.75</ele><time>2026-03-29T13:32:21.118Z</time></trkpt><trkpt lat="43.4451383" lon="11.1905606"><ele>181.5</ele><time>2026-03-29T13:32:22.127Z</time></trkpt><trkpt lat="43.4451753" lon="11.190393"><ele>180.25</ele><time>2026-03-29T13:32:23.116Z</time></trkpt><trkpt lat="43.4452135" lon="11.1902214"><ele>179.0</ele><time>2026-03-29T13:32:24.126Z</time></trkpt><trkpt lat="43.4452553" lon="11.1900507"><ele>179.0</ele><time>2026-03-29T13:32:25.138Z</time></trkpt><trkpt lat="43.4452992" lon="11.1898814"><ele>179.0</ele><time>2026-03-29T13:32:26.12Z</time></trkpt><trkpt lat="43.445346" lon="11.1897156"><ele>179.0</ele><time>2026-03-29T13:32:27.159Z</time></trkpt><trkpt lat="43.4453966" lon="11.1895503"><ele>179.0</ele><time>2026-03-29T13:32:28.125Z</time></trkpt><trkpt lat="43.4454419" lon="11.1893844"><ele>176.75</ele><time>2026-03-29T13:32:29.117Z</time></trkpt><trkpt lat="43.4454797" lon="11.189218"><ele>174.5</ele><time>2026-03-29T13:32:30.147Z</time></trkpt><trkpt lat="43.4455103" lon="11.1890487"><ele>172.25</ele><time>2026-03-29T13:32:31.125Z</time></trkpt><trkpt lat="43.4455323" lon="11.1888837"><ele>170.0</ele><time>2026-03-29T13:32:32.152Z</time></trkpt><trkpt lat="43.4455492" lon="11.1887254"><ele>169.5</ele><time>2026-03-29T13:32:33.157Z</time></trkpt><trkpt lat="43.4455699" lon="11.1885734"><ele>169.0</ele><time>2026-03-29T13:32:34.12Z</time></trkpt><trkpt lat="43.4455938" lon="11.1884216"><ele>168.5</ele><time>2026-03-29T13:32:35.128Z</time></trkpt><trkpt lat="43.445624" lon="11.1882653"><ele>168.0</ele><time>2026-03-29T13:32:36.119Z</time></trkpt><trkpt lat="43.445648" lon="11.1881041"><ele>167.0</ele><time>2026-03-29T13:32:37.132Z</time></trkpt><trkpt lat="43.4456641" lon="11.1879332"><ele>166.0</ele><time>2026-03-29T13:32:38.116Z</time></trkpt><trkpt lat="43.4456729" lon="11.187764"><ele>165.0</ele><time>2026-03-29T13:32:39.126Z</time></trkpt><trkpt lat="43.4456808" lon="11.1875988"><ele>164.0</ele><time>2026-03-29T13:32:40.13Z</time></trkpt><trkpt lat="43.445684" lon="11.1874311"><ele>163.5</ele><time>2026-03-29T13:32:41.122Z</time></trkpt><trkpt lat="43.4456863" lon="11.1872677"><ele>163.0</ele><time>2026-03-29T13:32:42.118Z</time></trkpt><trkpt lat="43.4456922" lon="11.1871067"><ele>162.5</ele><time>2026-03-29T13:32:43.125Z</time></trkpt><trkpt lat="43.4457062" lon="11.1869484"><ele>162.0</ele><time>2026-03-29T13:32:44.122Z</time></trkpt><trkpt lat="43.4457275" lon="11.1867949"><ele>162.0</ele><time>2026-03-29T13:32:45.119Z</time></trkpt><trkpt lat="43.4457544" lon="11.1866475"><ele>162.0</ele><time>2026-03-29T13:32:46.128Z</time></trkpt><trkpt lat="43.4457803" lon="11.1865034"><ele>162.0</ele><time>2026-03-29T13:32:47.121Z</time></trkpt><trkpt lat="43.4458001" lon="11.1863559"><ele>162.0</ele><time>2026-03-29T13:32:48.127Z</time></trkpt><trkpt lat="43.4458084" lon="11.1862068"><ele>162.0</ele><time>2026-03-29T13:32:49.121Z</time></trkpt><trkpt lat="43.4458141" lon="11.1860609"><ele>160.25</ele><time>2026-03-29T13:32:50.139Z</time></trkpt><trkpt lat="43.4458226" lon="11.1859155"><ele>158.5</ele><time>2026-03-29T13:32:51.132Z</time></trkpt><trkpt lat="43.4458407" lon="11.1857646"><ele>156.75</ele><time>2026-03-29T13:32:52.121Z</time></trkpt><trkpt lat="43.4458669" lon="11.1856072"><ele>155.0</ele><time>2026-03-29T13:32:53.126Z</time></trkpt><trkpt lat="43.4458948" lon="11.185443"><ele>152.75</ele><time>2026-03-29T13:32:54.135Z</time></trkpt><trkpt lat="43.4459206" lon="11.1852754"><ele>150.5</ele><time>2026-03-29T13:32:55.16Z</time></trkpt><trkpt lat="43.4459453" lon="11.1851068"><ele>148.25</ele><time>2026-03-29T13:32:56.126Z</time></trkpt><trkpt lat="43.4459717" lon="11.1849374"><ele>146.0</ele><time>2026-03-29T13:32:57.151Z</time></trkpt><trkpt lat="43.446" lon="11.1847601"><ele>144.0</ele><time>2026-03-29T13:32:58.124Z</time></trkpt><trkpt lat="43.4460297" lon="11.1845704"><ele>142.0</ele><time>2026-03-29T13:32:59.149Z</time></trkpt><trkpt lat="43.4460602" lon="11.1843728"><ele>140.0</ele><time>2026-03-29T13:33:00.123Z</time></trkpt><trkpt lat="43.4460919" lon="11.1841763"><ele>138.0</ele><time>2026-03-29T13:33:01.131Z</time></trkpt><trkpt lat="43.446121" lon="11.1839925"><ele>136.75</ele><time>2026-03-29T13:33:02.124Z</time></trkpt><trkpt lat="43.4461454" lon="11.1838206"><ele>135.5</ele><time>2026-03-29T13:33:03.135Z</time></trkpt><trkpt lat="43.4461683" lon="11.1836638"><ele>134.25</ele><time>2026-03-29T13:33:04.122Z</time></trkpt><trkpt lat="43.4461837" lon="11.1835185"><ele>133.0</ele><time>2026-03-29T13:33:05.12Z</time></trkpt><trkpt lat="43.4462032" lon="11.1833828"><ele>133.0</ele><time>2026-03-29T13:33:06.115Z</time></trkpt><trkpt lat="43.4462278" lon="11.1832518"><ele>133.0</ele><time>2026-03-29T13:33:07.12Z</time></trkpt><trkpt lat="43.4462537" lon="11.1831223"><ele>133.0</ele><time>2026-03-29T13:33:08.154Z</time></trkpt><trkpt lat="43.446281" lon="11.182994"><ele>133.0</ele><time>2026-03-29T13:33:09.131Z</time></trkpt><trkpt lat="43.4463112" lon="11.1828625"><ele>133.0</ele><time>2026-03-29T13:33:10.158Z</time></trkpt><trkpt lat="43.4463433" lon="11.1827278"><ele>133.20000000000002</ele><time>2026-03-29T13:33:11.123Z</time></trkpt><trkpt lat="43.446377" lon="11.1825994"><ele>133.4</ele><time>2026-03-29T13:33:12.131Z</time></trkpt><trkpt lat="43.4464123" lon="11.1824767"><ele>133.60000000000002</ele><time>2026-03-29T13:33:13.121Z</time></trkpt><trkpt lat="43.4464518" lon="11.1823663"><ele>133.8</ele><time>2026-03-29T13:33:14.115Z</time></trkpt><trkpt lat="43.446501" lon="11.1822736"><ele>134.0</ele><time>2026-03-29T13:33:15.122Z</time></trkpt><trkpt lat="43.4465637" lon="11.1821912"><ele>132.8</ele><time>2026-03-29T13:33:16.158Z</time></trkpt><trkpt lat="43.4466334" lon="11.1821146"><ele>131.60000000000002</ele><time>2026-03-29T13:33:17.123Z</time></trkpt><trkpt lat="43.4467149" lon="11.1820376"><ele>130.4</ele><time>2026-03-29T13:33:18.118Z</time></trkpt><trkpt lat="43.4468038" lon="11.1819596"><ele>129.20000000000002</ele><time>2026-03-29T13:33:19.12Z</time></trkpt><trkpt lat="43.4468947" lon="11.1818785"><ele>128.0</ele><time>2026-03-29T13:33:20.134Z</time></trkpt><trkpt lat="43.4469868" lon="11.181786"><ele>128.0</ele><time>2026-03-29T13:33:21.129Z</time></trkpt><trkpt lat="43.4470799" lon="11.1816851"><ele>128.0</ele><time>2026-03-29T13:33:22.126Z</time></trkpt><trkpt lat="43.4471767" lon="11.1815809"><ele>128.0</ele><time>2026-03-29T13:33:23.127Z</time></trkpt><trkpt lat="43.4472749" lon="11.1814696"><ele>128.0</ele><time>2026-03-29T13:33:24.133Z</time></trkpt><trkpt lat="43.4473752" lon="11.1813498"><ele>127.5</ele><time>2026-03-29T13:33:25.15Z</time></trkpt><trkpt lat="43.4474776" lon="11.1812253"><ele>127.0</ele><time>2026-03-29T13:33:26.121Z</time></trkpt><trkpt lat="43.4475843" lon="11.1811045"><ele>126.5</ele><time>2026-03-29T13:33:27.141Z</time></trkpt><trkpt lat="43.4476934" lon="11.1809873"><ele>126.0</ele><time>2026-03-29T13:33:28.12Z</time></trkpt><trkpt lat="43.4478018" lon="11.18087"><ele>126.0</ele><time>2026-03-29T13:33:29.118Z</time></trkpt><trkpt lat="43.4479075" lon="11.1807521"><ele>126.0</ele><time>2026-03-29T13:33:30.157Z</time></trkpt><trkpt lat="43.4480127" lon="11.1806362"><ele>126.0</ele><time>2026-03-29T13:33:31.15Z</time></trkpt><trkpt lat="43.4481217" lon="11.1805221"><ele>126.0</ele><time>2026-03-29T13:33:32.131Z</time></trkpt><trkpt lat="43.448234" lon="11.1804155"><ele>126.25</ele><time>2026-03-29T13:33:33.124Z</time></trkpt><trkpt lat="43.4483503" lon="11.1803233"><ele>126.5</ele><time>2026-03-29T13:33:34.117Z</time></trkpt><trkpt lat="43.4484668" lon="11.1802412"><ele>126.75</ele><time>2026-03-29T13:33:35.125Z</time></trkpt><trkpt lat="43.4485767" lon="11.1801647"><ele>127.0</ele><time>2026-03-29T13:33:36.118Z</time></trkpt><trkpt lat="43.4486791" lon="11.1800903"><ele>127.0</ele><time>2026-03-29T13:33:37.12Z</time></trkpt><trkpt lat="43.4487766" lon="11.1800197"><ele>126.99999999999999</ele><time>2026-03-29T13:33:38.133Z</time></trkpt><trkpt lat="43.4488728" lon="11.1799525"><ele>126.99999999999999</ele><time>2026-03-29T13:33:39.147Z</time></trkpt><trkpt lat="43.4489642" lon="11.1798869"><ele>127.0</ele><time>2026-03-29T13:33:40.162Z</time></trkpt><trkpt lat="43.4490564" lon="11.1798212"><ele>127.0</ele><time>2026-03-29T13:33:41.129Z</time></trkpt><trkpt lat="43.4491488" lon="11.1797452"><ele>126.8</ele><time>2026-03-29T13:33:42.151Z</time></trkpt><trkpt lat="43.44924" lon="11.1796592"><ele>126.6</ele><time>2026-03-29T13:33:43.122Z</time></trkpt><trkpt lat="43.44933" lon="11.1795672"><ele>126.39999999999999</ele><time>2026-03-29T13:33:44.13Z</time></trkpt><trkpt lat="43.4494284" lon="11.1794971"><ele>126.19999999999999</ele><time>2026-03-29T13:33:45.124Z</time></trkpt><trkpt lat="43.4495404" lon="11.1794555"><ele>126.0</ele><time>2026-03-29T13:33:46.121Z</time></trkpt><trkpt lat="43.4496642" lon="11.1794355"><ele>126.0</ele><time>2026-03-29T13:33:47.122Z</time></trkpt><trkpt lat="43.4497997" lon="11.1794216"><ele>126.0</ele><time>2026-03-29T13:33:48.122Z</time></trkpt><trkpt lat="43.4499397" lon="11.1793885"><ele>126.0</ele><time>2026-03-29T13:33:49.119Z</time></trkpt><trkpt lat="43.4500751" lon="11.1793315"><ele>126.0</ele><time>2026-03-29T13:33:50.134Z</time></trkpt><trkpt lat="43.4501997" lon="11.1792538"><ele>126.0</ele><time>2026-03-29T13:33:51.15Z</time></trkpt><trkpt lat="43.4503055" lon="11.1791619"><ele>126.0</ele><time>2026-03-29T13:33:52.116Z</time></trkpt><trkpt lat="43.4503973" lon="11.1790663"><ele>126.0</ele><time>2026-03-29T13:33:53.163Z</time></trkpt><trkpt lat="43.4504766" lon="11.178983"><ele>126.0</ele><time>2026-03-29T13:33:54.145Z</time></trkpt><trkpt lat="43.4505474" lon="11.1789149"><ele>126.0</ele><time>2026-03-29T13:33:55.119Z</time></trkpt><trkpt lat="43.4506064" lon="11.1788564"><ele>126.0</ele><time>2026-03-29T13:33:56.155Z</time></trkpt><trkpt lat="43.4507016" lon="11.1787761"><ele>126.0</ele><time>2026-03-29T13:33:58.119Z</time></trkpt><trkpt lat="43.4507789" lon="11.1787262"><ele>126.0</ele><time>2026-03-29T13:34:00.114Z</time></trkpt><trkpt lat="43.4508949" lon="11.1786391"><ele>126.0</ele><time>2026-03-29T13:34:02.116Z</time></trkpt><trkpt lat="43.4509754" lon="11.1785599"><ele>126.0</ele><time>2026-03-29T13:34:03.157Z</time></trkpt><trkpt lat="43.4510701" lon="11.178468"><ele>126.0</ele><time>2026-03-29T13:34:04.13Z</time></trkpt><trkpt lat="43.4511685" lon="11.178374"><ele>126.0</ele><time>2026-03-29T13:34:05.15Z</time></trkpt><trkpt lat="43.4512706" lon="11.1782844"><ele>126.0</ele><time>2026-03-29T13:34:06.111Z</time></trkpt><trkpt lat="43.4513783" lon="11.178202"><ele>126.0</ele><time>2026-03-29T13:34:07.135Z</time></trkpt><trkpt lat="43.4514931" lon="11.1781478"><ele>126.25</ele><time>2026-03-29T13:34:08.118Z</time></trkpt><trkpt lat="43.4516186" lon="11.1781266"><ele>126.5</ele><time>2026-03-29T13:34:09.11Z</time></trkpt><trkpt lat="43.4517502" lon="11.1781514"><ele>126.75</ele><time>2026-03-29T13:34:10.115Z</time></trkpt><trkpt lat="43.4518779" lon="11.1782217"><ele>127.0</ele><time>2026-03-29T13:34:11.11Z</time></trkpt><trkpt lat="43.4519977" lon="11.178326"><ele>127.0</ele><time>2026-03-29T13:34:12.111Z</time></trkpt><trkpt lat="43.4521038" lon="11.1784584"><ele>127.0</ele><time>2026-03-29T13:34:13.127Z</time></trkpt><trkpt lat="43.4522142" lon="11.1785733"><ele>127.0</ele><time>2026-03-29T13:34:14.128Z</time></trkpt><trkpt lat="43.4523244" lon="11.1786675"><ele>127.0</ele><time>2026-03-29T13:34:15.132Z</time></trkpt><trkpt lat="43.4524489" lon="11.1787085"><ele>127.0</ele><time>2026-03-29T13:34:16.117Z</time></trkpt><trkpt lat="43.4525741" lon="11.1786766"><ele>127.0</ele><time>2026-03-29T13:34:17.115Z</time></trkpt><trkpt lat="43.4526992" lon="11.1785849"><ele>127.0</ele><time>2026-03-29T13:34:18.125Z</time></trkpt><trkpt lat="43.4528204" lon="11.1784479"><ele>127.0</ele><time>2026-03-29T13:34:19.127Z</time></trkpt><trkpt lat="43.4529393" lon="11.178288"><ele>128.66666666666669</ele><time>2026-03-29T13:34:20.13Z</time></trkpt><trkpt lat="43.4530577" lon="11.1781319"><ele>130.33333333333334</ele><time>2026-03-29T13:34:21.12Z</time></trkpt><trkpt lat="43.453175" lon="11.1779823"><ele>132.0</ele><time>2026-03-29T13:34:22.121Z</time></trkpt><trkpt lat="43.453289" lon="11.1778327"><ele>132.0</ele><time>2026-03-29T13:34:23.127Z</time></trkpt><trkpt lat="43.4534058" lon="11.1776927"><ele>132.0</ele><time>2026-03-29T13:34:24.133Z</time></trkpt><trkpt lat="43.4535261" lon="11.1775622"><ele>132.0</ele><time>2026-03-29T13:34:25.127Z</time></trkpt><trkpt lat="43.4536467" lon="11.1774443"><ele>130.75</ele><time>2026-03-29T13:34:26.156Z</time></trkpt><trkpt lat="43.4537708" lon="11.1773352"><ele>129.5</ele><time>2026-03-29T13:34:27.127Z</time></trkpt><trkpt lat="43.4538993" lon="11.1772331"><ele>128.25</ele><time>2026-03-29T13:34:28.154Z</time></trkpt><trkpt lat="43.4540284" lon="11.1771427"><ele>127.0</ele><time>2026-03-29T13:34:29.12Z</time></trkpt><trkpt lat="43.4541594" lon="11.1770608"><ele>130.5</ele><time>2026-03-29T13:34:30.148Z</time></trkpt><trkpt lat="43.4542916" lon="11.1769885"><ele>134.0</ele><time>2026-03-29T13:34:31.134Z</time></trkpt><trkpt lat="43.4544213" lon="11.1769269"><ele>137.5</ele><time>2026-03-29T13:34:32.124Z</time></trkpt><trkpt lat="43.4545393" lon="11.1768675"><ele>141.0</ele><time>2026-03-29T13:34:33.132Z</time></trkpt><trkpt lat="43.4546383" lon="11.1768065"><ele>140.8</ele><time>2026-03-29T13:34:34.123Z</time></trkpt><trkpt lat="43.4547137" lon="11.1767308"><ele>140.6</ele><time>2026-03-29T13:34:35.135Z</time></trkpt><trkpt lat="43.4547568" lon="11.1766442"><ele>140.4</ele><time>2026-03-29T13:34:36.124Z</time></trkpt><trkpt lat="43.4547706" lon="11.1765336"><ele>140.2</ele><time>2026-03-29T13:34:37.121Z</time></trkpt><trkpt lat="43.4547505" lon="11.1764078"><ele>140.0</ele><time>2026-03-29T13:34:38.127Z</time></trkpt><trkpt lat="43.4547199" lon="11.1762472"><ele>140.0</ele><time>2026-03-29T13:34:39.158Z</time></trkpt><trkpt lat="43.4546994" lon="11.1760649"><ele>140.0</ele><time>2026-03-29T13:34:40.141Z</time></trkpt><trkpt lat="43.4546859" lon="11.1758742"><ele>140.0</ele><time>2026-03-29T13:34:41.121Z</time></trkpt><trkpt lat="43.45469" lon="11.1756715"><ele>140.0</ele><time>2026-03-29T13:34:42.129Z</time></trkpt><trkpt lat="43.454699" lon="11.1754639"><ele>137.33333333333331</ele><time>2026-03-29T13:34:43.127Z</time></trkpt><trkpt lat="43.4547138" lon="11.175248"><ele>134.66666666666666</ele><time>2026-03-29T13:34:44.126Z</time></trkpt><trkpt lat="43.4547274" lon="11.1750293"><ele>132.0</ele><time>2026-03-29T13:34:45.14Z</time></trkpt><trkpt lat="43.4547383" lon="11.174811"><ele>130.66666666666666</ele><time>2026-03-29T13:34:46.118Z</time></trkpt><trkpt lat="43.4547474" lon="11.1745903"><ele>129.33333333333331</ele><time>2026-03-29T13:34:47.118Z</time></trkpt><trkpt lat="43.454758" lon="11.1743662"><ele>128.0</ele><time>2026-03-29T13:34:48.126Z</time></trkpt><trkpt lat="43.45477" lon="11.1741407"><ele>127.33333333333333</ele><time>2026-03-29T13:34:49.137Z</time></trkpt><trkpt lat="43.4547801" lon="11.1739181"><ele>126.66666666666666</ele><time>2026-03-29T13:34:50.12Z</time></trkpt><trkpt lat="43.4547943" lon="11.1736975"><ele>126.0</ele><time>2026-03-29T13:34:51.128Z</time></trkpt><trkpt lat="43.454815" lon="11.1734808"><ele>126.0</ele><time>2026-03-29T13:34:52.147Z</time></trkpt><trkpt lat="43.4548403" lon="11.1732681"><ele>126.0</ele><time>2026-03-29T13:34:53.129Z</time></trkpt><trkpt lat="43.4548736" lon="11.1730632"><ele>126.0</ele><time>2026-03-29T13:34:54.121Z</time></trkpt><trkpt lat="43.4549156" lon="11.1728675"><ele>125.25</ele><time>2026-03-29T13:34:55.128Z</time></trkpt><trkpt lat="43.4549677" lon="11.1726779"><ele>124.5</ele><time>2026-03-29T13:34:56.134Z</time></trkpt><trkpt lat="43.4550232" lon="11.1725008"><ele>123.75</ele><time>2026-03-29T13:34:57.129Z</time></trkpt><trkpt lat="43.4550789" lon="11.1723183"><ele>123.0</ele><time>2026-03-29T13:34:58.134Z</time></trkpt><trkpt lat="43.4551203" lon="11.1721242"><ele>121.66666666666666</ele><time>2026-03-29T13:34:59.119Z</time></trkpt><trkpt lat="43.4551464" lon="11.1719141"><ele>120.33333333333333</ele><time>2026-03-29T13:35:00.115Z</time></trkpt><trkpt lat="43.4551583" lon="11.1717055"><ele>119.0</ele><time>2026-03-29T13:35:01.125Z</time></trkpt><trkpt lat="43.4551671" lon="11.1714921"><ele>118.0</ele><time>2026-03-29T13:35:02.151Z</time></trkpt><trkpt lat="43.4551821" lon="11.1712809"><ele>117.0</ele><time>2026-03-29T13:35:03.114Z</time></trkpt><trkpt lat="43.4552017" lon="11.1710743"><ele>116.0</ele><time>2026-03-29T13:35:04.155Z</time></trkpt><trkpt lat="43.4552256" lon="11.1708771"><ele>116.0</ele><time>2026-03-29T13:35:05.117Z</time></trkpt><trkpt lat="43.455271" lon="11.1706903"><ele>116.0</ele><time>2026-03-29T13:35:06.122Z</time></trkpt><trkpt lat="43.4553314" lon="11.1705197"><ele>116.0</ele><time>2026-03-29T13:35:07.114Z</time></trkpt><trkpt lat="43.4554273" lon="11.1703778"><ele>116.0</ele><time>2026-03-29T13:35:08.133Z</time></trkpt><trkpt lat="43.4555567" lon="11.1702575"><ele>116.0</ele><time>2026-03-29T13:35:09.129Z</time></trkpt><trkpt lat="43.4556886" lon="11.1701438"><ele>116.0</ele><time>2026-03-29T13:35:10.132Z</time></trkpt><trkpt lat="43.4558226" lon="11.1700241"><ele>116.0</ele><time>2026-03-29T13:35:11.121Z</time></trkpt><trkpt lat="43.4559522" lon="11.1698964"><ele>116.0</ele><time>2026-03-29T13:35:12.128Z</time></trkpt><trkpt lat="43.4560705" lon="11.1697497"><ele>116.0</ele><time>2026-03-29T13:35:13.127Z</time></trkpt><trkpt lat="43.4561812" lon="11.1695872"><ele>116.0</ele><time>2026-03-29T13:35:14.127Z</time></trkpt><trkpt lat="43.4562846" lon="11.1694146"><ele>117.0</ele><time>2026-03-29T13:35:15.122Z</time></trkpt><trkpt lat="43.4563845" lon="11.1692346"><ele>118.0</ele><time>2026-03-29T13:35:16.123Z</time></trkpt><trkpt lat="43.4564771" lon="11.169062"><ele>119.0</ele><time>2026-03-29T13:35:17.121Z</time></trkpt><trkpt lat="43.4565603" lon="11.1689107"><ele>119.0</ele><time>2026-03-29T13:35:18.121Z</time></trkpt><trkpt lat="43.4566367" lon="11.1687844"><ele>119.0</ele><time>2026-03-29T13:35:19.162Z</time></trkpt><trkpt lat="43.4567054" lon="11.1686765"><ele>119.0</ele><time>2026-03-29T13:35:20.127Z</time></trkpt><trkpt lat="43.4567677" lon="11.168575"><ele>119.0</ele><time>2026-03-29T13:35:21.125Z</time></trkpt><trkpt lat="43.456822" lon="11.1684882"><ele>119.0</ele><time>2026-03-29T13:35:22.128Z</time></trkpt><trkpt lat="43.4568702" lon="11.1684202"><ele>118.99999999999999</ele><time>2026-03-29T13:35:23.118Z</time></trkpt><trkpt lat="43.4569388" lon="11.1683228"><ele>119.0</ele><time>2026-03-29T13:35:25.113Z</time></trkpt><trkpt lat="43.4568726" lon="11.1683188"><ele>119.0</ele><time>2026-03-29T13:35:30.118Z</time></trkpt><trkpt lat="43.4568206" lon="11.1684424"><ele>119.0</ele><time>2026-03-29T13:35:32.114Z</time></trkpt><trkpt lat="43.4567756" lon="11.1685358"><ele>118.99999999999999</ele><time>2026-03-29T13:35:33.125Z</time></trkpt><trkpt lat="43.4567259" lon="11.168645"><ele>119.0</ele><time>2026-03-29T13:35:34.121Z</time></trkpt><trkpt lat="43.4566741" lon="11.168745"><ele>119.0</ele><time>2026-03-29T13:35:35.115Z</time></trkpt><trkpt lat="43.456617" lon="11.1688491"><ele>119.0</ele><time>2026-03-29T13:35:36.121Z</time></trkpt><trkpt lat="43.4565584" lon="11.1689595"><ele>119.0</ele><time>2026-03-29T13:35:37.112Z</time></trkpt><trkpt lat="43.4564948" lon="11.1690778"><ele>119.0</ele><time>2026-03-29T13:35:38.113Z</time></trkpt><trkpt lat="43.4564314" lon="11.1691939"><ele>119.0</ele><time>2026-03-29T13:35:39.117Z</time></trkpt><trkpt lat="43.4563725" lon="11.1693044"><ele>119.49999999999999</ele><time>2026-03-29T13:35:40.123Z</time></trkpt><trkpt lat="43.4563156" lon="11.1694082"><ele>120.0</ele><time>2026-03-29T13:35:41.159Z</time></trkpt><trkpt lat="43.4562604" lon="11.1695001"><ele>120.5</ele><time>2026-03-29T13:35:42.114Z</time></trkpt><trkpt lat="43.4562102" lon="11.1695815"><ele>121.0</ele><time>2026-03-29T13:35:43.147Z</time></trkpt><trkpt lat="43.4561649" lon="11.1696524"><ele>121.49999999999999</ele><time>2026-03-29T13:35:44.111Z</time></trkpt><trkpt lat="43.4560977" lon="11.1697635"><ele>122.0</ele><time>2026-03-29T13:35:46.114Z</time></trkpt><trkpt lat="43.4560849" lon="11.1698718"><ele>122.33333333333333</ele><time>2026-03-29T13:35:48.116Z</time></trkpt><trkpt lat="43.4561355" lon="11.1699647"><ele>122.66666666666666</ele><time>2026-03-29T13:35:50.118Z</time></trkpt><trkpt lat="43.4561909" lon="11.170006"><ele>123.0</ele><time>2026-03-29T13:35:51.148Z</time></trkpt><trkpt lat="43.4562631" lon="11.1700425"><ele>123.33333333333334</ele><time>2026-03-29T13:35:52.114Z</time></trkpt><trkpt lat="43.4563473" lon="11.1700844"><ele>123.66666666666667</ele><time>2026-03-29T13:35:53.115Z</time></trkpt><trkpt lat="43.4564358" lon="11.1701361"><ele>124.0</ele><time>2026-03-29T13:35:54.115Z</time></trkpt><trkpt lat="43.4565303" lon="11.1701961"><ele>124.0</ele><time>2026-03-29T13:35:55.112Z</time></trkpt><trkpt lat="43.4566269" lon="11.1702645"><ele>124.0</ele><time>2026-03-29T13:35:56.115Z</time></trkpt><trkpt lat="43.4567284" lon="11.1703324"><ele>124.0</ele><time>2026-03-29T13:35:57.143Z</time></trkpt><trkpt lat="43.4568421" lon="11.1703977"><ele>124.0</ele><time>2026-03-29T13:35:58.138Z</time></trkpt><trkpt lat="43.4569624" lon="11.1704632"><ele>124.0</ele><time>2026-03-29T13:35:59.114Z</time></trkpt><trkpt lat="43.4570816" lon="11.1705329"><ele>124.0</ele><time>2026-03-29T13:36:00.113Z</time></trkpt><trkpt lat="43.4571946" lon="11.1706097"><ele>124.0</ele><time>2026-03-29T13:36:01.148Z</time></trkpt><trkpt lat="43.4573033" lon="11.1706906"><ele>124.0</ele><time>2026-03-29T13:36:02.122Z</time></trkpt><trkpt lat="43.4574112" lon="11.1707685"><ele>128.0</ele><time>2026-03-29T13:36:03.131Z</time></trkpt><trkpt lat="43.4575164" lon="11.1708422"><ele>132.0</ele><time>2026-03-29T13:36:04.11Z</time></trkpt><trkpt lat="43.4576252" lon="11.1709147"><ele>136.0</ele><time>2026-03-29T13:36:05.119Z</time></trkpt><trkpt lat="43.4577376" lon="11.1709868"><ele>140.0</ele><time>2026-03-29T13:36:06.114Z</time></trkpt><trkpt lat="43.4578464" lon="11.1710583"><ele>142.75</ele><time>2026-03-29T13:36:07.119Z</time></trkpt><trkpt lat="43.4579575" lon="11.171133"><ele>145.5</ele><time>2026-03-29T13:36:08.116Z</time></trkpt><trkpt lat="43.458077" lon="11.1712037"><ele>148.25</ele><time>2026-03-29T13:36:09.137Z</time></trkpt><trkpt lat="43.4581963" lon="11.1712717"><ele>151.0</ele><time>2026-03-29T13:36:10.125Z</time></trkpt><trkpt lat="43.4583106" lon="11.1713413"><ele>151.0</ele><time>2026-03-29T13:36:11.147Z</time></trkpt><trkpt lat="43.4584175" lon="11.171412"><ele>151.0</ele><time>2026-03-29T13:36:12.125Z</time></trkpt><trkpt lat="43.4585195" lon="11.1714789"><ele>151.0</ele><time>2026-03-29T13:36:13.117Z</time></trkpt><trkpt lat="43.458618" lon="11.1715494"><ele>151.0</ele><time>2026-03-29T13:36:14.119Z</time></trkpt><trkpt lat="43.4587115" lon="11.1716193"><ele>151.0</ele><time>2026-03-29T13:36:15.131Z</time></trkpt><trkpt lat="43.4588129" lon="11.1716878"><ele>153.75</ele><time>2026-03-29T13:36:16.154Z</time></trkpt><trkpt lat="43.4589216" lon="11.1717561"><ele>156.5</ele><time>2026-03-29T13:36:17.117Z</time></trkpt><trkpt lat="43.4590304" lon="11.1718222"><ele>159.25</ele><time>2026-03-29T13:36:18.111Z</time></trkpt><trkpt lat="43.4591423" lon="11.1718904"><ele>162.0</ele><time>2026-03-29T13:36:19.111Z</time></trkpt><trkpt lat="43.4592576" lon="11.1719574"><ele>162.0</ele><time>2026-03-29T13:36:20.113Z</time></trkpt><trkpt lat="43.4593744" lon="11.1720255"><ele>162.0</ele><time>2026-03-29T13:36:21.149Z</time></trkpt><trkpt lat="43.4594913" lon="11.1720971"><ele>162.0</ele><time>2026-03-29T13:36:22.126Z</time></trkpt><trkpt lat="43.4596059" lon="11.1721698"><ele>162.0</ele><time>2026-03-29T13:36:23.111Z</time></trkpt><trkpt lat="43.4597184" lon="11.1722434"><ele>164.39999999999998</ele><time>2026-03-29T13:36:24.119Z</time></trkpt><trkpt lat="43.4598276" lon="11.1723138"><ele>166.79999999999998</ele><time>2026-03-29T13:36:25.113Z</time></trkpt><trkpt lat="43.4599292" lon="11.1723801"><ele>169.2</ele><time>2026-03-29T13:36:26.112Z</time></trkpt><trkpt lat="43.4600198" lon="11.1724392"><ele>171.6</ele><time>2026-03-29T13:36:27.126Z</time></trkpt><trkpt lat="43.4600977" lon="11.1724913"><ele>174.0</ele><time>2026-03-29T13:36:28.13Z</time></trkpt><trkpt lat="43.4601551" lon="11.1725396"><ele>174.6</ele><time>2026-03-29T13:36:29.115Z</time></trkpt><trkpt lat="43.4602297" lon="11.1726602"><ele>175.2</ele><time>2026-03-29T13:36:31.123Z</time></trkpt><trkpt lat="43.4602524" lon="11.1727584"><ele>175.79999999999998</ele><time>2026-03-29T13:36:32.152Z</time></trkpt><trkpt lat="43.4602772" lon="11.1728853"><ele>176.39999999999998</ele><time>2026-03-29T13:36:33.114Z</time></trkpt><trkpt lat="43.4603119" lon="11.1730403"><ele>177.0</ele><time>2026-03-29T13:36:34.115Z</time></trkpt><trkpt lat="43.4603446" lon="11.1732081"><ele>177.25</ele><time>2026-03-29T13:36:35.113Z</time></trkpt><trkpt lat="43.4603813" lon="11.1733914"><ele>177.5</ele><time>2026-03-29T13:36:36.113Z</time></trkpt><trkpt lat="43.4604242" lon="11.1735739"><ele>177.75</ele><time>2026-03-29T13:36:37.127Z</time></trkpt><trkpt lat="43.4604712" lon="11.173751"><ele>178.0</ele><time>2026-03-29T13:36:38.155Z</time></trkpt><trkpt lat="43.4605098" lon="11.1739248"><ele>182.75</ele><time>2026-03-29T13:36:39.142Z</time></trkpt><trkpt lat="43.4605527" lon="11.1740935"><ele>187.5</ele><time>2026-03-29T13:36:40.113Z</time></trkpt><trkpt lat="43.4606018" lon="11.1742556"><ele>192.25</ele><time>2026-03-29T13:36:41.114Z</time></trkpt><trkpt lat="43.4606596" lon="11.1744108"><ele>197.0</ele><time>2026-03-29T13:36:42.11Z</time></trkpt><trkpt lat="43.4607202" lon="11.1745597"><ele>197.0</ele><time>2026-03-29T13:36:43.122Z</time></trkpt><trkpt lat="43.4607868" lon="11.1746991"><ele>197.0</ele><time>2026-03-29T13:36:44.12Z</time></trkpt><trkpt lat="43.4608499" lon="11.174831"><ele>197.0</ele><time>2026-03-29T13:36:45.118Z</time></trkpt><trkpt lat="43.460904" lon="11.1749508"><ele>197.0</ele><time>2026-03-29T13:36:46.112Z</time></trkpt><trkpt lat="43.4609541" lon="11.1750551"><ele>197.0</ele><time>2026-03-29T13:36:47.124Z</time></trkpt><trkpt lat="43.4610074" lon="11.1751425"><ele>196.16666666666669</ele><time>2026-03-29T13:36:48.118Z</time></trkpt><trkpt lat="43.4610692" lon="11.1752255"><ele>195.33333333333334</ele><time>2026-03-29T13:36:49.115Z</time></trkpt><trkpt lat="43.4611332" lon="11.1753044"><ele>194.5</ele><time>2026-03-29T13:36:50.114Z</time></trkpt><trkpt lat="43.4612002" lon="11.1753747"><ele>193.66666666666669</ele><time>2026-03-29T13:36:51.143Z</time></trkpt><trkpt lat="43.4612705" lon="11.1754394"><ele>192.83333333333334</ele><time>2026-03-29T13:36:52.109Z</time></trkpt><trkpt lat="43.4613439" lon="11.1754955"><ele>192.0</ele><time>2026-03-29T13:36:53.114Z</time></trkpt><trkpt lat="43.4614225" lon="11.1755355"><ele>195.39999999999998</ele><time>2026-03-29T13:36:54.113Z</time></trkpt><trkpt lat="43.4615112" lon="11.1755501"><ele>198.79999999999998</ele><time>2026-03-29T13:36:55.113Z</time></trkpt><trkpt lat="43.4616052" lon="11.1755406"><ele>202.2</ele><time>2026-03-29T13:36:56.117Z</time></trkpt><trkpt lat="43.4616999" lon="11.1755164"><ele>205.6</ele><time>2026-03-29T13:36:57.112Z</time></trkpt><trkpt lat="43.4617917" lon="11.1754709"><ele>209.0</ele><time>2026-03-29T13:36:58.112Z</time></trkpt><trkpt lat="43.4618784" lon="11.1754048"><ele>209.0</ele><time>2026-03-29T13:36:59.143Z</time></trkpt><trkpt lat="43.4619588" lon="11.1753288"><ele>209.0</ele><time>2026-03-29T13:37:00.12Z</time></trkpt><trkpt lat="43.4620394" lon="11.17524"><ele>209.0</ele><time>2026-03-29T13:37:01.13Z</time></trkpt><trkpt lat="43.4621224" lon="11.1751497"><ele>209.0</ele><time>2026-03-29T13:37:02.111Z</time></trkpt><trkpt lat="43.4622072" lon="11.1750643"><ele>209.0</ele><time>2026-03-29T13:37:03.113Z</time></trkpt><trkpt lat="43.4622853" lon="11.1749863"><ele>209.16666666666669</ele><time>2026-03-29T13:37:04.147Z</time></trkpt><trkpt lat="43.4623522" lon="11.1749143"><ele>209.33333333333334</ele><time>2026-03-29T13:37:05.115Z</time></trkpt><trkpt lat="43.4624099" lon="11.1748572"><ele>209.5</ele><time>2026-03-29T13:37:06.113Z</time></trkpt><trkpt lat="43.4624991" lon="11.1747832"><ele>209.66666666666669</ele><time>2026-03-29T13:37:08.11Z</time></trkpt><trkpt lat="43.462552" lon="11.1747065"><ele>209.83333333333334</ele><time>2026-03-29T13:37:11.114Z</time></trkpt><trkpt lat="43.4625968" lon="11.1746329"><ele>210.0</ele><time>2026-03-29T13:37:15.115Z</time></trkpt><trkpt lat="43.4626337" lon="11.1745539"><ele>209.6</ele><time>2026-03-29T13:37:18.118Z</time></trkpt><trkpt lat="43.4626981" lon="11.1745359"><ele>209.2</ele><time>2026-03-29T13:37:21.113Z</time></trkpt><trkpt lat="43.4627665" lon="11.1745953"><ele>208.8</ele><time>2026-03-29T13:37:23.113Z</time></trkpt><trkpt lat="43.4628466" lon="11.1746775"><ele>208.4</ele><time>2026-03-29T13:37:25.123Z</time></trkpt><trkpt lat="43.4629364" lon="11.1747806"><ele>208.0</ele><time>2026-03-29T13:37:27.114Z</time></trkpt><trkpt lat="43.4630332" lon="11.1748815"><ele>208.0</ele><time>2026-03-29T13:37:29.131Z</time></trkpt><trkpt lat="43.4631414" lon="11.1749456"><ele>208.0</ele><time>2026-03-29T13:37:31.115Z</time></trkpt><trkpt lat="43.463277" lon="11.174947"><ele>208.0</ele><time>2026-03-29T13:37:33.112Z</time></trkpt><trkpt lat="43.4633521" lon="11.1749432"><ele>208.0</ele><time>2026-03-29T13:37:34.113Z</time></trkpt><trkpt lat="43.463426" lon="11.1749396"><ele>208.0</ele><time>2026-03-29T13:37:35.117Z</time></trkpt><trkpt lat="43.4634999" lon="11.1749341"><ele>207.99999999999997</ele><time>2026-03-29T13:37:36.119Z</time></trkpt><trkpt lat="43.4635721" lon="11.1749278"><ele>208.0</ele><time>2026-03-29T13:37:37.115Z</time></trkpt><trkpt lat="43.4636435" lon="11.1749233"><ele>208.0</ele><time>2026-03-29T13:37:38.146Z</time></trkpt><trkpt lat="43.4637185" lon="11.1749203"><ele>208.0</ele><time>2026-03-29T13:37:39.111Z</time></trkpt><trkpt lat="43.4637891" lon="11.174919"><ele>207.99999999999997</ele><time>2026-03-29T13:37:40.12Z</time></trkpt><trkpt lat="43.4639067" lon="11.1749083"><ele>208.0</ele><time>2026-03-29T13:37:42.111Z</time></trkpt><trkpt lat="43.4640063" lon="11.1749055"><ele>208.16666666666666</ele><time>2026-03-29T13:37:44.12Z</time></trkpt><trkpt lat="43.4640927" lon="11.1749083"><ele>208.33333333333331</ele><time>2026-03-29T13:37:46.115Z</time></trkpt><trkpt lat="43.4641619" lon="11.1749242"><ele>208.5</ele><time>2026-03-29T13:37:50.111Z</time></trkpt><trkpt lat="43.4642562" lon="11.1749177"><ele>208.66666666666669</ele><time>2026-03-29T13:38:25.119Z</time></trkpt><trkpt lat="43.4643373" lon="11.1749074"><ele>208.83333333333334</ele><time>2026-03-29T13:38:27.128Z</time></trkpt><trkpt lat="43.4644221" lon="11.1749435"><ele>209.0</ele><time>2026-03-29T13:38:29.123Z</time></trkpt><trkpt lat="43.4645137" lon="11.1749964"><ele>209.00000000000003</ele><time>2026-03-29T13:38:31.13Z</time></trkpt><trkpt lat="43.4646111" lon="11.1750324"><ele>209.0</ele><time>2026-03-29T13:38:33.126Z</time></trkpt><trkpt lat="43.4646962" lon="11.1750488"><ele>209.0</ele><time>2026-03-29T13:38:35.125Z</time></trkpt><trkpt lat="43.4647743" lon="11.1750808"><ele>209.0</ele><time>2026-03-29T13:38:37.138Z</time></trkpt><trkpt lat="43.4648477" lon="11.1751334"><ele>209.00000000000003</ele><time>2026-03-29T13:38:39.121Z</time></trkpt><trkpt lat="43.4649144" lon="11.1751755"><ele>209.0</ele><time>2026-03-29T13:38:41.136Z</time></trkpt><trkpt lat="43.465008" lon="11.1752249"><ele>208.66666666666669</ele><time>2026-03-29T13:38:43.115Z</time></trkpt><trkpt lat="43.4651106" lon="11.1752677"><ele>208.33333333333334</ele><time>2026-03-29T13:38:45.117Z</time></trkpt><trkpt lat="43.4652034" lon="11.1753105"><ele>208.0</ele><time>2026-03-29T13:38:47.137Z</time></trkpt><trkpt lat="43.465277" lon="11.1753369"><ele>207.66666666666669</ele><time>2026-03-29T13:38:49.125Z</time></trkpt><trkpt lat="43.465344" lon="11.1753517"><ele>207.33333333333334</ele><time>2026-03-29T13:38:51.117Z</time></trkpt><trkpt lat="43.465419" lon="11.175353"><ele>207.0</ele><time>2026-03-29T13:38:53.116Z</time></trkpt><trkpt lat="43.465505" lon="11.1753294"><ele>205.25</ele><time>2026-03-29T13:38:55.125Z</time></trkpt><trkpt lat="43.4655883" lon="11.175322"><ele>203.5</ele><time>2026-03-29T13:38:57.118Z</time></trkpt><trkpt lat="43.4654641" lon="11.1753045"><ele>201.75</ele><time>2026-03-29T13:38:58.125Z</time></trkpt><trkpt lat="43.4656951" lon="11.1753034"><ele>200.0</ele><time>2026-03-29T13:39:01.144Z</time></trkpt><trkpt lat="43.4657603" lon="11.1753053"><ele>200.0</ele><time>2026-03-29T13:39:04.14Z</time></trkpt><trkpt lat="43.4658433" lon="11.1752755"><ele>200.0</ele><time>2026-03-29T13:39:14.127Z</time></trkpt><trkpt lat="43.4660109" lon="11.1752326"><ele>200.0</ele><time>2026-03-29T13:39:15.121Z</time></trkpt><trkpt lat="43.466087" lon="11.1752066"><ele>200.0</ele><time>2026-03-29T13:39:16.13Z</time></trkpt><trkpt lat="43.4661581" lon="11.1751799"><ele>200.0</ele><time>2026-03-29T13:39:17.133Z</time></trkpt><trkpt lat="43.4662406" lon="11.175159"><ele>200.16666666666669</ele><time>2026-03-29T13:39:19.131Z</time></trkpt><trkpt lat="43.4663106" lon="11.1751941"><ele>200.33333333333334</ele><time>2026-03-29T13:39:29.123Z</time></trkpt><trkpt lat="43.4663759" lon="11.1752212"><ele>200.5</ele><time>2026-03-29T13:39:41.123Z</time></trkpt><trkpt lat="43.4664784" lon="11.1751539"><ele>200.66666666666669</ele><time>2026-03-29T13:39:44.148Z</time></trkpt><trkpt lat="43.4665557" lon="11.1750963"><ele>200.83333333333334</ele><time>2026-03-29T13:39:46.121Z</time></trkpt><trkpt lat="43.4666223" lon="11.1750551"><ele>201.0</ele><time>2026-03-29T13:39:48.136Z</time></trkpt><trkpt lat="43.4666916" lon="11.174982"><ele>201.0</ele><time>2026-03-29T13:39:50.11Z</time></trkpt><trkpt lat="43.4667598" lon="11.1749731"><ele>201.0</ele><time>2026-03-29T13:39:52.158Z</time></trkpt><trkpt lat="43.4668363" lon="11.1750085"><ele>201.0</ele><time>2026-03-29T13:39:54.127Z</time></trkpt><trkpt lat="43.4669148" lon="11.1750762"><ele>201.0</ele><time>2026-03-29T13:39:56.151Z</time></trkpt><trkpt lat="43.4669708" lon="11.1751331"><ele>201.0</ele><time>2026-03-29T13:39:57.133Z</time></trkpt><trkpt lat="43.4670298" lon="11.1752145"><ele>201.0</ele><time>2026-03-29T13:39:58.133Z</time></trkpt><trkpt lat="43.4670835" lon="11.1753053"><ele>201.8</ele><time>2026-03-29T13:39:59.129Z</time></trkpt><trkpt lat="43.4671345" lon="11.1754037"><ele>202.60000000000002</ele><time>2026-03-29T13:40:00.143Z</time></trkpt><trkpt lat="43.4671896" lon="11.1755054"><ele>203.4</ele><time>2026-03-29T13:40:01.124Z</time></trkpt><trkpt lat="43.4672518" lon="11.1756002"><ele>204.2</ele><time>2026-03-29T13:40:02.113Z</time></trkpt><trkpt lat="43.467319" lon="11.1756848"><ele>205.0</ele><time>2026-03-29T13:40:03.113Z</time></trkpt><trkpt lat="43.4673916" lon="11.1757583"><ele>205.0</ele><time>2026-03-29T13:40:04.115Z</time></trkpt><trkpt lat="43.4674697" lon="11.1758348"><ele>205.0</ele><time>2026-03-29T13:40:05.123Z</time></trkpt><trkpt lat="43.4675463" lon="11.1759139"><ele>205.0</ele><time>2026-03-29T13:40:06.121Z</time></trkpt><trkpt lat="43.4676241" lon="11.1759881"><ele>205.0</ele><time>2026-03-29T13:40:07.134Z</time></trkpt><trkpt lat="43.4677022" lon="11.1760594"><ele>205.0</ele><time>2026-03-29T13:40:08.12Z</time></trkpt><trkpt lat="43.467784" lon="11.176132"><ele>204.99999999999997</ele><time>2026-03-29T13:40:09.13Z</time></trkpt><trkpt lat="43.4678582" lon="11.176203"><ele>205.0</ele><time>2026-03-29T13:40:10.119Z</time></trkpt><trkpt lat="43.4679254" lon="11.1762694"><ele>205.0</ele><time>2026-03-29T13:40:11.12Z</time></trkpt><trkpt lat="43.4679918" lon="11.1763296"><ele>205.0</ele><time>2026-03-29T13:40:12.133Z</time></trkpt><trkpt lat="43.4680577" lon="11.1763921"><ele>204.99999999999997</ele><time>2026-03-29T13:40:13.152Z</time></trkpt><trkpt lat="43.4681282" lon="11.176457"><ele>205.0</ele><time>2026-03-29T13:40:14.124Z</time></trkpt><trkpt lat="43.4681995" lon="11.1765221"><ele>205.16666666666666</ele><time>2026-03-29T13:40:15.116Z</time></trkpt><trkpt lat="43.4682677" lon="11.1765733"><ele>205.33333333333331</ele><time>2026-03-29T13:40:16.128Z</time></trkpt><trkpt lat="43.4683353" lon="11.1766117"><ele>205.5</ele><time>2026-03-29T13:40:17.138Z</time></trkpt><trkpt lat="43.4684118" lon="11.1766481"><ele>205.66666666666669</ele><time>2026-03-29T13:40:18.118Z</time></trkpt><trkpt lat="43.4684982" lon="11.1766813"><ele>205.83333333333334</ele><time>2026-03-29T13:40:19.128Z</time></trkpt><trkpt lat="43.46859" lon="11.1767171"><ele>206.0</ele><time>2026-03-29T13:40:20.119Z</time></trkpt><trkpt lat="43.4686788" lon="11.1767497"><ele>206.0</ele><time>2026-03-29T13:40:21.116Z</time></trkpt><trkpt lat="43.4687723" lon="11.1767876"><ele>206.0</ele><time>2026-03-29T13:40:22.133Z</time></trkpt><trkpt lat="43.4688733" lon="11.1768305"><ele>206.0</ele><time>2026-03-29T13:40:23.112Z</time></trkpt><trkpt lat="43.4689676" lon="11.1768794"><ele>206.0</ele><time>2026-03-29T13:40:24.115Z</time></trkpt><trkpt lat="43.4690517" lon="11.1769223"><ele>206.0</ele><time>2026-03-29T13:40:25.193Z</time></trkpt><trkpt lat="43.4691351" lon="11.1769657"><ele>202.4</ele><time>2026-03-29T13:40:26.119Z</time></trkpt><trkpt lat="43.4692256" lon="11.1770142"><ele>198.8</ele><time>2026-03-29T13:40:27.117Z</time></trkpt><trkpt lat="43.4693227" lon="11.1770662"><ele>195.20000000000002</ele><time>2026-03-29T13:40:28.126Z</time></trkpt><trkpt lat="43.4694116" lon="11.1771207"><ele>191.60000000000002</ele><time>2026-03-29T13:40:29.114Z</time></trkpt><trkpt lat="43.4694927" lon="11.177168"><ele>188.0</ele><time>2026-03-29T13:40:30.118Z</time></trkpt><trkpt lat="43.4695696" lon="11.1772132"><ele>189.28571428571428</ele><time>2026-03-29T13:40:31.112Z</time></trkpt><trkpt lat="43.4696387" lon="11.1772509"><ele>190.57142857142856</ele><time>2026-03-29T13:40:32.116Z</time></trkpt><trkpt lat="43.4697032" lon="11.1772824"><ele>191.85714285714286</ele><time>2026-03-29T13:40:33.118Z</time></trkpt><trkpt lat="43.4697644" lon="11.1773107"><ele>193.14285714285714</ele><time>2026-03-29T13:40:34.113Z</time></trkpt><trkpt lat="43.4698467" lon="11.177341"><ele>194.42857142857144</ele><time>2026-03-29T13:40:36.114Z</time></trkpt><trkpt lat="43.4699229" lon="11.1773619"><ele>195.71428571428572</ele><time>2026-03-29T13:40:49.123Z</time></trkpt><trkpt lat="43.4700012" lon="11.177351"><ele>197.0</ele><time>2026-03-29T13:41:13.128Z</time></trkpt><trkpt lat="43.4700941" lon="11.17732"><ele>193.66666666666669</ele><time>2026-03-29T13:41:16.134Z</time></trkpt><trkpt lat="43.4701306" lon="11.177248"><ele>190.33333333333334</ele><time>2026-03-29T13:41:18.122Z</time></trkpt><trkpt lat="43.4701509" lon="11.1771514"><ele>187.0</ele><time>2026-03-29T13:41:20.128Z</time></trkpt><trkpt lat="43.4701543" lon="11.1770621"><ele>183.66666666666669</ele><time>2026-03-29T13:41:22.132Z</time></trkpt><trkpt lat="43.4701667" lon="11.1769674"><ele>180.33333333333334</ele><time>2026-03-29T13:41:24.12Z</time></trkpt><trkpt lat="43.4701793" lon="11.1768338"><ele>177.0</ele><time>2026-03-29T13:41:27.163Z</time></trkpt><trkpt lat="43.4701812" lon="11.1767213"><ele>177.0</ele><time>2026-03-29T13:41:29.142Z</time></trkpt><trkpt lat="43.4701775" lon="11.1765895"><ele>177.0</ele><time>2026-03-29T13:41:31.118Z</time></trkpt><trkpt lat="43.4701716" lon="11.1764581"><ele>177.0</ele><time>2026-03-29T13:41:33.118Z</time></trkpt><trkpt lat="43.4701521" lon="11.176324"><ele>177.0</ele><time>2026-03-29T13:41:35.118Z</time></trkpt><trkpt lat="43.4701271" lon="11.1761818"><ele>177.0</ele><time>2026-03-29T13:41:37.134Z</time></trkpt><trkpt lat="43.4700999" lon="11.1760331"><ele>175.39999999999998</ele><time>2026-03-29T13:41:39.114Z</time></trkpt><trkpt lat="43.470077" lon="11.1758948"><ele>173.79999999999998</ele><time>2026-03-29T13:41:41.119Z</time></trkpt><trkpt lat="43.4700508" lon="11.1757536"><ele>172.2</ele><time>2026-03-29T13:41:43.121Z</time></trkpt><trkpt lat="43.4700378" lon="11.1756039"><ele>170.6</ele><time>2026-03-29T13:41:45.135Z</time></trkpt><trkpt lat="43.4700369" lon="11.1754837"><ele>169.0</ele><time>2026-03-29T13:41:47.149Z</time></trkpt><trkpt lat="43.4700114" lon="11.1753587"><ele>167.66666666666669</ele><time>2026-03-29T13:41:49.127Z</time></trkpt><trkpt lat="43.4699877" lon="11.1752432"><ele>166.33333333333334</ele><time>2026-03-29T13:41:51.122Z</time></trkpt><trkpt lat="43.4699642" lon="11.1751113"><ele>165.0</ele><time>2026-03-29T13:41:53.13Z</time></trkpt><trkpt lat="43.4699469" lon="11.1749821"><ele>163.66666666666666</ele><time>2026-03-29T13:41:55.152Z</time></trkpt><trkpt lat="43.4699277" lon="11.1748686"><ele>162.33333333333331</ele><time>2026-03-29T13:41:57.148Z</time></trkpt><trkpt lat="43.4699099" lon="11.1747573"><ele>161.0</ele><time>2026-03-29T13:41:59.122Z</time></trkpt><trkpt lat="43.4698923" lon="11.1746662"><ele>159.5</ele><time>2026-03-29T13:42:01.131Z</time></trkpt><trkpt lat="43.4698851" lon="11.1745491"><ele>158.0</ele><time>2026-03-29T13:42:04.132Z</time></trkpt><trkpt lat="43.4698843" lon="11.1744496"><ele>156.5</ele><time>2026-03-29T13:42:07.119Z</time></trkpt><trkpt lat="43.4698676" lon="11.1743467"><ele>155.0</ele><time>2026-03-29T13:42:16.124Z</time></trkpt><trkpt lat="43.4698583" lon="11.1742364"><ele>153.5</ele><time>2026-03-29T13:42:18.163Z</time></trkpt><trkpt lat="43.4698488" lon="11.1740883"><ele>152.0</ele><time>2026-03-29T13:42:20.128Z</time></trkpt><trkpt lat="43.4698241" lon="11.1739467"><ele>150.83333333333331</ele><time>2026-03-29T13:42:22.121Z</time></trkpt><trkpt lat="43.4697965" lon="11.1738246"><ele>149.66666666666666</ele><time>2026-03-29T13:42:24.113Z</time></trkpt><trkpt lat="43.4697618" lon="11.1737122"><ele>148.5</ele><time>2026-03-29T13:42:26.127Z</time></trkpt><trkpt lat="43.4697461" lon="11.1735958"><ele>147.33333333333334</ele><time>2026-03-29T13:42:28.133Z</time></trkpt><trkpt lat="43.4697545" lon="11.1734972"><ele>146.16666666666669</ele><time>2026-03-29T13:42:30.127Z</time></trkpt><trkpt lat="43.4697978" lon="11.173385"><ele>145.0</ele><time>2026-03-29T13:42:32.158Z</time></trkpt><trkpt lat="43.4698749" lon="11.1732918"><ele>145.0</ele><time>2026-03-29T13:42:34.154Z</time></trkpt><trkpt lat="43.4699623" lon="11.1732012"><ele>145.0</ele><time>2026-03-29T13:42:36.125Z</time></trkpt><trkpt lat="43.4700764" lon="11.1731262"><ele>145.0</ele><time>2026-03-29T13:42:38.126Z</time></trkpt><trkpt lat="43.4701432" lon="11.1730886"><ele>145.0</ele><time>2026-03-29T13:42:39.124Z</time></trkpt><trkpt lat="43.4702053" lon="11.1730463"><ele>145.0</ele><time>2026-03-29T13:42:40.117Z</time></trkpt><trkpt lat="43.4702634" lon="11.1729961"><ele>145.0</ele><time>2026-03-29T13:42:41.115Z</time></trkpt><trkpt lat="43.4703146" lon="11.1729425"><ele>145.4</ele><time>2026-03-29T13:42:42.128Z</time></trkpt><trkpt lat="43.4704116" lon="11.1728536"><ele>145.8</ele><time>2026-03-29T13:42:44.12Z</time></trkpt><trkpt lat="43.470497" lon="11.1727907"><ele>146.2</ele><time>2026-03-29T13:42:46.128Z</time></trkpt><trkpt lat="43.4705538" lon="11.1727493"><ele>146.6</ele><time>2026-03-29T13:42:48.153Z</time></trkpt><trkpt lat="43.4706097" lon="11.1726385"><ele>147.0</ele><time>2026-03-29T13:43:12.114Z</time></trkpt><trkpt lat="43.4706284" lon="11.1725142"><ele>147.0</ele><time>2026-03-29T13:43:14.127Z</time></trkpt><trkpt lat="43.4706003" lon="11.1723997"><ele>147.0</ele><time>2026-03-29T13:43:16.124Z</time></trkpt><trkpt lat="43.4705254" lon="11.1722539"><ele>147.0</ele><time>2026-03-29T13:43:18.125Z</time></trkpt><trkpt lat="43.4704596" lon="11.1721528"><ele>147.0</ele><time>2026-03-29T13:43:19.121Z</time></trkpt><trkpt lat="43.470383" lon="11.1720443"><ele>147.0</ele><time>2026-03-29T13:43:20.157Z</time></trkpt><trkpt lat="43.4703034" lon="11.1719199"><ele>145.75</ele><time>2026-03-29T13:43:21.119Z</time></trkpt><trkpt lat="43.4702312" lon="11.1717889"><ele>144.5</ele><time>2026-03-29T13:43:22.118Z</time></trkpt><trkpt lat="43.470163" lon="11.1716561"><ele>143.25</ele><time>2026-03-29T13:43:23.126Z</time></trkpt><trkpt lat="43.4700984" lon="11.171532"><ele>142.0</ele><time>2026-03-29T13:43:24.129Z</time></trkpt><trkpt lat="43.4700372" lon="11.1714192"><ele>142.0</ele><time>2026-03-29T13:43:25.129Z</time></trkpt><trkpt lat="43.4699776" lon="11.1713082"><ele>142.0</ele><time>2026-03-29T13:43:26.141Z</time></trkpt><trkpt lat="43.4699134" lon="11.1712112"><ele>142.0</ele><time>2026-03-29T13:43:27.135Z</time></trkpt><trkpt lat="43.4698464" lon="11.1711254"><ele>142.0</ele><time>2026-03-29T13:43:28.119Z</time></trkpt><trkpt lat="43.469778" lon="11.1710536"><ele>142.0</ele><time>2026-03-29T13:43:29.125Z</time></trkpt><trkpt lat="43.4697158" lon="11.1709868"><ele>142.0</ele><time>2026-03-29T13:43:30.132Z</time></trkpt><trkpt lat="43.4696531" lon="11.1709134"><ele>142.0</ele><time>2026-03-29T13:43:31.133Z</time></trkpt><trkpt lat="43.4695927" lon="11.1708314"><ele>142.0</ele><time>2026-03-29T13:43:32.142Z</time></trkpt><trkpt lat="43.4695414" lon="11.170767"><ele>142.0</ele><time>2026-03-29T13:43:33.13Z</time></trkpt><trkpt lat="43.4694288" lon="11.1706297"><ele>142.0</ele><time>2026-03-29T13:43:35.152Z</time></trkpt><trkpt lat="43.4693312" lon="11.1705062"><ele>139.75</ele><time>2026-03-29T13:43:36.133Z</time></trkpt><trkpt lat="43.4692409" lon="11.1703207"><ele>137.5</ele><time>2026-03-29T13:43:38.118Z</time></trkpt><trkpt lat="43.4691861" lon="11.1702119"><ele>135.25</ele><time>2026-03-29T13:43:39.122Z</time></trkpt><trkpt lat="43.4691556" lon="11.1700941"><ele>133.0</ele><time>2026-03-29T13:43:41.153Z</time></trkpt><trkpt lat="43.4690909" lon="11.1699791"><ele>134.33333333333334</ele><time>2026-03-29T13:43:44.115Z</time></trkpt><trkpt lat="43.4690432" lon="11.169851"><ele>135.66666666666669</ele><time>2026-03-29T13:43:46.116Z</time></trkpt><trkpt lat="43.4689866" lon="11.1697228"><ele>137.0</ele><time>2026-03-29T13:43:48.121Z</time></trkpt><trkpt lat="43.4689487" lon="11.1696507"><ele>138.33333333333334</ele><time>2026-03-29T13:43:49.166Z</time></trkpt><trkpt lat="43.4689129" lon="11.1695686"><ele>139.66666666666666</ele><time>2026-03-29T13:43:50.126Z</time></trkpt><trkpt lat="43.4688646" lon="11.1694772"><ele>141.0</ele><time>2026-03-29T13:43:51.13Z</time></trkpt><trkpt lat="43.4688096" lon="11.1693715"><ele>139.16666666666666</ele><time>2026-03-29T13:43:52.151Z</time></trkpt><trkpt lat="43.4687663" lon="11.1692833"><ele>137.33333333333334</ele><time>2026-03-29T13:43:53.154Z</time></trkpt><trkpt lat="43.4687254" lon="11.1691953"><ele>135.5</ele><time>2026-03-29T13:43:54.122Z</time></trkpt><trkpt lat="43.4686827" lon="11.1690892"><ele>133.66666666666669</ele><time>2026-03-29T13:43:55.135Z</time></trkpt><trkpt lat="43.4686366" lon="11.1689874"><ele>131.83333333333334</ele><time>2026-03-29T13:43:56.123Z</time></trkpt><trkpt lat="43.4685868" lon="11.1688763"><ele>130.0</ele><time>2026-03-29T13:43:57.122Z</time></trkpt><trkpt lat="43.468541" lon="11.1687715"><ele>130.0</ele><time>2026-03-29T13:43:58.142Z</time></trkpt><trkpt lat="43.468501" lon="11.168684"><ele>130.0</ele><time>2026-03-29T13:43:59.116Z</time></trkpt><trkpt lat="43.4684611" lon="11.1685869"><ele>130.0</ele><time>2026-03-29T13:44:00.123Z</time></trkpt><trkpt lat="43.4684233" lon="11.168463"><ele>130.0</ele><time>2026-03-29T13:44:01.135Z</time></trkpt><trkpt lat="43.4683985" lon="11.1683446"><ele>130.0</ele><time>2026-03-29T13:44:02.12Z</time></trkpt><trkpt lat="43.4683863" lon="11.1682381"><ele>130.0</ele><time>2026-03-29T13:44:03.139Z</time></trkpt><trkpt lat="43.4683676" lon="11.1681207"><ele>130.16666666666669</ele><time>2026-03-29T13:44:04.149Z</time></trkpt><trkpt lat="43.4683572" lon="11.1680055"><ele>130.33333333333334</ele><time>2026-03-29T13:44:05.123Z</time></trkpt><trkpt lat="43.4683375" lon="11.1679036"><ele>130.5</ele><time>2026-03-29T13:44:06.155Z</time></trkpt><trkpt lat="43.4683162" lon="11.1677785"><ele>130.66666666666666</ele><time>2026-03-29T13:44:07.127Z</time></trkpt><trkpt lat="43.4683059" lon="11.1676592"><ele>130.83333333333331</ele><time>2026-03-29T13:44:08.122Z</time></trkpt><trkpt lat="43.4683169" lon="11.1675581"><ele>131.0</ele><time>2026-03-29T13:44:09.114Z</time></trkpt><trkpt lat="43.4683147" lon="11.1674304"><ele>131.2</ele><time>2026-03-29T13:44:10.131Z</time></trkpt><trkpt lat="43.4683094" lon="11.1673104"><ele>131.39999999999998</ele><time>2026-03-29T13:44:11.116Z</time></trkpt><trkpt lat="43.468304" lon="11.1671866"><ele>131.6</ele><time>2026-03-29T13:44:12.122Z</time></trkpt><trkpt lat="43.4682979" lon="11.1670753"><ele>131.79999999999998</ele><time>2026-03-29T13:44:13.133Z</time></trkpt><trkpt lat="43.4682953" lon="11.1668868"><ele>132.0</ele><time>2026-03-29T13:44:15.12Z</time></trkpt><trkpt lat="43.4682984" lon="11.1667389"><ele>132.0</ele><time>2026-03-29T13:44:17.147Z</time></trkpt><trkpt lat="43.4683055" lon="11.1665496"><ele>132.0</ele><time>2026-03-29T13:44:19.126Z</time></trkpt><trkpt lat="43.46831" lon="11.1664341"><ele>132.0</ele><time>2026-03-29T13:44:20.147Z</time></trkpt><trkpt lat="43.4683178" lon="11.1663019"><ele>132.0</ele><time>2026-03-29T13:44:21.119Z</time></trkpt><trkpt lat="43.4683272" lon="11.1661426"><ele>132.0</ele><time>2026-03-29T13:44:22.117Z</time></trkpt><trkpt lat="43.468335" lon="11.16598"><ele>131.79999999999998</ele><time>2026-03-29T13:44:23.123Z</time></trkpt><trkpt lat="43.4683459" lon="11.1658332"><ele>131.6</ele><time>2026-03-29T13:44:24.125Z</time></trkpt><trkpt lat="43.4683621" lon="11.1656835"><ele>131.39999999999998</ele><time>2026-03-29T13:44:25.151Z</time></trkpt><trkpt lat="43.4683715" lon="11.1655529"><ele>131.2</ele><time>2026-03-29T13:44:26.127Z</time></trkpt><trkpt lat="43.4683802" lon="11.1654483"><ele>131.0</ele><time>2026-03-29T13:44:27.149Z</time></trkpt><trkpt lat="43.468384" lon="11.1653393"><ele>130.2</ele><time>2026-03-29T13:44:28.129Z</time></trkpt><trkpt lat="43.4683851" lon="11.1651853"><ele>129.39999999999998</ele><time>2026-03-29T13:44:29.149Z</time></trkpt><trkpt lat="43.4683863" lon="11.1650542"><ele>128.6</ele><time>2026-03-29T13:44:30.12Z</time></trkpt><trkpt lat="43.4683914" lon="11.1649311"><ele>127.8</ele><time>2026-03-29T13:44:31.119Z</time></trkpt><trkpt lat="43.4683943" lon="11.1647778"><ele>127.0</ele><time>2026-03-29T13:44:32.151Z</time></trkpt><trkpt lat="43.4683981" lon="11.1646064"><ele>126.0</ele><time>2026-03-29T13:44:33.131Z</time></trkpt><trkpt lat="43.4684053" lon="11.1644667"><ele>124.99999999999999</ele><time>2026-03-29T13:44:34.115Z</time></trkpt><trkpt lat="43.4684115" lon="11.1643244"><ele>123.99999999999999</ele><time>2026-03-29T13:44:35.156Z</time></trkpt><trkpt lat="43.4684206" lon="11.1641932"><ele>123.0</ele><time>2026-03-29T13:44:36.121Z</time></trkpt><trkpt lat="43.4684169" lon="11.1640375"><ele>122.0</ele><time>2026-03-29T13:44:37.122Z</time></trkpt><trkpt lat="43.468414" lon="11.1639236"><ele>121.99999999999999</ele><time>2026-03-29T13:44:38.145Z</time></trkpt><trkpt lat="43.4684129" lon="11.1638037"><ele>122.0</ele><time>2026-03-29T13:44:39.121Z</time></trkpt><trkpt lat="43.4684139" lon="11.1636838"><ele>122.0</ele><time>2026-03-29T13:44:40.12Z</time></trkpt><trkpt lat="43.4684158" lon="11.1635502"><ele>122.0</ele><time>2026-03-29T13:44:41.118Z</time></trkpt><trkpt lat="43.4684144" lon="11.1634317"><ele>121.99999999999999</ele><time>2026-03-29T13:44:42.124Z</time></trkpt><trkpt lat="43.4684118" lon="11.1633082"><ele>122.0</ele><time>2026-03-29T13:44:43.135Z</time></trkpt><trkpt lat="43.4684126" lon="11.1631746"><ele>121.99999999999999</ele><time>2026-03-29T13:44:44.13Z</time></trkpt><trkpt lat="43.4684145" lon="11.1630326"><ele>122.0</ele><time>2026-03-29T13:44:45.148Z</time></trkpt><trkpt lat="43.4684176" lon="11.1629098"><ele>122.0</ele><time>2026-03-29T13:44:46.126Z</time></trkpt><trkpt lat="43.4684256" lon="11.1627944"><ele>122.0</ele><time>2026-03-29T13:44:47.152Z</time></trkpt><trkpt lat="43.4684328" lon="11.1626844"><ele>121.99999999999999</ele><time>2026-03-29T13:44:48.119Z</time></trkpt><trkpt lat="43.4684396" lon="11.1625679"><ele>122.0</ele><time>2026-03-29T13:44:49.124Z</time></trkpt><trkpt lat="43.4684545" lon="11.1624211"><ele>121.39999999999999</ele><time>2026-03-29T13:44:50.131Z</time></trkpt><trkpt lat="43.4684808" lon="11.162306"><ele>120.79999999999998</ele><time>2026-03-29T13:44:51.127Z</time></trkpt><trkpt lat="43.4685175" lon="11.1621727"><ele>120.2</ele><time>2026-03-29T13:44:52.162Z</time></trkpt><trkpt lat="43.4685574" lon="11.1620354"><ele>119.6</ele><time>2026-03-29T13:44:53.151Z</time></trkpt><trkpt lat="43.4685965" lon="11.1619135"><ele>119.0</ele><time>2026-03-29T13:44:54.152Z</time></trkpt><trkpt lat="43.4686488" lon="11.1617775"><ele>119.0</ele><time>2026-03-29T13:44:55.124Z</time></trkpt><trkpt lat="43.468684" lon="11.1616109"><ele>119.0</ele><time>2026-03-29T13:44:56.122Z</time></trkpt><trkpt lat="43.4687054" lon="11.1614896"><ele>119.0</ele><time>2026-03-29T13:44:57.121Z</time></trkpt><trkpt lat="43.4687139" lon="11.1613408"><ele>119.0</ele><time>2026-03-29T13:44:58.129Z</time></trkpt><trkpt lat="43.4687144" lon="11.1612156"><ele>119.0</ele><time>2026-03-29T13:45:00.154Z</time></trkpt><trkpt lat="43.4687525" lon="11.1611063"><ele>117.75</ele><time>2026-03-29T13:45:03.128Z</time></trkpt><trkpt lat="43.4686094" lon="11.1611407"><ele>116.5</ele><time>2026-03-29T13:45:05.115Z</time></trkpt><trkpt lat="43.4685002" lon="11.1611554"><ele>115.25</ele><time>2026-03-29T13:45:06.112Z</time></trkpt><trkpt lat="43.4683713" lon="11.1611521"><ele>114.0</ele><time>2026-03-29T13:45:07.116Z</time></trkpt><trkpt lat="43.4682395" lon="11.1611408"><ele>114.0</ele><time>2026-03-29T13:45:08.115Z</time></trkpt><trkpt lat="43.4681105" lon="11.1611257"><ele>114.0</ele><time>2026-03-29T13:45:09.114Z</time></trkpt><trkpt lat="43.4679859" lon="11.1611134"><ele>114.0</ele><time>2026-03-29T13:45:10.125Z</time></trkpt><trkpt lat="43.4678685" lon="11.1611064"><ele>114.0</ele><time>2026-03-29T13:45:11.121Z</time></trkpt><trkpt lat="43.4677595" lon="11.1611004"><ele>112.66666666666667</ele><time>2026-03-29T13:45:12.112Z</time></trkpt><trkpt lat="43.4676587" lon="11.1610934"><ele>111.33333333333334</ele><time>2026-03-29T13:45:13.143Z</time></trkpt><trkpt lat="43.467568" lon="11.1610896"><ele>110.0</ele><time>2026-03-29T13:45:14.115Z</time></trkpt><trkpt lat="43.4674832" lon="11.1610839"><ele>108.66666666666667</ele><time>2026-03-29T13:45:15.142Z</time></trkpt><trkpt lat="43.4674034" lon="11.1610808"><ele>107.33333333333334</ele><time>2026-03-29T13:45:16.12Z</time></trkpt><trkpt lat="43.4673339" lon="11.1610769"><ele>106.0</ele><time>2026-03-29T13:45:17.111Z</time></trkpt><trkpt lat="43.4672155" lon="11.1610678"><ele>105.83333333333334</ele><time>2026-03-29T13:45:19.113Z</time></trkpt><trkpt lat="43.4671103" lon="11.1610478"><ele>105.66666666666667</ele><time>2026-03-29T13:45:21.113Z</time></trkpt><trkpt lat="43.4670405" lon="11.1610198"><ele>105.5</ele><time>2026-03-29T13:45:22.115Z</time></trkpt><trkpt lat="43.4669584" lon="11.160981"><ele>105.33333333333334</ele><time>2026-03-29T13:45:23.142Z</time></trkpt><trkpt lat="43.4668744" lon="11.1609428"><ele>105.16666666666667</ele><time>2026-03-29T13:45:24.117Z</time></trkpt><trkpt lat="43.4667943" lon="11.1609199"><ele>105.0</ele><time>2026-03-29T13:45:25.146Z</time></trkpt><trkpt lat="43.4667165" lon="11.1609247"><ele>105.0</ele><time>2026-03-29T13:45:26.112Z</time></trkpt><trkpt lat="43.4666368" lon="11.1609588"><ele>105.0</ele><time>2026-03-29T13:45:27.144Z</time></trkpt><trkpt lat="43.4665598" lon="11.1610272"><ele>105.0</ele><time>2026-03-29T13:45:28.115Z</time></trkpt><trkpt lat="43.4664925" lon="11.1611206"><ele>105.0</ele><time>2026-03-29T13:45:29.159Z</time></trkpt><trkpt lat="43.4664247" lon="11.1612278"><ele>105.0</ele><time>2026-03-29T13:45:30.126Z</time></trkpt><trkpt lat="43.4663566" lon="11.1613312"><ele>105.0</ele><time>2026-03-29T13:45:31.118Z</time></trkpt><trkpt lat="43.4662903" lon="11.1614286"><ele>105.0</ele><time>2026-03-29T13:45:32.113Z</time></trkpt><trkpt lat="43.4662203" lon="11.1615246"><ele>105.0</ele><time>2026-03-29T13:45:33.114Z</time></trkpt><trkpt lat="43.4661547" lon="11.1616093"><ele>105.0</ele><time>2026-03-29T13:45:34.111Z</time></trkpt><trkpt lat="43.4660955" lon="11.1616915"><ele>105.0</ele><time>2026-03-29T13:45:35.121Z</time></trkpt><trkpt lat="43.4660517" lon="11.1617726"><ele>105.0</ele><time>2026-03-29T13:45:36.122Z</time></trkpt><trkpt lat="43.4660281" lon="11.1618664"><ele>105.57142857142857</ele><time>2026-03-29T13:45:37.116Z</time></trkpt><trkpt lat="43.4660262" lon="11.1619593"><ele>106.14285714285714</ele><time>2026-03-29T13:45:38.127Z</time></trkpt><trkpt lat="43.4660455" lon="11.1620573"><ele>106.71428571428572</ele><time>2026-03-29T13:45:39.121Z</time></trkpt><trkpt lat="43.4660683" lon="11.1621422"><ele>107.28571428571428</ele><time>2026-03-29T13:45:40.115Z</time></trkpt><trkpt lat="43.466106" lon="11.1622664"><ele>107.85714285714286</ele><time>2026-03-29T13:45:42.12Z</time></trkpt><trkpt lat="43.4661594" lon="11.1623242"><ele>108.42857142857143</ele><time>2026-03-29T13:45:44.117Z</time></trkpt><trkpt lat="43.4662169" lon="11.1623903"><ele>109.0</ele><time>2026-03-29T13:45:46.112Z</time></trkpt><trkpt lat="43.4662762" lon="11.1624756"><ele>109.4</ele><time>2026-03-29T13:45:49.111Z</time></trkpt><trkpt lat="43.4663276" lon="11.1625345"><ele>109.80000000000001</ele><time>2026-03-29T13:45:51.115Z</time></trkpt><trkpt lat="43.4663944" lon="11.1626236"><ele>110.19999999999999</ele><time>2026-03-29T13:45:53.119Z</time></trkpt><trkpt lat="43.4664693" lon="11.1627112"><ele>110.6</ele><time>2026-03-29T13:45:55.151Z</time></trkpt><trkpt lat="43.4665482" lon="11.1628298"><ele>111.0</ele><time>2026-03-29T13:45:57.112Z</time></trkpt><trkpt lat="43.4666302" lon="11.1629588"><ele>111.0</ele><time>2026-03-29T13:45:59.112Z</time></trkpt><trkpt lat="43.4666733" lon="11.1630267"><ele>111.0</ele><time>2026-03-29T13:46:00.117Z</time></trkpt><trkpt lat="43.4667144" lon="11.1630927"><ele>111.0</ele><time>2026-03-29T13:46:01.118Z</time></trkpt><trkpt lat="43.4667579" lon="11.1631562"><ele>111.0</ele><time>2026-03-29T13:46:02.117Z</time></trkpt><trkpt lat="43.4667993" lon="11.1632223"><ele>111.0</ele><time>2026-03-29T13:46:03.114Z</time></trkpt><trkpt lat="43.4668722" lon="11.1633338"><ele>111.0</ele><time>2026-03-29T13:46:05.112Z</time></trkpt><trkpt lat="43.4669441" lon="11.1634198"><ele>111.0</ele><time>2026-03-29T13:46:07.143Z</time></trkpt><trkpt lat="43.4670264" lon="11.163526"><ele>111.0</ele><time>2026-03-29T13:46:09.115Z</time></trkpt><trkpt lat="43.4670653" lon="11.1636129"><ele>111.0</ele><time>2026-03-29T13:46:10.118Z</time></trkpt><trkpt lat="43.4671046" lon="11.1637127"><ele>111.0</ele><time>2026-03-29T13:46:11.152Z</time></trkpt><trkpt lat="43.4671353" lon="11.1638245"><ele>111.0</ele><time>2026-03-29T13:46:12.117Z</time></trkpt><trkpt lat="43.4671655" lon="11.1639435"><ele>111.0</ele><time>2026-03-29T13:46:13.121Z</time></trkpt><trkpt lat="43.4671942" lon="11.1640658"><ele>111.33333333333333</ele><time>2026-03-29T13:46:14.125Z</time></trkpt><trkpt lat="43.4672208" lon="11.1641761"><ele>111.66666666666666</ele><time>2026-03-29T13:46:15.119Z</time></trkpt><trkpt lat="43.4672435" lon="11.1642777"><ele>112.0</ele><time>2026-03-29T13:46:16.119Z</time></trkpt><trkpt lat="43.4672683" lon="11.1643834"><ele>112.33333333333333</ele><time>2026-03-29T13:46:17.148Z</time></trkpt><trkpt lat="43.4672995" lon="11.1644825"><ele>112.66666666666666</ele><time>2026-03-29T13:46:18.115Z</time></trkpt><trkpt lat="43.4673319" lon="11.1645735"><ele>113.0</ele><time>2026-03-29T13:46:19.112Z</time></trkpt><trkpt lat="43.4673618" lon="11.1646562"><ele>112.99999999999999</ele><time>2026-03-29T13:46:20.114Z</time></trkpt><trkpt lat="43.4674287" lon="11.1648011"><ele>113.0</ele><time>2026-03-29T13:46:22.122Z</time></trkpt><trkpt lat="43.4674739" lon="11.1648729"><ele>113.0</ele><time>2026-03-29T13:46:23.146Z</time></trkpt><trkpt lat="43.4675101" lon="11.1649555"><ele>113.0</ele><time>2026-03-29T13:46:24.144Z</time></trkpt><trkpt lat="43.4675375" lon="11.1650491"><ele>112.99999999999999</ele><time>2026-03-29T13:46:25.141Z</time></trkpt><trkpt lat="43.4675568" lon="11.1651509"><ele>113.0</ele><time>2026-03-29T13:46:26.115Z</time></trkpt><trkpt lat="43.4675723" lon="11.1652504"><ele>112.99999999999999</ele><time>2026-03-29T13:46:27.112Z</time></trkpt><trkpt lat="43.4675902" lon="11.1653469"><ele>113.0</ele><time>2026-03-29T13:46:28.112Z</time></trkpt><trkpt lat="43.4676103" lon="11.1654417"><ele>113.0</ele><time>2026-03-29T13:46:29.113Z</time></trkpt><trkpt lat="43.4676321" lon="11.1655231"><ele>113.0</ele><time>2026-03-29T13:46:30.128Z</time></trkpt><trkpt lat="43.4676845" lon="11.165638"><ele>112.99999999999999</ele><time>2026-03-29T13:46:32.113Z</time></trkpt><trkpt lat="43.4677769" lon="11.1656656"><ele>113.0</ele><time>2026-03-29T13:46:34.117Z</time></trkpt><trkpt lat="43.4678441" lon="11.1656552"><ele>112.99999999999999</ele><time>2026-03-29T13:46:35.115Z</time></trkpt><trkpt lat="43.4679255" lon="11.1656339"><ele>113.0</ele><time>2026-03-29T13:46:36.145Z</time></trkpt><trkpt lat="43.4680177" lon="11.1656167"><ele>113.0</ele><time>2026-03-29T13:46:37.142Z</time></trkpt><trkpt lat="43.4681154" lon="11.1655989"><ele>113.0</ele><time>2026-03-29T13:46:38.114Z</time></trkpt><trkpt lat="43.4682028" lon="11.1655882"><ele>112.99999999999999</ele><time>2026-03-29T13:46:39.115Z</time></trkpt><trkpt lat="43.4682741" lon="11.1655775"><ele>113.0</ele><time>2026-03-29T13:46:40.115Z</time></trkpt><trkpt lat="43.4683516" lon="11.1655779"><ele>115.33333333333333</ele><time>2026-03-29T13:46:42.116Z</time></trkpt><trkpt lat="43.4684037" lon="11.1655179"><ele>117.66666666666666</ele><time>2026-03-29T13:46:52.141Z</time></trkpt><trkpt lat="43.4684099" lon="11.1654213"><ele>120.0</ele><time>2026-03-29T13:46:54.115Z</time></trkpt><trkpt lat="43.4684115" lon="11.1652476"><ele>122.33333333333334</ele><time>2026-03-29T13:46:56.115Z</time></trkpt><trkpt lat="43.4684213" lon="11.1651428"><ele>124.66666666666667</ele><time>2026-03-29T13:46:57.113Z</time></trkpt><trkpt lat="43.4684271" lon="11.165022"><ele>127.0</ele><time>2026-03-29T13:46:58.114Z</time></trkpt><trkpt lat="43.4684314" lon="11.1648958"><ele>126.0</ele><time>2026-03-29T13:46:59.114Z</time></trkpt><trkpt lat="43.4684364" lon="11.1647663"><ele>124.99999999999999</ele><time>2026-03-29T13:47:00.12Z</time></trkpt><trkpt lat="43.4684415" lon="11.1646278"><ele>123.99999999999999</ele><time>2026-03-29T13:47:01.117Z</time></trkpt><trkpt lat="43.468444" lon="11.1644882"><ele>123.0</ele><time>2026-03-29T13:47:02.113Z</time></trkpt><trkpt lat="43.4684511" lon="11.1643417"><ele>122.0</ele><time>2026-03-29T13:47:03.15Z</time></trkpt><trkpt lat="43.4684616" lon="11.1641919"><ele>122.0</ele><time>2026-03-29T13:47:04.161Z</time></trkpt><trkpt lat="43.4684693" lon="11.164042"><ele>121.99999999999999</ele><time>2026-03-29T13:47:05.114Z</time></trkpt><trkpt lat="43.4684741" lon="11.1638963"><ele>121.99999999999999</ele><time>2026-03-29T13:47:06.146Z</time></trkpt><trkpt lat="43.4684784" lon="11.1637531"><ele>122.0</ele><time>2026-03-29T13:47:07.112Z</time></trkpt><trkpt lat="43.4684834" lon="11.1636073"><ele>122.0</ele><time>2026-03-29T13:47:08.116Z</time></trkpt><trkpt lat="43.4684874" lon="11.1634584"><ele>122.0</ele><time>2026-03-29T13:47:09.161Z</time></trkpt><trkpt lat="43.4684888" lon="11.1633076"><ele>121.99999999999999</ele><time>2026-03-29T13:47:10.117Z</time></trkpt><trkpt lat="43.4684893" lon="11.1631595"><ele>121.99999999999999</ele><time>2026-03-29T13:47:11.114Z</time></trkpt><trkpt lat="43.4684881" lon="11.1630121"><ele>122.0</ele><time>2026-03-29T13:47:12.145Z</time></trkpt><trkpt lat="43.4684885" lon="11.1628653"><ele>122.0</ele><time>2026-03-29T13:47:13.116Z</time></trkpt><trkpt lat="43.4684916" lon="11.1627268"><ele>122.0</ele><time>2026-03-29T13:47:14.146Z</time></trkpt><trkpt lat="43.4685015" lon="11.1625938"><ele>121.99999999999999</ele><time>2026-03-29T13:47:15.126Z</time></trkpt><trkpt lat="43.4685124" lon="11.1624647"><ele>121.99999999999999</ele><time>2026-03-29T13:47:16.117Z</time></trkpt><trkpt lat="43.4685331" lon="11.1623305"><ele>122.0</ele><time>2026-03-29T13:47:17.119Z</time></trkpt><trkpt lat="43.4685617" lon="11.162191"><ele>122.0</ele><time>2026-03-29T13:47:18.14Z</time></trkpt><trkpt lat="43.468595" lon="11.1620511"><ele>121.39999999999999</ele><time>2026-03-29T13:47:19.115Z</time></trkpt><trkpt lat="43.4686336" lon="11.1619152"><ele>120.79999999999998</ele><time>2026-03-29T13:47:20.144Z</time></trkpt><trkpt lat="43.4686727" lon="11.1617779"><ele>120.2</ele><time>2026-03-29T13:47:21.159Z</time></trkpt><trkpt lat="43.4687071" lon="11.161641"><ele>119.6</ele><time>2026-03-29T13:47:22.129Z</time></trkpt><trkpt lat="43.4687366" lon="11.1614994"><ele>119.0</ele><time>2026-03-29T13:47:23.119Z</time></trkpt><trkpt lat="43.4687608" lon="11.1613495"><ele>121.5</ele><time>2026-03-29T13:47:24.114Z</time></trkpt><trkpt lat="43.4687809" lon="11.1611935"><ele>124.0</ele><time>2026-03-29T13:47:25.113Z</time></trkpt><trkpt lat="43.4687978" lon="11.1610331"><ele>126.5</ele><time>2026-03-29T13:47:26.118Z</time></trkpt><trkpt lat="43.4688093" lon="11.1608727"><ele>129.0</ele><time>2026-03-29T13:47:27.152Z</time></trkpt><trkpt lat="43.4688163" lon="11.1607098"><ele>128.8</ele><time>2026-03-29T13:47:28.118Z</time></trkpt><trkpt lat="43.4688196" lon="11.1605498"><ele>128.60000000000002</ele><time>2026-03-29T13:47:29.113Z</time></trkpt><trkpt lat="43.4688176" lon="11.1603953"><ele>128.4</ele><time>2026-03-29T13:47:30.118Z</time></trkpt><trkpt lat="43.4688133" lon="11.1602459"><ele>128.20000000000002</ele><time>2026-03-29T13:47:31.129Z</time></trkpt><trkpt lat="43.4688105" lon="11.1601032"><ele>128.0</ele><time>2026-03-29T13:47:32.116Z</time></trkpt><trkpt lat="43.4688004" lon="11.1599422"><ele>127.25</ele><time>2026-03-29T13:47:33.117Z</time></trkpt><trkpt lat="43.4687874" lon="11.1597754"><ele>126.5</ele><time>2026-03-29T13:47:34.113Z</time></trkpt><trkpt lat="43.4687706" lon="11.1596066"><ele>125.75</ele><time>2026-03-29T13:47:35.112Z</time></trkpt><trkpt lat="43.4687498" lon="11.159444"><ele>125.0</ele><time>2026-03-29T13:47:36.115Z</time></trkpt><trkpt lat="43.4687266" lon="11.1592863"><ele>121.4</ele><time>2026-03-29T13:47:37.116Z</time></trkpt><trkpt lat="43.4687054" lon="11.1591346"><ele>117.8</ele><time>2026-03-29T13:47:38.115Z</time></trkpt><trkpt lat="43.4686873" lon="11.1589848"><ele>114.19999999999999</ele><time>2026-03-29T13:47:39.117Z</time></trkpt><trkpt lat="43.468672" lon="11.1588379"><ele>110.6</ele><time>2026-03-29T13:47:40.113Z</time></trkpt><trkpt lat="43.4686608" lon="11.1586969"><ele>107.0</ele><time>2026-03-29T13:47:41.117Z</time></trkpt><trkpt lat="43.4686505" lon="11.1585642"><ele>106.6</ele><time>2026-03-29T13:47:42.115Z</time></trkpt><trkpt lat="43.4686454" lon="11.1584265"><ele>106.19999999999999</ele><time>2026-03-29T13:47:43.113Z</time></trkpt><trkpt lat="43.468643" lon="11.1582767"><ele>105.8</ele><time>2026-03-29T13:47:44.15Z</time></trkpt><trkpt lat="43.4686435" lon="11.1581139"><ele>105.4</ele><time>2026-03-29T13:47:45.117Z</time></trkpt><trkpt lat="43.4686449" lon="11.1579454"><ele>105.0</ele><time>2026-03-29T13:47:46.115Z</time></trkpt><trkpt lat="43.4686501" lon="11.1577779"><ele>105.0</ele><time>2026-03-29T13:47:47.114Z</time></trkpt><trkpt lat="43.4686614" lon="11.1576127"><ele>105.0</ele><time>2026-03-29T13:47:48.145Z</time></trkpt><trkpt lat="43.4686835" lon="11.1574452"><ele>105.0</ele><time>2026-03-29T13:47:49.125Z</time></trkpt><trkpt lat="43.4687197" lon="11.1572754"><ele>105.0</ele><time>2026-03-29T13:47:50.147Z</time></trkpt><trkpt lat="43.468772" lon="11.157107"><ele>105.5</ele><time>2026-03-29T13:47:51.144Z</time></trkpt><trkpt lat="43.4688394" lon="11.1569381"><ele>106.0</ele><time>2026-03-29T13:47:52.117Z</time></trkpt><trkpt lat="43.4689165" lon="11.1567675"><ele>106.5</ele><time>2026-03-29T13:47:53.118Z</time></trkpt><trkpt lat="43.4689952" lon="11.1565962"><ele>107.0</ele><time>2026-03-29T13:47:54.141Z</time></trkpt><trkpt lat="43.4690728" lon="11.1564256"><ele>106.0</ele><time>2026-03-29T13:47:55.145Z</time></trkpt><trkpt lat="43.4691525" lon="11.1562572"><ele>105.0</ele><time>2026-03-29T13:47:56.146Z</time></trkpt><trkpt lat="43.469231" lon="11.1560923"><ele>104.0</ele><time>2026-03-29T13:47:57.152Z</time></trkpt><trkpt lat="43.4693092" lon="11.1559329"><ele>103.0</ele><time>2026-03-29T13:47:58.149Z</time></trkpt><trkpt lat="43.4693851" lon="11.1557792"><ele>103.0</ele><time>2026-03-29T13:47:59.116Z</time></trkpt><trkpt lat="43.4694628" lon="11.1556291"><ele>103.0</ele><time>2026-03-29T13:48:00.118Z</time></trkpt><trkpt lat="43.4695466" lon="11.1554961"><ele>103.0</ele><time>2026-03-29T13:48:01.123Z</time></trkpt><trkpt lat="43.4696385" lon="11.1553847"><ele>103.0</ele><time>2026-03-29T13:48:02.118Z</time></trkpt><trkpt lat="43.4697285" lon="11.1552898"><ele>103.0</ele><time>2026-03-29T13:48:03.148Z</time></trkpt><trkpt lat="43.469814" lon="11.155206"><ele>103.0</ele><time>2026-03-29T13:48:04.117Z</time></trkpt><trkpt lat="43.4699021" lon="11.1551245"><ele>103.0</ele><time>2026-03-29T13:48:05.145Z</time></trkpt><trkpt lat="43.4699953" lon="11.1550385"><ele>103.0</ele><time>2026-03-29T13:48:06.111Z</time></trkpt><trkpt lat="43.470092" lon="11.1549479"><ele>103.0</ele><time>2026-03-29T13:48:07.117Z</time></trkpt><trkpt lat="43.4701951" lon="11.1548543"><ele>103.25</ele><time>2026-03-29T13:48:08.12Z</time></trkpt><trkpt lat="43.4703032" lon="11.1547589"><ele>103.5</ele><time>2026-03-29T13:48:09.11Z</time></trkpt><trkpt lat="43.4704128" lon="11.1546635"><ele>103.75</ele><time>2026-03-29T13:48:10.143Z</time></trkpt><trkpt lat="43.4705247" lon="11.1545697"><ele>104.0</ele><time>2026-03-29T13:48:11.119Z</time></trkpt><trkpt lat="43.4706348" lon="11.1544821"><ele>104.5</ele><time>2026-03-29T13:48:12.116Z</time></trkpt><trkpt lat="43.4707387" lon="11.1543998"><ele>105.0</ele><time>2026-03-29T13:48:13.113Z</time></trkpt><trkpt lat="43.4709268" lon="11.1542606"><ele>105.5</ele><time>2026-03-29T13:48:15.146Z</time></trkpt><trkpt lat="43.4710075" lon="11.1542071"><ele>106.0</ele><time>2026-03-29T13:48:16.123Z</time></trkpt><trkpt lat="43.4710821" lon="11.1541619"><ele>106.00000000000001</ele><time>2026-03-29T13:48:17.111Z</time></trkpt><trkpt lat="43.4711568" lon="11.1541357"><ele>106.0</ele><time>2026-03-29T13:48:18.129Z</time></trkpt><trkpt lat="43.4712318" lon="11.1541185"><ele>106.0</ele><time>2026-03-29T13:48:19.112Z</time></trkpt><trkpt lat="43.4713044" lon="11.1540991"><ele>106.0</ele><time>2026-03-29T13:48:20.152Z</time></trkpt><trkpt lat="43.4713728" lon="11.1540728"><ele>106.00000000000001</ele><time>2026-03-29T13:48:21.117Z</time></trkpt><trkpt lat="43.4714229" lon="11.1540163"><ele>106.0</ele><time>2026-03-29T13:48:22.145Z</time></trkpt><trkpt lat="43.4714032" lon="11.1538018"><ele>106.0</ele><time>2026-03-29T13:48:25.121Z</time></trkpt><trkpt lat="43.4713344" lon="11.1536647"><ele>106.0</ele><time>2026-03-29T13:48:27.141Z</time></trkpt><trkpt lat="43.4712921" lon="11.1535328"><ele>106.0</ele><time>2026-03-29T13:48:29.114Z</time></trkpt><trkpt lat="43.4712631" lon="11.153369"><ele>106.0</ele><time>2026-03-29T13:48:31.13Z</time></trkpt><trkpt lat="43.4712223" lon="11.1532632"><ele>106.0</ele><time>2026-03-29T13:48:32.109Z</time></trkpt><trkpt lat="43.4711651" lon="11.1531379"><ele>104.75</ele><time>2026-03-29T13:48:33.112Z</time></trkpt><trkpt lat="43.4711128" lon="11.1529959"><ele>103.5</ele><time>2026-03-29T13:48:34.119Z</time></trkpt><trkpt lat="43.4710623" lon="11.1528441"><ele>102.25</ele><time>2026-03-29T13:48:35.115Z</time></trkpt><trkpt lat="43.4710099" lon="11.152695"><ele>101.0</ele><time>2026-03-29T13:48:36.152Z</time></trkpt><trkpt lat="43.4709576" lon="11.1525508"><ele>101.0</ele><time>2026-03-29T13:48:37.112Z</time></trkpt><trkpt lat="43.4708881" lon="11.1524258"><ele>101.0</ele><time>2026-03-29T13:48:38.114Z</time></trkpt><trkpt lat="43.4707958" lon="11.1523239"><ele>101.0</ele><time>2026-03-29T13:48:39.146Z</time></trkpt><trkpt lat="43.4706866" lon="11.1522696"><ele>101.0</ele><time>2026-03-29T13:48:40.12Z</time></trkpt><trkpt lat="43.4705653" lon="11.1522607"><ele>101.25</ele><time>2026-03-29T13:48:41.121Z</time></trkpt><trkpt lat="43.4704417" lon="11.1522868"><ele>101.5</ele><time>2026-03-29T13:48:42.114Z</time></trkpt><trkpt lat="43.4703159" lon="11.1523398"><ele>101.75</ele><time>2026-03-29T13:48:43.113Z</time></trkpt><trkpt lat="43.4701947" lon="11.1523996"><ele>102.0</ele><time>2026-03-29T13:48:44.147Z</time></trkpt><trkpt lat="43.4700711" lon="11.1524583"><ele>102.0</ele><time>2026-03-29T13:48:45.144Z</time></trkpt><trkpt lat="43.469949" lon="11.1525136"><ele>102.0</ele><time>2026-03-29T13:48:46.116Z</time></trkpt><trkpt lat="43.4698256" lon="11.1525681"><ele>102.0</ele><time>2026-03-29T13:48:47.115Z</time></trkpt><trkpt lat="43.4697014" lon="11.1526262"><ele>102.0</ele><time>2026-03-29T13:48:48.117Z</time></trkpt><trkpt lat="43.4695758" lon="11.1526834"><ele>102.0</ele><time>2026-03-29T13:48:49.153Z</time></trkpt><trkpt lat="43.4694493" lon="11.1527421"><ele>102.0</ele><time>2026-03-29T13:48:50.114Z</time></trkpt><trkpt lat="43.4693226" lon="11.1528019"><ele>102.0</ele><time>2026-03-29T13:48:51.149Z</time></trkpt><trkpt lat="43.4691959" lon="11.1528636"><ele>102.0</ele><time>2026-03-29T13:48:52.121Z</time></trkpt><trkpt lat="43.4690686" lon="11.1529273"><ele>102.0</ele><time>2026-03-29T13:48:53.142Z</time></trkpt><trkpt lat="43.4689442" lon="11.1529903"><ele>102.0</ele><time>2026-03-29T13:48:54.117Z</time></trkpt><trkpt lat="43.4688246" lon="11.1530558"><ele>102.0</ele><time>2026-03-29T13:48:55.116Z</time></trkpt><trkpt lat="43.4687076" lon="11.1531253"><ele>102.0</ele><time>2026-03-29T13:48:56.148Z</time></trkpt><trkpt lat="43.4685913" lon="11.1531983"><ele>102.0</ele><time>2026-03-29T13:48:57.113Z</time></trkpt><trkpt lat="43.4684781" lon="11.1532743"><ele>102.0</ele><time>2026-03-29T13:48:58.116Z</time></trkpt><trkpt lat="43.4683713" lon="11.1533521"><ele>102.0</ele><time>2026-03-29T13:48:59.122Z</time></trkpt><trkpt lat="43.4682745" lon="11.1534302"><ele>102.0</ele><time>2026-03-29T13:49:00.156Z</time></trkpt><trkpt lat="43.4681879" lon="11.1535068"><ele>102.0</ele><time>2026-03-29T13:49:01.12Z</time></trkpt><trkpt lat="43.4681155" lon="11.1535727"><ele>102.0</ele><time>2026-03-29T13:49:02.147Z</time></trkpt><trkpt lat="43.4680555" lon="11.1536139"><ele>102.0</ele><time>2026-03-29T13:49:03.119Z</time></trkpt><trkpt lat="43.4679522" lon="11.1536437"><ele>102.0</ele><time>2026-03-29T13:49:05.146Z</time></trkpt><trkpt lat="43.4678604" lon="11.1536198"><ele>102.0</ele><time>2026-03-29T13:49:07.156Z</time></trkpt><trkpt lat="43.4677845" lon="11.1535656"><ele>102.0</ele><time>2026-03-29T13:49:09.146Z</time></trkpt><trkpt lat="43.4677093" lon="11.1534778"><ele>101.8</ele><time>2026-03-29T13:49:11.118Z</time></trkpt><trkpt lat="43.4676502" lon="11.1533497"><ele>101.6</ele><time>2026-03-29T13:49:13.129Z</time></trkpt><trkpt lat="43.4675861" lon="11.1532241"><ele>101.39999999999999</ele><time>2026-03-29T13:49:15.118Z</time></trkpt><trkpt lat="43.4675358" lon="11.1531192"><ele>101.19999999999999</ele><time>2026-03-29T13:49:17.117Z</time></trkpt><trkpt lat="43.4674957" lon="11.1530196"><ele>101.0</ele><time>2026-03-29T13:49:19.145Z</time></trkpt><trkpt lat="43.4674737" lon="11.152901"><ele>101.0</ele><time>2026-03-29T13:49:21.113Z</time></trkpt><trkpt lat="43.4674809" lon="11.1527607"><ele>101.0</ele><time>2026-03-29T13:49:23.146Z</time></trkpt><trkpt lat="43.4674557" lon="11.1526148"><ele>101.0</ele><time>2026-03-29T13:49:25.114Z</time></trkpt><trkpt lat="43.4673579" lon="11.1525231"><ele>101.0</ele><time>2026-03-29T13:49:27.112Z</time></trkpt><trkpt lat="43.4672279" lon="11.1525146"><ele>101.0</ele><time>2026-03-29T13:49:29.124Z</time></trkpt><trkpt lat="43.467146" lon="11.1525597"><ele>101.0</ele><time>2026-03-29T13:49:30.144Z</time></trkpt><trkpt lat="43.4670597" lon="11.1526355"><ele>101.0</ele><time>2026-03-29T13:49:31.115Z</time></trkpt><trkpt lat="43.4669815" lon="11.1527277"><ele>101.0</ele><time>2026-03-29T13:49:32.112Z</time></trkpt><trkpt lat="43.4669171" lon="11.1528258"><ele>101.0</ele><time>2026-03-29T13:49:33.118Z</time></trkpt><trkpt lat="43.4668658" lon="11.1529263"><ele>101.33333333333333</ele><time>2026-03-29T13:49:34.118Z</time></trkpt><trkpt lat="43.4668194" lon="11.1530213"><ele>101.66666666666666</ele><time>2026-03-29T13:49:35.125Z</time></trkpt><trkpt lat="43.4667719" lon="11.1531134"><ele>102.0</ele><time>2026-03-29T13:49:36.113Z</time></trkpt><trkpt lat="43.4667217" lon="11.1532014"><ele>102.33333333333334</ele><time>2026-03-29T13:49:37.117Z</time></trkpt><trkpt lat="43.4666711" lon="11.153286"><ele>102.66666666666667</ele><time>2026-03-29T13:49:38.114Z</time></trkpt><trkpt lat="43.4666206" lon="11.1533646"><ele>103.0</ele><time>2026-03-29T13:49:39.147Z</time></trkpt><trkpt lat="43.466572" lon="11.1534359"><ele>103.00000000000001</ele><time>2026-03-29T13:49:40.119Z</time></trkpt><trkpt lat="43.4665281" lon="11.1535042"><ele>103.0</ele><time>2026-03-29T13:49:41.149Z</time></trkpt><trkpt lat="43.4664857" lon="11.1535746"><ele>103.0</ele><time>2026-03-29T13:49:42.116Z</time></trkpt><trkpt lat="43.4664386" lon="11.1536525"><ele>103.0</ele><time>2026-03-29T13:49:43.125Z</time></trkpt><trkpt lat="43.4663891" lon="11.1537384"><ele>103.00000000000001</ele><time>2026-03-29T13:49:44.122Z</time></trkpt><trkpt lat="43.4663376" lon="11.1538331"><ele>103.0</ele><time>2026-03-29T13:49:45.114Z</time></trkpt><trkpt lat="43.4662838" lon="11.1539346"><ele>103.2</ele><time>2026-03-29T13:49:46.145Z</time></trkpt><trkpt lat="43.4662317" lon="11.1540338"><ele>103.4</ele><time>2026-03-29T13:49:47.147Z</time></trkpt><trkpt lat="43.4661768" lon="11.1541259"><ele>103.60000000000001</ele><time>2026-03-29T13:49:48.116Z</time></trkpt><trkpt lat="43.4661162" lon="11.1542182"><ele>103.80000000000001</ele><time>2026-03-29T13:49:49.116Z</time></trkpt><trkpt lat="43.4660585" lon="11.1543207"><ele>104.0</ele><time>2026-03-29T13:49:50.113Z</time></trkpt><trkpt lat="43.4660015" lon="11.1544397"><ele>104.25</ele><time>2026-03-29T13:49:51.118Z</time></trkpt><trkpt lat="43.4659576" lon="11.1545948"><ele>104.5</ele><time>2026-03-29T13:49:52.113Z</time></trkpt><trkpt lat="43.465905" lon="11.1547765"><ele>104.75</ele><time>2026-03-29T13:49:53.148Z</time></trkpt><trkpt lat="43.4658446" lon="11.154965"><ele>105.0</ele><time>2026-03-29T13:49:54.122Z</time></trkpt><trkpt lat="43.465793" lon="11.1551513"><ele>105.0</ele><time>2026-03-29T13:49:55.113Z</time></trkpt><trkpt lat="43.4657451" lon="11.1553391"><ele>105.0</ele><time>2026-03-29T13:49:56.118Z</time></trkpt><trkpt lat="43.4657038" lon="11.1555206"><ele>105.0</ele><time>2026-03-29T13:49:57.119Z</time></trkpt><trkpt lat="43.4656578" lon="11.1556907"><ele>105.0</ele><time>2026-03-29T13:49:58.114Z</time></trkpt><trkpt lat="43.4656051" lon="11.1558594"><ele>105.0</ele><time>2026-03-29T13:49:59.113Z</time></trkpt><trkpt lat="43.4655544" lon="11.1560251"><ele>105.0</ele><time>2026-03-29T13:50:00.112Z</time></trkpt><trkpt lat="43.4655029" lon="11.1561858"><ele>105.0</ele><time>2026-03-29T13:50:01.121Z</time></trkpt><trkpt lat="43.4654599" lon="11.1563378"><ele>105.0</ele><time>2026-03-29T13:50:02.141Z</time></trkpt><trkpt lat="43.4654257" lon="11.1564836"><ele>105.0</ele><time>2026-03-29T13:50:03.115Z</time></trkpt><trkpt lat="43.465389" lon="11.156622"><ele>105.0</ele><time>2026-03-29T13:50:04.115Z</time></trkpt><trkpt lat="43.4653576" lon="11.1567646"><ele>105.0</ele><time>2026-03-29T13:50:05.142Z</time></trkpt><trkpt lat="43.4653269" lon="11.1569019"><ele>105.0</ele><time>2026-03-29T13:50:06.117Z</time></trkpt><trkpt lat="43.4652967" lon="11.1570325"><ele>105.0</ele><time>2026-03-29T13:50:07.146Z</time></trkpt><trkpt lat="43.4652682" lon="11.1571497"><ele>105.0</ele><time>2026-03-29T13:50:08.115Z</time></trkpt><trkpt lat="43.4652414" lon="11.157257"><ele>105.0</ele><time>2026-03-29T13:50:09.118Z</time></trkpt><trkpt lat="43.4652121" lon="11.1573628"><ele>105.0</ele><time>2026-03-29T13:50:10.145Z</time></trkpt><trkpt lat="43.4651755" lon="11.1574721"><ele>105.0</ele><time>2026-03-29T13:50:11.117Z</time></trkpt><trkpt lat="43.4651264" lon="11.1575693"><ele>105.0</ele><time>2026-03-29T13:50:12.113Z</time></trkpt><trkpt lat="43.465063" lon="11.1576475"><ele>105.0</ele><time>2026-03-29T13:50:13.116Z</time></trkpt><trkpt lat="43.4649821" lon="11.1576993"><ele>104.4</ele><time>2026-03-29T13:50:14.116Z</time></trkpt><trkpt lat="43.464887" lon="11.157707"><ele>103.8</ele><time>2026-03-29T13:50:15.114Z</time></trkpt><trkpt lat="43.4647839" lon="11.1576712"><ele>103.19999999999999</ele><time>2026-03-29T13:50:16.115Z</time></trkpt><trkpt lat="43.4646746" lon="11.1576105"><ele>102.6</ele><time>2026-03-29T13:50:17.123Z</time></trkpt><trkpt lat="43.4645628" lon="11.1575409"><ele>102.0</ele><time>2026-03-29T13:50:18.115Z</time></trkpt><trkpt lat="43.464447" lon="11.1574733"><ele>102.0</ele><time>2026-03-29T13:50:19.152Z</time></trkpt><trkpt lat="43.464328" lon="11.1574025"><ele>102.0</ele><time>2026-03-29T13:50:20.117Z</time></trkpt><trkpt lat="43.4642071" lon="11.157333"><ele>102.0</ele><time>2026-03-29T13:50:21.115Z</time></trkpt><trkpt lat="43.4640949" lon="11.1572717"><ele>102.0</ele><time>2026-03-29T13:50:22.118Z</time></trkpt><trkpt lat="43.4639859" lon="11.1572161"><ele>102.39999999999999</ele><time>2026-03-29T13:50:23.118Z</time></trkpt><trkpt lat="43.4638767" lon="11.1571623"><ele>102.8</ele><time>2026-03-29T13:50:24.115Z</time></trkpt><trkpt lat="43.4637767" lon="11.1571111"><ele>103.2</ele><time>2026-03-29T13:50:25.144Z</time></trkpt><trkpt lat="43.4636804" lon="11.1570607"><ele>103.6</ele><time>2026-03-29T13:50:26.125Z</time></trkpt><trkpt lat="43.4635914" lon="11.1570084"><ele>104.0</ele><time>2026-03-29T13:50:27.127Z</time></trkpt><trkpt lat="43.4635051" lon="11.1569594"><ele>104.83333333333333</ele><time>2026-03-29T13:50:28.117Z</time></trkpt><trkpt lat="43.4634244" lon="11.1569084"><ele>105.66666666666666</ele><time>2026-03-29T13:50:29.122Z</time></trkpt><trkpt lat="43.463352" lon="11.1568484"><ele>106.5</ele><time>2026-03-29T13:50:30.118Z</time></trkpt><trkpt lat="43.4632978" lon="11.156766"><ele>107.33333333333334</ele><time>2026-03-29T13:50:31.118Z</time></trkpt><trkpt lat="43.4632661" lon="11.1566573"><ele>108.16666666666667</ele><time>2026-03-29T13:50:32.118Z</time></trkpt><trkpt lat="43.4632636" lon="11.1565284"><ele>109.0</ele><time>2026-03-29T13:50:33.114Z</time></trkpt><trkpt lat="43.4632868" lon="11.1563781"><ele>109.5</ele><time>2026-03-29T13:50:34.115Z</time></trkpt><trkpt lat="43.4633429" lon="11.156223"><ele>110.0</ele><time>2026-03-29T13:50:35.112Z</time></trkpt><trkpt lat="43.463408" lon="11.1560655"><ele>110.5</ele><time>2026-03-29T13:50:36.123Z</time></trkpt><trkpt lat="43.4634707" lon="11.1559028"><ele>111.0</ele><time>2026-03-29T13:50:37.143Z</time></trkpt><trkpt lat="43.463529" lon="11.1557382"><ele>111.0</ele><time>2026-03-29T13:50:38.147Z</time></trkpt><trkpt lat="43.4635857" lon="11.1555753"><ele>111.0</ele><time>2026-03-29T13:50:39.115Z</time></trkpt><trkpt lat="43.4636401" lon="11.1554151"><ele>111.0</ele><time>2026-03-29T13:50:40.115Z</time></trkpt><trkpt lat="43.4636922" lon="11.1552577"><ele>111.0</ele><time>2026-03-29T13:50:41.151Z</time></trkpt><trkpt lat="43.463741" lon="11.1551004"><ele>110.75</ele><time>2026-03-29T13:50:42.114Z</time></trkpt><trkpt lat="43.4637901" lon="11.1549416"><ele>110.5</ele><time>2026-03-29T13:50:43.118Z</time></trkpt><trkpt lat="43.4638405" lon="11.1547855"><ele>110.25</ele><time>2026-03-29T13:50:44.12Z</time></trkpt><trkpt lat="43.4638885" lon="11.1546399"><ele>110.0</ele><time>2026-03-29T13:50:45.146Z</time></trkpt><trkpt lat="43.4639318" lon="11.1545015"><ele>110.0</ele><time>2026-03-29T13:50:46.146Z</time></trkpt><trkpt lat="43.4639756" lon="11.15436"><ele>110.0</ele><time>2026-03-29T13:50:47.144Z</time></trkpt><trkpt lat="43.4640237" lon="11.1542119"><ele>110.0</ele><time>2026-03-29T13:50:48.116Z</time></trkpt><trkpt lat="43.4640711" lon="11.1540576"><ele>110.0</ele><time>2026-03-29T13:50:49.113Z</time></trkpt><trkpt lat="43.464124" lon="11.1538969"><ele>110.0</ele><time>2026-03-29T13:50:50.114Z</time></trkpt><trkpt lat="43.464183" lon="11.1537349"><ele>110.0</ele><time>2026-03-29T13:50:51.145Z</time></trkpt><trkpt lat="43.4642415" lon="11.153568"><ele>110.0</ele><time>2026-03-29T13:50:52.111Z</time></trkpt><trkpt lat="43.4643004" lon="11.1533986"><ele>110.0</ele><time>2026-03-29T13:50:53.115Z</time></trkpt><trkpt lat="43.464358" lon="11.1532314"><ele>110.25</ele><time>2026-03-29T13:50:54.146Z</time></trkpt><trkpt lat="43.4644181" lon="11.1530674"><ele>110.5</ele><time>2026-03-29T13:50:55.12Z</time></trkpt><trkpt lat="43.4644762" lon="11.1529003"><ele>110.75</ele><time>2026-03-29T13:50:56.12Z</time></trkpt><trkpt lat="43.4645321" lon="11.1527329"><ele>111.0</ele><time>2026-03-29T13:50:57.118Z</time></trkpt><trkpt lat="43.4645887" lon="11.1525657"><ele>110.25</ele><time>2026-03-29T13:50:58.122Z</time></trkpt><trkpt lat="43.4646444" lon="11.1524036"><ele>109.5</ele><time>2026-03-29T13:50:59.116Z</time></trkpt><trkpt lat="43.4646996" lon="11.152246"><ele>108.75</ele><time>2026-03-29T13:51:00.114Z</time></trkpt><trkpt lat="43.4647523" lon="11.1520887"><ele>108.0</ele><time>2026-03-29T13:51:01.119Z</time></trkpt><trkpt lat="43.4648037" lon="11.151933"><ele>108.0</ele><time>2026-03-29T13:51:02.113Z</time></trkpt><trkpt lat="43.464854" lon="11.1517778"><ele>108.0</ele><time>2026-03-29T13:51:03.151Z</time></trkpt><trkpt lat="43.4649002" lon="11.1516222"><ele>108.0</ele><time>2026-03-29T13:51:04.113Z</time></trkpt><trkpt lat="43.4649437" lon="11.1514711"><ele>108.0</ele><time>2026-03-29T13:51:05.118Z</time></trkpt><trkpt lat="43.4649881" lon="11.1513324"><ele>108.60000000000001</ele><time>2026-03-29T13:51:06.121Z</time></trkpt><trkpt lat="43.4650345" lon="11.151203"><ele>109.20000000000002</ele><time>2026-03-29T13:51:07.114Z</time></trkpt><trkpt lat="43.4650816" lon="11.1510831"><ele>109.8</ele><time>2026-03-29T13:51:08.145Z</time></trkpt><trkpt lat="43.465137" lon="11.150977"><ele>110.4</ele><time>2026-03-29T13:51:09.145Z</time></trkpt><trkpt lat="43.4652106" lon="11.1508734"><ele>111.0</ele><time>2026-03-29T13:51:10.145Z</time></trkpt><trkpt lat="43.4652922" lon="11.15077"><ele>110.4</ele><time>2026-03-29T13:51:11.115Z</time></trkpt><trkpt lat="43.4653641" lon="11.1506574"><ele>109.8</ele><time>2026-03-29T13:51:12.125Z</time></trkpt><trkpt lat="43.4654244" lon="11.1505403"><ele>109.20000000000002</ele><time>2026-03-29T13:51:13.121Z</time></trkpt><trkpt lat="43.4654824" lon="11.1504191"><ele>108.60000000000001</ele><time>2026-03-29T13:51:14.117Z</time></trkpt><trkpt lat="43.4655444" lon="11.1502917"><ele>108.0</ele><time>2026-03-29T13:51:15.116Z</time></trkpt><trkpt lat="43.4656078" lon="11.150171"><ele>108.0</ele><time>2026-03-29T13:51:16.152Z</time></trkpt><trkpt lat="43.4656808" lon="11.1500613"><ele>108.00000000000001</ele><time>2026-03-29T13:51:17.116Z</time></trkpt><trkpt lat="43.4657642" lon="11.1499691"><ele>108.00000000000001</ele><time>2026-03-29T13:51:18.118Z</time></trkpt><trkpt lat="43.4658523" lon="11.1498729"><ele>108.0</ele><time>2026-03-29T13:51:19.148Z</time></trkpt><trkpt lat="43.4659422" lon="11.1497734"><ele>108.0</ele><time>2026-03-29T13:51:20.123Z</time></trkpt><trkpt lat="43.4660283" lon="11.1496645"><ele>108.75</ele><time>2026-03-29T13:51:21.116Z</time></trkpt><trkpt lat="43.4661126" lon="11.149552"><ele>109.5</ele><time>2026-03-29T13:51:22.113Z</time></trkpt><trkpt lat="43.4661945" lon="11.1494364"><ele>110.25</ele><time>2026-03-29T13:51:23.11Z</time></trkpt><trkpt lat="43.4662776" lon="11.1493234"><ele>111.0</ele><time>2026-03-29T13:51:24.12Z</time></trkpt><trkpt lat="43.466359" lon="11.1492068"><ele>111.0</ele><time>2026-03-29T13:51:25.12Z</time></trkpt><trkpt lat="43.4664456" lon="11.1490921"><ele>111.0</ele><time>2026-03-29T13:51:26.14Z</time></trkpt><trkpt lat="43.4665252" lon="11.1489788"><ele>111.0</ele><time>2026-03-29T13:51:27.113Z</time></trkpt><trkpt lat="43.4666043" lon="11.148865"><ele>111.0</ele><time>2026-03-29T13:51:28.144Z</time></trkpt><trkpt lat="43.4666842" lon="11.1487525"><ele>111.0</ele><time>2026-03-29T13:51:29.118Z</time></trkpt><trkpt lat="43.4667594" lon="11.1486406"><ele>111.0</ele><time>2026-03-29T13:51:30.124Z</time></trkpt><trkpt lat="43.4668322" lon="11.1485348"><ele>111.0</ele><time>2026-03-29T13:51:31.12Z</time></trkpt><trkpt lat="43.4668946" lon="11.1484307"><ele>111.0</ele><time>2026-03-29T13:51:32.144Z</time></trkpt><trkpt lat="43.4669617" lon="11.148339"><ele>111.0</ele><time>2026-03-29T13:51:33.123Z</time></trkpt><trkpt lat="43.4670289" lon="11.1482564"><ele>110.66666666666667</ele><time>2026-03-29T13:51:34.118Z</time></trkpt><trkpt lat="43.4670878" lon="11.148178"><ele>110.33333333333334</ele><time>2026-03-29T13:51:35.114Z</time></trkpt><trkpt lat="43.4671474" lon="11.148103"><ele>110.0</ele><time>2026-03-29T13:51:36.115Z</time></trkpt><trkpt lat="43.4672073" lon="11.1480407"><ele>109.66666666666667</ele><time>2026-03-29T13:51:37.126Z</time></trkpt><trkpt lat="43.4672713" lon="11.1479815"><ele>109.33333333333334</ele><time>2026-03-29T13:51:38.113Z</time></trkpt><trkpt lat="43.4673563" lon="11.1479388"><ele>109.0</ele><time>2026-03-29T13:51:39.115Z</time></trkpt><trkpt lat="43.46746" lon="11.1479084"><ele>109.0</ele><time>2026-03-29T13:51:40.113Z</time></trkpt><trkpt lat="43.4675718" lon="11.1478793"><ele>109.0</ele><time>2026-03-29T13:51:41.145Z</time></trkpt><trkpt lat="43.4676738" lon="11.1478522"><ele>109.0</ele><time>2026-03-29T13:51:42.116Z</time></trkpt><trkpt lat="43.4677747" lon="11.1478258"><ele>109.0</ele><time>2026-03-29T13:51:43.146Z</time></trkpt><trkpt lat="43.4678778" lon="11.1478038"><ele>109.0</ele><time>2026-03-29T13:51:44.146Z</time></trkpt><trkpt lat="43.4679858" lon="11.1477721"><ele>108.25</ele><time>2026-03-29T13:51:45.144Z</time></trkpt><trkpt lat="43.4681019" lon="11.1477278"><ele>107.5</ele><time>2026-03-29T13:51:46.147Z</time></trkpt><trkpt lat="43.4682202" lon="11.1476811"><ele>106.75</ele><time>2026-03-29T13:51:47.146Z</time></trkpt><trkpt lat="43.4683417" lon="11.1476338"><ele>106.0</ele><time>2026-03-29T13:51:48.115Z</time></trkpt><trkpt lat="43.4684688" lon="11.147584"><ele>106.0</ele><time>2026-03-29T13:51:49.119Z</time></trkpt><trkpt lat="43.4685979" lon="11.1475347"><ele>106.0</ele><time>2026-03-29T13:51:50.113Z</time></trkpt><trkpt lat="43.4687236" lon="11.1474929"><ele>106.0</ele><time>2026-03-29T13:51:51.117Z</time></trkpt><trkpt lat="43.4688521" lon="11.1474499"><ele>106.0</ele><time>2026-03-29T13:51:52.145Z</time></trkpt><trkpt lat="43.4689761" lon="11.1474023"><ele>105.5</ele><time>2026-03-29T13:51:53.116Z</time></trkpt><trkpt lat="43.4690939" lon="11.14735"><ele>105.0</ele><time>2026-03-29T13:51:54.149Z</time></trkpt><trkpt lat="43.4692043" lon="11.1472955"><ele>104.5</ele><time>2026-03-29T13:51:55.116Z</time></trkpt><trkpt lat="43.4693103" lon="11.1472208"><ele>104.0</ele><time>2026-03-29T13:51:56.118Z</time></trkpt><trkpt lat="43.4694116" lon="11.1471274"><ele>104.0</ele><time>2026-03-29T13:51:57.116Z</time></trkpt><trkpt lat="43.4695078" lon="11.1470175"><ele>104.0</ele><time>2026-03-29T13:51:58.145Z</time></trkpt><trkpt lat="43.4695999" lon="11.1469014"><ele>104.0</ele><time>2026-03-29T13:51:59.113Z</time></trkpt><trkpt lat="43.4696884" lon="11.1467819"><ele>104.0</ele><time>2026-03-29T13:52:00.142Z</time></trkpt><trkpt lat="43.4697706" lon="11.1466632"><ele>103.80000000000001</ele><time>2026-03-29T13:52:01.147Z</time></trkpt><trkpt lat="43.4698416" lon="11.1465522"><ele>103.60000000000001</ele><time>2026-03-29T13:52:02.113Z</time></trkpt><trkpt lat="43.4699043" lon="11.1464492"><ele>103.4</ele><time>2026-03-29T13:52:03.113Z</time></trkpt><trkpt lat="43.4699597" lon="11.1463504"><ele>103.2</ele><time>2026-03-29T13:52:04.116Z</time></trkpt><trkpt lat="43.4700128" lon="11.1462487"><ele>103.0</ele><time>2026-03-29T13:52:05.115Z</time></trkpt><trkpt lat="43.4700591" lon="11.1461451"><ele>103.00000000000001</ele><time>2026-03-29T13:52:06.146Z</time></trkpt><trkpt lat="43.4700921" lon="11.1460406"><ele>103.0</ele><time>2026-03-29T13:52:07.123Z</time></trkpt><trkpt lat="43.4701117" lon="11.145936"><ele>103.0</ele><time>2026-03-29T13:52:08.118Z</time></trkpt><trkpt lat="43.4701301" lon="11.1458257"><ele>103.0</ele><time>2026-03-29T13:52:09.12Z</time></trkpt><trkpt lat="43.4701485" lon="11.1457191"><ele>103.00000000000001</ele><time>2026-03-29T13:52:10.113Z</time></trkpt><trkpt lat="43.4701656" lon="11.1456297"><ele>103.0</ele><time>2026-03-29T13:52:11.124Z</time></trkpt><trkpt lat="43.4701973" lon="11.1454916"><ele>103.33333333333334</ele><time>2026-03-29T13:52:13.114Z</time></trkpt><trkpt lat="43.4702293" lon="11.1453824"><ele>103.66666666666667</ele><time>2026-03-29T13:52:15.123Z</time></trkpt><trkpt lat="43.4702698" lon="11.1452376"><ele>104.0</ele><time>2026-03-29T13:52:17.117Z</time></trkpt><trkpt lat="43.4703049" lon="11.1451413"><ele>104.33333333333334</ele><time>2026-03-29T13:52:18.147Z</time></trkpt><trkpt lat="43.4703441" lon="11.1450448"><ele>104.66666666666667</ele><time>2026-03-29T13:52:19.114Z</time></trkpt><trkpt lat="43.4703875" lon="11.1449447"><ele>105.0</ele><time>2026-03-29T13:52:20.114Z</time></trkpt><trkpt lat="43.4704306" lon="11.1448475"><ele>104.66666666666667</ele><time>2026-03-29T13:52:21.148Z</time></trkpt><trkpt lat="43.4704735" lon="11.1447504"><ele>104.33333333333334</ele><time>2026-03-29T13:52:22.119Z</time></trkpt><trkpt lat="43.4705168" lon="11.1446541"><ele>104.0</ele><time>2026-03-29T13:52:23.118Z</time></trkpt><trkpt lat="43.4705564" lon="11.1445638"><ele>103.66666666666667</ele><time>2026-03-29T13:52:24.114Z</time></trkpt><trkpt lat="43.4705993" lon="11.1444782"><ele>103.33333333333334</ele><time>2026-03-29T13:52:25.111Z</time></trkpt><trkpt lat="43.470632" lon="11.1443983"><ele>103.0</ele><time>2026-03-29T13:52:26.114Z</time></trkpt><trkpt lat="43.4706877" lon="11.1442307"><ele>103.00000000000001</ele><time>2026-03-29T13:52:28.114Z</time></trkpt><trkpt lat="43.4707338" lon="11.1441292"><ele>103.0</ele><time>2026-03-29T13:52:29.116Z</time></trkpt><trkpt lat="43.470773" lon="11.1440272"><ele>103.0</ele><time>2026-03-29T13:52:30.114Z</time></trkpt><trkpt lat="43.4708077" lon="11.1439263"><ele>103.0</ele><time>2026-03-29T13:52:31.115Z</time></trkpt><trkpt lat="43.4708403" lon="11.1438316"><ele>103.00000000000001</ele><time>2026-03-29T13:52:32.123Z</time></trkpt><trkpt lat="43.4708724" lon="11.1437408"><ele>103.0</ele><time>2026-03-29T13:52:33.114Z</time></trkpt><trkpt lat="43.4709182" lon="11.1436629"><ele>103.0</ele><time>2026-03-29T13:52:34.144Z</time></trkpt><trkpt lat="43.4709802" lon="11.1435803"><ele>103.0</ele><time>2026-03-29T13:52:35.146Z</time></trkpt><trkpt lat="43.4710551" lon="11.1435034"><ele>103.0</ele><time>2026-03-29T13:52:36.118Z</time></trkpt><trkpt lat="43.4711604" lon="11.143421"><ele>103.0</ele><time>2026-03-29T13:52:37.117Z</time></trkpt><trkpt lat="43.4712772" lon="11.1433469"><ele>103.0</ele><time>2026-03-29T13:52:38.146Z</time></trkpt><trkpt lat="43.4713978" lon="11.1432846"><ele>103.0</ele><time>2026-03-29T13:52:39.146Z</time></trkpt><trkpt lat="43.4715205" lon="11.143233"><ele>103.0</ele><time>2026-03-29T13:52:40.143Z</time></trkpt><trkpt lat="43.4716352" lon="11.1431792"><ele>103.0</ele><time>2026-03-29T13:52:41.116Z</time></trkpt><trkpt lat="43.4717454" lon="11.1431361"><ele>103.0</ele><time>2026-03-29T13:52:42.145Z</time></trkpt><trkpt lat="43.4718496" lon="11.1430915"><ele>102.4</ele><time>2026-03-29T13:52:43.14Z</time></trkpt><trkpt lat="43.4719431" lon="11.1430395"><ele>101.80000000000001</ele><time>2026-03-29T13:52:44.146Z</time></trkpt><trkpt lat="43.4720349" lon="11.1429604"><ele>101.2</ele><time>2026-03-29T13:52:45.114Z</time></trkpt><trkpt lat="43.4721182" lon="11.142857"><ele>100.6</ele><time>2026-03-29T13:52:46.119Z</time></trkpt><trkpt lat="43.4721865" lon="11.1427225"><ele>100.0</ele><time>2026-03-29T13:52:47.114Z</time></trkpt><trkpt lat="43.4722449" lon="11.1425786"><ele>100.0</ele><time>2026-03-29T13:52:48.117Z</time></trkpt><trkpt lat="43.4722963" lon="11.1424231"><ele>100.0</ele><time>2026-03-29T13:52:49.146Z</time></trkpt><trkpt lat="43.4723512" lon="11.1422718"><ele>100.0</ele><time>2026-03-29T13:52:50.145Z</time></trkpt><trkpt lat="43.4724107" lon="11.1421331"><ele>100.0</ele><time>2026-03-29T13:52:51.113Z</time></trkpt><trkpt lat="43.4724664" lon="11.1420052"><ele>100.0</ele><time>2026-03-29T13:52:52.115Z</time></trkpt><trkpt lat="43.4725203" lon="11.1418869"><ele>100.0</ele><time>2026-03-29T13:52:53.143Z</time></trkpt><trkpt lat="43.4725751" lon="11.1417696"><ele>100.0</ele><time>2026-03-29T13:52:54.113Z</time></trkpt><trkpt lat="43.4726225" lon="11.1416671"><ele>100.0</ele><time>2026-03-29T13:52:55.115Z</time></trkpt><trkpt lat="43.4726675" lon="11.1415815"><ele>100.0</ele><time>2026-03-29T13:52:56.114Z</time></trkpt><trkpt lat="43.4727241" lon="11.1414517"><ele>100.0</ele><time>2026-03-29T13:52:58.144Z</time></trkpt><trkpt lat="43.4727711" lon="11.1413275"><ele>100.0</ele><time>2026-03-29T13:53:00.117Z</time></trkpt><trkpt lat="43.472805" lon="11.1412484"><ele>100.0</ele><time>2026-03-29T13:53:01.117Z</time></trkpt><trkpt lat="43.4728532" lon="11.1411556"><ele>100.0</ele><time>2026-03-29T13:53:02.113Z</time></trkpt><trkpt lat="43.4729108" lon="11.1410478"><ele>100.0</ele><time>2026-03-29T13:53:03.114Z</time></trkpt><trkpt lat="43.4729804" lon="11.1409286"><ele>99.25</ele><time>2026-03-29T13:53:04.113Z</time></trkpt><trkpt lat="43.4730642" lon="11.1408033"><ele>98.5</ele><time>2026-03-29T13:53:05.113Z</time></trkpt><trkpt lat="43.4731549" lon="11.1406723"><ele>97.75</ele><time>2026-03-29T13:53:06.115Z</time></trkpt><trkpt lat="43.4732489" lon="11.1405406"><ele>97.0</ele><time>2026-03-29T13:53:07.119Z</time></trkpt><trkpt lat="43.4733378" lon="11.1404127"><ele>97.0</ele><time>2026-03-29T13:53:08.113Z</time></trkpt><trkpt lat="43.4734258" lon="11.1402839"><ele>97.0</ele><time>2026-03-29T13:53:09.154Z</time></trkpt><trkpt lat="43.4735143" lon="11.1401583"><ele>97.0</ele><time>2026-03-29T13:53:10.116Z</time></trkpt><trkpt lat="43.4736002" lon="11.1400321"><ele>97.0</ele><time>2026-03-29T13:53:11.146Z</time></trkpt><trkpt lat="43.4736813" lon="11.1399064"><ele>97.0</ele><time>2026-03-29T13:53:12.117Z</time></trkpt><trkpt lat="43.4737587" lon="11.1397864"><ele>97.0</ele><time>2026-03-29T13:53:13.118Z</time></trkpt><trkpt lat="43.473837" lon="11.1396654"><ele>97.0</ele><time>2026-03-29T13:53:14.116Z</time></trkpt><trkpt lat="43.4739165" lon="11.1395414"><ele>97.0</ele><time>2026-03-29T13:53:15.145Z</time></trkpt><trkpt lat="43.473996" lon="11.1394121"><ele>97.0</ele><time>2026-03-29T13:53:16.143Z</time></trkpt><trkpt lat="43.4740783" lon="11.1392792"><ele>97.0</ele><time>2026-03-29T13:53:17.114Z</time></trkpt><trkpt lat="43.4741656" lon="11.1391521"><ele>97.0</ele><time>2026-03-29T13:53:18.118Z</time></trkpt><trkpt lat="43.4742495" lon="11.1390305"><ele>97.0</ele><time>2026-03-29T13:53:19.113Z</time></trkpt><trkpt lat="43.47433" lon="11.1389174"><ele>96.39999999999999</ele><time>2026-03-29T13:53:20.148Z</time></trkpt><trkpt lat="43.4744034" lon="11.1388166"><ele>95.8</ele><time>2026-03-29T13:53:21.116Z</time></trkpt><trkpt lat="43.4744678" lon="11.1387249"><ele>95.2</ele><time>2026-03-29T13:53:22.116Z</time></trkpt><trkpt lat="43.4745251" lon="11.1386405"><ele>94.6</ele><time>2026-03-29T13:53:23.118Z</time></trkpt><trkpt lat="43.4745734" lon="11.1385642"><ele>94.0</ele><time>2026-03-29T13:53:24.147Z</time></trkpt><trkpt lat="43.4746519" lon="11.1384419"><ele>94.0</ele><time>2026-03-29T13:53:26.144Z</time></trkpt><trkpt lat="43.4746934" lon="11.1383659"><ele>94.0</ele><time>2026-03-29T13:53:27.141Z</time></trkpt><trkpt lat="43.4747468" lon="11.1382726"><ele>94.0</ele><time>2026-03-29T13:53:28.115Z</time></trkpt><trkpt lat="43.4748183" lon="11.1381693"><ele>94.0</ele><time>2026-03-29T13:53:29.114Z</time></trkpt><trkpt lat="43.4748954" lon="11.1380576"><ele>94.0</ele><time>2026-03-29T13:53:30.147Z</time></trkpt><trkpt lat="43.4749825" lon="11.1379371"><ele>94.75</ele><time>2026-03-29T13:53:31.117Z</time></trkpt><trkpt lat="43.4750717" lon="11.1378113"><ele>95.5</ele><time>2026-03-29T13:53:32.117Z</time></trkpt><trkpt lat="43.4751578" lon="11.1376884"><ele>96.25</ele><time>2026-03-29T13:53:33.117Z</time></trkpt><trkpt lat="43.4752474" lon="11.1375699"><ele>97.0</ele><time>2026-03-29T13:53:34.146Z</time></trkpt><trkpt lat="43.4753382" lon="11.1374551"><ele>97.0</ele><time>2026-03-29T13:53:35.117Z</time></trkpt><trkpt lat="43.4754378" lon="11.1373507"><ele>97.0</ele><time>2026-03-29T13:53:36.113Z</time></trkpt><trkpt lat="43.4755511" lon="11.1372645"><ele>97.0</ele><time>2026-03-29T13:53:37.115Z</time></trkpt><trkpt lat="43.475677" lon="11.137192"><ele>97.0</ele><time>2026-03-29T13:53:38.114Z</time></trkpt><trkpt lat="43.4758096" lon="11.1371286"><ele>97.0</ele><time>2026-03-29T13:53:39.114Z</time></trkpt><trkpt lat="43.4759414" lon="11.1370687"><ele>97.0</ele><time>2026-03-29T13:53:40.154Z</time></trkpt><trkpt lat="43.476074" lon="11.137005"><ele>97.0</ele><time>2026-03-29T13:53:41.152Z</time></trkpt><trkpt lat="43.4762045" lon="11.1369344"><ele>97.0</ele><time>2026-03-29T13:53:42.146Z</time></trkpt><trkpt lat="43.4763306" lon="11.1368568"><ele>97.0</ele><time>2026-03-29T13:53:43.114Z</time></trkpt><trkpt lat="43.4764504" lon="11.1367673"><ele>97.0</ele><time>2026-03-29T13:53:44.143Z</time></trkpt><trkpt lat="43.4765671" lon="11.1366689"><ele>97.0</ele><time>2026-03-29T13:53:45.115Z</time></trkpt><trkpt lat="43.4766772" lon="11.1365597"><ele>97.0</ele><time>2026-03-29T13:53:46.123Z</time></trkpt><trkpt lat="43.4767753" lon="11.1364398"><ele>97.0</ele><time>2026-03-29T13:53:47.137Z</time></trkpt><trkpt lat="43.4768606" lon="11.1363065"><ele>97.0</ele><time>2026-03-29T13:53:48.118Z</time></trkpt><trkpt lat="43.4769299" lon="11.1361652"><ele>97.0</ele><time>2026-03-29T13:53:49.147Z</time></trkpt><trkpt lat="43.4769901" lon="11.1360122"><ele>97.0</ele><time>2026-03-29T13:53:50.147Z</time></trkpt><trkpt lat="43.4770465" lon="11.1358506"><ele>97.0</ele><time>2026-03-29T13:53:51.117Z</time></trkpt><trkpt lat="43.4770997" lon="11.1356785"><ele>97.0</ele><time>2026-03-29T13:53:52.145Z</time></trkpt><trkpt lat="43.4771483" lon="11.1354981"><ele>97.0</ele><time>2026-03-29T13:53:53.118Z</time></trkpt><trkpt lat="43.4771998" lon="11.1353164"><ele>97.0</ele><time>2026-03-29T13:53:54.147Z</time></trkpt><trkpt lat="43.4772523" lon="11.1351345"><ele>97.0</ele><time>2026-03-29T13:53:55.148Z</time></trkpt><trkpt lat="43.4773066" lon="11.1349512"><ele>97.0</ele><time>2026-03-29T13:53:56.116Z</time></trkpt><trkpt lat="43.4773637" lon="11.1347687"><ele>97.0</ele><time>2026-03-29T13:53:57.144Z</time></trkpt><trkpt lat="43.4774183" lon="11.1345881"><ele>97.0</ele><time>2026-03-29T13:53:58.111Z</time></trkpt><trkpt lat="43.4774782" lon="11.1344105"><ele>96.75</ele><time>2026-03-29T13:53:59.116Z</time></trkpt><trkpt lat="43.4775459" lon="11.1342372"><ele>96.5</ele><time>2026-03-29T13:54:00.114Z</time></trkpt><trkpt lat="43.4776199" lon="11.1340724"><ele>96.25</ele><time>2026-03-29T13:54:01.122Z</time></trkpt><trkpt lat="43.4777" lon="11.133912"><ele>96.0</ele><time>2026-03-29T13:54:02.122Z</time></trkpt><trkpt lat="43.4777872" lon="11.1337582"><ele>96.0</ele><time>2026-03-29T13:54:03.119Z</time></trkpt><trkpt lat="43.4778765" lon="11.1336074"><ele>96.0</ele><time>2026-03-29T13:54:04.146Z</time></trkpt><trkpt lat="43.4779647" lon="11.1334612"><ele>96.0</ele><time>2026-03-29T13:54:05.114Z</time></trkpt><trkpt lat="43.4780517" lon="11.1333183"><ele>96.0</ele><time>2026-03-29T13:54:06.121Z</time></trkpt><trkpt lat="43.4781412" lon="11.1331815"><ele>95.75</ele><time>2026-03-29T13:54:07.114Z</time></trkpt><trkpt lat="43.4782336" lon="11.1330419"><ele>95.5</ele><time>2026-03-29T13:54:08.113Z</time></trkpt><trkpt lat="43.478329" lon="11.1329009"><ele>95.25</ele><time>2026-03-29T13:54:09.143Z</time></trkpt><trkpt lat="43.4784262" lon="11.1327608"><ele>95.0</ele><time>2026-03-29T13:54:10.114Z</time></trkpt><trkpt lat="43.4785188" lon="11.1326274"><ele>95.0</ele><time>2026-03-29T13:54:11.116Z</time></trkpt><trkpt lat="43.4786061" lon="11.1325033"><ele>95.0</ele><time>2026-03-29T13:54:12.116Z</time></trkpt><trkpt lat="43.478687" lon="11.1323866"><ele>95.0</ele><time>2026-03-29T13:54:13.115Z</time></trkpt><trkpt lat="43.4787644" lon="11.1322783"><ele>95.0</ele><time>2026-03-29T13:54:14.112Z</time></trkpt><trkpt lat="43.4788401" lon="11.1321786"><ele>94.4</ele><time>2026-03-29T13:54:15.111Z</time></trkpt><trkpt lat="43.478915" lon="11.1320991"><ele>93.8</ele><time>2026-03-29T13:54:16.131Z</time></trkpt><trkpt lat="43.4789957" lon="11.1320536"><ele>93.19999999999999</ele><time>2026-03-29T13:54:17.115Z</time></trkpt><trkpt lat="43.4790738" lon="11.1320396"><ele>92.6</ele><time>2026-03-29T13:54:18.125Z</time></trkpt><trkpt lat="43.4791621" lon="11.1320391"><ele>92.0</ele><time>2026-03-29T13:54:19.156Z</time></trkpt><trkpt lat="43.4792641" lon="11.1320593"><ele>92.0</ele><time>2026-03-29T13:54:20.111Z</time></trkpt><trkpt lat="43.4793673" lon="11.1320639"><ele>92.0</ele><time>2026-03-29T13:54:21.126Z</time></trkpt><trkpt lat="43.4794581" lon="11.132035"><ele>92.0</ele><time>2026-03-29T13:54:22.123Z</time></trkpt><trkpt lat="43.4795255" lon="11.1319705"><ele>92.0</ele><time>2026-03-29T13:54:23.119Z</time></trkpt><trkpt lat="43.4795658" lon="11.1318586"><ele>92.0</ele><time>2026-03-29T13:54:24.112Z</time></trkpt><trkpt lat="43.4795786" lon="11.1317261"><ele>92.0</ele><time>2026-03-29T13:54:25.123Z</time></trkpt><trkpt lat="43.4795632" lon="11.1315806"><ele>92.0</ele><time>2026-03-29T13:54:26.117Z</time></trkpt><trkpt lat="43.4795141" lon="11.1314635"><ele>92.0</ele><time>2026-03-29T13:54:27.111Z</time></trkpt><trkpt lat="43.4794475" lon="11.1313832"><ele>92.0</ele><time>2026-03-29T13:54:28.117Z</time></trkpt><trkpt lat="43.4793635" lon="11.1313411"><ele>92.0</ele><time>2026-03-29T13:54:29.117Z</time></trkpt><trkpt lat="43.4792588" lon="11.131327"><ele>91.39999999999999</ele><time>2026-03-29T13:54:30.122Z</time></trkpt><trkpt lat="43.4791479" lon="11.1313147"><ele>90.8</ele><time>2026-03-29T13:54:31.114Z</time></trkpt><trkpt lat="43.479044" lon="11.1312783"><ele>90.2</ele><time>2026-03-29T13:54:32.118Z</time></trkpt><trkpt lat="43.4789498" lon="11.1312222"><ele>89.6</ele><time>2026-03-29T13:54:33.118Z</time></trkpt><trkpt lat="43.478867" lon="11.1311497"><ele>89.0</ele><time>2026-03-29T13:54:34.143Z</time></trkpt><trkpt lat="43.4787938" lon="11.1310625"><ele>89.0</ele><time>2026-03-29T13:54:35.123Z</time></trkpt><trkpt lat="43.4787254" lon="11.1309739"><ele>89.0</ele><time>2026-03-29T13:54:36.113Z</time></trkpt><trkpt lat="43.4786662" lon="11.1308866"><ele>89.0</ele><time>2026-03-29T13:54:37.116Z</time></trkpt><trkpt lat="43.4786182" lon="11.1308037"><ele>89.0</ele><time>2026-03-29T13:54:38.112Z</time></trkpt><trkpt lat="43.4785831" lon="11.1307206"><ele>89.0</ele><time>2026-03-29T13:54:39.144Z</time></trkpt><trkpt lat="43.4785606" lon="11.1306312"><ele>89.0</ele><time>2026-03-29T13:54:40.121Z</time></trkpt><trkpt lat="43.4785521" lon="11.130534"><ele>88.80000000000001</ele><time>2026-03-29T13:54:41.117Z</time></trkpt><trkpt lat="43.4785565" lon="11.1304268"><ele>88.60000000000001</ele><time>2026-03-29T13:54:42.116Z</time></trkpt><trkpt lat="43.478562" lon="11.1303082"><ele>88.4</ele><time>2026-03-29T13:54:43.117Z</time></trkpt><trkpt lat="43.4785562" lon="11.1301762"><ele>88.2</ele><time>2026-03-29T13:54:44.144Z</time></trkpt><trkpt lat="43.4785462" lon="11.1300284"><ele>88.0</ele><time>2026-03-29T13:54:45.118Z</time></trkpt><trkpt lat="43.478542" lon="11.1298799"><ele>88.25</ele><time>2026-03-29T13:54:46.117Z</time></trkpt><trkpt lat="43.4785634" lon="11.1297417"><ele>88.5</ele><time>2026-03-29T13:54:47.151Z</time></trkpt><trkpt lat="43.4786152" lon="11.1296044"><ele>88.75</ele><time>2026-03-29T13:54:48.146Z</time></trkpt><trkpt lat="43.4786938" lon="11.1294646"><ele>89.0</ele><time>2026-03-29T13:54:49.153Z</time></trkpt><trkpt lat="43.4787893" lon="11.1293148"><ele>89.0</ele><time>2026-03-29T13:54:50.116Z</time></trkpt><trkpt lat="43.4788869" lon="11.1291511"><ele>89.0</ele><time>2026-03-29T13:54:51.119Z</time></trkpt><trkpt lat="43.4789838" lon="11.1289711"><ele>89.0</ele><time>2026-03-29T13:54:52.12Z</time></trkpt><trkpt lat="43.4790822" lon="11.1287866"><ele>89.0</ele><time>2026-03-29T13:54:53.131Z</time></trkpt><trkpt lat="43.4791754" lon="11.1286029"><ele>89.0</ele><time>2026-03-29T13:54:54.145Z</time></trkpt><trkpt lat="43.4792648" lon="11.1284224"><ele>89.0</ele><time>2026-03-29T13:54:55.114Z</time></trkpt><trkpt lat="43.4793522" lon="11.1282418"><ele>89.0</ele><time>2026-03-29T13:54:56.15Z</time></trkpt><trkpt lat="43.479436" lon="11.1280583"><ele>89.0</ele><time>2026-03-29T13:54:57.147Z</time></trkpt><trkpt lat="43.4795208" lon="11.1278741"><ele>89.0</ele><time>2026-03-29T13:54:58.113Z</time></trkpt><trkpt lat="43.4796108" lon="11.1276901"><ele>89.0</ele><time>2026-03-29T13:54:59.146Z</time></trkpt><trkpt lat="43.4797076" lon="11.1275118"><ele>89.0</ele><time>2026-03-29T13:55:00.121Z</time></trkpt><trkpt lat="43.4798157" lon="11.1273426"><ele>89.0</ele><time>2026-03-29T13:55:01.122Z</time></trkpt><trkpt lat="43.4799383" lon="11.1271854"><ele>88.0</ele><time>2026-03-29T13:55:02.116Z</time></trkpt><trkpt lat="43.4800722" lon="11.1270408"><ele>87.0</ele><time>2026-03-29T13:55:03.114Z</time></trkpt><trkpt lat="43.4802142" lon="11.126915"><ele>86.0</ele><time>2026-03-29T13:55:04.113Z</time></trkpt><trkpt lat="43.4803632" lon="11.1268071"><ele>86.33333333333334</ele><time>2026-03-29T13:55:05.119Z</time></trkpt><trkpt lat="43.4805187" lon="11.1267202"><ele>86.66666666666667</ele><time>2026-03-29T13:55:06.114Z</time></trkpt><trkpt lat="43.4806819" lon="11.1266579"><ele>87.0</ele><time>2026-03-29T13:55:07.117Z</time></trkpt><trkpt lat="43.4808476" lon="11.1266134"><ele>87.0</ele><time>2026-03-29T13:55:08.122Z</time></trkpt><trkpt lat="43.4810161" lon="11.1265801"><ele>87.0</ele><time>2026-03-29T13:55:09.118Z</time></trkpt><trkpt lat="43.4811884" lon="11.1265581"><ele>87.0</ele><time>2026-03-29T13:55:10.113Z</time></trkpt><trkpt lat="43.4813609" lon="11.1265542"><ele>87.0</ele><time>2026-03-29T13:55:11.118Z</time></trkpt><trkpt lat="43.4815258" lon="11.1265595"><ele>87.0</ele><time>2026-03-29T13:55:12.118Z</time></trkpt><trkpt lat="43.4816841" lon="11.1265678"><ele>87.0</ele><time>2026-03-29T13:55:13.121Z</time></trkpt><trkpt lat="43.4818383" lon="11.1265804"><ele>87.33333333333333</ele><time>2026-03-29T13:55:14.121Z</time></trkpt><trkpt lat="43.4819898" lon="11.1265925"><ele>87.66666666666666</ele><time>2026-03-29T13:55:15.131Z</time></trkpt><trkpt lat="43.4821426" lon="11.1266048"><ele>88.0</ele><time>2026-03-29T13:55:16.118Z</time></trkpt><trkpt lat="43.4822955" lon="11.1266165"><ele>87.33333333333333</ele><time>2026-03-29T13:55:17.121Z</time></trkpt><trkpt lat="43.482447" lon="11.1266265"><ele>86.66666666666667</ele><time>2026-03-29T13:55:18.147Z</time></trkpt><trkpt lat="43.4826013" lon="11.1266314"><ele>86.0</ele><time>2026-03-29T13:55:19.145Z</time></trkpt><trkpt lat="43.4827601" lon="11.1266381"><ele>86.0</ele><time>2026-03-29T13:55:20.115Z</time></trkpt><trkpt lat="43.4829151" lon="11.1266427"><ele>86.0</ele><time>2026-03-29T13:55:21.132Z</time></trkpt><trkpt lat="43.4830596" lon="11.1266342"><ele>86.0</ele><time>2026-03-29T13:55:22.142Z</time></trkpt><trkpt lat="43.483193" lon="11.1265957"><ele>86.0</ele><time>2026-03-29T13:55:23.117Z</time></trkpt><trkpt lat="43.4833165" lon="11.1265227"><ele>85.75</ele><time>2026-03-29T13:55:24.122Z</time></trkpt><trkpt lat="43.4834227" lon="11.1264161"><ele>85.5</ele><time>2026-03-29T13:55:25.114Z</time></trkpt><trkpt lat="43.4835208" lon="11.1262773"><ele>85.25</ele><time>2026-03-29T13:55:26.146Z</time></trkpt><trkpt lat="43.483604" lon="11.1261035"><ele>85.0</ele><time>2026-03-29T13:55:27.116Z</time></trkpt><trkpt lat="43.4836691" lon="11.1259133"><ele>84.66666666666666</ele><time>2026-03-29T13:55:28.145Z</time></trkpt><trkpt lat="43.4837072" lon="11.1257077"><ele>84.33333333333333</ele><time>2026-03-29T13:55:29.113Z</time></trkpt><trkpt lat="43.4837" lon="11.1254924"><ele>84.0</ele><time>2026-03-29T13:55:30.112Z</time></trkpt><trkpt lat="43.483645" lon="11.1252827"><ele>84.0</ele><time>2026-03-29T13:55:31.118Z</time></trkpt><trkpt lat="43.4835491" lon="11.12509"><ele>84.0</ele><time>2026-03-29T13:55:32.12Z</time></trkpt><trkpt lat="43.4834358" lon="11.1249263"><ele>84.0</ele><time>2026-03-29T13:55:33.117Z</time></trkpt><trkpt lat="43.4833055" lon="11.1247861"><ele>84.66666666666667</ele><time>2026-03-29T13:55:34.146Z</time></trkpt><trkpt lat="43.4831707" lon="11.1246712"><ele>85.33333333333334</ele><time>2026-03-29T13:55:35.151Z</time></trkpt><trkpt lat="43.4830371" lon="11.1245845"><ele>86.0</ele><time>2026-03-29T13:55:36.113Z</time></trkpt><trkpt lat="43.4829063" lon="11.1244971"><ele>86.0</ele><time>2026-03-29T13:55:37.141Z</time></trkpt><trkpt lat="43.4827829" lon="11.1243805"><ele>86.0</ele><time>2026-03-29T13:55:38.144Z</time></trkpt><trkpt lat="43.482669" lon="11.1242259"><ele>86.0</ele><time>2026-03-29T13:55:39.144Z</time></trkpt><trkpt lat="43.4825828" lon="11.1240407"><ele>85.66666666666667</ele><time>2026-03-29T13:55:40.142Z</time></trkpt><trkpt lat="43.4825313" lon="11.1238286"><ele>85.33333333333333</ele><time>2026-03-29T13:55:41.119Z</time></trkpt><trkpt lat="43.4825183" lon="11.1236023"><ele>85.0</ele><time>2026-03-29T13:55:42.116Z</time></trkpt><trkpt lat="43.4825332" lon="11.123383"><ele>84.66666666666666</ele><time>2026-03-29T13:55:43.115Z</time></trkpt><trkpt lat="43.4825766" lon="11.1231681"><ele>84.33333333333333</ele><time>2026-03-29T13:55:44.118Z</time></trkpt><trkpt lat="43.4826379" lon="11.1229585"><ele>84.0</ele><time>2026-03-29T13:55:45.113Z</time></trkpt><trkpt lat="43.4827098" lon="11.1227447"><ele>84.0</ele><time>2026-03-29T13:55:46.116Z</time></trkpt><trkpt lat="43.4827865" lon="11.1225287"><ele>84.0</ele><time>2026-03-29T13:55:47.115Z</time></trkpt><trkpt lat="43.4828703" lon="11.1223153"><ele>84.0</ele><time>2026-03-29T13:55:48.118Z</time></trkpt><trkpt lat="43.4829581" lon="11.1221046"><ele>84.0</ele><time>2026-03-29T13:55:49.121Z</time></trkpt><trkpt lat="43.4830483" lon="11.1218964"><ele>84.0</ele><time>2026-03-29T13:55:50.117Z</time></trkpt><trkpt lat="43.4831434" lon="11.1216891"><ele>84.0</ele><time>2026-03-29T13:55:51.149Z</time></trkpt><trkpt lat="43.4832443" lon="11.1214837"><ele>83.66666666666667</ele><time>2026-03-29T13:55:52.121Z</time></trkpt><trkpt lat="43.4833487" lon="11.1212813"><ele>83.33333333333334</ele><time>2026-03-29T13:55:53.12Z</time></trkpt><trkpt lat="43.4834608" lon="11.1210845"><ele>83.0</ele><time>2026-03-29T13:55:54.124Z</time></trkpt><trkpt lat="43.4835802" lon="11.1208962"><ele>83.0</ele><time>2026-03-29T13:55:55.115Z</time></trkpt><trkpt lat="43.4837019" lon="11.120713"><ele>83.0</ele><time>2026-03-29T13:55:56.125Z</time></trkpt><trkpt lat="43.4838258" lon="11.1205334"><ele>83.0</ele><time>2026-03-29T13:55:57.144Z</time></trkpt><trkpt lat="43.4839494" lon="11.120349"><ele>82.66666666666667</ele><time>2026-03-29T13:55:58.118Z</time></trkpt><trkpt lat="43.484073" lon="11.1201627"><ele>82.33333333333333</ele><time>2026-03-29T13:55:59.141Z</time></trkpt><trkpt lat="43.4841981" lon="11.1199729"><ele>82.0</ele><time>2026-03-29T13:56:00.128Z</time></trkpt><trkpt lat="43.4843259" lon="11.1197789"><ele>82.0</ele><time>2026-03-29T13:56:01.146Z</time></trkpt><trkpt lat="43.4844538" lon="11.1195823"><ele>82.0</ele><time>2026-03-29T13:56:02.148Z</time></trkpt><trkpt lat="43.4845806" lon="11.1193811"><ele>82.0</ele><time>2026-03-29T13:56:03.114Z</time></trkpt><trkpt lat="43.4847083" lon="11.1191762"><ele>83.0</ele><time>2026-03-29T13:56:04.125Z</time></trkpt><trkpt lat="43.4848378" lon="11.1189698"><ele>84.0</ele><time>2026-03-29T13:56:05.12Z</time></trkpt><trkpt lat="43.4849706" lon="11.1187628"><ele>85.0</ele><time>2026-03-29T13:56:06.119Z</time></trkpt><trkpt lat="43.4851029" lon="11.1185488"><ele>85.0</ele><time>2026-03-29T13:56:07.123Z</time></trkpt><trkpt lat="43.4852325" lon="11.1183232"><ele>85.0</ele><time>2026-03-29T13:56:08.117Z</time></trkpt><trkpt lat="43.4853573" lon="11.1180849"><ele>85.0</ele><time>2026-03-29T13:56:09.116Z</time></trkpt><trkpt lat="43.4854758" lon="11.1178378"><ele>84.0</ele><time>2026-03-29T13:56:10.118Z</time></trkpt><trkpt lat="43.4855887" lon="11.1175881"><ele>83.0</ele><time>2026-03-29T13:56:11.116Z</time></trkpt><trkpt lat="43.4856924" lon="11.1173342"><ele>82.0</ele><time>2026-03-29T13:56:12.115Z</time></trkpt><trkpt lat="43.4857921" lon="11.1170804"><ele>82.0</ele><time>2026-03-29T13:56:13.122Z</time></trkpt><trkpt lat="43.4858842" lon="11.1168269"><ele>82.0</ele><time>2026-03-29T13:56:14.118Z</time></trkpt><trkpt lat="43.485972" lon="11.1165754"><ele>82.0</ele><time>2026-03-29T13:56:15.117Z</time></trkpt><trkpt lat="43.4860592" lon="11.116323"><ele>82.66666666666666</ele><time>2026-03-29T13:56:16.115Z</time></trkpt><trkpt lat="43.486145" lon="11.1160704"><ele>83.33333333333333</ele><time>2026-03-29T13:56:17.152Z</time></trkpt><trkpt lat="43.4862296" lon="11.1158197"><ele>84.0</ele><time>2026-03-29T13:56:18.118Z</time></trkpt><trkpt lat="43.4863144" lon="11.1155689"><ele>84.0</ele><time>2026-03-29T13:56:19.115Z</time></trkpt><trkpt lat="43.4864008" lon="11.1153186"><ele>84.0</ele><time>2026-03-29T13:56:20.122Z</time></trkpt><trkpt lat="43.4864899" lon="11.1150723"><ele>84.0</ele><time>2026-03-29T13:56:21.12Z</time></trkpt><trkpt lat="43.4865849" lon="11.1148291"><ele>83.66666666666667</ele><time>2026-03-29T13:56:22.122Z</time></trkpt><trkpt lat="43.486685" lon="11.1145915"><ele>83.33333333333334</ele><time>2026-03-29T13:56:23.124Z</time></trkpt><trkpt lat="43.4867907" lon="11.1143579"><ele>83.0</ele><time>2026-03-29T13:56:24.118Z</time></trkpt><trkpt lat="43.4869017" lon="11.114126"><ele>84.0</ele><time>2026-03-29T13:56:25.117Z</time></trkpt><trkpt lat="43.4870169" lon="11.1139005"><ele>85.0</ele><time>2026-03-29T13:56:26.12Z</time></trkpt><trkpt lat="43.4871374" lon="11.1136795"><ele>86.0</ele><time>2026-03-29T13:56:27.115Z</time></trkpt><trkpt lat="43.4872667" lon="11.1134649"><ele>86.0</ele><time>2026-03-29T13:56:28.112Z</time></trkpt><trkpt lat="43.4874025" lon="11.1132535"><ele>86.0</ele><time>2026-03-29T13:56:29.148Z</time></trkpt><trkpt lat="43.4875443" lon="11.1130516"><ele>86.0</ele><time>2026-03-29T13:56:30.124Z</time></trkpt><trkpt lat="43.4876906" lon="11.1128581"><ele>86.33333333333334</ele><time>2026-03-29T13:56:31.121Z</time></trkpt><trkpt lat="43.4878458" lon="11.1126718"><ele>86.66666666666667</ele><time>2026-03-29T13:56:32.116Z</time></trkpt><trkpt lat="43.4880063" lon="11.1124925"><ele>87.0</ele><time>2026-03-29T13:56:33.121Z</time></trkpt><trkpt lat="43.4881675" lon="11.1123143"><ele>87.33333333333333</ele><time>2026-03-29T13:56:34.146Z</time></trkpt><trkpt lat="43.4883221" lon="11.1121319"><ele>87.66666666666666</ele><time>2026-03-29T13:56:35.147Z</time></trkpt><trkpt lat="43.4884858" lon="11.1119466"><ele>88.0</ele><time>2026-03-29T13:56:36.147Z</time></trkpt><trkpt lat="43.4886546" lon="11.1117714"><ele>88.0</ele><time>2026-03-29T13:56:37.116Z</time></trkpt><trkpt lat="43.4888289" lon="11.1115985"><ele>88.0</ele><time>2026-03-29T13:56:38.115Z</time></trkpt><trkpt lat="43.4890039" lon="11.1114225"><ele>88.0</ele><time>2026-03-29T13:56:39.12Z</time></trkpt><trkpt lat="43.4891808" lon="11.1112449"><ele>88.0</ele><time>2026-03-29T13:56:40.117Z</time></trkpt><trkpt lat="43.4893585" lon="11.1110672"><ele>88.0</ele><time>2026-03-29T13:56:41.121Z</time></trkpt><trkpt lat="43.4895368" lon="11.1108891"><ele>88.0</ele><time>2026-03-29T13:56:42.117Z</time></trkpt><trkpt lat="43.4897144" lon="11.1107097"><ele>87.33333333333333</ele><time>2026-03-29T13:56:43.117Z</time></trkpt><trkpt lat="43.4898927" lon="11.1105254"><ele>86.66666666666667</ele><time>2026-03-29T13:56:44.118Z</time></trkpt><trkpt lat="43.4900692" lon="11.1103415"><ele>86.0</ele><time>2026-03-29T13:56:45.114Z</time></trkpt><trkpt lat="43.4902444" lon="11.1101609"><ele>86.0</ele><time>2026-03-29T13:56:46.151Z</time></trkpt><trkpt lat="43.4904179" lon="11.1099831"><ele>86.0</ele><time>2026-03-29T13:56:47.123Z</time></trkpt><trkpt lat="43.490589" lon="11.109804"><ele>86.0</ele><time>2026-03-29T13:56:48.145Z</time></trkpt><trkpt lat="43.4907568" lon="11.1096265"><ele>86.33333333333334</ele><time>2026-03-29T13:56:49.118Z</time></trkpt><trkpt lat="43.4909223" lon="11.1094451"><ele>86.66666666666667</ele><time>2026-03-29T13:56:50.116Z</time></trkpt><trkpt lat="43.4910855" lon="11.1092586"><ele>87.0</ele><time>2026-03-29T13:56:51.115Z</time></trkpt><trkpt lat="43.4912473" lon="11.1090699"><ele>85.66666666666667</ele><time>2026-03-29T13:56:52.116Z</time></trkpt><trkpt lat="43.4914098" lon="11.1088771"><ele>84.33333333333334</ele><time>2026-03-29T13:56:53.115Z</time></trkpt><trkpt lat="43.4915688" lon="11.1086785"><ele>83.0</ele><time>2026-03-29T13:56:54.121Z</time></trkpt><trkpt lat="43.4917254" lon="11.1084736"><ele>83.0</ele><time>2026-03-29T13:56:55.15Z</time></trkpt><trkpt lat="43.4918806" lon="11.108263"><ele>83.0</ele><time>2026-03-29T13:56:56.146Z</time></trkpt><trkpt lat="43.4920343" lon="11.1080487"><ele>83.0</ele><time>2026-03-29T13:56:57.11Z</time></trkpt><trkpt lat="43.4921874" lon="11.1078348"><ele>82.66666666666667</ele><time>2026-03-29T13:56:58.118Z</time></trkpt><trkpt lat="43.4923391" lon="11.1076202"><ele>82.33333333333333</ele><time>2026-03-29T13:56:59.118Z</time></trkpt><trkpt lat="43.4924908" lon="11.1074052"><ele>82.0</ele><time>2026-03-29T13:57:00.118Z</time></trkpt><trkpt lat="43.4926402" lon="11.1071878"><ele>81.66666666666666</ele><time>2026-03-29T13:57:01.122Z</time></trkpt><trkpt lat="43.4927872" lon="11.1069706"><ele>81.33333333333333</ele><time>2026-03-29T13:57:02.145Z</time></trkpt><trkpt lat="43.4929324" lon="11.1067539"><ele>81.0</ele><time>2026-03-29T13:57:03.115Z</time></trkpt><trkpt lat="43.4930774" lon="11.1065379"><ele>82.0</ele><time>2026-03-29T13:57:04.118Z</time></trkpt><trkpt lat="43.4932226" lon="11.1063238"><ele>83.0</ele><time>2026-03-29T13:57:05.142Z</time></trkpt><trkpt lat="43.4933689" lon="11.1061116"><ele>84.0</ele><time>2026-03-29T13:57:06.142Z</time></trkpt><trkpt lat="43.4935132" lon="11.105903"><ele>83.0</ele><time>2026-03-29T13:57:07.122Z</time></trkpt><trkpt lat="43.4936539" lon="11.1056979"><ele>82.0</ele><time>2026-03-29T13:57:08.15Z</time></trkpt><trkpt lat="43.493793" lon="11.1054969"><ele>81.0</ele><time>2026-03-29T13:57:09.125Z</time></trkpt><trkpt lat="43.4939323" lon="11.105299"><ele>81.0</ele><time>2026-03-29T13:57:10.117Z</time></trkpt><trkpt lat="43.4940695" lon="11.105104"><ele>81.0</ele><time>2026-03-29T13:57:11.149Z</time></trkpt><trkpt lat="43.4942053" lon="11.1049078"><ele>81.0</ele><time>2026-03-29T13:57:12.114Z</time></trkpt><trkpt lat="43.4943398" lon="11.1047138"><ele>82.0</ele><time>2026-03-29T13:57:13.146Z</time></trkpt><trkpt lat="43.49447" lon="11.1045317"><ele>83.0</ele><time>2026-03-29T13:57:14.15Z</time></trkpt><trkpt lat="43.4945933" lon="11.1043583"><ele>84.0</ele><time>2026-03-29T13:57:15.117Z</time></trkpt><trkpt lat="43.49471" lon="11.1041932"><ele>84.0</ele><time>2026-03-29T13:57:16.122Z</time></trkpt><trkpt lat="43.4948206" lon="11.1040406"><ele>84.0</ele><time>2026-03-29T13:57:17.119Z</time></trkpt><trkpt lat="43.494924" lon="11.1039011"><ele>84.0</ele><time>2026-03-29T13:57:18.115Z</time></trkpt><trkpt lat="43.4950207" lon="11.1037756"><ele>84.0</ele><time>2026-03-29T13:57:19.122Z</time></trkpt><trkpt lat="43.495109" lon="11.1036682"><ele>84.0</ele><time>2026-03-29T13:57:20.116Z</time></trkpt><trkpt lat="43.495185" lon="11.1035796"><ele>84.0</ele><time>2026-03-29T13:57:21.144Z</time></trkpt><trkpt lat="43.4952571" lon="11.1035078"><ele>84.0</ele><time>2026-03-29T13:57:22.113Z</time></trkpt><trkpt lat="43.495329" lon="11.1034488"><ele>84.0</ele><time>2026-03-29T13:57:23.114Z</time></trkpt><trkpt lat="43.4954021" lon="11.1033945"><ele>84.0</ele><time>2026-03-29T13:57:24.128Z</time></trkpt><trkpt lat="43.4954687" lon="11.1033308"><ele>84.0</ele><time>2026-03-29T13:57:25.113Z</time></trkpt><trkpt lat="43.4955143" lon="11.103248"><ele>84.16666666666667</ele><time>2026-03-29T13:57:26.148Z</time></trkpt><trkpt lat="43.4955349" lon="11.1031593"><ele>84.33333333333333</ele><time>2026-03-29T13:57:27.148Z</time></trkpt><trkpt lat="43.4955252" lon="11.1030691"><ele>84.5</ele><time>2026-03-29T13:57:28.145Z</time></trkpt><trkpt lat="43.495479" lon="11.1029815"><ele>84.66666666666666</ele><time>2026-03-29T13:57:29.113Z</time></trkpt><trkpt lat="43.4953996" lon="11.1029118"><ele>84.83333333333333</ele><time>2026-03-29T13:57:30.147Z</time></trkpt><trkpt lat="43.495296" lon="11.1028519"><ele>85.0</ele><time>2026-03-29T13:57:31.144Z</time></trkpt><trkpt lat="43.4951773" lon="11.102766"><ele>85.0</ele><time>2026-03-29T13:57:32.118Z</time></trkpt><trkpt lat="43.4950576" lon="11.1026507"><ele>85.0</ele><time>2026-03-29T13:57:33.116Z</time></trkpt><trkpt lat="43.4949412" lon="11.1025168"><ele>85.0</ele><time>2026-03-29T13:57:34.116Z</time></trkpt><trkpt lat="43.4948358" lon="11.1023904"><ele>85.0</ele><time>2026-03-29T13:57:35.117Z</time></trkpt><trkpt lat="43.4947467" lon="11.1022822"><ele>85.4</ele><time>2026-03-29T13:57:36.113Z</time></trkpt><trkpt lat="43.4946746" lon="11.1021897"><ele>85.8</ele><time>2026-03-29T13:57:37.114Z</time></trkpt><trkpt lat="43.4946153" lon="11.1021182"><ele>86.19999999999999</ele><time>2026-03-29T13:57:38.147Z</time></trkpt><trkpt lat="43.4945604" lon="11.1019877"><ele>86.6</ele><time>2026-03-29T13:57:40.116Z</time></trkpt><trkpt lat="43.4945682" lon="11.1017958"><ele>87.0</ele><time>2026-03-29T13:57:42.126Z</time></trkpt><trkpt lat="43.4946121" lon="11.1016723"><ele>88.5</ele><time>2026-03-29T13:57:43.12Z</time></trkpt><trkpt lat="43.4946755" lon="11.1015287"><ele>90.0</ele><time>2026-03-29T13:57:44.117Z</time></trkpt><trkpt lat="43.4947473" lon="11.1013625"><ele>91.5</ele><time>2026-03-29T13:57:45.147Z</time></trkpt><trkpt lat="43.4948177" lon="11.101178"><ele>93.0</ele><time>2026-03-29T13:57:46.114Z</time></trkpt><trkpt lat="43.494893" lon="11.1009807"><ele>93.0</ele><time>2026-03-29T13:57:47.115Z</time></trkpt><trkpt lat="43.4949709" lon="11.1007778"><ele>93.0</ele><time>2026-03-29T13:57:48.115Z</time></trkpt><trkpt lat="43.4950443" lon="11.1005704"><ele>93.0</ele><time>2026-03-29T13:57:49.121Z</time></trkpt><trkpt lat="43.4951163" lon="11.1003562"><ele>96.66666666666666</ele><time>2026-03-29T13:57:50.113Z</time></trkpt><trkpt lat="43.4951897" lon="11.1001414"><ele>100.33333333333333</ele><time>2026-03-29T13:57:51.122Z</time></trkpt><trkpt lat="43.4952652" lon="11.0999285"><ele>104.0</ele><time>2026-03-29T13:57:52.117Z</time></trkpt><trkpt lat="43.4953466" lon="11.0997167"><ele>99.0</ele><time>2026-03-29T13:57:53.141Z</time></trkpt><trkpt lat="43.4954367" lon="11.0995075"><ele>94.0</ele><time>2026-03-29T13:57:54.117Z</time></trkpt><trkpt lat="43.4955362" lon="11.0993043"><ele>89.0</ele><time>2026-03-29T13:57:55.15Z</time></trkpt><trkpt lat="43.4956453" lon="11.0991081"><ele>93.66666666666667</ele><time>2026-03-29T13:57:56.115Z</time></trkpt><trkpt lat="43.4957617" lon="11.0989161"><ele>98.33333333333334</ele><time>2026-03-29T13:57:57.116Z</time></trkpt><trkpt lat="43.4958854" lon="11.098725"><ele>103.0</ele><time>2026-03-29T13:57:58.148Z</time></trkpt><trkpt lat="43.4960084" lon="11.0985322"><ele>103.0</ele><time>2026-03-29T13:57:59.114Z</time></trkpt><trkpt lat="43.4961231" lon="11.0983347"><ele>103.0</ele><time>2026-03-29T13:58:00.146Z</time></trkpt><trkpt lat="43.4962238" lon="11.0981274"><ele>103.0</ele><time>2026-03-29T13:58:01.124Z</time></trkpt><trkpt lat="43.4963058" lon="11.0979034"><ele>97.0</ele><time>2026-03-29T13:58:02.112Z</time></trkpt><trkpt lat="43.4963689" lon="11.0976635"><ele>91.0</ele><time>2026-03-29T13:58:03.117Z</time></trkpt><trkpt lat="43.4964212" lon="11.0974112"><ele>85.0</ele><time>2026-03-29T13:58:04.113Z</time></trkpt><trkpt lat="43.4964773" lon="11.0971532"><ele>84.33333333333333</ele><time>2026-03-29T13:58:05.115Z</time></trkpt><trkpt lat="43.4965406" lon="11.0968938"><ele>83.66666666666667</ele><time>2026-03-29T13:58:06.11Z</time></trkpt><trkpt lat="43.496605" lon="11.0966287"><ele>83.0</ele><time>2026-03-29T13:58:07.125Z</time></trkpt><trkpt lat="43.4966751" lon="11.0963663"><ele>84.66666666666667</ele><time>2026-03-29T13:58:08.115Z</time></trkpt><trkpt lat="43.496744" lon="11.0961007"><ele>86.33333333333333</ele><time>2026-03-29T13:58:09.114Z</time></trkpt><trkpt lat="43.4968206" lon="11.0958372"><ele>88.0</ele><time>2026-03-29T13:58:10.118Z</time></trkpt><trkpt lat="43.4969032" lon="11.0955781"><ele>88.66666666666666</ele><time>2026-03-29T13:58:11.122Z</time></trkpt><trkpt lat="43.4969903" lon="11.0953222"><ele>89.33333333333333</ele><time>2026-03-29T13:58:12.142Z</time></trkpt><trkpt lat="43.4970816" lon="11.0950702"><ele>90.0</ele><time>2026-03-29T13:58:13.146Z</time></trkpt><trkpt lat="43.4971706" lon="11.094822"><ele>90.0</ele><time>2026-03-29T13:58:14.127Z</time></trkpt><trkpt lat="43.4972594" lon="11.0945762"><ele>90.0</ele><time>2026-03-29T13:58:15.143Z</time></trkpt><trkpt lat="43.4973459" lon="11.0943335"><ele>90.0</ele><time>2026-03-29T13:58:16.123Z</time></trkpt><trkpt lat="43.4974237" lon="11.0941067"><ele>92.5</ele><time>2026-03-29T13:58:17.122Z</time></trkpt><trkpt lat="43.4974953" lon="11.0939067"><ele>95.0</ele><time>2026-03-29T13:58:18.137Z</time></trkpt><trkpt lat="43.4975668" lon="11.0937427"><ele>97.5</ele><time>2026-03-29T13:58:19.153Z</time></trkpt><trkpt lat="43.4976426" lon="11.0936122"><ele>100.0</ele><time>2026-03-29T13:58:20.147Z</time></trkpt><trkpt lat="43.4977143" lon="11.0935226"><ele>100.00000000000001</ele><time>2026-03-29T13:58:21.13Z</time></trkpt><trkpt lat="43.4977718" lon="11.0934559"><ele>100.0</ele><time>2026-03-29T13:58:22.112Z</time></trkpt><trkpt lat="43.4978509" lon="11.0933821"><ele>100.0</ele><time>2026-03-29T13:58:24.146Z</time></trkpt><trkpt lat="43.4979319" lon="11.0933945"><ele>100.0</ele><time>2026-03-29T13:58:26.116Z</time></trkpt><trkpt lat="43.4979789" lon="11.0934528"><ele>100.00000000000001</ele><time>2026-03-29T13:58:27.116Z</time></trkpt><trkpt lat="43.4980368" lon="11.0935301"><ele>100.0</ele><time>2026-03-29T13:58:28.116Z</time></trkpt><trkpt lat="43.4981165" lon="11.0936134"><ele>95.75</ele><time>2026-03-29T13:58:29.139Z</time></trkpt><trkpt lat="43.4982149" lon="11.0937004"><ele>91.5</ele><time>2026-03-29T13:58:30.114Z</time></trkpt><trkpt lat="43.4983249" lon="11.0937886"><ele>87.25</ele><time>2026-03-29T13:58:31.116Z</time></trkpt><trkpt lat="43.4984415" lon="11.0938772"><ele>83.0</ele><time>2026-03-29T13:58:32.124Z</time></trkpt><trkpt lat="43.4985607" lon="11.0939659"><ele>83.0</ele><time>2026-03-29T13:58:33.149Z</time></trkpt><trkpt lat="43.4986747" lon="11.0940477"><ele>83.0</ele><time>2026-03-29T13:58:34.116Z</time></trkpt><trkpt lat="43.4987782" lon="11.0941201"><ele>83.0</ele><time>2026-03-29T13:58:35.114Z</time></trkpt><trkpt lat="43.4988609" lon="11.0941823"><ele>83.0</ele><time>2026-03-29T13:58:36.117Z</time></trkpt><trkpt lat="43.498943" lon="11.0942463"><ele>83.0</ele><time>2026-03-29T13:58:38.113Z</time></trkpt><trkpt lat="43.4990192" lon="11.0942733"><ele>82.33333333333334</ele><time>2026-03-29T13:58:51.125Z</time></trkpt><trkpt lat="43.4990875" lon="11.0943244"><ele>81.66666666666667</ele><time>2026-03-29T13:58:54.15Z</time></trkpt><trkpt lat="43.4991709" lon="11.0943863"><ele>81.0</ele><time>2026-03-29T13:58:58.115Z</time></trkpt><trkpt lat="43.4992319" lon="11.0944414"><ele>80.33333333333333</ele><time>2026-03-29T13:59:00.125Z</time></trkpt><trkpt lat="43.4992999" lon="11.0945113"><ele>79.66666666666666</ele><time>2026-03-29T13:59:02.116Z</time></trkpt><trkpt lat="43.4993821" lon="11.0946146"><ele>79.0</ele><time>2026-03-29T13:59:04.115Z</time></trkpt><trkpt lat="43.4994579" lon="11.0946622"><ele>79.0</ele><time>2026-03-29T13:59:06.113Z</time></trkpt><trkpt lat="43.499516" lon="11.094618"><ele>79.0</ele><time>2026-03-29T13:59:28.115Z</time></trkpt><trkpt lat="43.4995124" lon="11.0945074"><ele>79.0</ele><time>2026-03-29T13:59:31.121Z</time></trkpt><trkpt lat="43.4995054" lon="11.0943519"><ele>79.0</ele><time>2026-03-29T13:59:33.117Z</time></trkpt><trkpt lat="43.4995329" lon="11.0942272"><ele>79.0</ele><time>2026-03-29T13:59:35.151Z</time></trkpt><trkpt lat="43.4996033" lon="11.0940856"><ele>78.4</ele><time>2026-03-29T13:59:37.159Z</time></trkpt><trkpt lat="43.4996603" lon="11.0939903"><ele>77.80000000000001</ele><time>2026-03-29T13:59:38.132Z</time></trkpt><trkpt lat="43.4997298" lon="11.0938783"><ele>77.19999999999999</ele><time>2026-03-29T13:59:39.134Z</time></trkpt><trkpt lat="43.4998105" lon="11.0937589"><ele>76.6</ele><time>2026-03-29T13:59:40.123Z</time></trkpt><trkpt lat="43.4998889" lon="11.0936423"><ele>76.0</ele><time>2026-03-29T13:59:41.12Z</time></trkpt><trkpt lat="43.4999651" lon="11.093535"><ele>76.0</ele><time>2026-03-29T13:59:42.127Z</time></trkpt><trkpt lat="43.5000433" lon="11.0934322"><ele>76.0</ele><time>2026-03-29T13:59:43.121Z</time></trkpt><trkpt lat="43.500124" lon="11.0933217"><ele>76.0</ele><time>2026-03-29T13:59:44.148Z</time></trkpt><trkpt lat="43.5002008" lon="11.0932179"><ele>76.0</ele><time>2026-03-29T13:59:45.12Z</time></trkpt><trkpt lat="43.5002819" lon="11.0931136"><ele>76.0</ele><time>2026-03-29T13:59:46.139Z</time></trkpt><trkpt lat="43.5003636" lon="11.0930086"><ele>76.0</ele><time>2026-03-29T13:59:47.121Z</time></trkpt><trkpt lat="43.5004436" lon="11.0928988"><ele>76.0</ele><time>2026-03-29T13:59:48.121Z</time></trkpt><trkpt lat="43.5005262" lon="11.0927864"><ele>76.0</ele><time>2026-03-29T13:59:49.126Z</time></trkpt><trkpt lat="43.5006086" lon="11.0926746"><ele>76.0</ele><time>2026-03-29T13:59:50.118Z</time></trkpt><trkpt lat="43.5006935" lon="11.0925674"><ele>76.0</ele><time>2026-03-29T13:59:51.13Z</time></trkpt><trkpt lat="43.5007762" lon="11.0924593"><ele>76.0</ele><time>2026-03-29T13:59:52.136Z</time></trkpt><trkpt lat="43.500857" lon="11.0923541"><ele>76.0</ele><time>2026-03-29T13:59:53.119Z</time></trkpt><trkpt lat="43.5009399" lon="11.0922476"><ele>76.0</ele><time>2026-03-29T13:59:54.131Z</time></trkpt><trkpt lat="43.5010257" lon="11.0921381"><ele>76.5</ele><time>2026-03-29T13:59:55.122Z</time></trkpt><trkpt lat="43.5011134" lon="11.0920289"><ele>77.0</ele><time>2026-03-29T13:59:56.132Z</time></trkpt><trkpt lat="43.5012055" lon="11.0919143"><ele>77.5</ele><time>2026-03-29T13:59:57.123Z</time></trkpt><trkpt lat="43.501306" lon="11.0917923"><ele>78.0</ele><time>2026-03-29T13:59:58.157Z</time></trkpt><trkpt lat="43.5014096" lon="11.0916723"><ele>77.75</ele><time>2026-03-29T13:59:59.118Z</time></trkpt><trkpt lat="43.5015116" lon="11.0915548"><ele>77.5</ele><time>2026-03-29T14:00:00.116Z</time></trkpt><trkpt lat="43.501606" lon="11.0914417"><ele>77.25</ele><time>2026-03-29T14:00:01.124Z</time></trkpt><trkpt lat="43.5017012" lon="11.0913296"><ele>77.0</ele><time>2026-03-29T14:00:02.132Z</time></trkpt><trkpt lat="43.5017954" lon="11.0912167"><ele>77.0</ele><time>2026-03-29T14:00:03.141Z</time></trkpt><trkpt lat="43.5018907" lon="11.0910993"><ele>77.0</ele><time>2026-03-29T14:00:04.153Z</time></trkpt><trkpt lat="43.5019824" lon="11.0909831"><ele>77.0</ele><time>2026-03-29T14:00:05.117Z</time></trkpt><trkpt lat="43.5020728" lon="11.0908633"><ele>77.0</ele><time>2026-03-29T14:00:06.167Z</time></trkpt><trkpt lat="43.502167" lon="11.090744"><ele>77.0</ele><time>2026-03-29T14:00:07.149Z</time></trkpt><trkpt lat="43.5022616" lon="11.0906248"><ele>77.0</ele><time>2026-03-29T14:00:08.127Z</time></trkpt><trkpt lat="43.5023587" lon="11.0905067"><ele>77.0</ele><time>2026-03-29T14:00:09.14Z</time></trkpt><trkpt lat="43.5024543" lon="11.0903859"><ele>77.0</ele><time>2026-03-29T14:00:10.128Z</time></trkpt><trkpt lat="43.5025452" lon="11.0902679"><ele>77.0</ele><time>2026-03-29T14:00:11.125Z</time></trkpt><trkpt lat="43.5026374" lon="11.09015"><ele>77.0</ele><time>2026-03-29T14:00:12.122Z</time></trkpt><trkpt lat="43.5027289" lon="11.0900343"><ele>77.0</ele><time>2026-03-29T14:00:13.134Z</time></trkpt><trkpt lat="43.5028203" lon="11.0899152"><ele>77.0</ele><time>2026-03-29T14:00:14.137Z</time></trkpt><trkpt lat="43.5029092" lon="11.089793"><ele>76.5</ele><time>2026-03-29T14:00:15.119Z</time></trkpt><trkpt lat="43.5029965" lon="11.0896725"><ele>76.0</ele><time>2026-03-29T14:00:16.125Z</time></trkpt><trkpt lat="43.5030818" lon="11.0895595"><ele>75.5</ele><time>2026-03-29T14:00:17.132Z</time></trkpt><trkpt lat="43.5031658" lon="11.0894457"><ele>75.0</ele><time>2026-03-29T14:00:18.155Z</time></trkpt><trkpt lat="43.5032499" lon="11.0893303"><ele>75.0</ele><time>2026-03-29T14:00:19.124Z</time></trkpt><trkpt lat="43.5033372" lon="11.0892115"><ele>75.0</ele><time>2026-03-29T14:00:20.152Z</time></trkpt><trkpt lat="43.5034272" lon="11.0890914"><ele>75.0</ele><time>2026-03-29T14:00:21.122Z</time></trkpt><trkpt lat="43.5035206" lon="11.0889704"><ele>75.0</ele><time>2026-03-29T14:00:22.131Z</time></trkpt><trkpt lat="43.5036154" lon="11.088856"><ele>75.25</ele><time>2026-03-29T14:00:23.121Z</time></trkpt><trkpt lat="43.5037074" lon="11.0887434"><ele>75.5</ele><time>2026-03-29T14:00:24.133Z</time></trkpt><trkpt lat="43.5037975" lon="11.0886248"><ele>75.75</ele><time>2026-03-29T14:00:25.129Z</time></trkpt><trkpt lat="43.5038869" lon="11.0885063"><ele>76.0</ele><time>2026-03-29T14:00:26.131Z</time></trkpt><trkpt lat="43.5039752" lon="11.088392"><ele>76.0</ele><time>2026-03-29T14:00:27.117Z</time></trkpt><trkpt lat="43.504058" lon="11.0882844"><ele>76.0</ele><time>2026-03-29T14:00:28.122Z</time></trkpt><trkpt lat="43.504133" lon="11.0881869"><ele>76.0</ele><time>2026-03-29T14:00:29.158Z</time></trkpt><trkpt lat="43.5042027" lon="11.0881038"><ele>76.0</ele><time>2026-03-29T14:00:30.139Z</time></trkpt><trkpt lat="43.5042758" lon="11.0880297"><ele>76.0</ele><time>2026-03-29T14:00:31.124Z</time></trkpt><trkpt lat="43.5043571" lon="11.0879632"><ele>76.16666666666666</ele><time>2026-03-29T14:00:32.162Z</time></trkpt><trkpt lat="43.5044425" lon="11.0879138"><ele>76.33333333333333</ele><time>2026-03-29T14:00:33.155Z</time></trkpt><trkpt lat="43.5045262" lon="11.0878841"><ele>76.5</ele><time>2026-03-29T14:00:34.139Z</time></trkpt><trkpt lat="43.5046034" lon="11.0878576"><ele>76.66666666666667</ele><time>2026-03-29T14:00:35.124Z</time></trkpt><trkpt lat="43.5046749" lon="11.0878319"><ele>76.83333333333334</ele><time>2026-03-29T14:00:36.14Z</time></trkpt><trkpt lat="43.5047363" lon="11.0878077"><ele>77.0</ele><time>2026-03-29T14:00:37.137Z</time></trkpt><trkpt lat="43.5048191" lon="11.087745"><ele>77.0</ele><time>2026-03-29T14:00:39.127Z</time></trkpt><trkpt lat="43.504857" lon="11.0876697"><ele>77.0</ele><time>2026-03-29T14:00:41.122Z</time></trkpt><trkpt lat="43.5048428" lon="11.0875657"><ele>77.0</ele><time>2026-03-29T14:00:43.156Z</time></trkpt><trkpt lat="43.5047841" lon="11.087451"><ele>77.0</ele><time>2026-03-29T14:00:45.157Z</time></trkpt><trkpt lat="43.5047582" lon="11.0873209"><ele>77.0</ele><time>2026-03-29T14:00:47.146Z</time></trkpt><trkpt lat="43.5047447" lon="11.0871862"><ele>77.0</ele><time>2026-03-29T14:00:49.121Z</time></trkpt><trkpt lat="43.5047153" lon="11.0871072"><ele>77.2</ele><time>2026-03-29T14:00:50.147Z</time></trkpt><trkpt lat="43.504658" lon="11.087025"><ele>77.4</ele><time>2026-03-29T14:00:51.123Z</time></trkpt><trkpt lat="43.5045706" lon="11.0869379"><ele>77.6</ele><time>2026-03-29T14:00:52.125Z</time></trkpt><trkpt lat="43.5044703" lon="11.0868508"><ele>77.8</ele><time>2026-03-29T14:00:53.127Z</time></trkpt><trkpt lat="43.5043706" lon="11.0867399"><ele>78.0</ele><time>2026-03-29T14:00:54.12Z</time></trkpt><trkpt lat="43.5042733" lon="11.0866023"><ele>78.5</ele><time>2026-03-29T14:00:55.123Z</time></trkpt><trkpt lat="43.5041887" lon="11.0864562"><ele>79.0</ele><time>2026-03-29T14:00:56.126Z</time></trkpt><trkpt lat="43.5041165" lon="11.0863166"><ele>79.5</ele><time>2026-03-29T14:00:57.133Z</time></trkpt><trkpt lat="43.504061" lon="11.086181"><ele>80.0</ele><time>2026-03-29T14:00:58.154Z</time></trkpt><trkpt lat="43.5040169" lon="11.0860517"><ele>80.0</ele><time>2026-03-29T14:00:59.127Z</time></trkpt><trkpt lat="43.5039897" lon="11.0859382"><ele>80.0</ele><time>2026-03-29T14:01:00.117Z</time></trkpt><trkpt lat="43.5039773" lon="11.0858387"><ele>80.0</ele><time>2026-03-29T14:01:01.129Z</time></trkpt><trkpt lat="43.5039781" lon="11.085745"><ele>80.0</ele><time>2026-03-29T14:01:02.121Z</time></trkpt><trkpt lat="43.503997" lon="11.0856591"><ele>80.0</ele><time>2026-03-29T14:01:03.137Z</time></trkpt><trkpt lat="43.5040515" lon="11.0855728"><ele>80.0</ele><time>2026-03-29T14:01:04.13Z</time></trkpt><trkpt lat="43.5041308" lon="11.0854824"><ele>80.5</ele><time>2026-03-29T14:01:05.151Z</time></trkpt><trkpt lat="43.5042261" lon="11.085395"><ele>81.0</ele><time>2026-03-29T14:01:06.121Z</time></trkpt><trkpt lat="43.504341" lon="11.0852943"><ele>81.5</ele><time>2026-03-29T14:01:07.12Z</time></trkpt><trkpt lat="43.5044548" lon="11.0851806"><ele>82.0</ele><time>2026-03-29T14:01:08.125Z</time></trkpt><trkpt lat="43.5045632" lon="11.0850751"><ele>81.5</ele><time>2026-03-29T14:01:09.12Z</time></trkpt><trkpt lat="43.5046673" lon="11.0849716"><ele>81.0</ele><time>2026-03-29T14:01:10.116Z</time></trkpt><trkpt lat="43.504773" lon="11.0848663"><ele>80.5</ele><time>2026-03-29T14:01:11.121Z</time></trkpt><trkpt lat="43.5048799" lon="11.0847589"><ele>80.0</ele><time>2026-03-29T14:01:12.127Z</time></trkpt><trkpt lat="43.5049885" lon="11.0846506"><ele>80.5</ele><time>2026-03-29T14:01:13.153Z</time></trkpt><trkpt lat="43.5051031" lon="11.0845408"><ele>81.0</ele><time>2026-03-29T14:01:14.137Z</time></trkpt><trkpt lat="43.5052208" lon="11.0844298"><ele>81.5</ele><time>2026-03-29T14:01:15.126Z</time></trkpt><trkpt lat="43.5053398" lon="11.0843153"><ele>82.0</ele><time>2026-03-29T14:01:16.137Z</time></trkpt><trkpt lat="43.5054604" lon="11.0841978"><ele>82.0</ele><time>2026-03-29T14:01:17.122Z</time></trkpt><trkpt lat="43.5055662" lon="11.0841149"><ele>82.0</ele><time>2026-03-29T14:01:18.148Z</time></trkpt><trkpt lat="43.5056929" lon="11.0839875"><ele>82.0</ele><time>2026-03-29T14:01:19.133Z</time></trkpt><trkpt lat="43.5058114" lon="11.0838664"><ele>82.0</ele><time>2026-03-29T14:01:20.129Z</time></trkpt><trkpt lat="43.505926" lon="11.083744"><ele>82.0</ele><time>2026-03-29T14:01:21.156Z</time></trkpt><trkpt lat="43.506028" lon="11.0836336"><ele>82.0</ele><time>2026-03-29T14:01:22.126Z</time></trkpt><trkpt lat="43.5061231" lon="11.0835268"><ele>82.0</ele><time>2026-03-29T14:01:23.149Z</time></trkpt><trkpt lat="43.5062155" lon="11.0834217"><ele>82.0</ele><time>2026-03-29T14:01:24.121Z</time></trkpt><trkpt lat="43.5063149" lon="11.083304"><ele>84.0</ele><time>2026-03-29T14:01:25.133Z</time></trkpt><trkpt lat="43.5064097" lon="11.0831883"><ele>86.0</ele><time>2026-03-29T14:01:26.119Z</time></trkpt><trkpt lat="43.5065153" lon="11.0830623"><ele>88.0</ele><time>2026-03-29T14:01:27.127Z</time></trkpt><trkpt lat="43.5066197" lon="11.0829315"><ele>90.0</ele><time>2026-03-29T14:01:28.132Z</time></trkpt><trkpt lat="43.5067189" lon="11.0828012"><ele>90.0</ele><time>2026-03-29T14:01:29.154Z</time></trkpt><trkpt lat="43.5068133" lon="11.0826782"><ele>90.0</ele><time>2026-03-29T14:01:30.149Z</time></trkpt><trkpt lat="43.5069015" lon="11.0825586"><ele>90.0</ele><time>2026-03-29T14:01:31.123Z</time></trkpt><trkpt lat="43.506986" lon="11.0824458"><ele>90.0</ele><time>2026-03-29T14:01:32.15Z</time></trkpt><trkpt lat="43.5070656" lon="11.0823395"><ele>90.0</ele><time>2026-03-29T14:01:33.161Z</time></trkpt><trkpt lat="43.5071386" lon="11.082239"><ele>90.0</ele><time>2026-03-29T14:01:34.122Z</time></trkpt><trkpt lat="43.5072104" lon="11.0821415"><ele>90.0</ele><time>2026-03-29T14:01:35.121Z</time></trkpt><trkpt lat="43.5072787" lon="11.0820546"><ele>90.0</ele><time>2026-03-29T14:01:36.126Z</time></trkpt><trkpt lat="43.507344" lon="11.0819746"><ele>90.0</ele><time>2026-03-29T14:01:37.118Z</time></trkpt><trkpt lat="43.5074057" lon="11.0819037"><ele>90.0</ele><time>2026-03-29T14:01:38.129Z</time></trkpt><trkpt lat="43.5074618" lon="11.0818423"><ele>90.0</ele><time>2026-03-29T14:01:39.122Z</time></trkpt><trkpt lat="43.5075113" lon="11.0817878"><ele>90.0</ele><time>2026-03-29T14:01:40.157Z</time></trkpt><trkpt lat="43.5075848" lon="11.0817142"><ele>90.0</ele><time>2026-03-29T14:01:42.123Z</time></trkpt><trkpt lat="43.5076407" lon="11.0816456"><ele>90.0</ele><time>2026-03-29T14:01:44.121Z</time></trkpt><trkpt lat="43.507709" lon="11.0815919"><ele>90.0</ele><time>2026-03-29T14:01:46.133Z</time></trkpt><trkpt lat="43.5078128" lon="11.0816119"><ele>90.0</ele><time>2026-03-29T14:01:50.122Z</time></trkpt><trkpt lat="43.507884" lon="11.0816181"><ele>90.0</ele><time>2026-03-29T14:01:51.127Z</time></trkpt><trkpt lat="43.5079742" lon="11.0816317"><ele>90.0</ele><time>2026-03-29T14:01:52.128Z</time></trkpt><trkpt lat="43.5080727" lon="11.0816443"><ele>90.0</ele><time>2026-03-29T14:01:53.123Z</time></trkpt><trkpt lat="43.5081849" lon="11.0816631"><ele>90.0</ele><time>2026-03-29T14:01:54.127Z</time></trkpt><trkpt lat="43.5083066" lon="11.0816865"><ele>88.8</ele><time>2026-03-29T14:01:55.124Z</time></trkpt><trkpt lat="43.5084198" lon="11.0817048"><ele>87.6</ele><time>2026-03-29T14:01:56.143Z</time></trkpt><trkpt lat="43.5085344" lon="11.0817211"><ele>86.4</ele><time>2026-03-29T14:01:57.154Z</time></trkpt><trkpt lat="43.5086473" lon="11.0817349"><ele>85.2</ele><time>2026-03-29T14:01:58.116Z</time></trkpt><trkpt lat="43.5087408" lon="11.0817437"><ele>84.0</ele><time>2026-03-29T14:01:59.121Z</time></trkpt><trkpt lat="43.5088331" lon="11.0817559"><ele>82.8</ele><time>2026-03-29T14:02:00.118Z</time></trkpt><trkpt lat="43.5089362" lon="11.0817599"><ele>81.60000000000001</ele><time>2026-03-29T14:02:01.133Z</time></trkpt><trkpt lat="43.5090274" lon="11.0817633"><ele>80.4</ele><time>2026-03-29T14:02:02.117Z</time></trkpt><trkpt lat="43.5091267" lon="11.0817566"><ele>79.2</ele><time>2026-03-29T14:02:03.118Z</time></trkpt><trkpt lat="43.5092353" lon="11.0817284"><ele>78.0</ele><time>2026-03-29T14:02:04.138Z</time></trkpt><trkpt lat="43.5093238" lon="11.0816866"><ele>78.0</ele><time>2026-03-29T14:02:05.154Z</time></trkpt><trkpt lat="43.509434" lon="11.0815988"><ele>78.0</ele><time>2026-03-29T14:02:06.15Z</time></trkpt><trkpt lat="43.5095417" lon="11.0815019"><ele>78.0</ele><time>2026-03-29T14:02:07.162Z</time></trkpt><trkpt lat="43.5096527" lon="11.0814003"><ele>78.0</ele><time>2026-03-29T14:02:08.146Z</time></trkpt><trkpt lat="43.5097599" lon="11.0812951"><ele>77.5</ele><time>2026-03-29T14:02:09.134Z</time></trkpt><trkpt lat="43.5098666" lon="11.0811882"><ele>77.0</ele><time>2026-03-29T14:02:10.147Z</time></trkpt><trkpt lat="43.5099697" lon="11.081087"><ele>76.5</ele><time>2026-03-29T14:02:11.16Z</time></trkpt><trkpt lat="43.5100505" lon="11.0809397"><ele>76.0</ele><time>2026-03-29T14:02:12.127Z</time></trkpt><trkpt lat="43.5101421" lon="11.0808476"><ele>76.2</ele><time>2026-03-29T14:02:13.128Z</time></trkpt><trkpt lat="43.5102324" lon="11.080747"><ele>76.39999999999999</ele><time>2026-03-29T14:02:14.125Z</time></trkpt><trkpt lat="43.5103178" lon="11.0806668"><ele>76.6</ele><time>2026-03-29T14:02:15.137Z</time></trkpt><trkpt lat="43.510401" lon="11.0805983"><ele>76.8</ele><time>2026-03-29T14:02:16.117Z</time></trkpt><trkpt lat="43.5104824" lon="11.0805523"><ele>77.0</ele><time>2026-03-29T14:02:17.123Z</time></trkpt><trkpt lat="43.510549" lon="11.0805427"><ele>77.0</ele><time>2026-03-29T14:02:18.156Z</time></trkpt><trkpt lat="43.510627" lon="11.0805575"><ele>77.0</ele><time>2026-03-29T14:02:19.121Z</time></trkpt><trkpt lat="43.5107396" lon="11.0805768"><ele>77.0</ele><time>2026-03-29T14:02:20.161Z</time></trkpt><trkpt lat="43.5108586" lon="11.0806143"><ele>77.0</ele><time>2026-03-29T14:02:21.139Z</time></trkpt><trkpt lat="43.5109936" lon="11.0806734"><ele>77.0</ele><time>2026-03-29T14:02:22.132Z</time></trkpt><trkpt lat="43.5111466" lon="11.0807487"><ele>77.0</ele><time>2026-03-29T14:02:23.118Z</time></trkpt><trkpt lat="43.5113134" lon="11.0808311"><ele>77.0</ele><time>2026-03-29T14:02:24.15Z</time></trkpt><trkpt lat="43.5114624" lon="11.0809081"><ele>76.33333333333334</ele><time>2026-03-29T14:02:25.122Z</time></trkpt><trkpt lat="43.5116134" lon="11.0809809"><ele>75.66666666666667</ele><time>2026-03-29T14:02:26.135Z</time></trkpt><trkpt lat="43.5117612" lon="11.0810361"><ele>75.0</ele><time>2026-03-29T14:02:27.123Z</time></trkpt><trkpt lat="43.5119148" lon="11.0809463"><ele>75.0</ele><time>2026-03-29T14:02:29.123Z</time></trkpt><trkpt lat="43.5121" lon="11.0808945"><ele>75.0</ele><time>2026-03-29T14:02:30.118Z</time></trkpt><trkpt lat="43.5122513" lon="11.080851"><ele>75.0</ele><time>2026-03-29T14:02:31.128Z</time></trkpt><trkpt lat="43.5124153" lon="11.0807971"><ele>74.66666666666667</ele><time>2026-03-29T14:02:32.119Z</time></trkpt><trkpt lat="43.5126426" lon="11.0807263"><ele>74.33333333333334</ele><time>2026-03-29T14:02:33.129Z</time></trkpt><trkpt lat="43.5128403" lon="11.0806924"><ele>74.0</ele><time>2026-03-29T14:02:34.148Z</time></trkpt><trkpt lat="43.5129726" lon="11.080639"><ele>74.0</ele><time>2026-03-29T14:02:35.12Z</time></trkpt><trkpt lat="43.513157" lon="11.0805847"><ele>74.0</ele><time>2026-03-29T14:02:36.124Z</time></trkpt><trkpt lat="43.5132913" lon="11.080533"><ele>74.0</ele><time>2026-03-29T14:02:37.131Z</time></trkpt><trkpt lat="43.5134408" lon="11.0804838"><ele>74.0</ele><time>2026-03-29T14:02:38.155Z</time></trkpt><trkpt lat="43.5135776" lon="11.080439"><ele>74.0</ele><time>2026-03-29T14:02:39.123Z</time></trkpt><trkpt lat="43.5137038" lon="11.0804"><ele>74.0</ele><time>2026-03-29T14:02:40.16Z</time></trkpt><trkpt lat="43.5138248" lon="11.0803635"><ele>74.0</ele><time>2026-03-29T14:02:41.124Z</time></trkpt><trkpt lat="43.5139507" lon="11.0803308"><ele>74.0</ele><time>2026-03-29T14:02:42.131Z</time></trkpt><trkpt lat="43.5140628" lon="11.0802971"><ele>74.0</ele><time>2026-03-29T14:02:43.113Z</time></trkpt><trkpt lat="43.5141493" lon="11.0802593"><ele>74.0</ele><time>2026-03-29T14:02:44.121Z</time></trkpt><trkpt lat="43.5142162" lon="11.080207"><ele>74.0</ele><time>2026-03-29T14:02:45.123Z</time></trkpt><trkpt lat="43.5142802" lon="11.0801469"><ele>74.0</ele><time>2026-03-29T14:02:46.161Z</time></trkpt><trkpt lat="43.5143588" lon="11.0800746"><ele>74.0</ele><time>2026-03-29T14:02:47.137Z</time></trkpt><trkpt lat="43.5144215" lon="11.080001"><ele>74.0</ele><time>2026-03-29T14:02:48.156Z</time></trkpt><trkpt lat="43.5144873" lon="11.0799156"><ele>74.0</ele><time>2026-03-29T14:02:49.15Z</time></trkpt><trkpt lat="43.514558" lon="11.0798241"><ele>74.0</ele><time>2026-03-29T14:02:50.156Z</time></trkpt><trkpt lat="43.5146344" lon="11.0797305"><ele>74.0</ele><time>2026-03-29T14:02:51.127Z</time></trkpt><trkpt lat="43.5147139" lon="11.0796319"><ele>74.0</ele><time>2026-03-29T14:02:52.155Z</time></trkpt><trkpt lat="43.5147852" lon="11.07954"><ele>74.0</ele><time>2026-03-29T14:02:53.121Z</time></trkpt><trkpt lat="43.5148548" lon="11.0794523"><ele>74.0</ele><time>2026-03-29T14:02:54.141Z</time></trkpt><trkpt lat="43.5149282" lon="11.0793623"><ele>74.0</ele><time>2026-03-29T14:02:55.12Z</time></trkpt><trkpt lat="43.5150052" lon="11.0792678"><ele>74.0</ele><time>2026-03-29T14:02:56.129Z</time></trkpt><trkpt lat="43.5150858" lon="11.0791705"><ele>74.0</ele><time>2026-03-29T14:02:57.136Z</time></trkpt><trkpt lat="43.5151645" lon="11.0790775"><ele>74.0</ele><time>2026-03-29T14:02:58.114Z</time></trkpt><trkpt lat="43.5152432" lon="11.0789894"><ele>74.0</ele><time>2026-03-29T14:02:59.115Z</time></trkpt><trkpt lat="43.5153198" lon="11.0789022"><ele>74.0</ele><time>2026-03-29T14:03:00.124Z</time></trkpt><trkpt lat="43.5153921" lon="11.0788195"><ele>74.0</ele><time>2026-03-29T14:03:01.122Z</time></trkpt><trkpt lat="43.5154633" lon="11.0787454"><ele>74.4</ele><time>2026-03-29T14:03:02.133Z</time></trkpt><trkpt lat="43.515531" lon="11.0786724"><ele>74.80000000000001</ele><time>2026-03-29T14:03:03.125Z</time></trkpt><trkpt lat="43.5155944" lon="11.0786032"><ele>75.19999999999999</ele><time>2026-03-29T14:03:04.154Z</time></trkpt><trkpt lat="43.5156499" lon="11.0785478"><ele>75.6</ele><time>2026-03-29T14:03:05.128Z</time></trkpt><trkpt lat="43.5157395" lon="11.078437"><ele>76.0</ele><time>2026-03-29T14:03:07.121Z</time></trkpt><trkpt lat="43.5157777" lon="11.0783142"><ele>75.8</ele><time>2026-03-29T14:03:09.12Z</time></trkpt><trkpt lat="43.5157547" lon="11.0781863"><ele>75.6</ele><time>2026-03-29T14:03:11.139Z</time></trkpt><trkpt lat="43.5157129" lon="11.0780819"><ele>75.4</ele><time>2026-03-29T14:03:12.122Z</time></trkpt><trkpt lat="43.5156656" lon="11.0779678"><ele>75.2</ele><time>2026-03-29T14:03:13.162Z</time></trkpt><trkpt lat="43.5156283" lon="11.0778404"><ele>75.0</ele><time>2026-03-29T14:03:14.128Z</time></trkpt><trkpt lat="43.5155843" lon="11.0777"><ele>75.0</ele><time>2026-03-29T14:03:15.116Z</time></trkpt><trkpt lat="43.5155734" lon="11.0775547"><ele>75.0</ele><time>2026-03-29T14:03:17.13Z</time></trkpt><trkpt lat="43.5156093" lon="11.0774467"><ele>75.0</ele><time>2026-03-29T14:03:19.115Z</time></trkpt><trkpt lat="43.5156808" lon="11.0773818"><ele>75.0</ele><time>2026-03-29T14:03:21.119Z</time></trkpt><trkpt lat="43.5158076" lon="11.0773549"><ele>75.0</ele><time>2026-03-29T14:03:23.133Z</time></trkpt><trkpt lat="43.5158917" lon="11.0773499"><ele>75.6</ele><time>2026-03-29T14:03:24.125Z</time></trkpt><trkpt lat="43.5159899" lon="11.0773325"><ele>76.2</ele><time>2026-03-29T14:03:25.145Z</time></trkpt><trkpt lat="43.5161025" lon="11.0773155"><ele>76.8</ele><time>2026-03-29T14:03:26.12Z</time></trkpt><trkpt lat="43.5162071" lon="11.0772983"><ele>77.4</ele><time>2026-03-29T14:03:27.134Z</time></trkpt><trkpt lat="43.5163181" lon="11.077278"><ele>78.0</ele><time>2026-03-29T14:03:28.133Z</time></trkpt><trkpt lat="43.5164031" lon="11.0772511"><ele>78.0</ele><time>2026-03-29T14:03:29.119Z</time></trkpt><trkpt lat="43.5164791" lon="11.0772252"><ele>78.0</ele><time>2026-03-29T14:03:30.15Z</time></trkpt><trkpt lat="43.5165451" lon="11.077196"><ele>78.0</ele><time>2026-03-29T14:03:31.118Z</time></trkpt><trkpt lat="43.5166245" lon="11.0771747"><ele>78.0</ele><time>2026-03-29T14:03:32.149Z</time></trkpt><trkpt lat="43.5167425" lon="11.0771199"><ele>78.0</ele><time>2026-03-29T14:03:34.126Z</time></trkpt><trkpt lat="43.5168617" lon="11.0770739"><ele>78.0</ele><time>2026-03-29T14:03:36.117Z</time></trkpt><trkpt lat="43.5169942" lon="11.077064"><ele>78.0</ele><time>2026-03-29T14:03:38.133Z</time></trkpt><trkpt lat="43.517071" lon="11.0770658"><ele>78.0</ele><time>2026-03-29T14:03:39.121Z</time></trkpt><trkpt lat="43.5171772" lon="11.0769907"><ele>78.0</ele><time>2026-03-29T14:03:40.12Z</time></trkpt><trkpt lat="43.5172696" lon="11.076993"><ele>78.0</ele><time>2026-03-29T14:03:41.127Z</time></trkpt><trkpt lat="43.5173803" lon="11.0769618"><ele>78.0</ele><time>2026-03-29T14:03:42.119Z</time></trkpt><trkpt lat="43.5174898" lon="11.0769604"><ele>78.0</ele><time>2026-03-29T14:03:43.124Z</time></trkpt><trkpt lat="43.517608" lon="11.0769534"><ele>78.0</ele><time>2026-03-29T14:03:44.129Z</time></trkpt><trkpt lat="43.5177217" lon="11.0769469"><ele>78.0</ele><time>2026-03-29T14:03:45.119Z</time></trkpt><trkpt lat="43.5178319" lon="11.0769449"><ele>78.33333333333333</ele><time>2026-03-29T14:03:46.162Z</time></trkpt><trkpt lat="43.517924" lon="11.0769296"><ele>78.66666666666667</ele><time>2026-03-29T14:03:47.137Z</time></trkpt><trkpt lat="43.5180154" lon="11.0769094"><ele>79.0</ele><time>2026-03-29T14:03:48.13Z</time></trkpt><trkpt lat="43.5180992" lon="11.0768858"><ele>79.33333333333334</ele><time>2026-03-29T14:03:49.132Z</time></trkpt><trkpt lat="43.5181809" lon="11.0768697"><ele>79.66666666666667</ele><time>2026-03-29T14:03:50.125Z</time></trkpt><trkpt lat="43.5182541" lon="11.0768501"><ele>80.0</ele><time>2026-03-29T14:03:51.12Z</time></trkpt><trkpt lat="43.5183822" lon="11.0768421"><ele>80.0</ele><time>2026-03-29T14:03:53.122Z</time></trkpt><trkpt lat="43.5184702" lon="11.0768402"><ele>80.0</ele><time>2026-03-29T14:03:54.149Z</time></trkpt><trkpt lat="43.5185513" lon="11.0768414"><ele>80.0</ele><time>2026-03-29T14:03:55.13Z</time></trkpt><trkpt lat="43.5186271" lon="11.0768365"><ele>80.0</ele><time>2026-03-29T14:03:56.135Z</time></trkpt><trkpt lat="43.5187098" lon="11.0768284"><ele>80.0</ele><time>2026-03-29T14:03:57.129Z</time></trkpt><trkpt lat="43.5187787" lon="11.0768078"><ele>80.0</ele><time>2026-03-29T14:03:58.129Z</time></trkpt><trkpt lat="43.5188455" lon="11.0767988"><ele>79.2</ele><time>2026-03-29T14:03:59.138Z</time></trkpt><trkpt lat="43.5189089" lon="11.0767795"><ele>78.4</ele><time>2026-03-29T14:04:00.146Z</time></trkpt><trkpt lat="43.5190156" lon="11.0767094"><ele>77.6</ele><time>2026-03-29T14:04:02.133Z</time></trkpt><trkpt lat="43.5191472" lon="11.076612"><ele>76.8</ele><time>2026-03-29T14:04:04.15Z</time></trkpt><trkpt lat="43.5192352" lon="11.0765431"><ele>76.0</ele><time>2026-03-29T14:04:05.124Z</time></trkpt><trkpt lat="43.5193307" lon="11.0764729"><ele>76.39999999999999</ele><time>2026-03-29T14:04:06.128Z</time></trkpt><trkpt lat="43.5194246" lon="11.0763917"><ele>76.8</ele><time>2026-03-29T14:04:07.126Z</time></trkpt><trkpt lat="43.5195211" lon="11.0763101"><ele>77.19999999999999</ele><time>2026-03-29T14:04:08.14Z</time></trkpt><trkpt lat="43.5196234" lon="11.076233"><ele>77.6</ele><time>2026-03-29T14:04:09.163Z</time></trkpt><trkpt lat="43.5197198" lon="11.0761812"><ele>78.0</ele><time>2026-03-29T14:04:10.123Z</time></trkpt><trkpt lat="43.5198147" lon="11.0761276"><ele>78.0</ele><time>2026-03-29T14:04:11.127Z</time></trkpt><trkpt lat="43.5199025" lon="11.0760808"><ele>78.0</ele><time>2026-03-29T14:04:12.133Z</time></trkpt><trkpt lat="43.5200085" lon="11.0760353"><ele>78.0</ele><time>2026-03-29T14:04:13.119Z</time></trkpt><trkpt lat="43.5200864" lon="11.0759646"><ele>78.0</ele><time>2026-03-29T14:04:14.116Z</time></trkpt><trkpt lat="43.52016" lon="11.0758911"><ele>78.0</ele><time>2026-03-29T14:04:15.149Z</time></trkpt><trkpt lat="43.5202405" lon="11.0758249"><ele>78.6</ele><time>2026-03-29T14:04:16.127Z</time></trkpt><trkpt lat="43.5203156" lon="11.0757484"><ele>79.19999999999999</ele><time>2026-03-29T14:04:17.122Z</time></trkpt><trkpt lat="43.5203977" lon="11.0756717"><ele>79.8</ele><time>2026-03-29T14:04:18.132Z</time></trkpt><trkpt lat="43.5204827" lon="11.0755978"><ele>80.39999999999999</ele><time>2026-03-29T14:04:19.122Z</time></trkpt><trkpt lat="43.5205579" lon="11.0755458"><ele>81.0</ele><time>2026-03-29T14:04:20.133Z</time></trkpt><trkpt lat="43.5206441" lon="11.0754987"><ele>81.0</ele><time>2026-03-29T14:04:21.121Z</time></trkpt><trkpt lat="43.52073" lon="11.0754643"><ele>81.0</ele><time>2026-03-29T14:04:22.13Z</time></trkpt><trkpt lat="43.5208117" lon="11.0754351"><ele>81.0</ele><time>2026-03-29T14:04:23.121Z</time></trkpt><trkpt lat="43.5208769" lon="11.0753965"><ele>81.0</ele><time>2026-03-29T14:04:24.137Z</time></trkpt><trkpt lat="43.5209486" lon="11.0753401"><ele>81.0</ele><time>2026-03-29T14:04:25.121Z</time></trkpt><trkpt lat="43.5210161" lon="11.0752803"><ele>81.0</ele><time>2026-03-29T14:04:26.122Z</time></trkpt><trkpt lat="43.5210617" lon="11.0752179"><ele>81.0</ele><time>2026-03-29T14:04:27.135Z</time></trkpt><trkpt lat="43.5211124" lon="11.0751207"><ele>81.0</ele><time>2026-03-29T14:04:28.12Z</time></trkpt><trkpt lat="43.5211602" lon="11.075014"><ele>81.0</ele><time>2026-03-29T14:04:29.119Z</time></trkpt><trkpt lat="43.521197" lon="11.0749018"><ele>81.0</ele><time>2026-03-29T14:04:30.118Z</time></trkpt><trkpt lat="43.5212363" lon="11.0747734"><ele>81.0</ele><time>2026-03-29T14:04:31.12Z</time></trkpt><trkpt lat="43.5212765" lon="11.0746417"><ele>81.19999999999999</ele><time>2026-03-29T14:04:32.145Z</time></trkpt><trkpt lat="43.5213223" lon="11.0745141"><ele>81.39999999999999</ele><time>2026-03-29T14:04:33.155Z</time></trkpt><trkpt lat="43.5213616" lon="11.074379"><ele>81.6</ele><time>2026-03-29T14:04:34.12Z</time></trkpt><trkpt lat="43.5214036" lon="11.0742367"><ele>81.8</ele><time>2026-03-29T14:04:35.122Z</time></trkpt><trkpt lat="43.5214431" lon="11.0740798"><ele>82.0</ele><time>2026-03-29T14:04:36.155Z</time></trkpt><trkpt lat="43.5214797" lon="11.0739279"><ele>83.8</ele><time>2026-03-29T14:04:37.118Z</time></trkpt><trkpt lat="43.5215221" lon="11.0737694"><ele>85.6</ele><time>2026-03-29T14:04:38.155Z</time></trkpt><trkpt lat="43.5215539" lon="11.073634"><ele>87.39999999999999</ele><time>2026-03-29T14:04:39.115Z</time></trkpt><trkpt lat="43.5215892" lon="11.0734912"><ele>89.19999999999999</ele><time>2026-03-29T14:04:40.117Z</time></trkpt><trkpt lat="43.5216262" lon="11.073354"><ele>91.0</ele><time>2026-03-29T14:04:41.119Z</time></trkpt><trkpt lat="43.5216612" lon="11.0732509"><ele>92.0</ele><time>2026-03-29T14:04:42.153Z</time></trkpt><trkpt lat="43.5216996" lon="11.0731287"><ele>93.0</ele><time>2026-03-29T14:04:43.129Z</time></trkpt><trkpt lat="43.5217279" lon="11.0730054"><ele>94.0</ele><time>2026-03-29T14:04:44.118Z</time></trkpt><trkpt lat="43.5217638" lon="11.0728557"><ele>95.0</ele><time>2026-03-29T14:04:45.141Z</time></trkpt><trkpt lat="43.5218035" lon="11.0727114"><ele>96.0</ele><time>2026-03-29T14:04:46.147Z</time></trkpt><trkpt lat="43.5218425" lon="11.0725745"><ele>97.6</ele><time>2026-03-29T14:04:47.122Z</time></trkpt><trkpt lat="43.5218829" lon="11.0724339"><ele>99.19999999999999</ele><time>2026-03-29T14:04:48.118Z</time></trkpt><trkpt lat="43.5219273" lon="11.0722938"><ele>100.80000000000001</ele><time>2026-03-29T14:04:49.151Z</time></trkpt><trkpt lat="43.5219755" lon="11.0721644"><ele>102.4</ele><time>2026-03-29T14:04:50.158Z</time></trkpt><trkpt lat="43.5220191" lon="11.072044"><ele>104.0</ele><time>2026-03-29T14:04:51.149Z</time></trkpt><trkpt lat="43.5220552" lon="11.0719207"><ele>102.83333333333333</ele><time>2026-03-29T14:04:52.134Z</time></trkpt><trkpt lat="43.5220831" lon="11.0717982"><ele>101.66666666666666</ele><time>2026-03-29T14:04:53.148Z</time></trkpt><trkpt lat="43.5221073" lon="11.0716913"><ele>100.5</ele><time>2026-03-29T14:04:54.148Z</time></trkpt><trkpt lat="43.5221265" lon="11.071602"><ele>99.33333333333334</ele><time>2026-03-29T14:04:55.116Z</time></trkpt><trkpt lat="43.5221796" lon="11.0715335"><ele>98.16666666666667</ele><time>2026-03-29T14:04:58.116Z</time></trkpt><trkpt lat="43.5222765" lon="11.0714944"><ele>97.0</ele><time>2026-03-29T14:05:00.113Z</time></trkpt><trkpt lat="43.5223699" lon="11.0714991"><ele>97.0</ele><time>2026-03-29T14:05:01.121Z</time></trkpt><trkpt lat="43.5224634" lon="11.0714998"><ele>97.0</ele><time>2026-03-29T14:05:02.131Z</time></trkpt><trkpt lat="43.5225784" lon="11.0714904"><ele>97.0</ele><time>2026-03-29T14:05:03.119Z</time></trkpt><trkpt lat="43.5226639" lon="11.07149"><ele>97.0</ele><time>2026-03-29T14:05:04.138Z</time></trkpt><trkpt lat="43.5227411" lon="11.071492"><ele>97.0</ele><time>2026-03-29T14:05:05.117Z</time></trkpt><trkpt lat="43.5228212" lon="11.0714951"><ele>95.66666666666667</ele><time>2026-03-29T14:05:06.118Z</time></trkpt><trkpt lat="43.5229023" lon="11.0714991"><ele>94.33333333333334</ele><time>2026-03-29T14:05:07.134Z</time></trkpt><trkpt lat="43.5229812" lon="11.0715046"><ele>93.0</ele><time>2026-03-29T14:05:08.121Z</time></trkpt><trkpt lat="43.5230555" lon="11.071515"><ele>91.66666666666667</ele><time>2026-03-29T14:05:09.132Z</time></trkpt><trkpt lat="43.5231309" lon="11.0715305"><ele>90.33333333333334</ele><time>2026-03-29T14:05:10.117Z</time></trkpt><trkpt lat="43.5232019" lon="11.071545"><ele>89.0</ele><time>2026-03-29T14:05:11.135Z</time></trkpt><trkpt lat="43.5232724" lon="11.0715611"><ele>89.0</ele><time>2026-03-29T14:05:12.122Z</time></trkpt><trkpt lat="43.5233368" lon="11.0715748"><ele>89.0</ele><time>2026-03-29T14:05:13.132Z</time></trkpt><trkpt lat="43.5234698" lon="11.071595"><ele>89.0</ele><time>2026-03-29T14:05:15.127Z</time></trkpt><trkpt lat="43.523533" lon="11.0716018"><ele>89.0</ele><time>2026-03-29T14:05:16.135Z</time></trkpt><trkpt lat="43.5236424" lon="11.0716288"><ele>89.0</ele><time>2026-03-29T14:05:18.131Z</time></trkpt><trkpt lat="43.523765" lon="11.0716592"><ele>87.28571428571428</ele><time>2026-03-29T14:05:20.154Z</time></trkpt><trkpt lat="43.5238475" lon="11.0716731"><ele>85.57142857142857</ele><time>2026-03-29T14:05:21.127Z</time></trkpt><trkpt lat="43.5239127" lon="11.0716868"><ele>83.85714285714286</ele><time>2026-03-29T14:05:22.116Z</time></trkpt><trkpt lat="43.5239788" lon="11.0717048"><ele>82.14285714285714</ele><time>2026-03-29T14:05:23.116Z</time></trkpt><trkpt lat="43.5240509" lon="11.0717243"><ele>80.42857142857143</ele><time>2026-03-29T14:05:24.133Z</time></trkpt><trkpt lat="43.5241246" lon="11.0717425"><ele>78.71428571428571</ele><time>2026-03-29T14:05:25.131Z</time></trkpt><trkpt lat="43.5241904" lon="11.0717473"><ele>77.0</ele><time>2026-03-29T14:05:26.119Z</time></trkpt><trkpt lat="43.5243344" lon="11.0717783"><ele>77.0</ele><time>2026-03-29T14:05:28.118Z</time></trkpt><trkpt lat="43.5244233" lon="11.0717351"><ele>77.0</ele><time>2026-03-29T14:05:31.127Z</time></trkpt><trkpt lat="43.5244908" lon="11.0716008"><ele>77.0</ele><time>2026-03-29T14:05:33.122Z</time></trkpt><trkpt lat="43.5245279" lon="11.071507"><ele>77.0</ele><time>2026-03-29T14:05:34.121Z</time></trkpt><trkpt lat="43.5246074" lon="11.0714237"><ele>77.0</ele><time>2026-03-29T14:05:36.125Z</time></trkpt><trkpt lat="43.524696" lon="11.0714416"><ele>76.4</ele><time>2026-03-29T14:05:39.117Z</time></trkpt><trkpt lat="43.524793" lon="11.0714848"><ele>75.80000000000001</ele><time>2026-03-29T14:05:40.121Z</time></trkpt><trkpt lat="43.5249332" lon="11.0714915"><ele>75.2</ele><time>2026-03-29T14:05:42.135Z</time></trkpt><trkpt lat="43.5250283" lon="11.0714407"><ele>74.60000000000001</ele><time>2026-03-29T14:05:44.117Z</time></trkpt><trkpt lat="43.5250798" lon="11.0713876"><ele>74.0</ele><time>2026-03-29T14:05:45.13Z</time></trkpt><trkpt lat="43.5251485" lon="11.0712696"><ele>74.0</ele><time>2026-03-29T14:05:46.138Z</time></trkpt><trkpt lat="43.5252362" lon="11.0710723"><ele>74.0</ele><time>2026-03-29T14:05:48.124Z</time></trkpt><trkpt lat="43.5252978" lon="11.0709405"><ele>74.0</ele><time>2026-03-29T14:05:49.134Z</time></trkpt><trkpt lat="43.5253527" lon="11.0708163"><ele>74.0</ele><time>2026-03-29T14:05:50.116Z</time></trkpt><trkpt lat="43.5254117" lon="11.0706883"><ele>73.4</ele><time>2026-03-29T14:05:51.163Z</time></trkpt><trkpt lat="43.5254536" lon="11.0705687"><ele>72.80000000000001</ele><time>2026-03-29T14:05:52.125Z</time></trkpt><trkpt lat="43.5254911" lon="11.0704447"><ele>72.19999999999999</ele><time>2026-03-29T14:05:53.155Z</time></trkpt><trkpt lat="43.5255387" lon="11.070326"><ele>71.6</ele><time>2026-03-29T14:05:54.129Z</time></trkpt><trkpt lat="43.5255944" lon="11.0701873"><ele>71.0</ele><time>2026-03-29T14:05:55.118Z</time></trkpt><trkpt lat="43.5256493" lon="11.0700538"><ele>71.2</ele><time>2026-03-29T14:05:56.118Z</time></trkpt><trkpt lat="43.5256994" lon="11.0699046"><ele>71.39999999999999</ele><time>2026-03-29T14:05:57.118Z</time></trkpt><trkpt lat="43.5257463" lon="11.0697697"><ele>71.6</ele><time>2026-03-29T14:05:58.149Z</time></trkpt><trkpt lat="43.5257852" lon="11.0696418"><ele>71.8</ele><time>2026-03-29T14:05:59.121Z</time></trkpt><trkpt lat="43.5258152" lon="11.0695537"><ele>72.0</ele><time>2026-03-29T14:06:00.121Z</time></trkpt><trkpt lat="43.5258513" lon="11.0694494"><ele>72.0</ele><time>2026-03-29T14:06:02.123Z</time></trkpt><trkpt lat="43.5258821" lon="11.0693707"><ele>72.0</ele><time>2026-03-29T14:06:04.126Z</time></trkpt><trkpt lat="43.5259307" lon="11.069259"><ele>72.0</ele><time>2026-03-29T14:06:06.15Z</time></trkpt><trkpt lat="43.5259751" lon="11.0691888"><ele>72.0</ele><time>2026-03-29T14:06:19.112Z</time></trkpt><trkpt lat="43.5259233" lon="11.069242"><ele>72.0</ele><time>2026-03-29T14:06:34.112Z</time></trkpt><trkpt lat="43.5258824" lon="11.0693508"><ele>72.0</ele><time>2026-03-29T14:06:36.115Z</time></trkpt><trkpt lat="43.5258404" lon="11.0694474"><ele>72.0</ele><time>2026-03-29T14:06:38.114Z</time></trkpt><trkpt lat="43.5257985" lon="11.0695397"><ele>72.0</ele><time>2026-03-29T14:06:41.115Z</time></trkpt><trkpt lat="43.5258363" lon="11.0696233"><ele>72.0</ele><time>2026-03-29T14:06:57.122Z</time></trkpt><trkpt lat="43.5259096" lon="11.0696802"><ele>72.0</ele><time>2026-03-29T14:06:59.117Z</time></trkpt><trkpt lat="43.5259742" lon="11.0697264"><ele>72.0</ele><time>2026-03-29T14:07:01.114Z</time></trkpt><trkpt lat="43.5260449" lon="11.0697897"><ele>72.0</ele><time>2026-03-29T14:07:08.114Z</time></trkpt><trkpt lat="43.5261317" lon="11.0698608"><ele>72.0</ele><time>2026-03-29T14:07:10.112Z</time></trkpt><trkpt lat="43.5262201" lon="11.0699133"><ele>72.0</ele><time>2026-03-29T14:07:12.114Z</time></trkpt><trkpt lat="43.5263365" lon="11.0699197"><ele>72.0</ele><time>2026-03-29T14:07:14.119Z</time></trkpt><trkpt lat="43.5264047" lon="11.0699046"><ele>72.0</ele><time>2026-03-29T14:07:15.116Z</time></trkpt><trkpt lat="43.5265106" lon="11.0698879"><ele>72.0</ele><time>2026-03-29T14:07:17.116Z</time></trkpt><trkpt lat="43.5266102" lon="11.0699204"><ele>71.6</ele><time>2026-03-29T14:07:19.111Z</time></trkpt><trkpt lat="43.5266654" lon="11.0699624"><ele>71.2</ele><time>2026-03-29T14:07:20.116Z</time></trkpt><trkpt lat="43.5267184" lon="11.0700097"><ele>70.8</ele><time>2026-03-29T14:07:21.117Z</time></trkpt><trkpt lat="43.5268081" lon="11.0701012"><ele>70.4</ele><time>2026-03-29T14:07:23.126Z</time></trkpt><trkpt lat="43.5269004" lon="11.0701956"><ele>70.0</ele><time>2026-03-29T14:07:25.126Z</time></trkpt><trkpt lat="43.5270046" lon="11.0703107"><ele>70.33333333333333</ele><time>2026-03-29T14:07:27.113Z</time></trkpt><trkpt lat="43.5270718" lon="11.0703799"><ele>70.66666666666666</ele><time>2026-03-29T14:07:28.145Z</time></trkpt><trkpt lat="43.5271436" lon="11.0704518"><ele>71.0</ele><time>2026-03-29T14:07:29.12Z</time></trkpt><trkpt lat="43.527213" lon="11.0705182"><ele>71.33333333333333</ele><time>2026-03-29T14:07:30.116Z</time></trkpt><trkpt lat="43.5272745" lon="11.0705774"><ele>71.66666666666667</ele><time>2026-03-29T14:07:31.114Z</time></trkpt><trkpt lat="43.527327" lon="11.0706262"><ele>72.0</ele><time>2026-03-29T14:07:32.12Z</time></trkpt><trkpt lat="43.5274172" lon="11.0706976"><ele>72.0</ele><time>2026-03-29T14:07:34.123Z</time></trkpt><trkpt lat="43.5275056" lon="11.0707133"><ele>72.0</ele><time>2026-03-29T14:07:36.128Z</time></trkpt><trkpt lat="43.5275618" lon="11.0706633"><ele>72.0</ele><time>2026-03-29T14:07:39.146Z</time></trkpt><trkpt lat="43.5276107" lon="11.0705819"><ele>72.0</ele><time>2026-03-29T14:07:50.113Z</time></trkpt><trkpt lat="43.5276361" lon="11.0704968"><ele>72.0</ele><time>2026-03-29T14:07:51.114Z</time></trkpt><trkpt lat="43.5276681" lon="11.070401"><ele>72.0</ele><time>2026-03-29T14:07:52.112Z</time></trkpt><trkpt lat="43.5277845" lon="11.0700691"><ele>72.0</ele><time>2026-03-29T14:07:55.116Z</time></trkpt><trkpt lat="43.5278271" lon="11.069944"><ele>72.0</ele><time>2026-03-29T14:07:56.123Z</time></trkpt><trkpt lat="43.5278696" lon="11.0698178"><ele>72.0</ele><time>2026-03-29T14:07:57.109Z</time></trkpt><trkpt lat="43.5279151" lon="11.0696949"><ele>72.0</ele><time>2026-03-29T14:07:58.113Z</time></trkpt><trkpt lat="43.5279578" lon="11.0695765"><ele>72.0</ele><time>2026-03-29T14:07:59.118Z</time></trkpt><trkpt lat="43.5279988" lon="11.0694618"><ele>72.0</ele><time>2026-03-29T14:08:00.108Z</time></trkpt><trkpt lat="43.5280355" lon="11.069358"><ele>72.0</ele><time>2026-03-29T14:08:01.113Z</time></trkpt><trkpt lat="43.5280701" lon="11.0692546"><ele>72.0</ele><time>2026-03-29T14:08:02.141Z</time></trkpt><trkpt lat="43.5281022" lon="11.0691518"><ele>72.0</ele><time>2026-03-29T14:08:03.113Z</time></trkpt><trkpt lat="43.5281314" lon="11.0690584"><ele>72.0</ele><time>2026-03-29T14:08:04.119Z</time></trkpt><trkpt lat="43.5281595" lon="11.0689789"><ele>72.0</ele><time>2026-03-29T14:08:05.141Z</time></trkpt><trkpt lat="43.5282156" lon="11.0688479"><ele>72.0</ele><time>2026-03-29T14:08:07.112Z</time></trkpt><trkpt lat="43.5282819" lon="11.0687772"><ele>72.0</ele><time>2026-03-29T14:08:09.145Z</time></trkpt><trkpt lat="43.5283746" lon="11.0687747"><ele>72.0</ele><time>2026-03-29T14:08:11.119Z</time></trkpt><trkpt lat="43.5284487" lon="11.0688159"><ele>72.0</ele><time>2026-03-29T14:08:13.124Z</time></trkpt><trkpt lat="43.528527" lon="11.0688516"><ele>72.0</ele><time>2026-03-29T14:08:16.116Z</time></trkpt><trkpt lat="43.528591" lon="11.0688528"><ele>72.0</ele><time>2026-03-29T14:08:19.113Z</time></trkpt><trkpt lat="43.5286804" lon="11.0689199"><ele>71.8</ele><time>2026-03-29T14:08:22.115Z</time></trkpt><trkpt lat="43.528764" lon="11.0688973"><ele>71.6</ele><time>2026-03-29T14:08:24.113Z</time></trkpt><trkpt lat="43.5288064" lon="11.0687384"><ele>71.39999999999999</ele><time>2026-03-29T14:08:26.149Z</time></trkpt><trkpt lat="43.528815" lon="11.0686078"><ele>71.2</ele><time>2026-03-29T14:08:27.114Z</time></trkpt><trkpt lat="43.5288141" lon="11.0684684"><ele>71.0</ele><time>2026-03-29T14:08:28.113Z</time></trkpt><trkpt lat="43.5288178" lon="11.0683198"><ele>71.0</ele><time>2026-03-29T14:08:29.115Z</time></trkpt><trkpt lat="43.5288277" lon="11.0681646"><ele>71.0</ele><time>2026-03-29T14:08:30.114Z</time></trkpt><trkpt lat="43.5288408" lon="11.0680168"><ele>71.0</ele><time>2026-03-29T14:08:31.127Z</time></trkpt><trkpt lat="43.528856" lon="11.0678706"><ele>71.0</ele><time>2026-03-29T14:08:32.138Z</time></trkpt><trkpt lat="43.5288751" lon="11.0677177"><ele>71.0</ele><time>2026-03-29T14:08:33.113Z</time></trkpt><trkpt lat="43.5288975" lon="11.0675544"><ele>71.0</ele><time>2026-03-29T14:08:34.118Z</time></trkpt><trkpt lat="43.5289193" lon="11.0673863"><ele>71.0</ele><time>2026-03-29T14:08:35.12Z</time></trkpt><trkpt lat="43.5289449" lon="11.0672104"><ele>71.0</ele><time>2026-03-29T14:08:36.152Z</time></trkpt><trkpt lat="43.5289753" lon="11.0670371"><ele>71.0</ele><time>2026-03-29T14:08:37.121Z</time></trkpt><trkpt lat="43.5290007" lon="11.0668624"><ele>71.0</ele><time>2026-03-29T14:08:38.119Z</time></trkpt><trkpt lat="43.5290204" lon="11.0666822"><ele>71.0</ele><time>2026-03-29T14:08:39.117Z</time></trkpt><trkpt lat="43.5290394" lon="11.066495"><ele>71.0</ele><time>2026-03-29T14:08:40.113Z</time></trkpt><trkpt lat="43.5290606" lon="11.0663134"><ele>71.0</ele><time>2026-03-29T14:08:41.125Z</time></trkpt><trkpt lat="43.5290821" lon="11.0661361"><ele>71.0</ele><time>2026-03-29T14:08:42.118Z</time></trkpt><trkpt lat="43.5291025" lon="11.0659705"><ele>71.0</ele><time>2026-03-29T14:08:43.126Z</time></trkpt><trkpt lat="43.5291224" lon="11.0658089"><ele>71.0</ele><time>2026-03-29T14:08:44.118Z</time></trkpt><trkpt lat="43.5291438" lon="11.0656432"><ele>71.0</ele><time>2026-03-29T14:08:45.116Z</time></trkpt><trkpt lat="43.5291661" lon="11.0654748"><ele>71.25</ele><time>2026-03-29T14:08:46.115Z</time></trkpt><trkpt lat="43.5291884" lon="11.065308"><ele>71.5</ele><time>2026-03-29T14:08:47.116Z</time></trkpt><trkpt lat="43.5292094" lon="11.0651385"><ele>71.75</ele><time>2026-03-29T14:08:48.113Z</time></trkpt><trkpt lat="43.5292294" lon="11.0649686"><ele>72.0</ele><time>2026-03-29T14:08:49.13Z</time></trkpt><trkpt lat="43.5292507" lon="11.0647996"><ele>72.0</ele><time>2026-03-29T14:08:50.123Z</time></trkpt><trkpt lat="43.5292713" lon="11.0646361"><ele>72.0</ele><time>2026-03-29T14:08:51.124Z</time></trkpt><trkpt lat="43.5292872" lon="11.0644845"><ele>72.0</ele><time>2026-03-29T14:08:52.142Z</time></trkpt><trkpt lat="43.5293032" lon="11.0643483"><ele>72.0</ele><time>2026-03-29T14:08:53.142Z</time></trkpt><trkpt lat="43.5293137" lon="11.0642132"><ele>72.0</ele><time>2026-03-29T14:08:54.114Z</time></trkpt><trkpt lat="43.5293237" lon="11.0640704"><ele>72.25</ele><time>2026-03-29T14:08:55.124Z</time></trkpt><trkpt lat="43.5293394" lon="11.0639186"><ele>72.5</ele><time>2026-03-29T14:08:56.139Z</time></trkpt><trkpt lat="43.5293558" lon="11.0637624"><ele>72.75</ele><time>2026-03-29T14:08:57.11Z</time></trkpt><trkpt lat="43.5293752" lon="11.0635989"><ele>73.0</ele><time>2026-03-29T14:08:58.112Z</time></trkpt><trkpt lat="43.5293989" lon="11.0634323"><ele>72.5</ele><time>2026-03-29T14:08:59.149Z</time></trkpt><trkpt lat="43.5294361" lon="11.063261"><ele>72.0</ele><time>2026-03-29T14:09:00.115Z</time></trkpt><trkpt lat="43.5294739" lon="11.0630952"><ele>71.5</ele><time>2026-03-29T14:09:01.133Z</time></trkpt><trkpt lat="43.5295088" lon="11.0629407"><ele>71.0</ele><time>2026-03-29T14:09:02.165Z</time></trkpt><trkpt lat="43.5295371" lon="11.0627936"><ele>71.39999999999999</ele><time>2026-03-29T14:09:03.109Z</time></trkpt><trkpt lat="43.5295607" lon="11.062646"><ele>71.8</ele><time>2026-03-29T14:09:04.113Z</time></trkpt><trkpt lat="43.5295835" lon="11.062505"><ele>72.19999999999999</ele><time>2026-03-29T14:09:05.144Z</time></trkpt><trkpt lat="43.5296087" lon="11.0623754"><ele>72.6</ele><time>2026-03-29T14:09:06.114Z</time></trkpt><trkpt lat="43.5296378" lon="11.0622722"><ele>73.0</ele><time>2026-03-29T14:09:07.113Z</time></trkpt><trkpt lat="43.5296682" lon="11.0621902"><ele>73.0</ele><time>2026-03-29T14:09:08.118Z</time></trkpt><trkpt lat="43.5297276" lon="11.0620857"><ele>73.0</ele><time>2026-03-29T14:09:10.146Z</time></trkpt><trkpt lat="43.5297902" lon="11.0620599"><ele>73.0</ele><time>2026-03-29T14:09:12.143Z</time></trkpt><trkpt lat="43.5298593" lon="11.0621023"><ele>73.0</ele><time>2026-03-29T14:09:14.142Z</time></trkpt><trkpt lat="43.5299111" lon="11.0621562"><ele>73.0</ele><time>2026-03-29T14:09:15.115Z</time></trkpt><trkpt lat="43.529972" lon="11.0622161"><ele>73.0</ele><time>2026-03-29T14:09:16.118Z</time></trkpt><trkpt lat="43.5300371" lon="11.0622713"><ele>73.0</ele><time>2026-03-29T14:09:17.112Z</time></trkpt><trkpt lat="43.5300975" lon="11.0623161"><ele>73.0</ele><time>2026-03-29T14:09:18.116Z</time></trkpt><trkpt lat="43.5301817" lon="11.0623644"><ele>73.0</ele><time>2026-03-29T14:09:20.111Z</time></trkpt><trkpt lat="43.5302455" lon="11.0623513"><ele>73.0</ele><time>2026-03-29T14:09:22.149Z</time></trkpt><trkpt lat="43.5303578" lon="11.062233"><ele>73.0</ele><time>2026-03-29T14:09:24.111Z</time></trkpt><trkpt lat="43.5304282" lon="11.0621283"><ele>74.5</ele><time>2026-03-29T14:09:25.146Z</time></trkpt><trkpt lat="43.5305034" lon="11.0620042"><ele>76.0</ele><time>2026-03-29T14:09:26.115Z</time></trkpt><trkpt lat="43.5305859" lon="11.0618888"><ele>77.5</ele><time>2026-03-29T14:09:27.122Z</time></trkpt><trkpt lat="43.5306718" lon="11.0617769"><ele>79.0</ele><time>2026-03-29T14:09:28.135Z</time></trkpt><trkpt lat="43.5307639" lon="11.0616642"><ele>77.5</ele><time>2026-03-29T14:09:29.126Z</time></trkpt><trkpt lat="43.5308611" lon="11.0615496"><ele>76.0</ele><time>2026-03-29T14:09:30.119Z</time></trkpt><trkpt lat="43.5309633" lon="11.0614369"><ele>74.5</ele><time>2026-03-29T14:09:31.143Z</time></trkpt><trkpt lat="43.5310682" lon="11.0613148"><ele>73.0</ele><time>2026-03-29T14:09:32.114Z</time></trkpt><trkpt lat="43.5311782" lon="11.0611867"><ele>73.0</ele><time>2026-03-29T14:09:33.115Z</time></trkpt><trkpt lat="43.5312934" lon="11.0610541"><ele>73.0</ele><time>2026-03-29T14:09:34.12Z</time></trkpt><trkpt lat="43.5314101" lon="11.0609253"><ele>73.0</ele><time>2026-03-29T14:09:35.129Z</time></trkpt><trkpt lat="43.5315246" lon="11.0607995"><ele>73.0</ele><time>2026-03-29T14:09:36.118Z</time></trkpt><trkpt lat="43.5316349" lon="11.0606732"><ele>72.33333333333333</ele><time>2026-03-29T14:09:37.116Z</time></trkpt><trkpt lat="43.5317504" lon="11.0605446"><ele>71.66666666666667</ele><time>2026-03-29T14:09:38.12Z</time></trkpt><trkpt lat="43.5318714" lon="11.0604103"><ele>71.0</ele><time>2026-03-29T14:09:39.117Z</time></trkpt><trkpt lat="43.531991" lon="11.0602712"><ele>71.0</ele><time>2026-03-29T14:09:40.122Z</time></trkpt><trkpt lat="43.532115" lon="11.0601276"><ele>71.0</ele><time>2026-03-29T14:09:41.119Z</time></trkpt><trkpt lat="43.53224" lon="11.0599774"><ele>71.0</ele><time>2026-03-29T14:09:42.119Z</time></trkpt><trkpt lat="43.5323678" lon="11.059824"><ele>71.0</ele><time>2026-03-29T14:09:43.127Z</time></trkpt><trkpt lat="43.5324937" lon="11.059677"><ele>71.0</ele><time>2026-03-29T14:09:44.115Z</time></trkpt><trkpt lat="43.5326135" lon="11.0595412"><ele>71.0</ele><time>2026-03-29T14:09:45.118Z</time></trkpt><trkpt lat="43.5327225" lon="11.0594129"><ele>71.0</ele><time>2026-03-29T14:09:46.115Z</time></trkpt><trkpt lat="43.5328251" lon="11.059287"><ele>71.0</ele><time>2026-03-29T14:09:47.152Z</time></trkpt><trkpt lat="43.5329279" lon="11.0591586"><ele>71.0</ele><time>2026-03-29T14:09:48.146Z</time></trkpt><trkpt lat="43.5330305" lon="11.059027"><ele>71.0</ele><time>2026-03-29T14:09:49.116Z</time></trkpt><trkpt lat="43.5331355" lon="11.0588937"><ele>70.75</ele><time>2026-03-29T14:09:50.157Z</time></trkpt><trkpt lat="43.5332424" lon="11.0587617"><ele>70.5</ele><time>2026-03-29T14:09:51.128Z</time></trkpt><trkpt lat="43.5333508" lon="11.0586277"><ele>70.25</ele><time>2026-03-29T14:09:52.15Z</time></trkpt><trkpt lat="43.5334589" lon="11.0584895"><ele>70.0</ele><time>2026-03-29T14:09:53.12Z</time></trkpt><trkpt lat="43.5335631" lon="11.0583504"><ele>70.0</ele><time>2026-03-29T14:09:54.145Z</time></trkpt><trkpt lat="43.533664" lon="11.0582119"><ele>70.0</ele><time>2026-03-29T14:09:55.121Z</time></trkpt><trkpt lat="43.5337584" lon="11.0580678"><ele>70.0</ele><time>2026-03-29T14:09:56.148Z</time></trkpt><trkpt lat="43.5338464" lon="11.0579154"><ele>70.0</ele><time>2026-03-29T14:09:57.113Z</time></trkpt><trkpt lat="43.533925" lon="11.057756"><ele>70.0</ele><time>2026-03-29T14:09:58.146Z</time></trkpt><trkpt lat="43.5339907" lon="11.0575905"><ele>70.0</ele><time>2026-03-29T14:09:59.148Z</time></trkpt><trkpt lat="43.5340516" lon="11.0574194"><ele>70.0</ele><time>2026-03-29T14:10:00.141Z</time></trkpt><trkpt lat="43.534107" lon="11.0572466"><ele>70.0</ele><time>2026-03-29T14:10:01.113Z</time></trkpt><trkpt lat="43.5341654" lon="11.0570804"><ele>69.75</ele><time>2026-03-29T14:10:02.119Z</time></trkpt><trkpt lat="43.5342323" lon="11.0569218"><ele>69.5</ele><time>2026-03-29T14:10:03.128Z</time></trkpt><trkpt lat="43.5343099" lon="11.0567634"><ele>69.25</ele><time>2026-03-29T14:10:04.143Z</time></trkpt><trkpt lat="43.5344057" lon="11.0566148"><ele>69.0</ele><time>2026-03-29T14:10:05.148Z</time></trkpt><trkpt lat="43.5345166" lon="11.0564717"><ele>69.0</ele><time>2026-03-29T14:10:06.116Z</time></trkpt><trkpt lat="43.5346318" lon="11.0563374"><ele>69.0</ele><time>2026-03-29T14:10:07.116Z</time></trkpt><trkpt lat="43.534744" lon="11.0562105"><ele>69.0</ele><time>2026-03-29T14:10:08.124Z</time></trkpt><trkpt lat="43.5348535" lon="11.0560867"><ele>69.0</ele><time>2026-03-29T14:10:09.145Z</time></trkpt><trkpt lat="43.5349643" lon="11.055957"><ele>69.0</ele><time>2026-03-29T14:10:10.117Z</time></trkpt><trkpt lat="43.5350845" lon="11.0558259"><ele>69.0</ele><time>2026-03-29T14:10:11.118Z</time></trkpt><trkpt lat="43.5352091" lon="11.0556981"><ele>69.0</ele><time>2026-03-29T14:10:12.116Z</time></trkpt><trkpt lat="43.5353333" lon="11.0555792"><ele>69.0</ele><time>2026-03-29T14:10:13.113Z</time></trkpt><trkpt lat="43.5354582" lon="11.0554638"><ele>69.0</ele><time>2026-03-29T14:10:14.148Z</time></trkpt><trkpt lat="43.5355795" lon="11.0553453"><ele>69.0</ele><time>2026-03-29T14:10:15.11Z</time></trkpt><trkpt lat="43.5356906" lon="11.0552302"><ele>69.0</ele><time>2026-03-29T14:10:16.113Z</time></trkpt><trkpt lat="43.5357844" lon="11.0551087"><ele>69.0</ele><time>2026-03-29T14:10:17.116Z</time></trkpt><trkpt lat="43.5358637" lon="11.0549796"><ele>69.0</ele><time>2026-03-29T14:10:18.119Z</time></trkpt><trkpt lat="43.5359347" lon="11.0548495"><ele>69.0</ele><time>2026-03-29T14:10:19.142Z</time></trkpt><trkpt lat="43.5359938" lon="11.054716"><ele>69.0</ele><time>2026-03-29T14:10:20.119Z</time></trkpt><trkpt lat="43.5360467" lon="11.0545825"><ele>68.8</ele><time>2026-03-29T14:10:21.116Z</time></trkpt><trkpt lat="43.5360995" lon="11.0544557"><ele>68.60000000000001</ele><time>2026-03-29T14:10:22.127Z</time></trkpt><trkpt lat="43.5361522" lon="11.0543285"><ele>68.4</ele><time>2026-03-29T14:10:23.115Z</time></trkpt><trkpt lat="43.5362027" lon="11.0542023"><ele>68.2</ele><time>2026-03-29T14:10:24.115Z</time></trkpt><trkpt lat="43.5362595" lon="11.054081"><ele>68.0</ele><time>2026-03-29T14:10:25.112Z</time></trkpt><trkpt lat="43.5363229" lon="11.0539707"><ele>68.8</ele><time>2026-03-29T14:10:26.117Z</time></trkpt><trkpt lat="43.5363915" lon="11.0538619"><ele>69.6</ele><time>2026-03-29T14:10:27.144Z</time></trkpt><trkpt lat="43.5364657" lon="11.053757"><ele>70.4</ele><time>2026-03-29T14:10:28.112Z</time></trkpt><trkpt lat="43.5365402" lon="11.0536627"><ele>71.2</ele><time>2026-03-29T14:10:29.113Z</time></trkpt><trkpt lat="43.5366127" lon="11.0535697"><ele>72.0</ele><time>2026-03-29T14:10:30.141Z</time></trkpt><trkpt lat="43.536686" lon="11.0534829"><ele>72.0</ele><time>2026-03-29T14:10:31.133Z</time></trkpt><trkpt lat="43.5367572" lon="11.0533931"><ele>72.0</ele><time>2026-03-29T14:10:32.115Z</time></trkpt><trkpt lat="43.5368227" lon="11.0533001"><ele>72.0</ele><time>2026-03-29T14:10:33.13Z</time></trkpt><trkpt lat="43.5368835" lon="11.0532112"><ele>72.0</ele><time>2026-03-29T14:10:34.118Z</time></trkpt><trkpt lat="43.5369397" lon="11.0531211"><ele>72.0</ele><time>2026-03-29T14:10:35.118Z</time></trkpt><trkpt lat="43.5369883" lon="11.0530375"><ele>72.0</ele><time>2026-03-29T14:10:36.123Z</time></trkpt><trkpt lat="43.5370296" lon="11.0529582"><ele>76.16666666666667</ele><time>2026-03-29T14:10:37.111Z</time></trkpt><trkpt lat="43.5370584" lon="11.0528745"><ele>80.33333333333334</ele><time>2026-03-29T14:10:38.12Z</time></trkpt><trkpt lat="43.5370718" lon="11.0527808"><ele>84.5</ele><time>2026-03-29T14:10:39.114Z</time></trkpt><trkpt lat="43.5370765" lon="11.0526785"><ele>88.66666666666667</ele><time>2026-03-29T14:10:40.117Z</time></trkpt><trkpt lat="43.5370826" lon="11.0525722"><ele>92.83333333333334</ele><time>2026-03-29T14:10:41.116Z</time></trkpt><trkpt lat="43.5370896" lon="11.0524546"><ele>97.0</ele><time>2026-03-29T14:10:42.119Z</time></trkpt><trkpt lat="43.5370906" lon="11.0523249"><ele>97.19999999999999</ele><time>2026-03-29T14:10:43.145Z</time></trkpt><trkpt lat="43.5370965" lon="11.0521903"><ele>97.4</ele><time>2026-03-29T14:10:44.114Z</time></trkpt><trkpt lat="43.5371088" lon="11.0520587"><ele>97.6</ele><time>2026-03-29T14:10:45.114Z</time></trkpt><trkpt lat="43.5371173" lon="11.051925"><ele>97.80000000000001</ele><time>2026-03-29T14:10:46.146Z</time></trkpt><trkpt lat="43.5371309" lon="11.0518052"><ele>98.0</ele><time>2026-03-29T14:10:47.112Z</time></trkpt><trkpt lat="43.5371521" lon="11.0516999"><ele>96.60000000000001</ele><time>2026-03-29T14:10:48.112Z</time></trkpt><trkpt lat="43.5371764" lon="11.0516059"><ele>95.2</ele><time>2026-03-29T14:10:49.117Z</time></trkpt><trkpt lat="43.5371885" lon="11.0514691"><ele>93.8</ele><time>2026-03-29T14:10:51.14Z</time></trkpt><trkpt lat="43.537144" lon="11.051345"><ele>92.4</ele><time>2026-03-29T14:10:53.121Z</time></trkpt><trkpt lat="43.537149" lon="11.0511603"><ele>91.0</ele><time>2026-03-29T14:10:55.111Z</time></trkpt><trkpt lat="43.5371781" lon="11.0510339"><ele>91.0</ele><time>2026-03-29T14:10:56.152Z</time></trkpt><trkpt lat="43.5372132" lon="11.0508954"><ele>91.0</ele><time>2026-03-29T14:10:57.127Z</time></trkpt><trkpt lat="43.5372476" lon="11.0507511"><ele>91.0</ele><time>2026-03-29T14:10:58.118Z</time></trkpt><trkpt lat="43.5372816" lon="11.0506143"><ele>91.0</ele><time>2026-03-29T14:10:59.114Z</time></trkpt><trkpt lat="43.5373168" lon="11.0504829"><ele>91.0</ele><time>2026-03-29T14:11:00.126Z</time></trkpt><trkpt lat="43.5373535" lon="11.050353"><ele>89.0</ele><time>2026-03-29T14:11:01.163Z</time></trkpt><trkpt lat="43.5373912" lon="11.0502186"><ele>87.0</ele><time>2026-03-29T14:11:02.152Z</time></trkpt><trkpt lat="43.5374252" lon="11.0500746"><ele>85.0</ele><time>2026-03-29T14:11:03.114Z</time></trkpt><trkpt lat="43.537461" lon="11.0499355"><ele>83.0</ele><time>2026-03-29T14:11:04.114Z</time></trkpt><trkpt lat="43.5374938" lon="11.0498"><ele>81.0</ele><time>2026-03-29T14:11:05.111Z</time></trkpt><trkpt lat="43.5375268" lon="11.0496708"><ele>79.39999999999999</ele><time>2026-03-29T14:11:06.125Z</time></trkpt><trkpt lat="43.5375616" lon="11.0495426"><ele>77.8</ele><time>2026-03-29T14:11:07.131Z</time></trkpt><trkpt lat="43.5375988" lon="11.0494117"><ele>76.19999999999999</ele><time>2026-03-29T14:11:08.111Z</time></trkpt><trkpt lat="43.5376443" lon="11.0492696"><ele>74.6</ele><time>2026-03-29T14:11:09.147Z</time></trkpt><trkpt lat="43.5376906" lon="11.0491183"><ele>73.0</ele><time>2026-03-29T14:11:10.132Z</time></trkpt><trkpt lat="43.5377344" lon="11.0489576"><ele>72.0</ele><time>2026-03-29T14:11:11.108Z</time></trkpt><trkpt lat="43.5377752" lon="11.048787"><ele>71.0</ele><time>2026-03-29T14:11:12.138Z</time></trkpt><trkpt lat="43.5378196" lon="11.0486104"><ele>70.0</ele><time>2026-03-29T14:11:13.127Z</time></trkpt><trkpt lat="43.5378658" lon="11.0484371"><ele>69.0</ele><time>2026-03-29T14:11:14.111Z</time></trkpt><trkpt lat="43.5379108" lon="11.0482733"><ele>70.60000000000001</ele><time>2026-03-29T14:11:15.122Z</time></trkpt><trkpt lat="43.5379533" lon="11.0481245"><ele>72.2</ele><time>2026-03-29T14:11:16.117Z</time></trkpt><trkpt lat="43.5379932" lon="11.0479906"><ele>73.80000000000001</ele><time>2026-03-29T14:11:17.15Z</time></trkpt><trkpt lat="43.538027" lon="11.0478725"><ele>75.4</ele><time>2026-03-29T14:11:18.145Z</time></trkpt><trkpt lat="43.5380603" lon="11.0477603"><ele>77.0</ele><time>2026-03-29T14:11:19.122Z</time></trkpt><trkpt lat="43.5380933" lon="11.0476548"><ele>77.0</ele><time>2026-03-29T14:11:20.116Z</time></trkpt><trkpt lat="43.5381202" lon="11.0475715"><ele>77.0</ele><time>2026-03-29T14:11:21.123Z</time></trkpt><trkpt lat="43.5381473" lon="11.0474674"><ele>77.0</ele><time>2026-03-29T14:11:23.121Z</time></trkpt><trkpt lat="43.5381694" lon="11.0473723"><ele>77.0</ele><time>2026-03-29T14:11:26.161Z</time></trkpt><trkpt lat="43.5382131" lon="11.0472274"><ele>77.0</ele><time>2026-03-29T14:11:28.116Z</time></trkpt><trkpt lat="43.5382462" lon="11.0471193"><ele>77.0</ele><time>2026-03-29T14:11:29.118Z</time></trkpt><trkpt lat="43.5382742" lon="11.0470122"><ele>76.4</ele><time>2026-03-29T14:11:30.113Z</time></trkpt><trkpt lat="43.5383058" lon="11.0468975"><ele>75.80000000000001</ele><time>2026-03-29T14:11:31.115Z</time></trkpt><trkpt lat="43.5383439" lon="11.0467655"><ele>75.2</ele><time>2026-03-29T14:11:32.114Z</time></trkpt><trkpt lat="43.53839" lon="11.0466223"><ele>74.60000000000001</ele><time>2026-03-29T14:11:33.111Z</time></trkpt><trkpt lat="43.5384376" lon="11.0464777"><ele>74.0</ele><time>2026-03-29T14:11:34.135Z</time></trkpt><trkpt lat="43.5384847" lon="11.0463308"><ele>73.5</ele><time>2026-03-29T14:11:35.111Z</time></trkpt><trkpt lat="43.5385326" lon="11.0461854"><ele>73.0</ele><time>2026-03-29T14:11:36.111Z</time></trkpt><trkpt lat="43.53858" lon="11.0460363"><ele>72.5</ele><time>2026-03-29T14:11:37.114Z</time></trkpt><trkpt lat="43.5386264" lon="11.0458814"><ele>72.0</ele><time>2026-03-29T14:11:38.113Z</time></trkpt><trkpt lat="43.5386756" lon="11.045729"><ele>74.0</ele><time>2026-03-29T14:11:39.115Z</time></trkpt><trkpt lat="43.5387283" lon="11.0455744"><ele>76.0</ele><time>2026-03-29T14:11:40.147Z</time></trkpt><trkpt lat="43.5387847" lon="11.0454269"><ele>78.0</ele><time>2026-03-29T14:11:41.11Z</time></trkpt><trkpt lat="43.5388483" lon="11.0452994"><ele>80.0</ele><time>2026-03-29T14:11:42.146Z</time></trkpt><trkpt lat="43.538921" lon="11.0451946"><ele>80.0</ele><time>2026-03-29T14:11:43.147Z</time></trkpt><trkpt lat="43.5389991" lon="11.0451085"><ele>80.0</ele><time>2026-03-29T14:11:44.114Z</time></trkpt><trkpt lat="43.53908" lon="11.0450454"><ele>80.0</ele><time>2026-03-29T14:11:45.111Z</time></trkpt><trkpt lat="43.5391702" lon="11.0449958"><ele>80.0</ele><time>2026-03-29T14:11:46.113Z</time></trkpt><trkpt lat="43.5392679" lon="11.0449584"><ele>80.0</ele><time>2026-03-29T14:11:47.116Z</time></trkpt><trkpt lat="43.5393776" lon="11.0449357"><ele>79.0</ele><time>2026-03-29T14:11:48.123Z</time></trkpt><trkpt lat="43.5394923" lon="11.0449279"><ele>78.0</ele><time>2026-03-29T14:11:49.148Z</time></trkpt><trkpt lat="43.5396096" lon="11.0449421"><ele>77.0</ele><time>2026-03-29T14:11:50.118Z</time></trkpt><trkpt lat="43.5397271" lon="11.044967"><ele>76.0</ele><time>2026-03-29T14:11:51.113Z</time></trkpt><trkpt lat="43.5398382" lon="11.0449974"><ele>76.0</ele><time>2026-03-29T14:11:52.113Z</time></trkpt><trkpt lat="43.5399538" lon="11.0450197"><ele>76.0</ele><time>2026-03-29T14:11:53.113Z</time></trkpt><trkpt lat="43.5400735" lon="11.0450334"><ele>76.0</ele><time>2026-03-29T14:11:54.149Z</time></trkpt><trkpt lat="43.5401847" lon="11.0450305"><ele>76.0</ele><time>2026-03-29T14:11:55.111Z</time></trkpt><trkpt lat="43.540294" lon="11.0450201"><ele>75.6</ele><time>2026-03-29T14:11:56.116Z</time></trkpt><trkpt lat="43.5404029" lon="11.0450039"><ele>75.19999999999999</ele><time>2026-03-29T14:11:57.113Z</time></trkpt><trkpt lat="43.5405089" lon="11.0449875"><ele>74.80000000000001</ele><time>2026-03-29T14:11:58.115Z</time></trkpt><trkpt lat="43.5406082" lon="11.0449659"><ele>74.4</ele><time>2026-03-29T14:11:59.122Z</time></trkpt><trkpt lat="43.5407" lon="11.0449425"><ele>74.0</ele><time>2026-03-29T14:12:00.109Z</time></trkpt><trkpt lat="43.5407918" lon="11.0449227"><ele>73.8</ele><time>2026-03-29T14:12:01.112Z</time></trkpt><trkpt lat="43.5408899" lon="11.0449041"><ele>73.60000000000001</ele><time>2026-03-29T14:12:02.111Z</time></trkpt><trkpt lat="43.5409848" lon="11.0448862"><ele>73.4</ele><time>2026-03-29T14:12:03.116Z</time></trkpt><trkpt lat="43.5410784" lon="11.0448673"><ele>73.2</ele><time>2026-03-29T14:12:04.123Z</time></trkpt><trkpt lat="43.54117" lon="11.0448464"><ele>73.0</ele><time>2026-03-29T14:12:05.113Z</time></trkpt><trkpt lat="43.5412438" lon="11.0448314"><ele>72.6</ele><time>2026-03-29T14:12:06.116Z</time></trkpt><trkpt lat="43.5413311" lon="11.0448"><ele>72.19999999999999</ele><time>2026-03-29T14:12:08.113Z</time></trkpt><trkpt lat="43.5414107" lon="11.0447861"><ele>71.8</ele><time>2026-03-29T14:12:10.116Z</time></trkpt><trkpt lat="43.5415395" lon="11.0447621"><ele>71.39999999999999</ele><time>2026-03-29T14:12:12.119Z</time></trkpt><trkpt lat="43.5416279" lon="11.0447498"><ele>71.0</ele><time>2026-03-29T14:12:13.114Z</time></trkpt><trkpt lat="43.5417224" lon="11.0447346"><ele>71.0</ele><time>2026-03-29T14:12:14.115Z</time></trkpt><trkpt lat="43.5418132" lon="11.0447285"><ele>71.0</ele><time>2026-03-29T14:12:15.115Z</time></trkpt><trkpt lat="43.5419005" lon="11.0447315"><ele>71.0</ele><time>2026-03-29T14:12:16.11Z</time></trkpt><trkpt lat="43.5419897" lon="11.0447493"><ele>71.0</ele><time>2026-03-29T14:12:17.118Z</time></trkpt><trkpt lat="43.5420824" lon="11.0447602"><ele>71.0</ele><time>2026-03-29T14:12:18.147Z</time></trkpt><trkpt lat="43.542171" lon="11.0447643"><ele>71.2</ele><time>2026-03-29T14:12:19.116Z</time></trkpt><trkpt lat="43.5422658" lon="11.0447627"><ele>71.39999999999999</ele><time>2026-03-29T14:12:20.111Z</time></trkpt><trkpt lat="43.542363" lon="11.0447574"><ele>71.6</ele><time>2026-03-29T14:12:21.146Z</time></trkpt><trkpt lat="43.5424612" lon="11.0447467"><ele>71.8</ele><time>2026-03-29T14:12:22.118Z</time></trkpt><trkpt lat="43.5425544" lon="11.0447377"><ele>72.0</ele><time>2026-03-29T14:12:23.12Z</time></trkpt><trkpt lat="43.5426356" lon="11.0447322"><ele>72.0</ele><time>2026-03-29T14:12:24.121Z</time></trkpt><trkpt lat="43.5427029" lon="11.0447265"><ele>72.0</ele><time>2026-03-29T14:12:25.12Z</time></trkpt><trkpt lat="43.5427964" lon="11.044723"><ele>72.0</ele><time>2026-03-29T14:12:27.113Z</time></trkpt><trkpt lat="43.5428692" lon="11.0446971"><ele>72.0</ele><time>2026-03-29T14:12:30.118Z</time></trkpt><trkpt lat="43.5429648" lon="11.0446745"><ele>72.0</ele><time>2026-03-29T14:13:06.129Z</time></trkpt><trkpt lat="43.5430871" lon="11.0446438"><ele>71.6</ele><time>2026-03-29T14:13:08.113Z</time></trkpt><trkpt lat="43.5431598" lon="11.0446192"><ele>71.2</ele><time>2026-03-29T14:13:09.117Z</time></trkpt><trkpt lat="43.543249" lon="11.0445908"><ele>70.8</ele><time>2026-03-29T14:13:10.121Z</time></trkpt><trkpt lat="43.5433443" lon="11.0445609"><ele>70.4</ele><time>2026-03-29T14:13:11.118Z</time></trkpt><trkpt lat="43.5434348" lon="11.0445297"><ele>70.0</ele><time>2026-03-29T14:13:12.122Z</time></trkpt><trkpt lat="43.5435255" lon="11.0444977"><ele>70.0</ele><time>2026-03-29T14:13:13.13Z</time></trkpt><trkpt lat="43.5436161" lon="11.0444613"><ele>70.0</ele><time>2026-03-29T14:13:14.119Z</time></trkpt><trkpt lat="43.543716" lon="11.0444324"><ele>70.0</ele><time>2026-03-29T14:13:15.132Z</time></trkpt><trkpt lat="43.5438162" lon="11.0444123"><ele>70.0</ele><time>2026-03-29T14:13:16.152Z</time></trkpt><trkpt lat="43.5439216" lon="11.044406"><ele>70.0</ele><time>2026-03-29T14:13:17.122Z</time></trkpt><trkpt lat="43.5440275" lon="11.044413"><ele>70.2</ele><time>2026-03-29T14:13:18.117Z</time></trkpt><trkpt lat="43.5441349" lon="11.0444408"><ele>70.4</ele><time>2026-03-29T14:13:19.119Z</time></trkpt><trkpt lat="43.5442427" lon="11.0444838"><ele>70.6</ele><time>2026-03-29T14:13:20.129Z</time></trkpt><trkpt lat="43.5443488" lon="11.044535"><ele>70.8</ele><time>2026-03-29T14:13:21.117Z</time></trkpt><trkpt lat="43.5444561" lon="11.0445863"><ele>71.0</ele><time>2026-03-29T14:13:22.117Z</time></trkpt><trkpt lat="43.5445562" lon="11.044638"><ele>71.2</ele><time>2026-03-29T14:13:23.124Z</time></trkpt><trkpt lat="43.5446536" lon="11.0446888"><ele>71.39999999999999</ele><time>2026-03-29T14:13:24.127Z</time></trkpt><trkpt lat="43.5447517" lon="11.0447366"><ele>71.6</ele><time>2026-03-29T14:13:25.155Z</time></trkpt><trkpt lat="43.5448506" lon="11.0447784"><ele>71.8</ele><time>2026-03-29T14:13:26.114Z</time></trkpt><trkpt lat="43.5449466" lon="11.0448176"><ele>72.0</ele><time>2026-03-29T14:13:27.115Z</time></trkpt><trkpt lat="43.5450378" lon="11.0448521"><ele>72.0</ele><time>2026-03-29T14:13:28.131Z</time></trkpt><trkpt lat="43.5451235" lon="11.0448862"><ele>72.0</ele><time>2026-03-29T14:13:29.153Z</time></trkpt><trkpt lat="43.545206" lon="11.0449201"><ele>72.0</ele><time>2026-03-29T14:13:30.127Z</time></trkpt><trkpt lat="43.5452817" lon="11.044949"><ele>72.0</ele><time>2026-03-29T14:13:31.147Z</time></trkpt><trkpt lat="43.5453466" lon="11.0449719"><ele>72.0</ele><time>2026-03-29T14:13:32.117Z</time></trkpt><trkpt lat="43.5454484" lon="11.0450156"><ele>72.0</ele><time>2026-03-29T14:13:34.122Z</time></trkpt><trkpt lat="43.5455282" lon="11.0450496"><ele>71.83333333333333</ele><time>2026-03-29T14:13:36.121Z</time></trkpt><trkpt lat="43.5455797" lon="11.0451304"><ele>71.66666666666667</ele><time>2026-03-29T14:13:38.149Z</time></trkpt><trkpt lat="43.5456195" lon="11.0452224"><ele>71.5</ele><time>2026-03-29T14:13:40.118Z</time></trkpt><trkpt lat="43.5456866" lon="11.0452149"><ele>71.33333333333334</ele><time>2026-03-29T14:13:42.115Z</time></trkpt><trkpt lat="43.5457991" lon="11.0451453"><ele>71.16666666666667</ele><time>2026-03-29T14:13:44.155Z</time></trkpt><trkpt lat="43.5458758" lon="11.0451288"><ele>71.0</ele><time>2026-03-29T14:13:45.109Z</time></trkpt><trkpt lat="43.5459576" lon="11.0451214"><ele>71.0</ele><time>2026-03-29T14:13:46.114Z</time></trkpt><trkpt lat="43.5460353" lon="11.0450851"><ele>71.0</ele><time>2026-03-29T14:13:47.122Z</time></trkpt><trkpt lat="43.5461033" lon="11.0450306"><ele>71.0</ele><time>2026-03-29T14:13:48.125Z</time></trkpt><trkpt lat="43.5461518" lon="11.0449602"><ele>71.0</ele><time>2026-03-29T14:13:49.141Z</time></trkpt><trkpt lat="43.546193" lon="11.0448895"><ele>71.0</ele><time>2026-03-29T14:13:50.113Z</time></trkpt><trkpt lat="43.5462561" lon="11.0447506"><ele>71.0</ele><time>2026-03-29T14:13:52.115Z</time></trkpt><trkpt lat="43.5462938" lon="11.0446751"><ele>71.71428571428571</ele><time>2026-03-29T14:13:53.118Z</time></trkpt><trkpt lat="43.5463333" lon="11.0446053"><ele>72.42857142857142</ele><time>2026-03-29T14:13:54.109Z</time></trkpt><trkpt lat="43.5463767" lon="11.0445353"><ele>73.14285714285714</ele><time>2026-03-29T14:13:55.114Z</time></trkpt><trkpt lat="43.5464235" lon="11.0444524"><ele>73.85714285714286</ele><time>2026-03-29T14:13:56.116Z</time></trkpt><trkpt lat="43.546472" lon="11.0443661"><ele>74.57142857142858</ele><time>2026-03-29T14:13:57.144Z</time></trkpt><trkpt lat="43.5465194" lon="11.044282"><ele>75.28571428571428</ele><time>2026-03-29T14:13:58.114Z</time></trkpt><trkpt lat="43.546577" lon="11.0442023"><ele>76.0</ele><time>2026-03-29T14:13:59.118Z</time></trkpt><trkpt lat="43.5466309" lon="11.0441128"><ele>76.0</ele><time>2026-03-29T14:14:00.116Z</time></trkpt><trkpt lat="43.5466791" lon="11.0440207"><ele>76.0</ele><time>2026-03-29T14:14:01.146Z</time></trkpt><trkpt lat="43.5467286" lon="11.0439222"><ele>76.0</ele><time>2026-03-29T14:14:02.11Z</time></trkpt><trkpt lat="43.5467852" lon="11.0438303"><ele>76.0</ele><time>2026-03-29T14:14:03.111Z</time></trkpt><trkpt lat="43.5468441" lon="11.0437288"><ele>76.0</ele><time>2026-03-29T14:14:04.114Z</time></trkpt><trkpt lat="43.5468929" lon="11.0436166"><ele>76.0</ele><time>2026-03-29T14:14:05.113Z</time></trkpt><trkpt lat="43.5469393" lon="11.043498"><ele>76.0</ele><time>2026-03-29T14:14:06.112Z</time></trkpt><trkpt lat="43.5469796" lon="11.0433937"><ele>76.0</ele><time>2026-03-29T14:14:07.119Z</time></trkpt><trkpt lat="43.5470123" lon="11.0433041"><ele>76.0</ele><time>2026-03-29T14:14:08.118Z</time></trkpt><trkpt lat="43.5470399" lon="11.0431902"><ele>76.0</ele><time>2026-03-29T14:14:10.113Z</time></trkpt><trkpt lat="43.5470389" lon="11.0430806"><ele>76.0</ele><time>2026-03-29T14:14:13.111Z</time></trkpt><trkpt lat="43.5470384" lon="11.0429439"><ele>76.0</ele><time>2026-03-29T14:14:15.114Z</time></trkpt><trkpt lat="43.5470845" lon="11.0427886"><ele>76.16666666666666</ele><time>2026-03-29T14:14:17.125Z</time></trkpt><trkpt lat="43.5471463" lon="11.0426446"><ele>76.33333333333333</ele><time>2026-03-29T14:14:19.109Z</time></trkpt><trkpt lat="43.5471641" lon="11.0425598"><ele>76.5</ele><time>2026-03-29T14:14:20.116Z</time></trkpt><trkpt lat="43.547188" lon="11.0424753"><ele>76.66666666666667</ele><time>2026-03-29T14:14:21.113Z</time></trkpt><trkpt lat="43.5472147" lon="11.0423857"><ele>76.83333333333334</ele><time>2026-03-29T14:14:22.114Z</time></trkpt><trkpt lat="43.5472585" lon="11.0422965"><ele>77.0</ele><time>2026-03-29T14:14:23.142Z</time></trkpt><trkpt lat="43.5473133" lon="11.0422096"><ele>77.0</ele><time>2026-03-29T14:14:24.109Z</time></trkpt><trkpt lat="43.5473709" lon="11.0421268"><ele>77.0</ele><time>2026-03-29T14:14:25.112Z</time></trkpt><trkpt lat="43.5474316" lon="11.0420466"><ele>77.0</ele><time>2026-03-29T14:14:26.12Z</time></trkpt><trkpt lat="43.5474942" lon="11.0419709"><ele>77.0</ele><time>2026-03-29T14:14:27.115Z</time></trkpt><trkpt lat="43.5475569" lon="11.0419025"><ele>77.0</ele><time>2026-03-29T14:14:28.109Z</time></trkpt><trkpt lat="43.5476112" lon="11.041836"><ele>77.0</ele><time>2026-03-29T14:14:29.117Z</time></trkpt><trkpt lat="43.5476599" lon="11.0417762"><ele>77.0</ele><time>2026-03-29T14:14:30.114Z</time></trkpt><trkpt lat="43.5477301" lon="11.0416815"><ele>77.0</ele><time>2026-03-29T14:14:32.117Z</time></trkpt><trkpt lat="43.5477102" lon="11.0415825"><ele>77.0</ele><time>2026-03-29T14:14:35.116Z</time></trkpt><trkpt lat="43.5476571" lon="11.0414989"><ele>77.0</ele><time>2026-03-29T14:14:38.109Z</time></trkpt><trkpt lat="43.5476159" lon="11.0414156"><ele>77.0</ele><time>2026-03-29T14:14:40.11Z</time></trkpt><trkpt lat="43.5475758" lon="11.041345"><ele>77.0</ele><time>2026-03-29T14:14:42.115Z</time></trkpt><trkpt lat="43.5475275" lon="11.0412538"><ele>76.42857142857143</ele><time>2026-03-29T14:14:45.113Z</time></trkpt><trkpt lat="43.5474932" lon="11.041166"><ele>75.85714285714286</ele><time>2026-03-29T14:14:48.114Z</time></trkpt><trkpt lat="43.5474408" lon="11.0411072"><ele>75.28571428571428</ele><time>2026-03-29T14:15:00.112Z</time></trkpt><trkpt lat="43.5474553" lon="11.0411945"><ele>74.71428571428572</ele><time>2026-03-29T14:17:15.115Z</time></trkpt><trkpt lat="43.5474865" lon="11.0412821"><ele>74.14285714285714</ele><time>2026-03-29T14:17:21.118Z</time></trkpt><trkpt lat="43.5475151" lon="11.0413657"><ele>73.57142857142857</ele><time>2026-03-29T14:17:27.124Z</time></trkpt><trkpt lat="43.5475763" lon="11.0413917"><ele>73.0</ele><time>2026-03-29T14:17:42.14Z</time></trkpt><trkpt lat="43.5475836" lon="11.0414784"><ele>73.0</ele><time>2026-03-29T14:17:47.111Z</time></trkpt><trkpt lat="43.5476249" lon="11.041566"><ele>73.0</ele><time>2026-03-29T14:17:58.112Z</time></trkpt><trkpt lat="43.5476802" lon="11.0415163"><ele>73.0</ele><time>2026-03-29T14:21:53.114Z</time></trkpt><trkpt lat="43.5477531" lon="11.0414859"><ele>73.0</ele><time>2026-03-29T14:21:58.133Z</time></trkpt><trkpt lat="43.5478188" lon="11.0414463"><ele>73.0</ele><time>2026-03-29T14:22:05.113Z</time></trkpt><trkpt lat="43.5478739" lon="11.0414023"><ele>73.0</ele><time>2026-03-29T14:22:11.143Z</time></trkpt><trkpt lat="43.5479312" lon="11.0413559"><ele>73.0</ele><time>2026-03-29T14:22:20.114Z</time></trkpt><trkpt lat="43.5479304" lon="11.0412644"><ele>73.0</ele><time>2026-03-29T14:22:33.123Z</time></trkpt><trkpt lat="43.5479482" lon="11.0411748"><ele>73.0</ele><time>2026-03-29T14:22:39.124Z</time></trkpt><trkpt lat="43.5479596" lon="11.0410888"><ele>73.0</ele><time>2026-03-29T14:22:45.11Z</time></trkpt><trkpt lat="43.5479525" lon="11.0410003"><ele>73.0</ele><time>2026-03-29T14:22:52.115Z</time></trkpt><trkpt lat="43.547938" lon="11.0409113"><ele>73.0</ele><time>2026-03-29T14:22:57.117Z</time></trkpt><trkpt lat="43.5479284" lon="11.040814"><ele>73.0</ele><time>2026-03-29T14:23:02.115Z</time></trkpt><trkpt lat="43.5479262" lon="11.040719"><ele>71.0</ele><time>2026-03-29T14:23:09.134Z</time></trkpt></trkseg></trk></gpx>